# Wetter Temperatur Luftdruck Luftfeuchtigkeit Sichtweite Windgeschwindigkeit Windrichtung Zeit
1 Clouds 4 1033 83 10000 2.57 170 14:59 23.01.2022
2 Clouds 4 1033 81 10000 1.03 0 14:25 23.01.2022
3 Clouds 3 1034 87 10000 1.03 0 12:59 23.01.2022
4 Clouds 2 1035 89 10000 0.51 0 12:22 23.01.2022
5 Snow 2 1035 91 7000 0.51 0 11:59 23.01.2022
6 Snow 1 1035 94 7000 1.03 0 11:19 23.01.2022
7 Clouds 1 1035 94 6000 2.06 260 10:27 23.01.2022
8 Clouds 1 1035 94 6000 2.57 270 09:51 23.01.2022
9 Mist -1 1034 98 4000 3.09 260 08:54 23.01.2022
10 Mist 0 1032 100 5000 2.57 260 05:57 23.01.2022
11 Mist 0 1032 100 4100 1.54 280 01:52 23.01.2022
12 Mist 0 1032 100 4800 0.51 0 01:27 23.01.2022
13 Mist 0 1033 94 4300 0.51 0 00:23 23.01.2022
14 Mist 0 1033 94 5000 1.54 110 23:56 22.01.2022
15 Mist 1 1034 94 3000 1.03 70 22:46 22.01.2022
16 Mist 1 1034 97 3000 1.03 0 21:36 22.01.2022
17 Snow 0 1033 97 3000 0.51 0 20:21 22.01.2022
18 Mist 0 1033 96 3000 1.03 0 18:56 22.01.2022
19 Mist 0 1032 96 3000 0.51 0 18:24 22.01.2022
20 Snow 0 1032 96 2200 0.51 0 17:40 22.01.2022
21 Mist 0 1032 94 2000 0.51 0 16:56 22.01.2022
22 Snow 0 1032 93 2500 0.51 0 15:53 22.01.2022
23 Snow 0 1031 93 3000 1.03 0 15:26 22.01.2022
24 Snow 0 1031 92 1800 2.06 100 13:51 22.01.2022
25 Clouds 0 1031 91 1800 2.57 70 12:53 22.01.2022
26 Clouds 0 1032 90 1700 1.03 0 12:29 22.01.2022
27 Snow 0 1032 86 2000 0.51 0 11:44 22.01.2022
28 Clouds -1 1031 74 10000 0.51 0 10:29 22.01.2022
29 Clouds -1 1031 73 10000 0.51 0 09:59 22.01.2022
30 Clouds 0 1030 69 10000 2.06 60 08:53 22.01.2022
31 Clouds 0 1030 59 10000 1.54 110 07:56 22.01.2022
32 Clouds -1 1030 64 10000 2.06 70 04:53 22.01.2022
33 Clouds -1 1031 69 10000 1.03 0 01:49 22.01.2022
34 Clouds 0 1031 59 10000 1.54 80 23:46 21.01.2022
35 Clouds 0 1032 55 10000 2.57 60 22:36 21.01.2022
36 Clouds -11 1042 95 10000 1.79 212 20:32 21.01.2022
37 Clouds 1 1031 44 10000 3.6 240 18:40 21.01.2022
38 Clouds 1 1030 40 10000 3.09 300 17:44 21.01.2022
39 Clouds 1 1029 38 10000 5.66 340 15:47 21.01.2022
40 Clouds 1 1029 49 10000 5.66 350 13:55 21.01.2022
41 Clouds 0 1032 77 10000 1.48 303 12:39 21.01.2022
42 Clouds -3 1034 86 10000 1.49 304 11:28 21.01.2022
43 Clouds -1 1030 80 10000 0.51 0 10:22 21.01.2022
44 Clouds -1 1028 80 10000 2.57 90 08:25 21.01.2022
45 Clouds -1 1028 80 10000 2.57 90 08:25 21.01.2022
46 Clouds -2 1028 86 10000 1.54 60 07:19 21.01.2022
47 Clouds 0 1026 69 10000 2.06 110 00:59 21.01.2022
48 Clouds 0 1024 80 10000 4.63 100 22:45 20.01.2022
49 Snow -1 1032 97 1611 1.06 235 21:48 20.01.2022
50 Snow 0 1033 98 6201 0.89 248 20:56 20.01.2022
51 Clouds 3 1023 45 10000 6.69 330 19:21 20.01.2022
52 Clouds 2 1023 75 10000 1.54 0 18:51 20.01.2022
53 Clouds 3 1023 70 10000 1.54 100 17:32 20.01.2022
54 Clouds 3 1023 80 10000 2.06 60 15:46 20.01.2022
55 Clouds 3 1023 79 10000 4.12 70 15:25 20.01.2022
56 Clouds 1 1023 76 10000 2.57 70 13:53 20.01.2022
57 Clouds 2 1023 69 10000 1.54 100 12:43 20.01.2022
58 Clouds 2 1023 70 10000 1.03 0 12:21 20.01.2022
59 Clouds 1 1024 75 10000 1.03 0 10:55 20.01.2022
60 Clouds 0 1023 79 10000 1.54 60 09:43 20.01.2022
61 Clouds -1 1024 80 10000 0.51 0 08:36 20.01.2022
62 Clouds -3 1023 84 10000 1.54 260 06:18 20.01.2022
63 Clouds -4 1024 85 10000 1.54 0 23:52 19.01.2022
64 Clear -4 1023 81 10000 0.51 0 22:37 19.01.2022
65 Clear -3 1023 80 10000 0.51 0 21:26 19.01.2022
66 Clear -3 1023 80 10000 0.51 0 20:55 19.01.2022
67 Clear -3 1023 79 10000 0.51 0 20:24 19.01.2022
68 Clear 0 1023 69 10000 0.51 0 18:49 19.01.2022
69 Clear 0 1023 69 10000 0.51 0 18:49 19.01.2022
70 Clear 0 1023 64 10000 0.51 0 17:50 19.01.2022
71 Clear 1 1023 60 10000 1.03 0 17:18 19.01.2022
72 Clear 7 1024 48 10000 1.03 0 14:55 19.01.2022
73 Clear 5 1026 52 10000 1.03 0 13:20 19.01.2022
74 Clear 4 1028 63 10000 1.03 0 11:54 19.01.2022
75 Clear -1 1029 80 10000 0.51 0 10:52 19.01.2022
76 Clear -3 1030 93 10000 0.51 0 09:35 19.01.2022
77 Clear -6 1030 93 10000 1.03 330 08:20 19.01.2022
78 Clouds -5 1031 93 10000 0.51 0 05:19 19.01.2022
79 Clouds -3 1035 93 10000 1.03 260 23:53 18.01.2022
80 Clouds -3 1035 93 10000 0.51 0 23:18 18.01.2022
81 Clouds -2 1035 86 10000 1.03 0 21:43 18.01.2022
82 Clear 0 1035 86 10000 1.54 170 20:21 18.01.2022
83 Clear 1 1035 80 10000 1.03 0 19:39 18.01.2022
84 Clear 1 1035 80 10000 1.03 0 19:21 18.01.2022
85 Clear 1 1035 80 10000 1.54 90 18:18 18.01.2022
86 Clear 3 1034 70 10000 1.54 120 17:29 18.01.2022
87 Clear 5 1034 56 10000 2.06 170 16:18 18.01.2022
88 Clouds 6 1035 60 10000 1.03 0 15:24 18.01.2022
89 Clouds 7 1034 59 10000 2.06 120 14:18 18.01.2022
90 Clear 2 1037 71 10000 1.03 0 11:20 18.01.2022
91 Clear -1 1037 88 10000 0.51 0 09:59 18.01.2022
92 Clouds -1 1036 86 10000 1.03 0 08:29 18.01.2022
93 Clouds 0 1036 86 10000 1.03 340 07:42 18.01.2022
94 Clouds 2 1033 75 10000 1.03 0 00:38 18.01.2022
95 Clouds 3 1033 70 10000 2.06 70 22:39 17.01.2022
96 Clouds 1 1033 75 10000 0.51 0 21:41 17.01.2022
97 Clouds 2 1033 73 10000 1.54 0 20:39 17.01.2022
98 Clouds 2 1032 71 10000 1.03 0 18:46 17.01.2022
99 Clouds 4 1030 70 10000 2.06 120 18:24 17.01.2022
100 Clouds 5 1029 61 10000 2.57 100 17:19 17.01.2022
101 Clouds 6 1033 94 10000 1 329 15:47 17.01.2022
102 Clouds 7 1029 53 10000 1.54 200 14:58 17.01.2022
103 Clouds 8 1029 46 10000 1.54 140 14:22 17.01.2022
104 Clouds 6 1030 57 10000 1.54 100 13:18 17.01.2022
105 Clouds 3 1032 76 10000 0.51 0 11:51 17.01.2022
106 Clouds 2 1033 83 10000 1.03 0 10:47 17.01.2022
107 Clouds 1 1031 86 10000 1.54 250 09:35 17.01.2022
108 Clouds 0 1031 87 10000 1.03 0 08:43 17.01.2022
109 Clouds 0 1031 86 10000 1.03 0 07:20 17.01.2022
110 Clouds -1 1031 86 10000 1.03 0 00:58 17.01.2022
111 Clouds -1 1030 86 10000 1.03 0 23:27 16.01.2022
112 Clouds -1 1028 80 10000 1.03 0 20:50 16.01.2022
113 Clouds 0 1028 79 10000 3.6 260 19:55 16.01.2022
114 Clouds 1 1026 75 10000 1.54 130 18:45 16.01.2022
115 Clouds 0 1026 74 10000 1.54 180 17:47 16.01.2022
116 Clear 3 1025 61 10000 1.54 180 16:52 16.01.2022
117 Clear 4 1024 57 10000 3.6 90 15:39 16.01.2022
118 Clear 7 1024 56 10000 1.03 0 14:29 16.01.2022
119 Clear 7 1024 56 10000 1.03 0 14:29 16.01.2022
120 Clear 5 1024 63 10000 1.03 0 12:57 16.01.2022
121 Clear 4 1024 66 10000 1.03 0 11:56 16.01.2022
122 Clear 0 1025 80 10000 1.03 0 11:27 16.01.2022
123 Clear -2 1025 93 10000 1.03 0 10:27 16.01.2022
124 Clear -3 1025 93 10000 0.51 0 09:57 16.01.2022
125 Clear -6 1025 93 10000 1.03 0 09:23 16.01.2022
126 Clear -6 1025 93 10000 0.51 0 08:52 16.01.2022
127 Clouds -6 1025 93 10000 0.51 0 05:35 16.01.2022
128 Clouds -4 1025 92 10000 0.51 0 00:18 16.01.2022
129 Clouds -3 1025 92 10000 1.03 250 22:37 15.01.2022
130 Clear -3 1026 92 10000 0.51 0 21:21 15.01.2022
131 Clear -3 1026 87 10000 0.51 0 20:43 15.01.2022
132 Clear 0 1026 84 10000 0.51 0 19:58 15.01.2022
133 Clear 0 1026 83 10000 1.03 0 19:23 15.01.2022
134 Clear 2 1025 77 10000 0.51 0 17:49 15.01.2022
135 Clear 2 1025 70 10000 0.51 0 16:38 15.01.2022
136 Clear 7 1026 63 10000 1.03 0 13:57 15.01.2022
137 Clear 6 1027 69 10000 1.03 0 12:23 15.01.2022
138 Clear 4 1029 75 10000 1.03 0 11:18 15.01.2022
139 Clear -5 1030 93 10000 0.51 0 08:36 15.01.2022
140 Clear -4 1031 86 10000 0.51 0 00:52 15.01.2022
141 Clear 1 1033 82 10000 1.03 0 21:57 14.01.2022
142 Clear 2 1033 80 10000 0.51 0 20:42 14.01.2022
143 Clear 1 1034 80 10000 0.51 0 20:23 14.01.2022
144 Clear -2 1033 81 10000 1.03 0 19:48 14.01.2022
145 Clear -1 1033 80 10000 1.03 0 18:28 14.01.2022
146 Clear 2 1033 64 10000 0.51 0 16:50 14.01.2022
147 Clear 6 1033 52 10000 1.03 0 15:48 14.01.2022
148 Clear 7 1034 52 10000 1.03 0 14:46 14.01.2022
149 Clear 6 1034 57 10000 1.03 0 13:47 14.01.2022
150 Clear 6 1035 62 10000 1.03 0 12:31 14.01.2022
151 Clear 4 1036 67 10000 0.51 0 11:27 14.01.2022
152 Clear -4 1036 86 10000 0.51 0 09:50 14.01.2022
153 Clear -6 1037 86 10000 0.51 0 08:51 14.01.2022
154 Clear -5 1037 86 10000 1.03 230 06:57 14.01.2022
155 Clear -1 1040 76 10000 1.03 240 01:37 14.01.2022
156 Clear -4 1040 76 10000 2.06 240 23:32 13.01.2022
157 Clear -2 1041 75 10000 1.54 240 21:40 13.01.2022
158 Clear -2 1042 77 10000 2.06 250 21:22 13.01.2022
159 Clear -2 1041 72 10000 1.03 0 19:40 13.01.2022
160 Clear -2 1041 71 10000 1.03 0 19:22 13.01.2022
161 Clear -1 1041 65 10000 0.51 0 17:54 13.01.2022
162 Clear 1 1039 55 10000 1.03 0 16:21 13.01.2022
163 Clear 1 1039 55 10000 1.03 0 16:21 13.01.2022
164 Clear 2 1040 55 10000 2.57 260 15:37 13.01.2022
165 Clear 1 1039 55 10000 2.06 220 14:47 13.01.2022
166 Clear 0 1041 55 10000 1.03 0 12:45 13.01.2022
167 Clear -4 1041 74 10000 0.51 0 10:25 13.01.2022
168 Clear -4 1042 79 10000 0.51 0 09:20 13.01.2022
169 Clear -6 1042 80 10000 1.03 0 08:27 13.01.2022
170 Clear -9 1041 90 10000 1.03 0 07:24 13.01.2022
171 Clear -7 1041 82 10000 2.06 260 05:59 13.01.2022
172 Clear -7 1042 84 10000 1.03 260 05:19 13.01.2022
173 Clear -6 1042 81 10000 0.51 0 02:33 13.01.2022
174 Clear -6 1041 82 10000 1.03 0 00:55 13.01.2022
175 Clear -5 1041 81 10000 0.51 0 23:49 12.01.2022
176 Clear -5 1041 81 10000 0.51 0 23:49 12.01.2022
177 Clouds -5 1041 81 10000 1.54 260 23:20 12.01.2022
178 Clouds -5 1041 81 10000 0.51 0 21:57 12.01.2022
179 Clouds -4 1040 81 10000 1.03 0 21:23 12.01.2022
180 Clouds -4 1040 81 10000 1.03 0 20:56 12.01.2022
181 Clear -4 1040 78 10000 0.51 0 19:45 12.01.2022
182 Clear -3 1039 75 10000 1.03 0 18:43 12.01.2022
183 Clear -3 1037 70 10000 1.03 0 17:38 12.01.2022
184 Clear -2 1037 64 10000 1.03 0 16:33 12.01.2022
185 Clear 1 1037 62 10000 1.03 0 14:48 12.01.2022
186 Clear 1 1037 64 10000 1.03 0 13:24 12.01.2022
187 Clouds -1 1039 69 10000 1.54 240 11:59 12.01.2022
188 Clouds -3 1038 75 10000 1.54 110 08:43 12.01.2022
189 Clouds -5 1036 68 10000 2.06 130 07:50 12.01.2022
190 Clouds -5 1035 68 10000 1.54 110 07:31 12.01.2022
191 Clouds -3 1033 74 10000 1.03 0 23:53 11.01.2022
192 Clouds -2 1033 74 10000 1.54 110 22:57 11.01.2022
193 Clouds -1 1033 74 10000 2.06 80 22:23 11.01.2022
194 Clouds -1 1032 74 10000 1.54 140 21:25 11.01.2022
195 Clouds -1 1033 83 10000 1.54 110 20:21 11.01.2022
196 Clouds -1 1032 80 10000 2.57 80 18:43 11.01.2022
197 Clouds 0 1031 76 10000 1.54 80 17:35 11.01.2022
198 Clouds 0 1031 74 10000 1.03 0 16:38 11.01.2022
199 Clouds 1 1031 77 10000 1.03 0 15:56 11.01.2022
200 Clouds 2 1031 77 10000 0.51 0 14:43 11.01.2022
201 Clouds 2 1031 80 10000 1.03 0 13:56 11.01.2022
202 Clouds 2 1031 77 10000 2.06 120 13:36 11.01.2022
203 Clouds 1 1031 79 10000 2.57 120 12:51 11.01.2022
204 Clouds 1 1031 81 10000 2.06 90 12:20 11.01.2022
205 Clouds 0 1031 89 10000 1.54 60 09:58 11.01.2022
206 Clouds 0 1028 93 10000 1.03 0 07:35 11.01.2022
207 Snow 0 1026 93 9000 2.06 90 00:43 11.01.2022
208 Clouds 0 1026 93 10000 1.03 0 00:21 11.01.2022
209 Clouds 0 1025 93 10000 0.51 0 23:28 10.01.2022
210 Clouds 0 1025 93 10000 1.03 0 22:19 10.01.2022
211 Clouds 0 1025 93 10000 1.03 70 21:54 10.01.2022
212 Clouds 0 1024 93 10000 0.51 0 21:31 10.01.2022
213 Clouds 0 1024 93 10000 1.03 270 20:58 10.01.2022
214 Clouds 1 1024 86 10000 0.51 0 20:29 10.01.2022
215 Clouds 1 1024 86 10000 1.54 120 19:45 10.01.2022
216 Clouds 1 1023 86 10000 2.06 90 19:22 10.01.2022
217 Clouds 1 1023 80 10000 2.06 60 18:50 10.01.2022
218 Clouds 1 1022 80 10000 1.54 70 18:31 10.01.2022
219 Clouds 1 1020 80 10000 1.54 310 16:42 10.01.2022
220 Clouds 2 1021 84 10000 3.09 280 15:55 10.01.2022
221 Clouds 2 1019 81 10000 0.51 0 14:39 10.01.2022
222 Clouds 0 1019 78 10000 1.03 0 12:31 10.01.2022
223 Clouds 0 1018 79 10000 3.6 260 11:25 10.01.2022
224 Clouds -1 1017 85 10000 1.54 270 10:21 10.01.2022
225 Clouds -2 1015 81 10000 2.57 280 08:57 10.01.2022
226 Clouds -2 1012 86 10000 2.06 270 05:50 10.01.2022
227 Clouds -2 1010 93 10000 2.06 260 01:33 10.01.2022
228 Clouds -2 1010 93 10000 2.06 270 01:33 10.01.2022
229 Clouds -2 1009 93 10000 1.54 260 00:33 10.01.2022
230 Clouds -1 1009 93 10000 2.06 260 23:54 09.01.2022
231 Clouds -1 1008 93 10000 2.06 240 22:43 09.01.2022
232 Clouds -2 1009 94 10000 1.03 0 21:47 09.01.2022
233 Clouds -2 1008 93 10000 0.51 0 21:25 09.01.2022
234 Clouds -1 1007 93 10000 1.03 0 20:55 09.01.2022
235 Clouds -2 1008 94 10000 1.03 0 20:37 09.01.2022
236 Clouds -2 1008 93 10000 0.51 0 20:18 09.01.2022
237 Clouds 0 1007 86 10000 0.51 0 19:37 09.01.2022
238 Clouds 0 1007 86 10000 0.51 0 19:18 09.01.2022
239 Clouds 0 1006 86 10000 0.51 0 18:37 09.01.2022
240 Clouds 1 1006 86 10000 1.03 0 17:48 09.01.2022
241 Clouds 1 1005 86 10000 1.54 80 17:29 09.01.2022
242 Clouds 0 1006 85 10000 3.6 110 16:40 09.01.2022
243 Clouds 1 1006 81 10000 2.57 90 15:40 09.01.2022
244 Clouds 3 1005 77 10000 1.03 0 14:50 09.01.2022
245 Clouds 2 1005 81 10000 2.06 90 14:23 09.01.2022
246 Clouds 2 1005 83 10000 2.57 70 13:48 09.01.2022
247 Clouds 1 1005 85 10000 2.57 110 11:56 09.01.2022
248 Clouds -1 1005 92 10000 1.03 0 11:26 09.01.2022
249 Clouds 1 1004 70 10000 3.09 260 09:55 09.01.2022
250 Clouds -2 1003 77 10000 3.09 270 08:59 09.01.2022
251 Clouds -3 1002 82 10000 4.12 270 06:56 09.01.2022
252 Clouds -3 1004 87 10000 5.14 280 01:29 09.01.2022
253 Clouds -3 1006 88 10000 3.6 280 00:37 09.01.2022
254 Clouds -3 1008 87 10000 3.6 290 23:31 08.01.2022
255 Clouds -3 1008 87 10000 2.57 270 22:48 08.01.2022
256 Clouds -3 1010 85 10000 1.03 0 21:28 08.01.2022
257 Clouds -3 1011 84 10000 2.06 170 20:43 08.01.2022
258 Clouds -3 1012 88 10000 1.03 0 20:22 08.01.2022
259 Clouds -3 1012 88 10000 1.54 80 19:22 08.01.2022
260 Clouds -2 1013 86 10000 1.03 0 17:38 08.01.2022
261 Clouds -1 1013 80 10000 1.03 0 16:45 08.01.2022
262 Clouds 2 1013 75 10000 3.09 110 15:33 08.01.2022
263 Clouds 2 1015 75 10000 1.03 0 14:25 08.01.2022
264 Clouds 0 1016 82 10000 1.03 0 11:43 08.01.2022
265 Clouds -1 1016 78 10000 2.06 110 10:40 08.01.2022
266 Clouds -2 1016 81 10000 1.03 0 10:22 08.01.2022
267 Clouds -3 1015 83 10000 3.09 260 09:34 08.01.2022
268 Clear -4 1015 89 10000 0.51 0 06:22 08.01.2022
269 Clouds -4 1016 83 10000 0.51 0 01:46 08.01.2022
270 Clouds -2 1017 82 10000 1.03 0 00:22 08.01.2022
271 Clouds 0 1018 80 10000 2.06 70 22:21 07.01.2022
272 Clouds -1 1018 78 10000 0.51 0 20:35 07.01.2022
273 Clouds -1 1018 78 10000 0.51 0 20:35 07.01.2022
274 Clouds -1 1018 75 10000 1.03 0 19:27 07.01.2022
275 Clouds -1 1018 73 10000 1.03 0 18:49 07.01.2022
276 Clouds 0 1018 73 10000 1.03 160 18:24 07.01.2022
277 Clouds 0 1018 70 10000 0.51 0 17:24 07.01.2022
278 Clear 1 1018 62 10000 1.03 0 15:55 07.01.2022
279 Clouds 1 1019 61 10000 1.03 0 13:52 07.01.2022
280 Clouds 1 1019 61 10000 1.03 0 12:57 07.01.2022
281 Clouds 0 1020 64 10000 2.06 250 11:58 07.01.2022
282 Clouds -6 1021 84 10000 0.51 0 06:47 07.01.2022
283 Clouds -4 1021 69 10000 2.57 110 02:54 07.01.2022
284 Clouds -3 1021 86 10000 2.06 100 01:52 07.01.2022
285 Clouds -3 1021 86 10000 3.09 100 01:27 07.01.2022
286 Clouds -2 1021 80 10000 2.57 70 00:55 07.01.2022
287 Clouds -2 1021 86 10000 1.03 0 22:42 06.01.2022
288 Clouds -2 1021 86 10000 2.06 120 21:22 06.01.2022
289 Clouds -2 1022 88 10000 1.54 90 20:19 06.01.2022
290 Clouds -1 1021 86 10000 2.06 100 19:40 06.01.2022
291 Clouds -1 1021 86 10000 1.54 70 17:53 06.01.2022
292 Clouds 0 1019 86 10000 2.06 60 17:31 06.01.2022
293 Clouds 1 1019 86 10000 2.06 100 16:40 06.01.2022
294 Clouds 2 1019 82 10000 3.6 70 15:45 06.01.2022
295 Clouds 1 1019 85 10000 2.06 60 15:23 06.01.2022
296 Clouds 1 1019 81 10000 2.06 100 14:21 06.01.2022
297 Clouds 1 1019 81 10000 2.57 70 13:46 06.01.2022
298 Clouds 2 1018 76 10000 1.03 0 12:41 06.01.2022
299 Snow 0 1018 83 10000 1.03 0 11:41 06.01.2022
300 Clouds 0 1018 84 10000 1.03 0 11:20 06.01.2022
301 Snow -1 1017 93 10000 1.03 0 08:31 06.01.2022
302 Clouds 0 1013 86 10000 0.51 0 00:42 06.01.2022
303 Clouds 0 1013 80 10000 1.03 0 23:36 05.01.2022
304 Clouds 0 1012 86 10000 1.03 0 22:51 05.01.2022
305 Clouds -1 1012 93 10000 0.51 0 22:30 05.01.2022
306 Clouds 0 1012 86 10000 1.03 0 21:46 05.01.2022
307 Snow -1 1013 81 10000 1.03 0 20:49 05.01.2022
308 Clouds -1 1016 98 5801 0.27 322 19:59 05.01.2022
309 Clouds 0 1012 92 10000 1.54 180 18:38 05.01.2022
310 Snow 1 1010 83 10000 1.54 60 17:23 05.01.2022
311 Rain 1 1010 85 10000 2.06 0 16:38 05.01.2022
312 Clouds 2 1007 92 10000 1.03 0 15:20 05.01.2022
313 Clouds 2 1007 92 10000 0.51 0 13:51 05.01.2022
314 Clouds 3 1005 94 10000 1.54 70 12:51 05.01.2022
315 Rain 3 1003 93 10000 2.06 100 09:30 05.01.2022
316 Rain 4 1003 93 10000 6.17 60 07:42 05.01.2022
317 Clouds 5 1000 84 10000 2.06 250 04:58 05.01.2022
318 Clouds 4 1000 80 10000 3.09 270 00:44 05.01.2022
319 Clouds 5 1000 75 10000 1.54 0 23:27 04.01.2022
320 Clouds 5 1000 75 10000 1.54 0 22:42 04.01.2022
321 Clouds 8 1000 47 10000 7.2 160 21:18 04.01.2022
322 Clear 9 1000 47 10000 7.72 150 19:20 04.01.2022
323 Clouds 11 1001 47 10000 8.23 150 17:44 04.01.2022
324 Clouds 12 1001 44 10000 9.26 150 16:42 04.01.2022
325 Clouds 10 1000 44 10000 8.23 140 16:23 04.01.2022
326 Clouds 11 1000 44 10000 8.75 150 14:53 04.01.2022
327 Clouds 11 1000 44 10000 8.75 150 14:34 04.01.2022
328 Clouds 11 1002 41 10000 8.75 150 13:27 04.01.2022
329 Clouds 4 1005 78 10000 5.14 260 10:41 04.01.2022
330 Rain 3 1006 84 10000 3.6 260 09:20 04.01.2022
331 Clouds 2 1006 88 10000 4.12 260 08:28 04.01.2022
332 Clouds 1 1012 91 10000 1.03 0 02:28 04.01.2022
333 Clouds 2 1013 91 10000 0.51 0 00:40 04.01.2022
334 Clouds 4 1013 80 10000 1.03 0 23:19 03.01.2022
335 Clouds 4 1014 80 10000 1.03 0 21:52 03.01.2022
336 Clouds 3 1015 87 10000 0.51 0 21:32 03.01.2022
337 Clouds 4 1015 87 10000 1.03 0 19:56 03.01.2022
338 Clouds 4 1017 83 10000 1.54 150 18:48 03.01.2022
339 Clouds 5 1016 87 10000 0.51 0 18:27 03.01.2022
340 Clouds 6 1017 76 10000 2.06 130 16:58 03.01.2022
341 Clouds 7 1018 70 10000 3.09 90 14:56 03.01.2022
342 Clouds 7 1018 70 10000 2.57 100 14:30 03.01.2022
343 Clouds 8 1019 70 10000 2.06 0 12:39 03.01.2022
344 Clouds 7 1019 81 10000 2.06 100 11:35 03.01.2022
345 Clouds 3 1020 87 10000 1.54 190 10:27 03.01.2022
346 Clouds 1 1020 93 10000 1.54 0 08:47 03.01.2022
347 Clouds 1 1019 100 10000 1.03 0 07:34 03.01.2022
348 Clouds 1 1019 100 10000 1.03 0 07:34 03.01.2022
349 Clouds 1 1021 91 10000 1.54 0 23:55 02.01.2022
350 Clouds 1 1021 90 10000 1.54 220 23:21 02.01.2022
351 Clouds 2 1021 90 10000 1.54 0 22:53 02.01.2022
352 Clouds 2 1022 87 10000 2.06 330 21:42 02.01.2022
353 Clouds 2 1022 86 10000 2.06 0 20:33 02.01.2022
354 Clouds 2 1022 86 10000 0.51 0 19:55 02.01.2022
355 Clouds 3 1022 86 10000 0.51 0 19:30 02.01.2022
356 Clouds 4 1023 81 10000 0.51 0 18:44 02.01.2022
357 Clouds 4 1023 80 10000 0.51 0 17:54 02.01.2022
358 Clouds 4 1023 80 10000 0.51 0 17:36 02.01.2022
359 Clouds 4 1022 79 10000 1.03 0 17:18 02.01.2022
360 Clouds 5 1022 71 10000 1.03 0 16:25 02.01.2022
361 Clear 6 1022 69 10000 1.03 0 14:22 02.01.2022
362 Clear 5 1023 70 10000 1.03 0 12:49 02.01.2022
363 Clear 2 1024 80 10000 1.03 0 11:57 02.01.2022
364 Clear 2 1024 80 10000 1.03 160 11:26 02.01.2022
365 Clear 2 1024 87 10000 1.03 0 10:45 02.01.2022
366 Clear 2 1025 81 10000 0.51 0 08:46 02.01.2022
367 Clouds -2 1027 100 10000 1.03 0 03:49 02.01.2022
368 Clouds 4 1028 78 10000 1.03 0 01:41 02.01.2022
369 Clouds -1 1029 97 10000 1.03 0 23:39 01.01.2022
370 Clouds -1 1030 94 10000 1.54 240 22:57 01.01.2022
371 Clouds -2 1030 97 10000 1.03 0 22:21 01.01.2022
372 Clouds -1 1030 93 10000 2.06 230 21:43 01.01.2022
373 Clear -1 1030 93 10000 1.03 0 20:53 01.01.2022
374 Clear -1 1030 97 10000 0.51 0 19:57 01.01.2022
375 Clear 0 1030 93 10000 2.06 270 18:58 01.01.2022
376 Clear 1 1029 93 10000 0.51 0 17:58 01.01.2022
377 Clear 4 1030 87 10000 1.03 0 16:37 01.01.2022
378 Clear 4 1029 87 10000 1.03 0 16:19 01.01.2022
379 Clear 6 1029 81 10000 1.03 0 15:26 01.01.2022
380 Clear 10 1029 73 10000 1.54 140 13:46 01.01.2022
381 Clear 10 1029 73 10000 1.54 140 13:46 01.01.2022
382 Clear 2 1030 100 10000 1.03 0 12:49 01.01.2022
383 Clouds 0 1031 100 10000 1.03 0 11:56 01.01.2022
384 Clouds 11 1030 64 10000 0.45 177 11:22 01.01.2022
385 Fog -2 1031 100 300 0.51 0 10:27 01.01.2022
386 Fog -2 1032 100 200 1.03 0 09:45 01.01.2022
387 Fog -3 1032 99 300 1.03 0 08:25 01.01.2022
388 Fog -3 1032 99 300 1.54 250 07:44 01.01.2022
389 Fog 2 1030 87 200 0.51 0 06:47 01.01.2022
390 Fog -2 1030 100 200 0.51 0 05:27 01.01.2022
391 Fog -2 1030 100 200 1.03 0 04:38 01.01.2022
392 Fog -2 1030 99 150 0.51 0 01:59 01.01.2022
393 Fog -1 1029 98 350 0.51 0 23:36 31.12.2021
394 Fog 0 1027 98 600 0.51 0 21:53 31.12.2021
395 Fog 1 1027 98 800 0.51 0 20:38 31.12.2021
396 Fog 3 1026 88 700 2.06 260 19:30 31.12.2021
397 Clouds 2 1026 100 6000 1.54 260 18:37 31.12.2021
398 Clear 2 1026 97 10000 1.03 0 17:40 31.12.2021
399 Clear 3 1026 93 10000 1.54 250 17:18 31.12.2021
400 Clear 5 1026 91 10000 1.03 180 16:25 31.12.2021
401 Clear 6 1026 88 10000 1.54 170 15:57 31.12.2021
402 Clear 7 1026 85 10000 1.03 0 15:28 31.12.2021
403 Clear 8 1025 81 10000 0.51 0 14:56 31.12.2021
404 Clear 7 1025 87 10000 1.03 0 14:30 31.12.2021
405 Clear 5 1026 93 10000 1.03 0 13:36 31.12.2021
406 Mist 3 1027 100 2500 1.03 0 12:45 31.12.2021
407 Fog 2 1027 100 500 2.06 250 11:47 31.12.2021
408 Fog 1 1028 100 500 2.06 270 11:29 31.12.2021
409 Fog 1 1028 100 350 2.06 260 10:35 31.12.2021
410 Fog 1 1028 100 400 2.06 260 09:55 31.12.2021
411 Fog 2 1028 96 400 2.06 260 09:32 31.12.2021
412 Fog 3 1028 96 400 2.57 260 08:39 31.12.2021
413 Fog 3 1028 96 800 2.57 250 07:31 31.12.2021
414 Fog 3 1027 98 450 1.03 0 23:32 30.12.2021
415 Fog 5 1027 96 350 1.54 280 22:33 30.12.2021
416 Fog 5 1027 96 400 1.03 0 21:56 30.12.2021
417 Fog 5 1027 96 400 1.03 0 21:37 30.12.2021
418 Fog 5 1026 96 350 2.57 270 20:47 30.12.2021
419 Fog 5 1026 96 400 1.03 250 20:27 30.12.2021
420 Fog 5 1026 96 500 1.54 240 19:47 30.12.2021
421 Fog 5 1026 96 750 1.03 0 18:48 30.12.2021
422 Fog 6 1026 96 3000 0.51 0 18:19 30.12.2021
423 Clouds 7 1025 93 10000 1.54 200 16:20 30.12.2021
424 Clouds 7 1025 90 10000 0.51 0 15:52 30.12.2021
425 Clouds 7 1024 90 10000 1.03 0 14:40 30.12.2021
426 Clouds 6 1024 94 10000 0.51 0 13:55 30.12.2021
427 Clouds 6 1024 94 10000 0.51 0 13:55 30.12.2021
428 Clouds 5 1025 93 10000 0.51 0 12:44 30.12.2021
429 Drizzle 6 1025 94 10000 0.51 0 10:59 30.12.2021
430 Rain 5 1025 96 10000 1.03 0 09:59 30.12.2021
431 Rain 5 1025 96 7000 1.54 110 09:21 30.12.2021
432 Clouds 2 1022 94 6000 0.51 0 06:54 30.12.2021
433 Clouds 4 1020 97 7000 1.54 180 04:20 30.12.2021
434 Clouds 4 1019 97 6000 1.03 0 03:38 30.12.2021
435 Drizzle 3 1018 94 9000 2.57 250 23:57 29.12.2021
436 Rain 3 1017 97 10000 1.54 0 23:23 29.12.2021
437 Rain 4 1017 94 10000 1.54 310 22:24 29.12.2021
438 Rain 4 1017 93 10000 1.03 0 21:45 29.12.2021
439 Rain 4 1016 93 10000 1.03 0 20:40 29.12.2021
440 Rain 5 1016 94 10000 0.51 0 19:51 29.12.2021
441 Rain 5 1016 94 10000 1.03 0 19:24 29.12.2021
442 Rain 5 1015 90 10000 0.51 0 18:19 29.12.2021
443 Rain 5 1015 89 10000 2.57 110 17:28 29.12.2021
444 Rain 5 1014 89 10000 2.06 70 16:49 29.12.2021
445 Smoke 6 1014 86 10000 2.06 80 16:19 29.12.2021
446 Clouds 7 1012 81 10000 0.51 0 14:40 29.12.2021
447 Clouds 7 1012 78 10000 1.03 0 12:49 29.12.2021
448 Clouds 8 1011 71 10000 1.54 140 12:27 29.12.2021
449 Clouds 4 1012 88 10000 1.03 0 10:36 29.12.2021
450 Clouds 2 1011 94 10000 1.03 0 08:24 29.12.2021
451 Rain 2 1010 94 10000 0.51 0 06:45 29.12.2021
452 Clouds 3 1009 94 10000 1.54 110 06:24 29.12.2021
453 Clouds 3 1009 94 10000 1.03 0 05:43 29.12.2021
454 Drizzle 3 1008 93 10000 0.51 0 03:20 29.12.2021
455 Clouds 2 1006 92 10000 1.54 300 00:25 29.12.2021
456 Clouds 2 1006 92 10000 1.03 0 23:49 28.12.2021
457 Clouds 3 1006 91 10000 2.06 0 22:50 28.12.2021
458 Clouds 4 1005 92 10000 2.06 260 22:24 28.12.2021
459 Clouds 4 1005 91 10000 0.51 0 21:53 28.12.2021
460 Clouds 3 1005 91 10000 1.03 0 20:49 28.12.2021
461 Rain 4 1005 86 10000 2.06 320 19:50 28.12.2021
462 Rain 5 1004 84 10000 3.6 280 18:50 28.12.2021
463 Clouds 5 1004 83 10000 3.09 260 18:23 28.12.2021
464 Rain 6 1003 81 10000 2.57 280 16:35 28.12.2021
465 Clouds 7 1003 70 10000 4.63 270 15:52 28.12.2021
466 Clouds 7 1002 70 10000 1.54 230 15:27 28.12.2021
467 Rain 7 1003 76 10000 4.63 280 14:53 28.12.2021
468 Clouds 7 1004 76 10000 6.17 270 14:21 28.12.2021
469 Rain 7 1004 70 10000 4.12 320 13:54 28.12.2021
470 Rain 7 1004 70 10000 4.12 320 13:33 28.12.2021
471 Rain 6 1005 66 10000 4.63 290 12:55 28.12.2021
472 Clouds 5 1005 70 10000 3.09 260 12:18 28.12.2021
473 Clouds 2 1005 84 10000 2.06 240 09:30 28.12.2021
474 Snow -1 1005 93 10000 1.03 0 07:33 28.12.2021
475 Clouds 1 1006 86 10000 1.03 0 03:28 28.12.2021
476 Rain 4 1007 75 10000 2.57 180 23:37 27.12.2021
477 Clouds 3 1006 75 10000 3.6 300 22:20 27.12.2021
478 Rain 3 1006 75 10000 4.63 270 21:30 27.12.2021
479 Clouds 2 1006 76 10000 5.14 270 20:27 27.12.2021
480 Clouds 3 1005 75 10000 4.63 270 19:47 27.12.2021
481 Clouds 2 1005 76 10000 4.63 260 18:57 27.12.2021
482 Clouds 2 1005 76 10000 3.09 250 17:51 27.12.2021
483 Clouds 3 1005 74 10000 4.12 260 17:28 27.12.2021
484 Clouds 6 1004 61 10000 2.06 0 15:54 27.12.2021
485 Clouds 5 1004 68 10000 2.06 260 14:56 27.12.2021
486 Clouds 5 1005 67 10000 3.09 260 14:21 27.12.2021
487 Clouds 4 1006 76 10000 1.03 0 12:49 27.12.2021
488 Clouds 2 1008 84 10000 1.03 0 10:40 27.12.2021
489 Clouds 3 1007 86 10000 2.06 260 10:22 27.12.2021
490 Clouds -2 1008 94 9000 1.54 250 08:43 27.12.2021
491 Clouds -2 1009 93 10000 0.51 0 07:34 27.12.2021
492 Clouds -2 1008 93 10000 0.51 0 06:27 27.12.2021
493 Clouds 1 1008 93 10000 1.54 230 01:51 27.12.2021
494 Clouds 0 1008 93 10000 1.03 0 23:49 26.12.2021
495 Clouds 1 1008 93 10000 1.03 0 23:19 26.12.2021
496 Clear 0 1008 93 10000 0.51 0 21:33 26.12.2021
497 Clouds 2 1008 87 10000 1.54 240 19:55 26.12.2021
498 Clouds 2 1008 87 10000 1.54 120 18:45 26.12.2021
499 Clouds 2 1008 87 10000 1.54 100 18:21 26.12.2021
500 Clouds 5 1007 70 10000 0.51 0 15:38 26.12.2021
501 Clouds 5 1008 75 10000 1.03 0 13:49 26.12.2021
502 Clouds 5 1008 78 10000 2.06 70 13:31 26.12.2021
503 Clouds 4 1008 79 10000 2.06 90 12:36 26.12.2021
504 Clouds 3 1008 83 10000 0.51 0 11:20 26.12.2021
505 Clouds 1 1008 88 10000 1.54 150 09:35 26.12.2021
506 Clouds -1 1008 92 10000 2.06 240 08:50 26.12.2021
507 Clouds 0 1008 92 10000 2.57 260 08:27 26.12.2021
508 Clouds 0 1008 92 10000 0.51 0 02:19 26.12.2021
509 Clouds 0 1007 87 10000 0.51 0 00:40 26.12.2021
510 Clouds 0 1008 91 10000 1.54 260 23:48 25.12.2021
511 Clouds 0 1007 87 10000 1.03 0 22:39 25.12.2021
512 Clouds 0 1007 87 10000 0.51 0 22:20 25.12.2021
513 Clouds 1 1007 86 10000 1.03 0 20:27 25.12.2021
514 Clouds 1 1007 83 10000 1.03 0 19:19 25.12.2021
515 Clouds 2 1007 85 10000 1.03 0 18:39 25.12.2021
516 Clouds 3 1006 75 10000 0.51 0 16:50 25.12.2021
517 Clouds 5 1006 65 10000 2.06 160 15:38 25.12.2021
518 Clouds 7 1006 62 10000 3.09 260 14:24 25.12.2021
519 Clouds 3 1006 77 10000 0.51 0 12:42 25.12.2021
520 Clouds 1 1007 86 10000 2.57 230 11:21 25.12.2021
521 Clouds -2 1007 100 10000 1.54 0 09:49 25.12.2021
522 Clouds -1 1008 92 10000 2.06 240 07:39 25.12.2021
523 Clouds 0 1008 86 10000 0.51 0 01:45 25.12.2021
524 Clouds 0 1008 86 10000 1.03 0 00:23 25.12.2021
525 Snow 1 1009 85 10000 1.54 0 22:26 24.12.2021
526 Clouds 2 1009 79 10000 1.03 0 19:29 24.12.2021
527 Clouds 2 1009 79 10000 1.03 0 18:57 24.12.2021
528 Clouds 3 1009 71 10000 0.51 0 16:49 24.12.2021
529 Clouds 3 1009 66 10000 0.51 0 15:53 24.12.2021
530 Clouds 4 1009 66 10000 0.51 0 15:34 24.12.2021
531 Rain 4 1009 65 10000 1.54 130 14:36 24.12.2021
532 Clouds 4 1009 62 10000 1.54 70 14:36 24.12.2021
533 Clouds 3 1009 66 10000 1.54 130 14:18 24.12.2021
534 Clouds 3 1009 65 10000 1.03 0 13:33 24.12.2021
535 Clouds 2 1010 70 10000 1.03 0 12:47 24.12.2021
536 Clouds 1 1010 76 10000 1.54 240 11:47 24.12.2021
537 Clouds 1 1010 76 10000 2.06 270 11:24 24.12.2021
538 Clouds 5 1010 65 10000 1.03 0 10:45 24.12.2021
539 Clouds -2 1011 80 10000 2.06 240 09:25 24.12.2021
540 Clouds -2 1012 83 10000 1.54 250 08:23 24.12.2021
541 Clouds -2 1012 83 10000 2.06 260 07:46 24.12.2021
542 Clouds -1 1014 75 10000 2.06 270 01:30 24.12.2021
543 Clouds -1 1015 73 10000 1.03 0 23:55 23.12.2021
544 Clouds 0 1015 72 10000 1.54 200 22:56 23.12.2021
545 Clouds -1 1015 73 10000 1.54 200 22:37 23.12.2021
546 Clouds 0 1015 72 10000 1.03 0 22:18 23.12.2021
547 Clouds 0 1016 68 10000 1.03 0 20:56 23.12.2021
548 Clouds 0 1015 69 10000 1.03 0 19:39 23.12.2021
549 Clouds 0 1015 65 10000 2.06 250 18:34 23.12.2021
550 Clouds 0 1016 62 10000 1.03 0 17:55 23.12.2021
551 Clouds 1 1015 60 10000 0.51 0 16:43 23.12.2021
552 Clouds 1 1016 55 10000 1.03 0 16:23 23.12.2021
553 Clouds 2 1016 46 10000 1.03 0 15:31 23.12.2021
554 Clouds 2 1016 46 10000 1.03 0 15:31 23.12.2021
555 Clouds 2 1016 50 10000 1.03 0 14:43 23.12.2021
556 Clouds 5 1017 48 10000 1.03 0 14:19 23.12.2021
557 Clear 3 1018 52 10000 1.03 0 12:53 23.12.2021
558 Clear -4 1020 74 10000 1.03 0 10:43 23.12.2021
559 Clear -6 1020 77 10000 0.51 0 09:35 23.12.2021
560 Clear -8 1020 86 10000 1.03 0 08:59 23.12.2021
561 Clear -9 1021 86 10000 0.51 0 06:51 23.12.2021
562 Clouds -8 1022 86 10000 0.51 0 04:30 23.12.2021
563 Clear -7 1023 85 10000 1.54 240 22:57 22.12.2021
564 Clear -8 1023 85 10000 1.54 240 22:39 22.12.2021
565 Clear -7 1024 84 10000 1.54 270 21:54 22.12.2021
566 Clear -8 1024 84 10000 0.51 0 21:29 22.12.2021
567 Clear -6 1024 79 10000 1.03 0 20:44 22.12.2021
568 Clear -6 1024 79 10000 1.03 260 20:25 22.12.2021
569 Clear -6 1024 74 10000 1.54 210 19:19 22.12.2021
570 Clear -4 1024 68 10000 1.03 0 17:42 22.12.2021
571 Clear -3 1024 65 10000 1.54 260 16:38 22.12.2021
572 Clear -2 1024 62 10000 2.06 250 15:39 22.12.2021
573 Clear 1 1025 63 10000 1.54 240 13:32 22.12.2021
574 Clear 0 1026 70 10000 2.06 260 12:39 22.12.2021
575 Clouds -6 1027 84 10000 2.06 260 09:54 22.12.2021
576 Clouds -6 1027 84 10000 2.06 260 09:35 22.12.2021
577 Clouds -9 1026 86 7000 0.51 0 07:25 22.12.2021
578 Clouds -9 1025 93 10000 0.51 0 05:42 22.12.2021
579 Clouds -9 1025 86 10000 1.03 170 05:24 22.12.2021
580 Clouds -9 1025 93 10000 0.51 0 04:47 22.12.2021
581 Clouds -9 1025 93 10000 1.03 260 04:24 22.12.2021
582 Clouds -9 1025 93 10000 0.51 0 03:32 22.12.2021
583 Clouds -6 1024 86 10000 1.54 250 00:33 22.12.2021
584 Clouds -6 1023 86 10000 0.51 0 22:52 21.12.2021
585 Clouds -6 1023 86 10000 0.51 0 22:27 21.12.2021
586 Clear -5 1023 80 10000 0.51 0 21:43 21.12.2021
587 Clear -5 1022 86 10000 0.51 0 20:54 21.12.2021
588 Clear -5 1022 86 10000 0.51 0 20:20 21.12.2021
589 Clear -5 1022 80 10000 0.51 0 19:41 21.12.2021
590 Clear -5 1021 80 10000 1.03 0 18:43 21.12.2021
591 Clear -4 1021 74 10000 0.51 0 18:21 21.12.2021
592 Clear -4 1021 80 10000 1.03 0 17:40 21.12.2021
593 Clear 0 1020 64 10000 1.54 180 15:55 21.12.2021
594 Clear 0 1021 65 10000 1.54 170 15:20 21.12.2021
595 Clear 1 1022 66 10000 1.54 230 13:50 21.12.2021
596 Clear 0 1022 70 10000 1.54 250 13:29 21.12.2021
597 Clouds -1 1023 75 10000 1.03 0 10:56 21.12.2021
598 Clouds -4 1024 88 10000 0.51 0 09:59 21.12.2021
599 Clouds -6 1024 89 10000 0.51 0 09:18 21.12.2021
600 Clouds -7 1023 80 10000 1.03 0 07:54 21.12.2021
601 Clouds -7 1023 93 10000 0.51 0 07:25 21.12.2021
602 Clouds -5 1023 74 10000 1.54 110 04:56 21.12.2021
603 Clouds -5 1024 93 10000 0.51 0 02:40 21.12.2021
604 Clouds -3 1024 80 10000 1.54 110 23:58 20.12.2021
605 Clouds -3 1024 80 10000 2.57 100 23:24 20.12.2021
606 Clouds -2 1024 86 10000 1.03 0 22:28 20.12.2021
607 Clouds -1 1024 86 10000 1.03 70 21:43 20.12.2021
608 Clouds -1 1024 80 10000 1.03 0 21:23 20.12.2021
609 Clouds -2 1024 86 10000 2.06 270 20:42 20.12.2021
610 Clouds -2 1024 86 10000 1.03 130 19:50 20.12.2021
611 Clouds -1 1025 82 10000 0.51 0 19:30 20.12.2021
612 Clouds -1 1024 80 10000 0.51 0 18:53 20.12.2021
613 Clouds -1 1024 80 10000 1.03 0 17:52 20.12.2021
614 Clouds 0 1024 80 10000 1.03 0 17:23 20.12.2021
615 Clouds 0 1024 80 10000 0.51 0 16:37 20.12.2021
616 Clouds 1 1023 75 10000 1.54 180 15:48 20.12.2021
617 Clouds 2 1024 76 10000 1.54 260 14:42 20.12.2021
618 Clouds 1 1024 83 10000 1.54 280 12:51 20.12.2021
619 Clouds 1 1025 86 10000 2.06 230 11:19 20.12.2021
620 Clouds 0 1024 80 10000 2.06 290 09:47 20.12.2021
621 Clouds -1 1024 93 10000 2.06 300 08:58 20.12.2021
622 Clouds -1 1024 93 10000 2.06 300 08:40 20.12.2021
623 Clouds -1 1023 93 10000 3.6 280 07:49 20.12.2021
624 Clouds -1 1023 93 10000 4.12 270 06:47 20.12.2021
625 Clouds -2 1023 93 10000 2.57 250 03:42 20.12.2021
626 Clear -4 1023 93 10000 1.54 120 23:51 19.12.2021
627 Clear -5 1023 91 10000 1.03 0 22:45 19.12.2021
628 Clear -4 1024 90 10000 1.03 0 21:49 19.12.2021
629 Clear -4 1024 90 10000 1.03 0 21:26 19.12.2021
630 Clear -3 1024 89 10000 1.03 0 20:30 19.12.2021
631 Clear -2 1025 85 10000 0.51 0 19:46 19.12.2021
632 Clear -2 1025 84 10000 1.03 0 18:57 19.12.2021
633 Clear -2 1025 83 10000 1.03 0 18:24 19.12.2021
634 Clear -1 1025 78 10000 1.54 250 17:46 19.12.2021
635 Clear 1 1025 73 10000 1.54 230 16:55 19.12.2021
636 Clear 2 1025 68 10000 2.06 260 16:24 19.12.2021
637 Clear 3 1026 62 10000 3.09 260 15:26 19.12.2021
638 Clear 3 1026 62 10000 3.09 260 14:50 19.12.2021
639 Clear 5 1028 63 10000 1.54 250 13:46 19.12.2021
640 Clear 2 1028 69 10000 1.54 250 13:21 19.12.2021
641 Clear 6 1029 66 10000 0.51 0 12:33 19.12.2021
642 Clear 4 1030 69 10000 1.03 0 11:40 19.12.2021
643 Clear -2 1031 86 10000 1.54 260 10:52 19.12.2021
644 Clear -3 1031 86 10000 2.06 260 10:23 19.12.2021
645 Clear -3 1032 89 10000 1.54 300 09:20 19.12.2021
646 Clear -7 1032 93 10000 0.51 0 07:47 19.12.2021
647 Clouds -6 1033 93 10000 1.03 0 02:35 19.12.2021
648 Clouds -5 1034 92 10000 1.03 220 00:55 19.12.2021
649 Clear -4 1034 92 10000 1.54 250 23:31 18.12.2021
650 Clear -4 1034 92 10000 1.03 0 22:31 18.12.2021
651 Clear -4 1035 88 10000 0.51 0 21:54 18.12.2021
652 Clear -4 1035 88 10000 1.03 0 21:33 18.12.2021
653 Clear -4 1035 88 10000 0.51 0 20:43 18.12.2021
654 Clear -4 1035 88 10000 0.51 0 19:50 18.12.2021
655 Clear -3 1035 87 10000 1.03 0 19:19 18.12.2021
656 Clear -2 1035 82 10000 2.57 250 18:18 18.12.2021
657 Clear -3 1035 86 10000 1.03 0 17:46 18.12.2021
658 Clear 0 1035 77 10000 0.51 0 16:23 18.12.2021
659 Clear 4 1035 66 10000 1.03 0 15:25 18.12.2021
660 Clear 3 1035 62 10000 2.06 250 14:19 18.12.2021
661 Clear 0 1036 74 10000 2.57 250 12:38 18.12.2021
662 Clouds -3 1038 86 10000 1.54 240 10:52 18.12.2021
663 Clouds -5 1039 97 6000 1.03 0 09:33 18.12.2021
664 Clouds -3 1039 93 6000 1.03 0 08:41 18.12.2021
665 Clouds -4 1038 93 6000 1.54 220 08:18 18.12.2021
666 Clouds -3 1037 93 10000 1.03 0 01:48 18.12.2021
667 Clouds -4 1038 93 10000 1.54 260 00:27 18.12.2021
668 Clouds -3 1038 93 10000 1.03 0 23:37 17.12.2021
669 Clouds -4 1038 93 10000 2.06 260 21:55 17.12.2021
670 Clouds -3 1038 100 10000 1.03 0 20:51 17.12.2021
671 Clear -3 1038 93 10000 0.51 0 20:28 17.12.2021
672 Clear -3 1038 92 10000 0.51 0 18:54 17.12.2021
673 Clear -2 1038 88 10000 1.03 0 18:21 17.12.2021
674 Clear -1 1037 84 10000 0.51 0 17:25 17.12.2021
675 Clear 1 1038 83 10000 1.03 0 16:29 17.12.2021
676 Clouds 2 1037 76 10000 1.54 210 15:51 17.12.2021
677 Clouds 3 1037 78 10000 1.03 0 15:19 17.12.2021
678 Clouds 3 1038 77 10000 1.03 0 14:34 17.12.2021
679 Clouds 2 1038 84 10000 1.54 230 12:45 17.12.2021
680 Clouds 1 1039 83 10000 2.06 310 11:22 17.12.2021
681 Clouds 0 1040 88 10000 1.54 220 09:55 17.12.2021
682 Clouds 0 1040 88 10000 4.12 270 08:58 17.12.2021
683 Clouds 1 1039 86 10000 2.57 260 08:20 17.12.2021
684 Clouds 1 1038 80 10000 1.03 0 05:25 17.12.2021
685 Clouds 0 1038 86 10000 1.54 290 02:52 17.12.2021
686 Clouds 1 1038 93 10000 1.03 260 22:52 16.12.2021
687 Clouds 1 1038 93 10000 1.03 280 22:23 16.12.2021
688 Clouds 1 1039 93 10000 1.03 280 21:45 16.12.2021
689 Clouds 1 1038 93 10000 1.03 0 20:57 16.12.2021
690 Clouds 2 1038 94 10000 1.54 280 20:27 16.12.2021
691 Clouds 1 1039 94 10000 2.06 270 19:35 16.12.2021
692 Clouds 1 1038 94 10000 2.06 260 18:37 16.12.2021
693 Clouds 1 1038 94 10000 3.09 270 17:49 16.12.2021
694 Clouds 1 1038 94 10000 0 0 16:55 16.12.2021
695 Clouds 1 1037 93 10000 1.54 0 16:20 16.12.2021
696 Mist 2 1036 94 5000 0.51 0 14:50 16.12.2021
697 Mist 0 1037 97 4000 1.03 0 12:48 16.12.2021
698 Mist -1 1037 96 4000 0.51 0 11:19 16.12.2021
699 Mist -1 1037 96 4000 1.03 330 10:46 16.12.2021
700 Mist 0 1036 96 2500 1.03 0 09:52 16.12.2021
701 Fog -3 1035 98 1500 1.03 0 07:19 16.12.2021
702 Fog -3 1035 98 400 0.51 0 06:19 16.12.2021
703 Fog -2 1035 99 750 1.54 230 00:44 16.12.2021
704 Fog -2 1035 98 900 0.51 0 23:21 15.12.2021
705 Fog 0 1034 95 500 1.54 70 22:26 15.12.2021
706 Fog 0 1034 94 500 1.03 0 21:49 15.12.2021
707 Fog 0 1034 93 500 1.03 0 21:26 15.12.2021
708 Fog -1 1033 98 500 0.51 0 19:55 15.12.2021
709 Fog -1 1033 98 500 0.51 0 19:22 15.12.2021
710 Fog -1 1033 98 700 1.54 120 18:26 15.12.2021
711 Fog -1 1033 98 800 2.06 70 17:49 15.12.2021
712 Fog -1 1033 94 2000 2.06 90 17:27 15.12.2021
713 Clouds 2 1032 87 10000 1.54 100 16:25 15.12.2021
714 Clouds 1 1032 88 10000 2.57 90 15:42 15.12.2021
715 Clouds 4 1031 75 10000 1.54 140 15:24 15.12.2021
716 Clear 4 1031 75 10000 1.03 0 13:58 15.12.2021
717 Clear 5 1032 81 10000 1.03 0 11:52 15.12.2021
718 Clouds 0 1032 93 10000 0.51 0 10:23 15.12.2021
719 Fog -3 1033 98 10000 0.51 0 08:34 15.12.2021
720 Mist -2 1031 98 5000 1.54 260 05:59 15.12.2021
721 Clouds 0 1031 94 10000 1.03 0 00:45 15.12.2021
722 Clouds 0 1031 93 10000 2.06 250 23:32 14.12.2021
723 Clouds 2 1031 90 10000 1.03 0 22:45 14.12.2021
724 Clouds 1 1031 93 10000 1.03 0 21:47 14.12.2021
725 Clouds 2 1030 91 10000 2.57 270 20:23 14.12.2021
726 Clouds 1 1030 91 10000 1.03 0 19:39 14.12.2021
727 Clouds 2 1030 89 10000 1.03 0 18:42 14.12.2021
728 Clouds 2 1030 89 10000 0.51 0 17:57 14.12.2021
729 Clouds 3 1029 88 10000 1.03 0 16:49 14.12.2021
730 Clouds 4 1029 86 10000 1.03 0 16:30 14.12.2021
731 Clear 5 1028 82 10000 1.03 0 14:39 14.12.2021
732 Clear 7 1028 83 10000 1.03 0 13:22 14.12.2021
733 Clouds 4 1030 89 10000 1.03 0 11:56 14.12.2021
734 Clouds 3 1030 91 10000 1.03 0 11:22 14.12.2021
735 Fog -2 1030 100 350 1.03 0 09:55 14.12.2021
736 Fog 1 1030 95 300 1.03 0 09:22 14.12.2021
737 Fog -4 1031 99 350 1.03 0 08:23 14.12.2021
738 Fog -3 1031 99 500 1.03 0 07:42 14.12.2021
739 Fog -2 1031 98 550 2.06 280 00:35 14.12.2021
740 Fog -1 1031 98 4000 1.03 0 22:33 13.12.2021
741 Fog 1 1031 96 6000 1.54 260 21:49 13.12.2021
742 Fog 1 1031 96 8000 2.06 260 20:58 13.12.2021
743 Fog 1 1031 93 8000 1.03 0 20:29 13.12.2021
744 Clouds 1 1031 93 8000 0.51 0 19:51 13.12.2021
745 Clouds 2 1030 94 10000 0.51 0 17:55 13.12.2021
746 Clouds 2 1030 91 10000 1.54 240 17:19 13.12.2021
747 Clouds 4 1030 89 10000 1.03 160 15:49 13.12.2021
748 Clouds 4 1030 87 10000 0.51 0 15:18 13.12.2021
749 Clouds 4 1030 84 10000 0.51 0 13:38 13.12.2021
750 Clouds 3 1030 86 10000 2.57 260 12:42 13.12.2021
751 Clouds 4 1031 87 10000 2.57 250 11:54 13.12.2021
752 Clouds 4 1031 86 10000 2.57 250 11:35 13.12.2021
753 Clouds 3 1030 92 10000 2.06 270 10:41 13.12.2021
754 Drizzle 2 1030 96 7000 0.51 0 08:52 13.12.2021
755 Clouds 2 1030 95 6000 0.51 0 06:56 13.12.2021
756 Drizzle 2 1029 95 6000 0.51 0 05:23 13.12.2021
757 Drizzle 0 1031 88 4600 1.54 240 00:42 13.12.2021
758 Clouds 1 1031 83 10000 1.03 0 21:59 12.12.2021
759 Clouds 1 1031 83 10000 0.51 0 21:30 12.12.2021
760 Clouds 1 1030 83 10000 1.54 240 19:38 12.12.2021
761 Clouds 1 1030 83 10000 1.03 0 18:24 12.12.2021
762 Clouds 1 1030 79 10000 0.51 0 16:54 12.12.2021
763 Clouds 1 1029 79 10000 1.03 0 16:26 12.12.2021
764 Clouds 2 1029 75 10000 1.54 250 15:28 12.12.2021
765 Snow 1 1029 78 10000 1.54 270 14:54 12.12.2021
766 Snow 1 1029 80 10000 1.54 270 14:22 12.12.2021
767 Rain 0 1030 81 10000 2.06 260 12:51 12.12.2021
768 Clouds -3 1030 97 10000 2.06 270 12:24 12.12.2021
769 Fog -3 1030 94 2500 1.54 270 11:43 12.12.2021
770 Fog -5 1030 98 800 2.06 270 10:45 12.12.2021
771 Mist -4 1030 94 2300 1.54 240 10:21 12.12.2021
772 Fog -3 1028 93 1000 2.06 250 08:53 12.12.2021
773 Mist -2 1028 93 4500 2.06 250 07:31 12.12.2021
774 Clouds -3 1027 100 7000 1.54 310 05:56 12.12.2021
775 Clouds -2 1026 100 6000 2.06 250 04:55 12.12.2021
776 Mist -2 1026 100 1500 1.54 240 02:52 12.12.2021
777 Clouds -1 1023 93 10000 2.06 250 23:30 11.12.2021
778 Clouds 0 1023 93 9000 2.06 250 22:21 11.12.2021
779 Mist 0 1023 93 2100 1.03 280 21:50 11.12.2021
780 Snow 0 1021 100 3100 0.51 0 20:21 11.12.2021
781 Snow 0 1020 100 4000 0.51 0 19:21 11.12.2021
782 Snow 0 1020 100 4000 0.51 0 18:50 11.12.2021
783 Snow 1 1019 93 5000 1.03 0 17:56 11.12.2021
784 Snow 1 1018 86 5000 1.03 0 16:40 11.12.2021
785 Rain 1 1016 86 10000 1.54 80 15:46 11.12.2021
786 Clouds 0 1016 83 10000 1.03 0 14:54 11.12.2021
787 Snow 0 1015 88 9000 0.51 0 12:42 11.12.2021
788 Snow 0 1014 88 10000 0.51 0 11:24 11.12.2021
789 Clouds -2 1013 93 10000 0.51 0 09:45 11.12.2021
790 Clouds -2 1013 93 10000 0.51 0 09:45 11.12.2021
791 Clouds -2 1013 93 10000 0.51 0 09:45 11.12.2021
792 Clouds -2 1013 93 10000 0.51 0 09:45 11.12.2021
793 Clouds -2 1009 93 10000 0.51 0 07:30 11.12.2021
794 Clouds -1 1004 86 10000 1.03 0 00:50 11.12.2021
795 Clouds -1 1003 86 10000 0.51 0 23:49 10.12.2021
796 Clouds -1 1003 86 10000 1.54 290 23:18 10.12.2021
797 Snow -2 1002 82 10000 3.09 290 21:52 10.12.2021
798 Snow -2 1001 81 10000 5.14 280 20:56 10.12.2021
799 Snow -2 999 82 10000 5.66 270 19:20 10.12.2021
800 Clouds -1 998 74 10000 7.72 270 17:54 10.12.2021
801 Clouds -1 998 73 10000 4.63 280 16:55 10.12.2021
802 Clouds -2 997 72 10000 6.17 270 15:47 10.12.2021
803 Clouds -2 997 72 10000 5.66 270 15:29 10.12.2021
804 Clouds -2 997 68 10000 6.69 280 14:59 10.12.2021
805 Clouds 0 998 68 10000 5.66 280 13:51 10.12.2021
806 Clouds -1 998 69 10000 6.69 280 13:25 10.12.2021
807 Clouds -1 998 69 10000 7.72 260 12:23 10.12.2021
808 Clouds -4 999 74 10000 7.72 270 11:28 10.12.2021
809 Clear -6 1000 80 10000 6.17 270 09:54 10.12.2021
810 Clouds -7 1001 87 10000 5.14 280 08:32 10.12.2021
811 Clouds -6 1002 93 10000 1.03 0 05:57 10.12.2021
812 Clouds -4 1005 93 10000 0.51 0 02:48 10.12.2021
813 Clouds -1 1008 93 7000 1.03 0 23:46 09.12.2021
814 Mist -1 1008 93 5000 1.54 250 23:20 09.12.2021
815 Clouds 0 1008 93 6000 0.51 0 22:24 09.12.2021
816 Clouds 0 1008 93 10000 1.54 100 21:50 09.12.2021
817 Clouds 1 1008 93 10000 1.03 0 20:41 09.12.2021
818 Clouds 1 1008 93 10000 1.03 0 20:41 09.12.2021
819 Clouds 0 1008 93 10000 1.54 70 20:20 09.12.2021
820 Snow 1 1008 93 10000 2.57 70 19:21 09.12.2021
821 Snow 1 1007 93 10000 1.54 70 18:36 09.12.2021
822 Drizzle 1 1007 93 8000 2.06 70 17:51 09.12.2021
823 Snow 1 1007 93 8000 3.09 70 17:25 09.12.2021
824 Snow 1 1007 93 10000 2.57 0 16:53 09.12.2021
825 Drizzle 0 1007 94 10000 3.6 60 15:32 09.12.2021
826 Snow 0 1006 94 10000 3.09 70 14:46 09.12.2021
827 Snow 0 1006 94 6000 2.57 90 13:20 09.12.2021
828 Mist 0 1006 94 9000 2.06 80 12:37 09.12.2021
829 Snow 1 1006 94 2500 1.54 50 11:21 09.12.2021
830 Snow 0 1005 97 1500 0.51 0 08:54 09.12.2021
831 Snow -1 1004 98 2000 0.51 0 06:21 09.12.2021
832 Snow 0 1002 97 4000 2.06 90 02:58 09.12.2021
833 Snow -1 1001 98 2800 1.03 60 23:43 08.12.2021
834 Snow 0 1001 96 2000 1.54 80 23:21 08.12.2021
835 Snow 0 1001 96 2000 1.03 0 22:46 08.12.2021
836 Snow 0 1001 95 4000 1.54 170 21:40 08.12.2021
837 Snow 0 1000 90 10000 3.6 290 20:59 08.12.2021
838 Snow -1 1000 87 10000 6.69 260 19:58 08.12.2021
839 Snow -1 1000 87 10000 6.69 260 19:58 08.12.2021
840 Snow -1 1000 87 10000 6.69 260 19:58 08.12.2021
841 Snow -1 1000 86 10000 6.69 260 19:33 08.12.2021
842 Snow 0 1000 86 10000 5.14 270 18:40 08.12.2021
843 Snow 0 1000 86 10000 5.66 270 17:34 08.12.2021
844 Clouds 0 999 78 10000 2.06 270 15:49 08.12.2021
845 Clouds 2 999 76 10000 3.09 280 15:26 08.12.2021
846 Clouds 2 1000 73 10000 4.12 280 14:30 08.12.2021
847 Clouds -2 1003 82 10000 5.66 250 10:55 08.12.2021
848 Snow -2 1004 81 10000 4.12 270 10:28 08.12.2021
849 Snow -3 1005 83 10000 4.12 260 08:55 08.12.2021
850 Clouds -3 1005 83 10000 5.14 270 07:25 08.12.2021
851 Clouds -6 1008 89 10000 3.6 290 02:30 08.12.2021
852 Clouds -6 1010 93 10000 3.09 250 23:33 07.12.2021
853 Clear -5 1011 93 10000 2.06 260 21:40 07.12.2021
854 Clear -5 1011 100 10000 2.57 250 21:18 07.12.2021
855 Clear -4 1012 93 10000 1.54 240 20:19 07.12.2021
856 Clear -3 1013 93 10000 1.54 240 18:43 07.12.2021
857 Clear -3 1013 93 10000 1.03 0 17:48 07.12.2021
858 Clear -2 1013 86 10000 0.51 0 17:19 07.12.2021
859 Clouds -2 1013 86 10000 2.06 260 16:28 07.12.2021
860 Clouds 1 1015 80 10000 1.03 270 15:23 07.12.2021
861 Snow 0 1015 80 10000 1.54 270 13:53 07.12.2021
862 Snow 1 1016 80 10000 1.54 250 12:49 07.12.2021
863 Snow -1 1017 86 2500 0.51 0 11:25 07.12.2021
864 Snow -2 1016 88 6000 0.51 0 10:33 07.12.2021
865 Snow -3 1015 88 2000 1.54 260 07:57 07.12.2021
866 Snow -3 1015 87 10000 2.06 250 05:59 07.12.2021
867 Snow -3 1014 87 10000 2.06 250 05:33 07.12.2021
868 Clouds -3 1014 93 10000 1.54 310 23:47 06.12.2021
869 Clouds -3 1014 93 10000 1.54 210 22:46 06.12.2021
870 Clouds -3 1014 93 10000 1.54 280 22:23 06.12.2021
871 Clouds -3 1014 100 6000 1.03 330 21:46 06.12.2021
872 Clouds -2 1014 93 10000 0.51 0 20:33 06.12.2021
873 Clouds -1 1014 93 10000 0.51 0 19:27 06.12.2021
874 Clouds -1 1014 93 10000 1.03 0 18:59 06.12.2021
875 Clouds 0 1014 93 10000 0.51 0 17:56 06.12.2021
876 Clouds 0 1014 86 10000 1.03 0 17:37 06.12.2021
877 Clouds 0 1014 86 10000 1.54 70 16:22 06.12.2021
878 Clouds 1 1014 84 10000 1.03 0 15:38 06.12.2021
879 Clouds 1 1014 84 10000 0.51 0 13:46 06.12.2021
880 Clouds 1 1014 84 10000 0.51 0 13:46 06.12.2021
881 Clouds 0 1015 87 10000 1.03 0 12:39 06.12.2021
882 Snow 0 1014 93 6000 0.51 0 10:38 06.12.2021
883 Snow -1 1012 86 3000 1.54 300 08:45 06.12.2021
884 Clouds 0 1009 86 10000 3.09 280 04:56 06.12.2021
885 Clouds 0 1007 93 10000 0.51 0 22:54 05.12.2021
886 Clouds 0 1007 100 10000 1.03 0 21:43 05.12.2021
887 Clouds -1 1007 93 10000 0.51 0 21:19 05.12.2021
888 Snow 0 1006 100 10000 0.51 0 20:19 05.12.2021
889 Snow -1 1007 94 10000 0.51 0 19:33 05.12.2021
890 Snow 1 1006 93 10000 1.54 100 18:43 05.12.2021
891 Snow 0 1006 100 8000 0.51 0 18:19 05.12.2021
892 Snow 0 1005 100 4000 1.03 0 17:48 05.12.2021
893 Snow 1 1005 93 8000 0.51 0 16:45 05.12.2021
894 Snow 1 1005 94 8000 0.51 0 16:26 05.12.2021
895 Snow 1 1005 95 3000 2.06 80 14:49 05.12.2021
896 Snow 1 1005 95 4000 2.06 70 14:31 05.12.2021
897 Snow 1 1005 95 4500 1.03 0 13:50 05.12.2021
898 Snow 1 1005 97 2500 0.51 0 13:22 05.12.2021
899 Snow 1 1005 97 2500 1.03 230 12:40 05.12.2021
900 Snow 1 1005 97 2500 1.03 230 12:18 05.12.2021
901 Mist 2 1004 94 3500 2.06 270 11:20 05.12.2021
902 Snow 0 1005 98 10000 0.51 0 09:59 05.12.2021
903 Snow 0 1005 94 7000 1.03 0 07:55 05.12.2021
904 Snow 1 1004 93 10000 2.06 90 02:28 05.12.2021
905 Snow 1 1002 93 10000 1.54 0 23:34 04.12.2021
906 Clouds 2 1002 87 10000 4.12 270 21:54 04.12.2021
907 Clouds 2 1002 88 10000 2.06 250 20:55 04.12.2021
908 Clouds 2 1002 92 10000 1.54 0 19:55 04.12.2021
909 Clouds 2 1002 91 10000 1.54 0 19:31 04.12.2021
910 Rain 2 1003 90 10000 5.14 290 18:20 04.12.2021
911 Rain 1 1002 90 10000 4.12 290 17:38 04.12.2021
912 Clouds 1 1002 86 10000 6.69 270 16:49 04.12.2021
913 Clouds 2 1002 86 10000 5.14 260 16:30 04.12.2021
914 Clouds 4 1003 73 10000 5.14 290 15:22 04.12.2021
915 Snow 2 1006 79 10000 7.2 270 11:50 04.12.2021
916 Clouds 2 1006 79 10000 7.2 270 11:32 04.12.2021
917 Clouds 2 1006 79 10000 7.2 270 11:32 04.12.2021
918 Snow 0 1006 91 4000 6.69 270 10:44 04.12.2021
919 Snow 0 1006 84 10000 7.2 260 08:47 04.12.2021
920 Clouds -1 1008 70 10000 6.17 280 06:26 04.12.2021
921 Clouds -2 1008 75 10000 6.17 280 04:42 04.12.2021
922 Clouds -3 1012 74 10000 2.57 280 00:18 04.12.2021
923 Clouds -3 1014 80 10000 2.06 290 23:20 03.12.2021
924 Clouds -3 1014 74 10000 0.51 0 22:41 03.12.2021
925 Clouds -4 1015 80 10000 0.51 0 21:26 03.12.2021
926 Clouds -5 1015 80 10000 1.54 250 20:52 03.12.2021
927 Clear -4 1015 80 10000 1.03 0 19:50 03.12.2021
928 Clear -3 1014 80 10000 1.03 0 18:34 03.12.2021
929 Clear -2 1015 74 10000 1.03 0 17:59 03.12.2021
930 Clouds 1 1014 60 10000 1.54 220 15:47 03.12.2021
931 Clouds 3 1014 62 10000 0.51 0 12:54 03.12.2021
932 Clouds 2 1015 73 10000 2.06 260 11:49 03.12.2021
933 Clouds 1 1015 80 10000 1.03 0 10:55 03.12.2021
934 Clouds -1 1013 93 10000 2.06 60 08:26 03.12.2021
935 Snow 0 1013 86 10000 2.06 80 07:43 03.12.2021
936 Snow 0 1010 86 10000 1.54 70 04:35 03.12.2021
937 Snow 0 1007 93 10000 4.12 70 00:48 03.12.2021
938 Snow 1 1006 86 10000 1.54 160 23:47 02.12.2021
939 Snow 0 1009 98 1720 1.23 323 22:24 02.12.2021
940 Snow 1 1004 90 10000 1.54 0 21:35 02.12.2021
941 Rain 2 1004 93 10000 1.54 90 20:40 02.12.2021
942 Rain 2 1001 93 10000 1.54 270 19:57 02.12.2021
943 Rain 2 1000 93 10000 1.03 0 18:34 02.12.2021
944 Clouds 3 1000 89 10000 1.54 90 16:32 02.12.2021
945 Clouds 4 1000 86 10000 0.51 0 15:30 02.12.2021
946 Clouds 4 1000 87 10000 1.54 150 14:51 02.12.2021
947 Clouds 3 1000 94 10000 1.03 0 12:53 02.12.2021
948 Clouds 4 1000 92 10000 1.54 90 12:19 02.12.2021
949 Clouds 3 1001 93 10000 0.51 0 10:41 02.12.2021
950 Rain 1 1001 94 10000 1.03 0 09:25 02.12.2021
951 Clouds 1 1001 98 10000 1.03 0 06:45 02.12.2021
952 Clouds 2 1002 90 10000 2.57 270 00:55 02.12.2021
953 Clouds 2 1002 90 10000 3.6 300 23:30 01.12.2021
954 Clouds 2 1002 93 10000 4.63 270 22:25 01.12.2021
955 Clouds 4 1001 87 10000 3.6 260 21:36 01.12.2021
956 Clouds 4 1000 87 10000 2.06 0 19:59 01.12.2021
957 Clouds 4 1000 87 10000 2.06 0 19:36 01.12.2021
958 Clouds 2 1001 90 10000 2.06 0 17:50 01.12.2021
959 Clouds 3 1001 87 10000 2.57 0 16:58 01.12.2021
960 Clouds 4 1002 91 10000 2.06 0 15:20 01.12.2021
961 Clouds 4 1002 84 10000 1.54 190 14:24 01.12.2021
962 Clouds 5 1003 88 10000 1.54 80 13:36 01.12.2021
963 Clouds 4 1007 95 10000 0.51 0 10:43 01.12.2021
964 Clouds 2 1008 96 10000 2.57 260 09:59 01.12.2021
965 Clouds 0 1008 98 10000 1.03 0 08:50 01.12.2021
966 Clouds 1 1009 100 10000 1.54 220 07:54 01.12.2021
967 Clouds 1 1010 100 10000 1.54 300 07:19 01.12.2021
968 Mist 0 1013 94 3200 1.03 0 03:50 01.12.2021
969 Clouds 0 1013 94 10000 1.03 0 03:19 01.12.2021
970 Rain 1 1015 94 10000 2.57 100 23:59 30.11.2021
971 Clouds 2 1016 94 10000 2.06 130 23:28 30.11.2021
972 Clouds 3 1016 94 10000 1.03 0 22:28 30.11.2021
973 Rain 2 1016 95 10000 1.54 130 20:46 30.11.2021
974 Drizzle 3 1015 93 10000 1.54 130 20:24 30.11.2021
975 Rain 2 1014 93 10000 1.03 0 19:39 30.11.2021
976 Rain 2 1014 94 10000 1.03 0 18:52 30.11.2021
977 Snow 1 1015 96 4000 1.54 140 17:23 30.11.2021
978 Snow 0 1014 94 2000 1.03 0 15:57 30.11.2021
979 Snow 0 1015 93 800 1.03 0 14:33 30.11.2021
980 Mist 0 1015 93 2000 2.06 50 13:41 30.11.2021
981 Snow 0 1016 90 2000 1.54 30 12:54 30.11.2021
982 Snow 0 1017 85 10000 1.03 0 11:55 30.11.2021
983 Snow 0 1017 84 10000 1.03 0 11:25 30.11.2021
984 Snow 0 1018 86 10000 0.51 0 10:36 30.11.2021
985 Clouds -3 1017 93 10000 1.03 0 08:56 30.11.2021
986 Clouds -2 1016 93 10000 1.54 170 08:32 30.11.2021
987 Clouds -2 1016 93 10000 0.51 0 07:50 30.11.2021
988 Snow -2 1016 93 10000 1.54 80 06:37 30.11.2021
989 Clouds -2 1015 86 10000 1.03 0 01:49 30.11.2021
990 Snow -2 1014 86 10000 1.03 0 01:27 30.11.2021
991 Snow -2 1014 86 10000 1.03 0 23:36 29.11.2021
992 Clouds -2 1014 86 10000 1.03 0 23:18 29.11.2021
993 Clouds -2 1014 86 10000 1.03 0 23:18 29.11.2021
994 Clouds -2 1014 86 10000 1.03 0 22:38 29.11.2021
995 Clouds -2 1013 86 10000 1.03 0 21:54 29.11.2021
996 Clouds -2 1013 86 10000 0.51 0 21:20 29.11.2021
997 Clouds -2 1012 80 10000 1.03 0 20:46 29.11.2021
998 Clouds -2 1012 80 10000 1.03 0 19:58 29.11.2021
999 Clouds -2 1012 80 10000 1.03 0 19:40 29.11.2021
1000 Clouds -1 1011 69 10000 2.57 240 18:59 29.11.2021
1001 Clouds -9 1020 98 9451 1.55 222 18:41 29.11.2021
1002 Snow -4 1014 97 10000 1.52 321 17:21 29.11.2021
1003 Snow -4 1014 97 10000 1.52 321 16:45 29.11.2021
1004 Snow -1 1011 95 1952 1.82 329 16:24 29.11.2021
1005 Snow 0 1009 87 1286 1.95 335 14:46 29.11.2021
1006 Rain 1 1008 80 1858 1.95 338 13:52 29.11.2021
1007 Rain 1 1007 78 10000 2.17 340 12:58 29.11.2021
1008 Rain 1 1007 83 1451 2.21 342 12:19 29.11.2021
1009 Snow 1 1007 88 379 1.81 342 11:28 29.11.2021
1010 Snow 0 1006 90 445 1.34 326 09:58 29.11.2021
1011 Snow -1 1000 93 10000 0.51 0 07:26 29.11.2021
1012 Snow -1 999 100 7000 0.51 0 05:51 29.11.2021
1013 Snow -1 998 100 6000 0.51 0 01:22 29.11.2021
1014 Snow 0 997 93 5000 1.03 0 23:54 28.11.2021
1015 Snow 0 997 93 5000 1.03 0 23:36 28.11.2021
1016 Snow 0 997 93 7000 1.54 270 22:18 28.11.2021
1017 Snow 0 997 93 6000 1.03 310 21:39 28.11.2021
1018 Snow 0 996 93 5000 1.03 110 20:40 28.11.2021
1019 Snow 0 996 93 8000 1.03 230 19:44 28.11.2021
1020 Snow 0 996 93 8000 1.03 0 18:40 28.11.2021
1021 Snow 0 996 93 8000 1.03 0 18:18 28.11.2021
1022 Snow 0 996 93 8000 0.51 0 17:34 28.11.2021
1023 Rain 1 995 86 10000 1.03 0 16:47 28.11.2021
1024 Rain 1 995 86 10000 1.03 0 16:47 28.11.2021
1025 Snow 1 995 86 10000 2.06 290 16:27 28.11.2021
1026 Rain 1 995 86 10000 0.51 0 15:50 28.11.2021
1027 Snow 1 995 86 10000 0.51 0 14:55 28.11.2021
1028 Rain 1 995 86 10000 1.03 0 14:28 28.11.2021
1029 Clouds 1 995 86 10000 2.06 60 12:54 28.11.2021
1030 Clouds 1 996 86 10000 1.03 0 11:38 28.11.2021
1031 Snow 0 996 93 10000 0.51 0 10:31 28.11.2021
1032 Snow 0 996 93 10000 1.03 0 09:46 28.11.2021
1033 Snow 0 996 93 10000 2.06 290 09:27 28.11.2021
1034 Snow 0 996 100 2300 1.03 0 00:50 28.11.2021
1035 Rain 1 996 93 9000 1.54 90 21:49 27.11.2021
1036 Rain 1 996 100 8000 2.06 250 19:50 27.11.2021
1037 Snow 1 995 93 10000 1.03 0 18:26 27.11.2021
1038 Clouds 2 994 87 10000 2.06 90 16:18 27.11.2021
1039 Clouds 2 993 87 10000 0.51 0 14:44 27.11.2021
1040 Clouds 2 993 87 5000 1.03 0 13:38 27.11.2021
1041 Snow 1 993 93 4000 1.03 270 11:28 27.11.2021
1042 Snow 1 992 93 4000 0.51 0 10:19 27.11.2021
1043 Snow 0 992 100 4000 1.54 110 08:53 27.11.2021
1044 Snow 0 992 100 4000 2.57 90 06:58 27.11.2021
1045 Snow 0 992 100 2400 1.54 100 04:40 27.11.2021
1046 Snow 1 994 86 4800 1.03 0 00:23 27.11.2021
1047 Rain 1 995 86 10000 0.51 0 22:50 26.11.2021
1048 Rain 1 996 86 10000 2.06 120 22:23 26.11.2021
1049 Snow 1 996 86 10000 2.06 90 21:23 26.11.2021
1050 Snow 1 997 86 10000 2.06 110 20:41 26.11.2021
1051 Snow 1 997 86 10000 1.54 80 19:55 26.11.2021
1052 Snow 1 997 86 10000 2.06 70 18:47 26.11.2021
1053 Snow 1 997 86 10000 1.54 70 17:45 26.11.2021
1054 Rain 1 997 86 10000 2.06 100 17:21 26.11.2021
1055 Clouds 2 997 80 10000 3.09 90 15:22 26.11.2021
1056 Clouds 1 999 92 10000 2.06 70 13:35 26.11.2021
1057 Snow 0 1000 91 7000 2.57 70 10:45 26.11.2021
1058 Snow 1 1001 91 9000 2.57 60 09:54 26.11.2021
1059 Snow 1 1001 91 10000 2.57 60 08:53 26.11.2021
1060 Snow 1 1002 91 10000 2.06 60 08:20 26.11.2021
1061 Clouds 1 1002 91 10000 2.06 70 06:41 26.11.2021
1062 Snow 1 1002 91 10000 2.06 50 06:22 26.11.2021
1063 Clouds 1 1004 90 10000 2.57 60 03:44 26.11.2021
1064 Clouds 3 1004 83 10000 1.03 0 00:57 26.11.2021
1065 Clouds 0 1007 84 10000 3.09 70 22:38 25.11.2021
1066 Clouds 1 1008 83 10000 2.57 80 21:19 25.11.2021
1067 Clouds 2 1008 77 10000 2.57 90 19:54 25.11.2021
1068 Clouds 3 1007 73 10000 2.06 90 18:45 25.11.2021
1069 Rain 4 1007 68 10000 3.09 260 17:29 25.11.2021
1070 Rain 4 1007 67 10000 4.12 280 16:58 25.11.2021
1071 Clear 5 1007 61 10000 4.12 280 16:29 25.11.2021
1072 Clear 7 1007 57 10000 4.63 280 14:56 25.11.2021
1073 Clear 7 1007 61 10000 6.69 270 13:25 25.11.2021
1074 Clear 5 1008 65 10000 5.14 270 12:19 25.11.2021
1075 Clear 4 1009 70 10000 3.09 270 11:40 25.11.2021
1076 Clear -1 1010 86 10000 1.54 260 09:25 25.11.2021
1077 Clouds -2 1012 86 10000 1.03 0 04:24 25.11.2021
1078 Clouds -3 1013 93 10000 1.03 0 02:45 25.11.2021
1079 Clear 3 1015 73 10000 0.51 0 22:44 24.11.2021
1080 Clear 2 1015 79 10000 0.51 0 22:21 24.11.2021
1081 Clear 2 1016 75 10000 1.54 170 21:27 24.11.2021
1082 Clear 0 1017 80 10000 0.51 0 20:42 24.11.2021
1083 Clear 2 1016 75 10000 1.03 0 20:18 24.11.2021
1084 Clear 2 1017 75 10000 0.51 0 18:30 24.11.2021
1085 Clear 4 1018 70 10000 1.54 270 17:24 24.11.2021
1086 Clear 9 1017 55 10000 1.03 0 15:23 24.11.2021
1087 Clear 8 1018 56 10000 1.54 180 14:47 24.11.2021
1088 Clear 9 1018 55 10000 1.54 0 14:19 24.11.2021
1089 Clear 9 1018 55 10000 1.54 0 14:19 24.11.2021
1090 Clear 4 1021 70 10000 1.03 0 11:51 24.11.2021
1091 Clear 2 1022 80 10000 1.03 0 11:20 24.11.2021
1092 Clear 1 1022 86 10000 1.03 0 10:47 24.11.2021
1093 Rain 1 1022 86 10000 1.03 0 10:21 24.11.2021
1094 Clouds 0 1023 95 10000 1.03 0 07:52 24.11.2021
1095 Clouds -1 1024 91 10000 1.03 0 06:54 24.11.2021
1096 Clear 0 1025 90 10000 0.51 0 03:50 24.11.2021
1097 Clouds 2 1026 81 10000 1.54 250 00:32 24.11.2021
1098 Clouds 3 1027 82 10000 1.54 280 22:40 23.11.2021
1099 Clouds 2 1026 81 10000 1.54 250 21:54 23.11.2021
1100 Clouds 2 1026 81 10000 0.51 0 21:36 23.11.2021
1101 Clouds 4 1026 75 10000 0.51 0 19:37 23.11.2021
1102 Clouds 4 1026 70 10000 2.06 70 18:41 23.11.2021
1103 Clouds 4 1026 70 10000 2.06 80 18:18 23.11.2021
1104 Clouds 5 1025 75 10000 1.03 0 16:57 23.11.2021
1105 Clouds 5 1026 74 10000 1.03 0 15:59 23.11.2021
1106 Clouds 6 1026 72 10000 1.54 0 15:20 23.11.2021
1107 Clouds 6 1026 75 10000 1.03 0 13:50 23.11.2021
1108 Clouds 5 1027 83 10000 2.57 60 11:42 23.11.2021
1109 Clouds 3 1027 91 10000 2.57 60 09:59 23.11.2021
1110 Clouds 3 1027 91 10000 1.54 140 08:46 23.11.2021
1111 Clouds 4 1025 94 7000 1.54 50 06:39 23.11.2021
1112 Clouds 3 1025 93 10000 1.03 0 03:45 23.11.2021
1113 Clouds 3 1024 89 10000 1.54 90 00:54 23.11.2021
1114 Clouds 3 1024 90 10000 2.06 70 23:21 22.11.2021
1115 Clouds 3 1023 90 10000 1.03 0 22:33 22.11.2021
1116 Clouds 3 1023 90 10000 0.51 0 21:48 22.11.2021
1117 Clouds 3 1023 90 10000 0.51 0 21:29 22.11.2021
1118 Clouds 3 1022 90 10000 0.51 0 20:50 22.11.2021
1119 Drizzle 3 1022 90 10000 0.51 0 19:47 22.11.2021
1120 Drizzle 3 1021 90 10000 0.51 0 19:18 22.11.2021
1121 Drizzle 3 1021 90 10000 1.03 130 18:37 22.11.2021
1122 Clouds 3 1020 90 10000 1.03 0 17:18 22.11.2021
1123 Clouds 3 1019 90 10000 1.54 70 15:43 22.11.2021
1124 Clouds 3 1018 90 10000 0.51 0 13:57 22.11.2021
1125 Clouds 3 1018 88 10000 1.03 0 11:41 22.11.2021
1126 Clouds 3 1017 88 10000 1.54 30 10:39 22.11.2021
1127 Clouds 3 1016 90 7000 2.06 80 09:24 22.11.2021
1128 Clouds 3 1015 90 7000 3.09 60 08:36 22.11.2021
1129 Clouds 3 1013 93 10000 2.57 70 04:33 22.11.2021
1130 Clear 3 1012 89 10000 1.03 0 23:24 21.11.2021
1131 Clear 3 1012 87 10000 1.03 110 22:48 21.11.2021
1132 Clear 3 1011 86 10000 1.03 0 21:48 21.11.2021
1133 Clear 3 1011 83 10000 0.51 0 20:41 21.11.2021
1134 Clear 3 1011 82 10000 0.51 0 19:46 21.11.2021
1135 Clear 4 1010 79 10000 0.51 0 17:59 21.11.2021
1136 Clear 5 1010 77 10000 0.51 0 17:37 21.11.2021
1137 Clear 10 1009 57 10000 1.54 170 15:25 21.11.2021
1138 Clear 10 1009 56 10000 1.03 0 14:44 21.11.2021
1139 Clear 11 1009 56 10000 1.03 0 13:40 21.11.2021
1140 Clear 9 1011 62 10000 1.03 0 12:35 21.11.2021
1141 Clear 5 1012 75 10000 1.03 0 11:42 21.11.2021
1142 Clear 3 1013 81 10000 0.51 0 10:55 21.11.2021
1143 Clear 10 1012 64 10000 0.61 247 10:18 21.11.2021
1144 Clouds -2 1014 93 10000 1.03 0 08:40 21.11.2021
1145 Clear 7 1013 75 10000 1.59 212 08:20 21.11.2021
1146 Fog -3 1014 100 10000 0.51 0 07:41 21.11.2021
1147 Clear -2 1015 93 10000 0.51 0 05:48 21.11.2021
1148 Clear -2 1016 100 10000 1.03 0 04:37 21.11.2021
1149 Mist -1 1017 93 5000 1.03 0 03:18 21.11.2021
1150 Mist -2 1017 100 2100 0.51 0 02:48 21.11.2021
1151 Clouds -1 1019 100 10000 1.03 260 00:54 21.11.2021
1152 Clouds 0 1020 93 10000 1.03 0 23:41 20.11.2021
1153 Clear 0 1021 93 10000 1.54 240 21:39 20.11.2021
1154 Clear 4 1021 85 10000 0.51 0 20:50 20.11.2021
1155 Clear 5 1022 82 10000 1.03 0 18:46 20.11.2021
1156 Clear 6 1022 80 10000 0.51 0 18:26 20.11.2021
1157 Clear 6 1023 80 10000 1.03 0 17:22 20.11.2021
1158 Clear 7 1023 73 10000 1.03 0 16:42 20.11.2021
1159 Clear 11 1023 61 10000 1.03 0 14:43 20.11.2021
1160 Clear 11 1023 54 10000 1.03 0 14:23 20.11.2021
1161 Clear 6 1027 75 10000 2.57 260 11:57 20.11.2021
1162 Clear 3 1028 87 10000 2.06 290 10:35 20.11.2021
1163 Clear 7 1029 81 10000 0.9 212 09:29 20.11.2021
1164 Clear -2 1029 100 10000 0.51 0 07:22 20.11.2021
1165 Clear -1 1029 100 10000 1.03 290 05:26 20.11.2021
1166 Clear -1 1030 93 8000 1.03 0 04:50 20.11.2021
1167 Clear 3 1031 90 10000 1.54 240 01:48 20.11.2021
1168 Clouds 4 1031 86 10000 0.51 0 00:40 20.11.2021
1169 Clear 2 1032 88 10000 1.54 280 22:55 19.11.2021
1170 Clear 0 1031 93 10000 0.51 0 21:58 19.11.2021
1171 Clear 4 1031 87 10000 1.03 0 20:58 19.11.2021
1172 Clear 4 1031 87 10000 1.03 0 20:36 19.11.2021
1173 Clear 3 1032 85 10000 1.03 0 19:50 19.11.2021
1174 Clear 4 1032 84 10000 1.03 0 18:54 19.11.2021
1175 Clear 2 1032 82 10000 1.03 0 18:22 19.11.2021
1176 Clear 6 1032 78 10000 2.57 270 17:26 19.11.2021
1177 Clear 7 1032 68 10000 1.03 0 15:32 19.11.2021
1178 Clear 6 1032 70 10000 2.06 260 13:28 19.11.2021
1179 Clear 3 1033 87 10000 1.03 0 10:27 19.11.2021
1180 Clear 3 1033 87 10000 1.03 0 10:27 19.11.2021
1181 Clear 2 1034 93 10000 1.54 290 09:37 19.11.2021
1182 Clear 0 1034 93 10000 1.54 270 08:20 19.11.2021
1183 Clouds 2 1034 91 10000 1.54 300 04:51 19.11.2021
1184 Clouds 4 1034 87 10000 2.57 270 02:27 19.11.2021
1185 Clouds 5 1033 85 10000 1.03 300 23:51 18.11.2021
1186 Clouds 5 1032 87 10000 1.03 0 21:55 18.11.2021
1187 Clouds 5 1032 84 10000 0.51 0 20:49 18.11.2021
1188 Clouds 5 1031 84 10000 1.03 0 20:30 18.11.2021
1189 Clouds 4 1031 87 10000 0.51 0 19:49 18.11.2021
1190 Clouds 5 1031 81 10000 1.54 260 19:29 18.11.2021
1191 Clouds 6 1030 85 10000 0.51 0 18:28 18.11.2021
1192 Clouds 6 1030 85 10000 0.51 0 17:51 18.11.2021
1193 Clouds 6 1030 85 10000 0.51 0 17:51 18.11.2021
1194 Clouds 8 1030 82 10000 1.54 320 16:44 18.11.2021
1195 Clouds 8 1030 80 10000 3.09 270 15:32 18.11.2021
1196 Clouds 8 1031 81 10000 1.03 0 13:31 18.11.2021
1197 Clouds 7 1031 83 10000 1.54 70 12:33 18.11.2021
1198 Clouds 6 1032 88 10000 0.51 0 11:42 18.11.2021
1199 Clouds 6 1032 90 10000 0.51 0 11:24 18.11.2021
1200 Clouds 5 1031 93 10000 1.54 50 09:37 18.11.2021
1201 Clouds 5 1030 92 10000 3.09 70 07:35 18.11.2021
1202 Clouds 5 1029 94 10000 1.03 0 05:55 18.11.2021
1203 Clouds 5 1029 94 10000 1.03 0 05:36 18.11.2021
1204 Drizzle 5 1028 93 6000 1.54 70 01:24 18.11.2021
1205 Clouds 5 1027 91 10000 0.51 0 23:18 17.11.2021
1206 Clouds 5 1027 89 10000 2.06 80 22:21 17.11.2021
1207 Clouds 5 1026 89 10000 2.57 60 21:53 17.11.2021
1208 Clouds 5 1026 89 10000 2.57 60 21:34 17.11.2021
1209 Clouds 5 1025 91 10000 2.57 60 18:47 17.11.2021
1210 Clouds 5 1023 89 10000 2.57 70 17:28 17.11.2021
1211 Clouds 6 1022 76 10000 1.54 50 14:52 17.11.2021
1212 Clouds 5 1023 80 10000 1.54 30 12:42 17.11.2021
1213 Clouds 5 1022 81 10000 2.06 80 11:49 17.11.2021
1214 Clouds 6 1021 81 10000 0.51 0 10:49 17.11.2021
1215 Clouds 5 1022 91 10000 1.54 40 09:26 17.11.2021
1216 Clouds 4 1021 93 10000 2.57 60 07:45 17.11.2021
1217 Clouds 4 1020 96 8000 2.06 70 06:20 17.11.2021
1218 Clouds 4 1020 94 8000 2.57 70 02:42 17.11.2021
1219 Clouds 5 1020 93 10000 3.09 70 23:27 16.11.2021
1220 Clouds 4 1020 93 10000 2.06 50 21:48 16.11.2021
1221 Clouds 5 1019 91 10000 2.06 50 20:19 16.11.2021
1222 Clouds 5 1019 90 10000 2.57 70 18:56 16.11.2021
1223 Clouds 5 1019 90 10000 2.57 70 18:36 16.11.2021
1224 Clouds 5 1019 90 10000 2.57 70 18:36 16.11.2021
1225 Rain 5 1019 90 10000 3.09 70 17:44 16.11.2021
1226 Clouds 8 1019 85 10000 3.09 90 16:58 16.11.2021
1227 Clouds 7 1019 87 10000 3.09 90 16:18 16.11.2021
1228 Clouds 8 1018 87 10000 4.12 90 15:41 16.11.2021
1229 Clouds 10 1019 81 10000 1.03 0 12:40 16.11.2021
1230 Fog 6 1021 93 800 0.51 0 09:49 16.11.2021
1231 Fog 6 1021 93 500 1.03 0 08:50 16.11.2021
1232 Fog 4 1021 95 500 1.03 280 07:34 16.11.2021
1233 Fog 5 1021 93 600 0.51 0 05:27 16.11.2021
1234 Mist 5 1021 95 2600 0.51 0 23:24 15.11.2021
1235 Clouds 4 1022 95 10000 0.51 0 22:40 15.11.2021
1236 Clouds 4 1022 95 7000 0.51 0 21:55 15.11.2021
1237 Mist 4 1022 93 4300 1.03 0 21:30 15.11.2021
1238 Clouds 4 1022 94 10000 0.51 0 20:29 15.11.2021
1239 Clouds 5 1022 92 10000 1.03 0 18:53 15.11.2021
1240 Clouds 6 1021 87 10000 0.51 0 16:59 15.11.2021
1241 Clouds 7 1021 87 10000 1.03 170 15:48 15.11.2021
1242 Clouds 7 1021 84 10000 1.03 0 15:30 15.11.2021
1243 Clouds 7 1020 81 10000 3.09 260 13:53 15.11.2021
1244 Clouds 7 1021 81 10000 1.03 0 12:18 15.11.2021
1245 Clouds 5 1023 89 10000 1.03 0 09:30 15.11.2021
1246 Clouds 5 1023 93 10000 0.51 0 08:37 15.11.2021
1247 Clouds 5 1022 92 10000 1.54 270 06:21 15.11.2021
1248 Clouds 6 1021 93 10000 1.54 260 00:33 15.11.2021
1249 Clouds 6 1022 91 10000 0.51 0 22:40 14.11.2021
1250 Clouds 6 1021 90 10000 0 0 21:18 14.11.2021
1251 Clouds 6 1020 90 10000 1.54 90 19:18 14.11.2021
1252 Clouds 7 1020 92 10000 1.54 80 18:54 14.11.2021
1253 Clouds 7 1020 92 10000 1.54 80 18:36 14.11.2021
1254 Clouds 6 1020 92 10000 0.51 0 18:18 14.11.2021
1255 Clouds 6 1020 92 10000 2.06 270 17:57 14.11.2021
1256 Clouds 6 1020 91 10000 2.06 270 17:39 14.11.2021
1257 Clouds 7 1019 89 10000 1.54 190 17:21 14.11.2021
1258 Clouds 7 1019 91 10000 1.54 170 16:55 14.11.2021
1259 Clouds 8 1019 86 10000 1.54 240 16:37 14.11.2021
1260 Clouds 8 1019 86 10000 1.54 240 16:18 14.11.2021
1261 Clouds 9 1018 82 10000 1.54 0 15:19 14.11.2021
1262 Clouds 9 1018 83 10000 2.57 70 14:37 14.11.2021
1263 Clouds 8 1018 82 10000 2.57 100 14:18 14.11.2021
1264 Clouds 8 1018 80 10000 1.54 90 13:40 14.11.2021
1265 Clouds 8 1018 83 10000 1.03 0 12:52 14.11.2021
1266 Clouds 7 1018 85 10000 0.51 0 12:21 14.11.2021
1267 Clouds 6 1018 90 10000 0.51 0 10:54 14.11.2021
1268 Clouds 5 1018 93 10000 0.51 0 10:30 14.11.2021
1269 Clouds 5 1018 93 10000 1.03 0 09:18 14.11.2021
1270 Clouds 4 1018 94 10000 1.03 0 08:43 14.11.2021
1271 Rain 5 1017 94 10000 1.54 120 04:46 14.11.2021
1272 Rain 7 1017 93 7000 1.03 0 22:28 13.11.2021
1273 Rain 7 1017 93 7000 1.03 0 22:28 13.11.2021
1274 Rain 7 1017 93 8000 1.03 0 21:59 13.11.2021
1275 Clouds 7 1017 92 7000 2.06 250 21:29 13.11.2021
1276 Clouds 8 1017 89 9000 2.57 280 20:25 13.11.2021
1277 Clouds 8 1016 84 10000 2.06 270 18:53 13.11.2021
1278 Clouds 8 1016 83 10000 2.06 260 18:26 13.11.2021
1279 Clouds 8 1015 81 10000 1.03 180 17:32 13.11.2021
1280 Clouds 9 1015 76 10000 1.03 0 15:42 13.11.2021
1281 Clouds 9 1015 73 10000 2.57 110 14:39 13.11.2021
1282 Clouds 11 1014 71 10000 2.06 100 13:46 13.11.2021
1283 Clouds 9 1015 74 10000 2.57 70 12:40 13.11.2021
1284 Clouds 8 1016 82 8000 2.06 110 11:45 13.11.2021
1285 Mist 8 1017 86 2000 2.06 100 10:57 13.11.2021
1286 Mist 3 1018 100 1700 1.03 0 10:29 13.11.2021
1287 Fog 2 1018 100 500 1.54 80 09:42 13.11.2021
1288 Fog 2 1018 100 500 1.54 80 09:42 13.11.2021
1289 Fog 2 1018 100 400 0.51 0 09:22 13.11.2021
1290 Fog 2 1018 100 400 0.51 0 08:41 13.11.2021
1291 Fog 5 1016 91 400 1.03 0 07:25 13.11.2021
1292 Clouds 5 1016 91 10000 1.03 0 04:36 13.11.2021
1293 Clear 5 1016 90 7000 0.51 0 02:27 13.11.2021
1294 Clear 8 1016 84 10000 0.51 0 23:27 12.11.2021
1295 Clear 8 1017 84 10000 1.03 0 21:52 12.11.2021
1296 Clear 8 1017 81 10000 1.03 0 20:20 12.11.2021
1297 Clear 8 1017 79 10000 0.51 0 19:31 12.11.2021
1298 Clear 9 1017 77 10000 0.51 0 18:53 12.11.2021
1299 Clear 9 1016 73 10000 1.03 0 17:34 12.11.2021
1300 Clear 15 1016 57 10000 1.54 150 15:51 12.11.2021
1301 Clear 15 1017 59 10000 1.54 250 13:25 12.11.2021
1302 Clear 8 1020 76 10000 2.06 280 11:23 12.11.2021
1303 Clear 5 1021 87 10000 1.03 0 09:54 12.11.2021
1304 Clear 2 1021 93 10000 1.03 190 08:45 12.11.2021
1305 Clouds 5 1020 92 6000 1.54 260 06:34 12.11.2021
1306 Clear 7 1022 87 10000 0.51 0 23:43 11.11.2021
1307 Clear 7 1022 87 10000 0.51 0 23:43 11.11.2021
1308 Clear 6 1023 87 10000 0.51 0 22:46 11.11.2021
1309 Clear 6 1023 87 10000 0.51 0 22:46 11.11.2021
1310 Clear 6 1023 86 10000 1.54 260 21:43 11.11.2021
1311 Clear 7 1023 83 10000 1.03 0 20:51 11.11.2021
1312 Clear 6 1024 85 10000 0 0 19:36 11.11.2021
1313 Clear 8 1023 75 10000 1.03 0 18:25 11.11.2021
1314 Clear 9 1023 74 10000 0.51 0 17:40 11.11.2021
1315 Clear 15 1022 52 10000 1.54 180 15:21 11.11.2021
1316 Clear 16 1021 50 10000 4.63 270 14:38 11.11.2021
1317 Clear 17 1021 50 10000 3.6 260 14:19 11.11.2021
1318 Clear 17 1021 50 10000 4.12 270 13:35 11.11.2021
1319 Clear 15 1023 56 10000 6.17 270 12:23 11.11.2021
1320 Clear 9 1024 71 10000 4.63 280 09:54 11.11.2021
1321 Clear 7 1024 81 10000 1.54 270 08:28 11.11.2021
1322 Clear 7 1024 79 10000 3.09 270 06:44 11.11.2021
1323 Clouds 4 1025 84 10000 1.03 0 00:38 11.11.2021
1324 Clouds 6 1024 84 10000 1.54 0 22:41 10.11.2021
1325 Clouds 6 1025 82 10000 1.03 0 21:53 10.11.2021
1326 Clouds 5 1025 85 10000 0.51 0 20:55 10.11.2021
1327 Clouds 5 1025 81 10000 0.51 0 19:55 10.11.2021
1328 Clouds 6 1025 77 10000 0.51 0 19:35 10.11.2021
1329 Clouds 10 1024 57 10000 3.6 90 17:19 10.11.2021
1330 Clouds 13 1023 50 10000 2.57 100 15:46 10.11.2021
1331 Clear 13 1023 51 10000 4.12 260 14:24 10.11.2021
1332 Clear 12 1024 50 10000 5.14 270 13:31 10.11.2021
1333 Clear 11 1025 53 10000 7.2 270 11:40 10.11.2021
1334 Clear 5 1027 71 10000 3.09 290 09:18 10.11.2021
1335 Clear 5 1026 75 10000 1.03 0 08:40 10.11.2021
1336 Clear 4 1026 75 10000 0.51 0 06:45 10.11.2021
1337 Clouds 3 1027 72 10000 1.54 230 05:58 10.11.2021
1338 Clouds 3 1028 69 10000 5.14 280 01:56 10.11.2021
1339 Clouds 2 1028 75 10000 2.57 260 21:59 09.11.2021
1340 Clear 2 1028 76 10000 1.03 0 20:39 09.11.2021
1341 Clear 4 1027 75 10000 3.09 270 19:29 09.11.2021
1342 Clear 5 1027 75 10000 4.12 260 18:48 09.11.2021
1343 Clear 6 1026 62 10000 1.03 0 16:40 09.11.2021
1344 Clear 9 1026 55 10000 1.03 0 15:20 09.11.2021
1345 Clear 8 1026 57 10000 1.54 0 13:31 09.11.2021
1346 Clear 7 1026 61 10000 1.03 0 12:28 09.11.2021
1347 Clouds 5 1027 75 10000 3.09 270 10:55 09.11.2021
1348 Clouds 4 1027 75 10000 1.03 0 09:44 09.11.2021
1349 Clouds 2 1028 80 10000 1.03 0 08:53 09.11.2021
1350 Clouds 2 1026 85 10000 0.51 0 06:59 09.11.2021
1351 Clouds 1 1025 70 10000 3.6 110 02:32 09.11.2021
1352 Clouds 1 1025 87 10000 1.03 0 01:50 09.11.2021
1353 Clouds 0 1025 86 10000 1.03 170 00:30 09.11.2021
1354 Clouds 0 1025 86 10000 1.03 170 00:30 09.11.2021
1355 Clouds 0 1025 86 10000 1.03 170 00:30 09.11.2021
1356 Clouds 0 1025 86 10000 1.03 170 00:30 09.11.2021
1357 Clouds 2 1025 87 10000 1.03 0 23:29 08.11.2021
1358 Clouds 2 1025 87 10000 1.54 240 22:36 08.11.2021
1359 Clouds 4 1024 84 10000 1.54 230 21:31 08.11.2021
1360 Clouds 5 1024 75 10000 1.03 0 20:31 08.11.2021
1361 Clouds 5 1023 70 10000 1.03 110 19:20 08.11.2021
1362 Clouds 7 1022 70 10000 1.03 190 17:39 08.11.2021
1363 Clouds 7 1022 70 10000 1.03 190 17:39 08.11.2021
1364 Clouds 8 1020 61 10000 2.57 130 15:48 08.11.2021
1365 Clouds 8 1021 65 10000 2.06 120 14:55 08.11.2021
1366 Clouds 8 1022 65 10000 3.09 80 14:24 08.11.2021
1367 Clouds 8 1023 71 10000 4.63 100 12:59 08.11.2021
1368 Clouds 6 1024 76 10000 2.06 250 11:54 08.11.2021
1369 Clouds 4 1024 84 10000 1.03 0 10:41 08.11.2021
1370 Clouds 2 1024 88 10000 1.54 280 08:56 08.11.2021
1371 Clouds 2 1023 88 10000 1.03 0 07:56 08.11.2021
1372 Clouds 1 1023 91 10000 1.54 260 06:55 08.11.2021
1373 Clouds 1 1022 91 10000 1.03 0 03:35 08.11.2021
1374 Clouds 1 1021 89 10000 1.03 0 00:18 08.11.2021
1375 Clear 2 1021 86 10000 2.06 260 22:57 07.11.2021
1376 Clear 2 1021 86 10000 0.51 0 21:25 07.11.2021
1377 Clear 2 1021 85 10000 0.51 0 20:18 07.11.2021
1378 Clear 3 1021 81 10000 1.03 0 18:30 07.11.2021
1379 Clear 4 1020 77 10000 1.03 0 17:40 07.11.2021
1380 Clear 8 1020 62 10000 1.54 160 16:22 07.11.2021
1381 Clear 10 1021 50 10000 1.54 170 14:54 07.11.2021
1382 Clear 11 1020 49 10000 1.54 0 14:27 07.11.2021
1383 Clear 6 1021 52 10000 1.54 270 12:48 07.11.2021
1384 Clear 4 1023 56 10000 1.54 300 11:31 07.11.2021
1385 Clear -3 1025 93 10000 1.03 0 08:59 07.11.2021
1386 Clear -1 1027 86 10000 1.54 260 02:53 07.11.2021
1387 Clear -1 1027 89 10000 2.06 320 02:18 07.11.2021
1388 Clear -1 1028 87 10000 1.03 0 22:55 06.11.2021
1389 Clear 0 1029 87 10000 1.54 260 21:53 06.11.2021
1390 Clear 0 1029 86 10000 1.54 240 20:56 06.11.2021
1391 Clear 1 1029 83 10000 1.03 0 19:42 06.11.2021
1392 Clear 4 1028 76 10000 1.03 0 17:31 06.11.2021
1393 Clear 5 1027 70 10000 1.03 0 16:32 06.11.2021
1394 Clouds 8 1030 59 10000 1.03 0 13:39 06.11.2021
1395 Clouds 6 1030 61 10000 1.54 0 12:55 06.11.2021
1396 Clouds 5 1032 67 10000 2.57 270 11:18 06.11.2021
1397 Clouds 1 1032 86 10000 2.57 280 08:48 06.11.2021
1398 Clouds 2 1031 85 10000 0.51 0 04:50 06.11.2021
1399 Clouds 2 1031 91 10000 0.51 0 23:49 05.11.2021
1400 Clouds 1 1031 91 10000 1.03 260 23:28 05.11.2021
1401 Clouds 2 1029 92 10000 1.03 0 22:33 05.11.2021
1402 Clouds 3 1028 88 10000 1.03 240 20:32 05.11.2021
1403 Clouds 3 1028 87 10000 1.03 0 19:51 05.11.2021
1404 Clouds 3 1027 84 10000 1.03 0 18:43 05.11.2021
1405 Clouds 4 1026 80 10000 1.03 170 17:52 05.11.2021
1406 Clouds 6 1024 75 10000 1.54 160 16:37 05.11.2021
1407 Clouds 7 1024 66 10000 1.03 0 14:21 05.11.2021
1408 Clouds 6 1024 69 10000 1.03 0 12:27 05.11.2021
1409 Clouds 2 1023 89 10000 1.03 0 09:29 05.11.2021
1410 Clouds 0 1022 92 10000 1.03 0 08:28 05.11.2021
1411 Clouds 0 1019 100 10000 1.03 0 05:40 05.11.2021
1412 Clouds 0 1018 93 10000 2.06 260 02:37 05.11.2021
1413 Clouds 0 1018 93 10000 2.57 280 02:18 05.11.2021
1414 Clouds 2 1017 93 10000 1.03 0 23:57 04.11.2021
1415 Clouds 3 1016 87 10000 1.54 120 22:21 04.11.2021
1416 Clouds 3 1015 93 10000 1.54 110 21:56 04.11.2021
1417 Clouds 2 1015 100 10000 1.03 0 21:27 04.11.2021
1418 Clouds 2 1014 93 10000 1.03 0 20:28 04.11.2021
1419 Clouds 3 1013 93 10000 0.51 0 19:49 04.11.2021
1420 Clouds 2 1014 94 10000 0.51 0 19:27 04.11.2021
1421 Clouds 2 1013 94 10000 1.03 0 18:26 04.11.2021
1422 Clouds 3 1012 90 10000 2.06 70 17:26 04.11.2021
1423 Clouds 5 1011 85 10000 2.06 90 15:42 04.11.2021
1424 Clouds 7 1008 85 10000 3.6 90 13:45 04.11.2021
1425 Clouds 3 1006 94 10000 0.51 0 10:35 04.11.2021
1426 Rain 2 1004 98 5000 1.03 0 08:41 04.11.2021
1427 Rain 2 1003 94 5000 1.03 310 07:36 04.11.2021
1428 Snow 1 1002 94 4000 1.03 0 06:59 04.11.2021
1429 Rain 5 1003 93 10000 1.54 150 23:18 03.11.2021
1430 Rain 5 1002 93 10000 3.09 120 22:23 03.11.2021
1431 Clouds 7 1001 93 10000 2.57 90 21:37 03.11.2021
1432 Clouds 7 1001 93 10000 2.57 90 21:37 03.11.2021
1433 Drizzle 7 1001 92 10000 2.57 270 20:44 03.11.2021
1434 Drizzle 7 1001 88 10000 2.06 50 20:25 03.11.2021
1435 Rain 8 1001 84 10000 3.09 0 19:29 03.11.2021
1436 Rain 9 999 76 10000 3.09 70 18:27 03.11.2021
1437 Clouds 9 999 76 10000 6.69 120 17:42 03.11.2021
1438 Rain 10 999 79 10000 6.17 120 16:48 03.11.2021
1439 Clouds 11 1000 76 10000 6.69 110 15:49 03.11.2021
1440 Clouds 11 1000 66 10000 6.17 120 15:29 03.11.2021
1441 Clouds 15 1000 44 10000 7.72 120 13:41 03.11.2021
1442 Clouds 6 1001 79 10000 3.6 260 11:35 03.11.2021
1443 Clouds 4 1001 87 10000 3.6 270 10:50 03.11.2021
1444 Clouds 6 1003 80 10000 2.57 280 09:46 03.11.2021
1445 Clouds 3 1004 92 10000 2.57 270 08:53 03.11.2021
1446 Clouds 2 1004 92 10000 3.09 280 07:40 03.11.2021
1447 Clouds 3 1004 93 10000 3.09 290 06:32 03.11.2021
1448 Clouds 3 1005 93 10000 1.03 0 04:22 03.11.2021
1449 Clouds 5 1006 81 10000 1.54 170 00:57 03.11.2021
1450 Clouds 5 1007 87 10000 0.51 0 23:21 02.11.2021
1451 Clouds 5 1008 89 10000 1.03 20 21:54 02.11.2021
1452 Clouds 5 1007 92 10000 1.54 260 20:43 02.11.2021
1453 Clouds 4 1007 93 10000 1.03 0 19:57 02.11.2021
1454 Clouds 4 1007 92 10000 1.03 0 19:27 02.11.2021
1455 Clouds 4 1007 92 10000 0.51 0 18:35 02.11.2021
1456 Clouds 5 1006 87 10000 1.03 0 17:44 02.11.2021
1457 Clouds 8 1004 81 10000 1.03 0 16:47 02.11.2021
1458 Clouds 9 1004 76 10000 1.54 210 15:50 02.11.2021
1459 Clouds 8 1005 83 10000 1.03 0 14:56 02.11.2021
1460 Clouds 7 1006 86 10000 4.63 250 13:29 02.11.2021
1461 Clouds 7 1006 86 10000 3.6 270 12:52 02.11.2021
1462 Clouds 6 1005 87 10000 1.54 200 11:39 02.11.2021
1463 Clouds 6 1006 89 10000 0.51 0 10:55 02.11.2021
1464 Clouds 5 1006 90 10000 1.03 0 10:32 02.11.2021
1465 Clouds 4 1006 91 10000 1.03 0 09:44 02.11.2021
1466 Clouds 4 1005 94 10000 1.03 300 07:46 02.11.2021
1467 Clouds 4 1005 94 10000 0.51 0 05:42 02.11.2021
1468 Clouds 4 1005 93 10000 1.03 0 03:22 02.11.2021
1469 Drizzle 4 1006 94 10000 1.03 0 23:42 01.11.2021
1470 Rain 4 1007 93 9000 2.06 160 21:49 01.11.2021
1471 Rain 5 1007 92 9000 1.54 250 20:44 01.11.2021
1472 Rain 6 1007 92 10000 1.54 270 20:18 01.11.2021
1473 Rain 6 1007 91 8000 2.57 280 19:41 01.11.2021
1474 Rain 8 1005 88 10000 3.6 240 18:25 01.11.2021
1475 Rain 8 1006 93 10000 2.06 210 17:43 01.11.2021
1476 Rain 8 1005 90 10000 4.12 270 16:52 01.11.2021
1477 Rain 9 1005 90 8000 3.09 230 16:23 01.11.2021
1478 Rain 10 1004 88 10000 2.06 290 15:29 01.11.2021
1479 Rain 11 1004 81 10000 1.03 0 14:45 01.11.2021
1480 Clouds 10 1005 78 10000 1.03 0 14:25 01.11.2021
1481 Clouds 9 1006 82 5825 2.68 90 13:50 01.11.2021
1482 Rain 10 1005 68 10000 2.57 310 12:36 01.11.2021
1483 Clouds 12 1005 63 10000 5.66 270 11:30 01.11.2021
1484 Clouds 10 1006 65 10000 6.17 260 10:20 01.11.2021
1485 Clouds 7 1007 74 10000 3.6 270 08:18 01.11.2021
1486 Clouds 7 1007 74 10000 4.63 260 07:46 01.11.2021
1487 Clouds 5 1008 87 10000 4.63 270 03:51 01.11.2021
1488 Clouds 7 1009 81 10000 4.63 250 01:44 01.11.2021
1489 Clouds 8 1009 81 10000 3.6 250 22:48 31.10.2021
1490 Clouds 11 1009 58 10000 2.06 0 20:50 31.10.2021
1491 Clouds 14 1010 44 10000 6.69 140 19:22 31.10.2021
1492 Clouds 14 1010 48 10000 6.69 120 18:41 31.10.2021
1493 Clouds 17 1009 45 10000 7.72 150 17:54 31.10.2021
1494 Clouds 16 1009 42 10000 8.23 140 15:51 31.10.2021
1495 Clouds 19 1009 39 10000 7.2 160 14:39 31.10.2021
1496 Clear 18 1010 42 10000 3.6 300 12:50 31.10.2021
1497 Clear 16 1012 47 10000 5.66 270 11:42 31.10.2021
1498 Clear 14 1013 54 10000 6.17 280 10:47 31.10.2021
1499 Clear 8 1015 67 10000 5.14 260 09:22 31.10.2021
1500 Clear 9 1015 67 10000 4.12 250 08:37 31.10.2021
1501 Clouds 5 1017 81 10000 4.63 270 01:57 31.10.2021
1502 Clouds 11 1015 54 10000 3.6 260 22:47 30.10.2021
1503 Clouds 16 1014 29 10000 8.23 150 21:35 30.10.2021
1504 Clouds 16 1014 29 10000 5.66 140 20:52 30.10.2021
1505 Rain 17 1013 23 10000 8.23 140 19:19 30.10.2021
1506 Rain 17 1011 23 10000 5.66 140 17:27 30.10.2021
1507 Clear 18 1009 22 10000 5.66 0 15:21 30.10.2021
1508 Clear 18 1009 20 10000 11.32 120 13:40 30.10.2021
1509 Clear 18 1010 19 10000 13.38 120 13:21 30.10.2021
1510 Clear 18 1011 19 10000 13.38 120 12:57 30.10.2021
1511 Clear 12 1011 53 10000 4.12 240 11:46 30.10.2021
1512 Clear 6 1013 65 10000 2.57 260 10:32 30.10.2021
1513 Clear 5 1013 61 10000 3.6 250 08:53 30.10.2021
1514 Clear 5 1013 64 10000 5.14 270 07:29 30.10.2021
1515 Clouds 5 1014 75 10000 3.6 280 05:39 30.10.2021
1516 Clouds 8 1015 66 10000 3.6 250 00:56 30.10.2021
1517 Clear 12 1014 47 10000 2.57 0 22:50 29.10.2021
1518 Clear 8 1015 60 10000 2.57 0 22:30 29.10.2021
1519 Clouds 8 1016 62 10000 2.24 135 20:46 29.10.2021
1520 Clouds 8 1015 61 10000 2.24 45 20:24 29.10.2021
1521 Clear 12 1012 54 10000 2.06 0 18:36 29.10.2021
1522 Clear 14 1012 51 10000 2.57 270 16:54 29.10.2021
1523 Clear 19 1012 31 10000 3.09 260 15:21 29.10.2021
1524 Clear 11 1016 54 10000 5.66 270 12:24 29.10.2021
1525 Clear 7 1017 70 10000 5.14 270 10:46 29.10.2021
1526 Clear 2 1017 80 10000 1.03 0 08:41 29.10.2021
1527 Clouds 2 1020 87 10000 0.51 0 00:37 29.10.2021
1528 Clear 2 1021 85 10000 1.03 0 23:27 28.10.2021
1529 Clear 3 1021 81 10000 0.51 0 22:18 28.10.2021
1530 Clear 7 1021 75 10000 1.03 0 20:54 28.10.2021
1531 Clear 6 1021 75 10000 0.51 0 19:51 28.10.2021
1532 Clear 9 1020 63 10000 1.03 0 18:27 28.10.2021
1533 Clear 13 1020 50 10000 1.54 150 17:19 28.10.2021
1534 Clear 16 1019 44 10000 1.54 160 16:20 28.10.2021
1535 Clear 15 1020 47 10000 1.03 0 14:39 28.10.2021
1536 Clear 11 1022 46 10000 1.03 0 13:29 28.10.2021
1537 Clear 10 1022 53 10000 1.03 0 12:44 28.10.2021
1538 Clear 6 1024 70 10000 0.51 0 10:58 28.10.2021
1539 Clear 1 1024 100 10000 0.51 0 09:40 28.10.2021
1540 Clear 0 1024 93 10000 0.51 0 09:22 28.10.2021
1541 Clear 0 1024 93 10000 0.51 0 08:35 28.10.2021
1542 Clear 4 1024 84 10000 0.51 0 07:40 28.10.2021
1543 Clear 4 1026 87 10000 0.51 0 00:40 28.10.2021
1544 Clear 3 1026 86 10000 0.51 0 22:36 27.10.2021
1545 Clear 6 1026 83 10000 1.03 270 21:34 27.10.2021
1546 Clear 7 1026 81 10000 1.03 230 20:57 27.10.2021
1547 Clear 7 1026 80 10000 1.03 230 20:38 27.10.2021
1548 Clear 6 1026 80 10000 0.51 0 19:42 27.10.2021
1549 Clear 9 1024 76 10000 0.51 0 18:54 27.10.2021
1550 Clear 14 1025 54 10000 1.54 170 16:38 27.10.2021
1551 Clear 14 1025 54 10000 1.03 0 16:20 27.10.2021
1552 Clear 14 1026 56 10000 0.51 0 15:23 27.10.2021
1553 Clear 14 1026 56 10000 0.51 0 15:23 27.10.2021
1554 Clear 12 1028 65 10000 3.09 260 12:57 27.10.2021
1555 Clear 5 1029 87 10000 1.03 0 10:59 27.10.2021
1556 Clear 5 1029 87 10000 1.03 0 10:36 27.10.2021
1557 Clouds 1 1029 100 10000 1.03 0 08:58 27.10.2021
1558 Clear 2 1029 93 10000 1.03 0 07:38 27.10.2021
1559 Clouds 3 1028 93 10000 0.51 0 05:37 27.10.2021
1560 Clouds 4 1029 91 10000 0.51 0 01:21 27.10.2021
1561 Clouds 4 1029 91 10000 0.51 0 00:39 27.10.2021
1562 Clouds 4 1029 91 10000 2.57 250 23:52 26.10.2021
1563 Clouds 4 1028 90 10000 0.51 0 22:43 26.10.2021
1564 Clouds 6 1028 87 10000 0.51 0 22:20 26.10.2021
1565 Clouds 6 1027 84 10000 0.51 0 20:59 26.10.2021
1566 Clouds 8 1026 75 10000 0.51 0 19:34 26.10.2021
1567 Clouds 10 1025 71 10000 0.51 0 18:54 26.10.2021
1568 Clouds 11 1024 66 10000 1.54 170 17:36 26.10.2021
1569 Clouds 13 1025 56 10000 2.57 280 15:40 26.10.2021
1570 Clouds 9 1026 68 10000 2.06 260 11:50 26.10.2021
1571 Clouds 4 1026 87 10000 1.03 0 10:48 26.10.2021
1572 Clouds 2 1026 90 10000 1.54 250 08:24 26.10.2021
1573 Clouds 2 1025 89 10000 1.03 0 07:21 26.10.2021
1574 Clouds 6 1023 81 10000 0.51 0 23:53 25.10.2021
1575 Clouds 5 1023 84 10000 1.54 290 23:20 25.10.2021
1576 Clear 6 1023 81 10000 1.54 270 22:28 25.10.2021
1577 Clear 4 1023 86 10000 1.03 240 21:42 25.10.2021
1578 Clear 5 1023 81 10000 1.03 0 20:26 25.10.2021
1579 Clear 5 1023 80 10000 0.51 0 19:43 25.10.2021
1580 Clear 6 1022 76 10000 0.51 0 19:21 25.10.2021
1581 Clear 7 1022 71 10000 1.54 250 18:33 25.10.2021
1582 Clear 11 1021 71 10000 1.54 250 16:38 25.10.2021
1583 Rain 8 1022 66 10000 1.54 250 14:45 25.10.2021
1584 Clear 6 1023 75 10000 1.03 0 12:31 25.10.2021
1585 Clear 3 1024 87 10000 1.03 0 10:30 25.10.2021
1586 Clear 1 1024 93 10000 0.51 0 08:57 25.10.2021
1587 Clear 5 1024 81 10000 1.03 0 06:26 25.10.2021
1588 Clouds 5 1025 77 10000 1.03 0 02:44 25.10.2021
1589 Clouds 5 1026 80 10000 0.51 0 00:49 25.10.2021
1590 Clouds 6 1026 77 10000 1.54 230 00:31 25.10.2021
1591 Clear 2 1026 87 10000 0.51 0 23:33 24.10.2021
1592 Clear 3 1026 86 10000 0.51 0 22:37 24.10.2021
1593 Clear 3 1026 85 10000 0.51 0 22:19 24.10.2021
1594 Clear 4 1026 80 10000 1.03 0 20:54 24.10.2021
1595 Clear 4 1026 79 10000 0.51 0 20:28 24.10.2021
1596 Clear 6 1025 74 10000 0.51 0 19:29 24.10.2021
1597 Clear 9 1025 60 10000 1.54 150 18:28 24.10.2021
1598 Clear 14 1025 50 10000 1.54 160 17:35 24.10.2021
1599 Clear 15 1024 38 10000 1.54 170 15:55 24.10.2021
1600 Clear 13 1025 47 10000 1.54 120 14:25 24.10.2021
1601 Clear 10 1027 50 10000 1.54 0 12:58 24.10.2021
1602 Clear 8 1028 61 10000 1.54 0 11:44 24.10.2021
1603 Clear 4 1029 81 10000 1.54 250 10:56 24.10.2021
1604 Clear 1 1029 93 10000 0.51 0 09:59 24.10.2021
1605 Clear 3 1029 85 10000 1.03 230 07:41 24.10.2021
1606 Clouds 3 1030 86 10000 1.54 260 00:57 24.10.2021
1607 Clouds 4 1030 85 10000 2.06 260 23:34 23.10.2021
1608 Clear 4 1030 82 10000 0.51 0 21:58 23.10.2021
1609 Clear 4 1030 76 10000 1.03 260 20:36 23.10.2021
1610 Clear 9 1027 57 10000 3.09 80 18:59 23.10.2021
1611 Clear 9 1028 55 10000 4.12 70 18:26 23.10.2021
1612 Clear 12 1026 50 10000 4.12 80 17:43 23.10.2021
1613 Clear 13 1026 50 10000 2.06 190 16:22 23.10.2021
1614 Clouds 12 1026 54 10000 1.03 0 14:27 23.10.2021
1615 Clouds 6 1025 87 10000 1.03 0 03:34 23.10.2021
1616 Clouds 6 1024 88 10000 1.03 0 00:19 23.10.2021
1617 Clouds 6 1023 89 10000 0.51 0 22:53 22.10.2021
1618 Clouds 7 1022 83 10000 1.03 230 20:37 22.10.2021
1619 Clouds 9 1019 76 10000 2.06 80 18:44 22.10.2021
1620 Clouds 10 1018 74 10000 4.63 70 17:43 22.10.2021
1621 Clouds 13 1017 60 10000 3.6 100 15:25 22.10.2021
1622 Clouds 13 1017 60 10000 2.06 130 13:48 22.10.2021
1623 Clouds 10 1018 74 10000 1.03 0 11:24 22.10.2021
1624 Clouds 9 1018 81 10000 0.51 0 10:41 22.10.2021
1625 Clouds 7 1018 86 10000 1.03 0 09:56 22.10.2021
1626 Clouds 5 1018 91 10000 0.51 0 08:36 22.10.2021
1627 Clouds 3 1018 93 10000 1.54 270 07:22 22.10.2021
1628 Clouds 5 1016 91 10000 1.03 0 02:57 22.10.2021
1629 Clouds 7 1015 87 10000 0.51 0 23:55 21.10.2021
1630 Clouds 7 1015 86 10000 0.51 0 23:35 21.10.2021
1631 Clouds 6 1015 85 10000 1.03 0 21:50 21.10.2021
1632 Clouds 9 1014 80 10000 0.51 0 20:28 21.10.2021
1633 Clouds 10 1014 79 10000 1.03 0 19:58 21.10.2021
1634 Clouds 9 1014 71 10000 0.51 0 19:28 21.10.2021
1635 Clouds 11 1013 66 10000 2.57 70 18:45 21.10.2021
1636 Clouds 13 1012 62 10000 3.6 70 17:56 21.10.2021
1637 Clouds 14 1012 58 10000 4.12 70 17:37 21.10.2021
1638 Clouds 15 1011 55 10000 3.09 10 15:35 21.10.2021
1639 Clouds 15 1010 51 10000 6.69 220 14:58 21.10.2021
1640 Clouds 15 1010 51 10000 6.69 220 14:37 21.10.2021
1641 Clouds 14 1011 58 10000 9.26 220 13:19 21.10.2021
1642 -273 0 0 0 0 0 10:40 21.10.2021
1643 -273 0 0 0 0 0 10:40 21.10.2021
1644 -273 0 0 0 0 0 10:40 21.10.2021
1645 Clouds 12 1009 71 10000 3.6 0 10:40 21.10.2021
1646 Rain 9 1008 81 10000 1.03 0 08:21 21.10.2021
1647 Clouds 9 1009 81 10000 3.6 250 07:23 21.10.2021
1648 Clouds 9 1012 81 10000 4.12 240 03:29 21.10.2021
1649 Clear 17 1014 48 10000 7.2 150 23:25 20.10.2021
1650 Clear 15 1014 48 10000 9.26 150 21:51 20.10.2021
1651 Clouds 11 1016 72 10000 2.86 185 21:29 20.10.2021
1652 Clouds 11 1016 76 10000 2.86 185 20:49 20.10.2021
1653 Clouds 11 1016 78 10000 2.71 186 20:28 20.10.2021
1654 Clouds 12 1016 73 10000 2.8 184 19:40 20.10.2021
1655 Clear 17 1014 59 10000 3.6 70 18:54 20.10.2021
1656 Clouds 17 1015 65 10000 2.56 180 17:45 20.10.2021
1657 Clear 20 1014 44 10000 3.6 0 15:26 20.10.2021
1658 Clear 9 1021 87 10000 1.03 0 10:25 20.10.2021
1659 Clear 6 1022 93 10000 0.51 0 08:37 20.10.2021
1660 Clouds 10 1025 90 10000 1.03 0 02:58 20.10.2021
1661 Clouds 10 1026 87 10000 1.03 180 00:43 20.10.2021
1662 Clouds 11 1027 86 10000 1.54 250 23:45 19.10.2021
1663 Clouds 10 1028 85 10000 2.06 220 21:41 19.10.2021
1664 Clouds 10 1028 85 10000 1.54 300 20:48 19.10.2021
1665 Rain 11 1028 83 10000 0.51 0 20:22 19.10.2021
1666 Rain 11 1028 77 10000 0.51 0 19:40 19.10.2021
1667 Rain 11 1027 72 10000 1.03 0 18:52 19.10.2021
1668 Clouds 13 1027 67 10000 1.03 0 17:58 19.10.2021
1669 Clouds 13 1026 62 10000 1.03 270 15:38 19.10.2021
1670 Clouds 14 1027 63 10000 1.03 0 15:19 19.10.2021
1671 Clouds 14 1027 62 10000 0.51 0 14:23 19.10.2021
1672 Clouds 11 1028 66 10000 1.54 280 12:38 19.10.2021
1673 Clouds 8 1029 76 10000 1.03 0 11:31 19.10.2021
1674 Clear 6 1029 87 10000 0.51 0 09:56 19.10.2021
1675 Clear 7 1028 84 10000 1.54 200 08:57 19.10.2021
1676 Clouds 6 1028 85 10000 0.51 0 05:23 19.10.2021
1677 Clouds 7 1028 82 10000 0.51 0 00:23 19.10.2021
1678 Clouds 7 1028 82 10000 0.51 0 23:49 18.10.2021
1679 Clouds 5 1029 87 10000 0.51 0 23:18 18.10.2021
1680 Clouds 6 1028 87 10000 2.57 250 22:31 18.10.2021
1681 Clouds 6 1027 81 10000 1.03 270 20:57 18.10.2021
1682 Clouds 7 1028 81 10000 1.03 270 20:33 18.10.2021
1683 Clear 9 1027 74 10000 0.51 0 19:50 18.10.2021
1684 Clear 9 1026 74 10000 0.51 0 19:28 18.10.2021
1685 Clear 10 1026 67 10000 0.51 0 18:50 18.10.2021
1686 Clear 15 1025 47 10000 2.06 100 14:59 18.10.2021
1687 Clear 12 1026 54 10000 1.03 0 12:55 18.10.2021
1688 Clear 8 1027 71 10000 0.51 0 10:36 18.10.2021
1689 Clear 3 1026 93 10000 0.51 0 09:27 18.10.2021
1690 Clouds 3 1025 88 10000 1.54 0 02:30 18.10.2021
1691 Clouds 4 1024 90 10000 1.54 240 23:30 17.10.2021
1692 Clouds 5 1023 86 10000 1.03 0 21:52 17.10.2021
1693 Clouds 7 1021 81 10000 1.54 270 21:00 17.10.2021
1694 Clouds 6 1022 81 10000 1.54 270 20:36 17.10.2021
1695 Clear 7 1021 79 10000 0 0 19:39 17.10.2021
1696 Clouds 9 1022 68 10000 0.81 189 18:57 17.10.2021
1697 Clear 15 1019 51 10000 2.06 170 17:32 17.10.2021
1698 Clear 15 1020 48 10000 2.06 180 15:19 17.10.2021
1699 Clear 15 1020 50 10000 1.03 0 14:24 17.10.2021
1700 Clear 14 1021 55 10000 1.03 0 13:42 17.10.2021
1701 Clear 9 1022 66 10000 1.03 0 11:57 17.10.2021
1702 Clear 6 1022 87 10000 2.57 270 10:34 17.10.2021
1703 Clouds 4 1022 90 10000 1.03 0 09:30 17.10.2021
1704 Clouds 2 1022 93 10000 1.03 0 07:19 17.10.2021
1705 Clear 5 1021 90 10000 1.54 270 00:53 17.10.2021
1706 Clear 6 1021 90 10000 0.51 0 00:22 17.10.2021
1707 Clear 7 1021 89 10000 0 0 21:49 16.10.2021
1708 Clear 7 1021 81 10000 0.51 0 20:32 16.10.2021
1709 Clear 9 1020 87 10000 0.51 0 19:46 16.10.2021
1710 Clear 10 1019 71 10000 1.03 0 19:23 16.10.2021
1711 Clouds 11 1019 66 10000 1.03 0 18:56 16.10.2021
1712 Clouds 11 1019 66 10000 1.03 0 18:38 16.10.2021
1713 Clouds 13 1018 58 10000 1.03 0 18:18 16.10.2021
1714 Clouds 15 1019 57 10000 3.6 100 17:25 16.10.2021
1715 Clouds 15 1019 56 10000 2.57 120 15:33 16.10.2021
1716 Clouds 11 1021 74 10000 1.34 53 12:26 16.10.2021
1717 Clouds 10 1021 81 10000 0.51 0 10:47 16.10.2021
1718 Clouds 3 1022 93 10000 1.03 0 08:23 16.10.2021
1719 Clouds 5 1020 93 10000 0.51 0 01:25 16.10.2021
1720 Clouds 5 1020 93 10000 0.51 0 01:25 16.10.2021
1721 Clouds 6 1020 93 10000 0.51 0 23:57 15.10.2021
1722 Clouds 6 1020 85 10000 0.51 0 23:24 15.10.2021
1723 Clouds 7 1020 85 10000 0.51 0 22:19 15.10.2021
1724 Clouds 7 1020 81 10000 0.51 0 21:29 15.10.2021
1725 Clouds 8 1019 87 10000 1.03 0 20:49 15.10.2021
1726 Clouds 8 1019 76 10000 0.51 0 19:37 15.10.2021
1727 Clouds 9 1018 81 10000 0.51 0 18:40 15.10.2021
1728 Clear 15 1018 47 10000 1.03 0 16:29 15.10.2021
1729 Clear 15 1018 50 10000 0.51 0 15:36 15.10.2021
1730 Clear 11 1020 54 10000 1.03 0 13:31 15.10.2021
1731 Clear 8 1021 71 10000 1.54 240 11:36 15.10.2021
1732 Clear 6 1021 81 10000 2.57 270 10:57 15.10.2021
1733 Clear 3 1022 87 10000 1.54 260 09:49 15.10.2021
1734 Clouds 3 1023 91 10000 1.54 220 05:32 15.10.2021
1735 Clouds 4 1025 89 10000 0.51 0 01:47 15.10.2021
1736 Clouds 3 1025 87 10000 0.51 0 00:22 15.10.2021
1737 Clouds 6 1025 81 10000 1.54 260 22:52 14.10.2021
1738 Clouds 7 1025 76 10000 0.51 0 21:45 14.10.2021
1739 Clouds 7 1026 76 10000 1.03 0 20:49 14.10.2021
1740 Clouds 7 1026 76 10000 1.03 150 20:19 14.10.2021
1741 Clouds 8 1026 71 10000 1.03 0 19:35 14.10.2021
1742 Clouds 11 1026 59 10000 1.54 170 17:31 14.10.2021
1743 Clouds 11 1026 54 10000 2.06 170 16:51 14.10.2021
1744 Clouds 11 1026 53 10000 2.06 170 16:20 14.10.2021
1745 Clouds 11 1027 49 10000 1.03 0 14:43 14.10.2021
1746 Clouds 11 1027 49 10000 1.54 0 14:21 14.10.2021
1747 Clouds 7 1029 72 10000 1.03 0 11:44 14.10.2021
1748 Clouds 3 1030 81 10000 2.06 260 09:55 14.10.2021
1749 Clouds 3 1030 81 10000 2.06 260 09:55 14.10.2021
1750 Clouds 2 1033 96 10000 1.57 212 06:56 14.10.2021
1751 Clouds 3 1033 97 9589 1.16 214 01:29 14.10.2021
1752 Clouds 4 1033 97 10000 1.31 219 00:28 14.10.2021
1753 Clouds 4 1032 97 10000 1.46 219 21:58 13.10.2021
1754 Clouds 4 1032 97 10000 1.46 219 21:32 13.10.2021
1755 Clouds 4 1029 96 10000 0.22 250 20:21 13.10.2021
1756 Clouds 6 1025 76 10000 1.54 90 18:57 13.10.2021
1757 Clouds 4 1026 80 10000 2.24 68 18:35 13.10.2021
1758 Clouds 8 1023 66 10000 5.14 110 15:32 13.10.2021
1759 Clouds 9 1024 72 10000 4.12 70 14:45 13.10.2021
1760 Clouds 8 1024 68 10000 3.09 100 14:21 13.10.2021
1761 Clouds 5 1025 82 7821 1.34 23 12:22 13.10.2021
1762 Clouds 6 1024 83 10000 2.06 110 11:35 13.10.2021
1763 Drizzle 5 1022 92 10000 1.03 0 08:42 13.10.2021
1764 Clouds 4 1021 93 8000 2.57 110 06:51 13.10.2021
1765 Rain 6 1018 92 6000 1.03 240 02:28 13.10.2021
1766 Rain 7 1018 92 7000 0.51 0 01:45 13.10.2021
1767 Rain 7 1019 92 10000 0.51 0 23:30 12.10.2021
1768 Rain 7 1019 92 10000 0.51 0 23:30 12.10.2021
1769 Drizzle 7 1019 93 10000 0.51 0 22:46 12.10.2021
1770 Clouds 7 1019 92 10000 0.51 0 21:50 12.10.2021
1771 Clouds 6 1019 90 10000 0.51 0 20:41 12.10.2021
1772 Rain 7 1019 89 10000 0.51 0 20:18 12.10.2021
1773 Rain 9 1018 81 10000 0.51 0 18:36 12.10.2021
1774 Clouds 9 1018 79 10000 0.51 0 17:57 12.10.2021
1775 Clouds 9 1018 77 10000 1.03 50 16:39 12.10.2021
1776 Clouds 9 1019 73 10000 0 0 15:58 12.10.2021
1777 Clouds 8 1020 70 10000 0.51 0 14:45 12.10.2021
1778 Clouds 8 1020 73 10000 0.51 0 13:43 12.10.2021
1779 Rain 8 1021 83 10000 0.51 0 12:39 12.10.2021
1780 Clouds 5 1022 85 10000 1.03 0 09:46 12.10.2021
1781 Clouds 5 1022 91 10000 1.03 0 08:43 12.10.2021
1782 Clouds 2 1022 93 10000 0.51 0 07:36 12.10.2021
1783 Clouds 4 1023 90 10000 1.54 270 05:31 12.10.2021
1784 Clouds 5 1023 90 10000 1.54 290 04:32 12.10.2021
1785 Clouds 3 1025 87 10000 1.03 0 00:28 12.10.2021
1786 Clouds 4 1025 86 10000 0.51 0 23:40 11.10.2021
1787 Clouds 6 1024 87 10000 0.51 0 22:57 11.10.2021
1788 Clouds 7 1024 81 10000 1.03 250 21:46 11.10.2021
1789 Clouds 7 1024 81 10000 0.51 0 20:47 11.10.2021
1790 Clear 7 1023 81 10000 0.51 0 19:45 11.10.2021
1791 Clear 10 1023 66 10000 0.51 0 18:42 11.10.2021
1792 Clear 13 1022 54 10000 2.06 170 17:49 11.10.2021
1793 Clear 14 1023 45 10000 3.09 90 16:39 11.10.2021
1794 Clear 14 1023 47 10000 2.57 100 15:50 11.10.2021
1795 Clear 13 1023 47 10000 1.54 220 14:55 11.10.2021
1796 Clear 13 1024 51 10000 0.51 0 14:33 11.10.2021
1797 Clear 12 1024 52 10000 0.51 0 13:36 11.10.2021
1798 Clear 8 1026 66 10000 2.06 260 11:39 11.10.2021
1799 Clear 4 1027 81 10000 2.57 270 10:31 11.10.2021
1800 Clear 3 1028 92 10000 1.54 250 09:22 11.10.2021
1801 Clear 0 1027 96 10000 1.03 0 06:30 11.10.2021
1802 Clear 2 1027 91 10000 1.03 0 01:38 11.10.2021
1803 Clear 2 1027 87 10000 0.51 0 00:46 11.10.2021
1804 Clear 4 1027 87 10000 1.03 150 23:57 10.10.2021
1805 Clear 5 1026 81 10000 0.51 0 21:52 10.10.2021
1806 Clear 5 1026 80 10000 0.51 0 21:31 10.10.2021
1807 Clear 7 1025 81 10000 0.51 0 20:43 10.10.2021
1808 Clouds 7 1025 76 10000 0.51 0 20:21 10.10.2021
1809 Clouds 8 1024 71 10000 0.51 0 19:59 10.10.2021
1810 Clouds 8 1024 71 10000 0.51 0 19:35 10.10.2021
1811 Clouds 12 1023 61 10000 3.6 80 18:35 10.10.2021
1812 Clouds 12 1023 47 10000 3.6 80 16:46 10.10.2021
1813 Clouds 14 1023 50 10000 1.54 0 15:44 10.10.2021
1814 Clouds 13 1024 56 10000 2.06 160 13:53 10.10.2021
1815 Clouds 12 1024 59 10000 1.54 0 13:32 10.10.2021
1816 Clouds 11 1024 62 10000 1.54 180 12:33 10.10.2021
1817 Clouds 8 1025 78 10000 1.03 0 10:43 10.10.2021
1818 Clouds 7 1025 82 10000 2.06 250 09:29 10.10.2021
1819 Clouds 7 1025 82 10000 2.06 270 08:53 10.10.2021
1820 Clouds 6 1025 76 10000 2.06 250 07:27 10.10.2021
1821 Clouds 6 1026 87 10000 1.03 240 02:42 10.10.2021
1822 Clouds 5 1026 93 10000 1.54 140 00:55 10.10.2021
1823 Clouds 5 1026 91 7000 0.51 0 23:57 09.10.2021
1824 Clouds 6 1026 89 10000 0.51 0 22:45 09.10.2021
1825 Clouds 8 1026 87 10000 1.54 260 21:39 09.10.2021
1826 Clear 9 1026 81 10000 1.03 0 21:20 09.10.2021
1827 Clouds 10 1025 76 10000 2.06 60 19:44 09.10.2021
1828 Clouds 11 1024 66 10000 3.09 70 18:57 09.10.2021
1829 Clouds 11 1024 69 10000 4.63 70 18:32 09.10.2021
1830 Clouds 14 1023 53 10000 2.06 60 16:36 09.10.2021
1831 Clouds 14 1024 55 10000 2.57 120 15:32 09.10.2021
1832 Clouds 13 1025 59 10000 2.57 120 13:43 09.10.2021
1833 Clouds 12 1025 65 10000 2.06 0 12:38 09.10.2021
1834 Clouds 11 1025 69 10000 2.57 80 11:47 09.10.2021
1835 Clouds 10 1026 76 10000 3.09 70 10:42 09.10.2021
1836 Clouds 8 1026 84 10000 3.09 60 09:36 09.10.2021
1837 Clouds 7 1025 87 10000 2.06 90 08:29 09.10.2021
1838 Clouds 6 1025 81 10000 1.54 110 07:46 09.10.2021
1839 Clouds 7 1025 71 10000 1.54 120 05:28 09.10.2021
1840 Clear 4 1027 91 10000 0.65 173 02:57 09.10.2021
1841 Clouds 7 1025 76 10000 2.06 70 02:38 09.10.2021
1842 Clouds 7 1026 89 10000 0.51 0 23:36 08.10.2021
1843 Clouds 7 1026 89 10000 1.03 0 22:53 08.10.2021
1844 Clouds 8 1026 86 10000 0.51 0 22:22 08.10.2021
1845 Clouds 9 1025 81 10000 1.03 0 20:49 08.10.2021
1846 Clouds 11 1025 66 10000 3.09 80 18:53 08.10.2021
1847 Clouds 13 1024 81 10000 1.13 55 17:28 08.10.2021
1848 Clouds 13 1024 81 10000 1.13 55 16:50 08.10.2021
1849 Clouds 15 1024 48 10000 2.57 70 16:22 08.10.2021
1850 Clouds 13 1026 67 10000 1.54 110 13:57 08.10.2021
1851 Clouds 12 1026 81 10000 2.06 150 12:48 08.10.2021
1852 Clouds 11 1027 86 10000 0.51 0 11:31 08.10.2021
1853 Clouds 10 1027 88 10000 1.03 0 10:35 08.10.2021
1854 Clouds 8 1027 91 10000 1.54 80 08:27 08.10.2021
1855 Clouds 8 1028 89 10000 0.51 0 23:38 07.10.2021
1856 Clouds 9 1027 90 10000 2.06 30 22:59 07.10.2021
1857 Clouds 8 1027 91 10000 0.51 0 21:36 07.10.2021
1858 Clouds 8 1027 89 10000 0.51 0 20:58 07.10.2021
1859 Clouds 9 1027 88 10000 1.54 150 19:57 07.10.2021
1860 Clouds 10 1027 85 10000 1.03 0 19:28 07.10.2021
1861 Clouds 9 1026 82 10000 2.06 80 18:22 07.10.2021
1862 Clouds 11 1026 79 10000 1.54 110 17:18 07.10.2021
1863 Clouds 9 1026 82 10000 0.51 0 15:24 07.10.2021
1864 Clouds 9 1026 85 10000 1.03 0 13:45 07.10.2021
1865 Clouds 9 1026 85 10000 2.57 100 13:27 07.10.2021
1866 Clouds 9 1026 86 10000 0.51 0 12:39 07.10.2021
1867 Clouds 8 1026 90 10000 0.51 0 10:49 07.10.2021
1868 Drizzle 8 1026 93 10000 0.51 0 10:19 07.10.2021
1869 Clouds 8 1026 94 10000 0.51 0 08:56 07.10.2021
1870 Clouds 8 1026 94 10000 0.51 0 08:35 07.10.2021
1871 Rain 7 1026 94 10000 1.03 0 07:42 07.10.2021
1872 Rain 8 1025 93 10000 1.03 0 06:57 07.10.2021
1873 Clouds 6 1026 93 10000 2.06 260 02:23 07.10.2021
1874 Clouds 8 1025 93 10000 1.03 0 23:39 06.10.2021
1875 Clouds 7 1025 92 10000 1.03 180 22:46 06.10.2021
1876 Clouds 8 1024 93 10000 1.03 170 21:49 06.10.2021
1877 Clouds 7 1025 98 9745 1.06 29 20:35 06.10.2021
1878 Clouds 7 1025 97 9587 1.41 39 19:46 06.10.2021
1879 Rain 9 1023 82 10000 1.03 0 18:34 06.10.2021
1880 Clouds 11 1021 76 10000 2.06 240 16:54 06.10.2021
1881 Clouds 12 1020 82 10000 2.06 280 15:26 06.10.2021
1882 Clouds 10 1021 85 10000 1.03 0 13:54 06.10.2021
1883 Rain 9 1022 86 10000 1.03 0 12:57 06.10.2021
1884 Rain 9 1022 87 10000 1.03 0 12:39 06.10.2021
1885 Rain 10 1021 91 10000 1.54 270 12:20 06.10.2021
1886 Rain 9 1020 94 10000 1.03 0 09:58 06.10.2021
1887 Rain 8 1020 94 10000 1.03 0 09:38 06.10.2021
1888 Rain 9 1019 94 10000 1.54 160 08:42 06.10.2021
1889 Rain 9 1018 92 10000 1.03 0 07:20 06.10.2021
1890 Rain 10 1017 94 9000 1.54 270 05:26 06.10.2021
1891 Rain 12 1014 94 10000 4.12 90 00:26 06.10.2021
1892 Rain 11 1015 94 10000 4.63 90 23:57 05.10.2021
1893 Rain 11 1015 94 10000 4.63 90 23:38 05.10.2021
1894 Rain 11 1014 94 7000 4.63 70 23:19 05.10.2021
1895 Rain 12 1014 93 8000 2.06 120 22:27 05.10.2021
1896 Rain 12 1013 93 7000 0.51 0 21:44 05.10.2021
1897 Rain 13 1013 88 10000 2.57 100 20:41 05.10.2021
1898 Rain 12 1013 86 10000 2.06 100 20:22 05.10.2021
1899 Rain 13 1013 85 10000 5.14 80 19:33 05.10.2021
1900 Clouds 13 1012 83 10000 5.14 100 18:49 05.10.2021
1901 Clouds 17 1010 61 10000 6.17 90 16:36 05.10.2021
1902 Clouds 18 1009 64 10000 5.14 100 14:34 05.10.2021
1903 Clouds 17 1010 74 10000 4.12 120 13:33 05.10.2021
1904 Clouds 18 1009 83 10000 2.57 120 12:45 05.10.2021
1905 Clouds 16 1010 86 10000 2.06 150 11:59 05.10.2021
1906 Rain 13 1011 92 10000 2.57 60 10:44 05.10.2021
1907 Clouds 12 1011 94 10000 3.09 290 08:56 05.10.2021
1908 Rain 12 1012 94 10000 0.51 0 03:57 05.10.2021
1909 Clouds 12 1014 88 10000 1.54 70 23:53 04.10.2021
1910 Clouds 12 1015 87 10000 2.57 90 22:35 04.10.2021
1911 Clouds 13 1016 84 10000 3.6 90 19:38 04.10.2021
1912 Clouds 13 1017 77 10000 3.6 80 18:34 04.10.2021
1913 Clouds 16 1015 72 10000 6.17 90 16:24 04.10.2021
1914 Clouds 16 1016 67 10000 7.72 70 15:31 04.10.2021
1915 Clouds 13 1015 60 10000 0.38 2 14:42 04.10.2021
1916 Clouds 13 1015 56 10000 0.71 161 13:50 04.10.2021
1917 Clouds 16 1017 72 10000 2.57 110 13:24 04.10.2021
1918 Clouds 15 1017 77 10000 1.54 0 12:26 04.10.2021
1919 Clouds 15 1017 77 10000 2.06 0 11:30 04.10.2021
1920 Clouds 14 1017 77 10000 1.54 0 09:59 04.10.2021
1921 Clouds 14 1016 75 10000 3.6 40 08:40 04.10.2021
1922 Clouds 14 1016 75 10000 6.17 90 07:19 04.10.2021
1923 Drizzle 20 1016 52 10000 3.6 0 00:33 04.10.2021
1924 Clouds 20 1015 49 10000 8.23 70 22:35 03.10.2021
1925 Clouds 20 1015 49 10000 7.72 0 21:39 03.10.2021
1926 Clouds 20 1014 49 10000 6.69 40 21:19 03.10.2021
1927 Clouds 20 1014 49 10000 4.12 0 19:58 03.10.2021
1928 Clouds 20 1013 49 10000 6.17 120 18:56 03.10.2021
1929 Clouds 20 1013 49 10000 5.66 120 18:27 03.10.2021
1930 Clouds 21 1012 52 10000 6.17 0 16:34 03.10.2021
1931 Clouds 21 1013 46 10000 6.69 130 14:46 03.10.2021
1932 Clouds 22 1013 43 10000 7.2 140 13:58 03.10.2021
1933 Clouds 21 1012 46 10000 7.72 0 13:22 03.10.2021
1934 Clouds 21 1013 46 10000 4.63 0 12:29 03.10.2021
1935 Clouds 17 1013 62 10000 5.66 270 10:37 03.10.2021
1936 Clouds 11 1014 77 10000 5.14 270 08:42 03.10.2021
1937 Clouds 10 1015 82 10000 2.57 270 01:44 03.10.2021
1938 Clouds 12 1015 76 10000 3.09 0 22:40 02.10.2021
1939 Clouds 12 1016 77 10000 0.45 68 20:56 02.10.2021
1940 Clouds 15 1016 80 10000 2.86 181 19:42 02.10.2021
1941 Clouds 20 1014 40 10000 3.6 110 18:52 02.10.2021
1942 Clouds 20 1015 43 10000 5.14 100 17:54 02.10.2021
1943 Clouds 21 1014 46 10000 4.12 80 17:21 02.10.2021
1944 Clouds 20 1016 53 10000 3.09 130 14:58 02.10.2021
1945 Clouds 15 1026 59 10000 2.57 90 16:35 30.09.2021
1946 Clouds 15 1027 61 10000 2.57 0 14:57 30.09.2021
1947 Clouds 13 1029 67 10000 2.06 0 12:56 30.09.2021
1948 Clouds 12 1029 81 10000 1.54 70 11:36 30.09.2021
1949 Clouds 11 1029 83 10000 0.51 0 10:42 30.09.2021
1950 Clouds 10 1029 88 10000 0.51 0 09:31 30.09.2021
1951 Clouds 9 1029 91 10000 1.03 0 08:28 30.09.2021
1952 Clouds 9 1029 91 10000 1.03 260 06:59 30.09.2021
1953 Clouds 9 1027 91 10000 1.03 0 04:42 30.09.2021
1954 Clouds 11 1025 93 10000 3.09 80 00:46 30.09.2021
1955 Clouds 12 1025 96 4600 2.57 260 23:49 29.09.2021
1956 Rain 12 1024 94 10000 1.54 110 21:58 29.09.2021
1957 Clouds 12 1024 93 10000 1.03 0 20:57 29.09.2021
1958 Clouds 13 1023 94 10000 1.03 0 20:24 29.09.2021
1959 Clouds 13 1023 90 10000 0.51 0 19:43 29.09.2021
1960 Clouds 14 1022 87 10000 2.06 60 18:25 29.09.2021
1961 Clouds 14 1022 85 10000 3.09 100 17:26 29.09.2021
1962 Clouds 14 1021 90 10000 2.57 60 16:43 29.09.2021
1963 Clouds 13 1023 86 10000 1.03 0 15:48 29.09.2021
1964 Rain 14 1021 88 10000 2.57 70 14:38 29.09.2021
1965 Clouds 14 1021 85 10000 2.06 80 13:40 29.09.2021
1966 Clouds 13 1022 87 10000 2.06 70 12:46 29.09.2021
1967 Clouds 13 1022 89 10000 1.03 0 11:39 29.09.2021
1968 Clouds 14 1021 91 10000 1.03 0 10:38 29.09.2021
1969 Rain 14 1021 93 10000 1.03 0 09:47 29.09.2021
1970 Rain 14 1021 93 9000 1.03 0 08:45 29.09.2021
1971 Rain 13 1020 93 10000 1.03 0 06:55 29.09.2021
1972 Clouds 13 1019 88 10000 1.54 260 02:40 29.09.2021
1973 Clouds 15 1019 89 10000 1.03 0 23:21 28.09.2021
1974 Clouds 14 1020 83 10000 1.03 0 22:22 28.09.2021
1975 Clouds 15 1020 82 10000 1.03 0 21:33 28.09.2021
1976 Clouds 15 1020 79 10000 2.57 70 20:27 28.09.2021
1977 Clouds 14 1020 79 10000 2.24 90 19:42 28.09.2021
1978 Clouds 16 1019 92 10000 1.25 63 18:44 28.09.2021
1979 Clouds 19 1019 68 10000 3.6 100 17:53 28.09.2021
1980 Clouds 20 1019 63 10000 5.14 70 15:22 28.09.2021
1981 Clouds 19 1021 68 10000 4.12 100 13:30 28.09.2021
1982 Clouds 18 1022 73 10000 3.6 90 12:30 28.09.2021
1983 Clouds 17 1023 76 10000 2.57 90 11:57 28.09.2021
1984 Clouds 17 1023 76 10000 2.57 90 11:39 28.09.2021
1985 Clouds 15 1024 82 10000 1.03 0 10:49 28.09.2021
1986 Clouds 14 1024 87 10000 0.51 0 09:45 28.09.2021
1987 Clouds 13 1024 92 10000 1.03 230 08:49 28.09.2021
1988 Clouds 12 1025 92 10000 0.51 0 08:28 28.09.2021
1989 Clouds 13 1024 94 10000 1.03 100 06:47 28.09.2021
1990 Clouds 14 1024 88 10000 0.51 0 05:22 28.09.2021
1991 Clouds 14 1023 94 10000 1.03 0 01:22 28.09.2021
1992 Clouds 14 1023 87 10000 0.51 0 00:24 28.09.2021
1993 Clouds 14 1023 86 10000 1.54 170 23:31 27.09.2021
1994 Clouds 15 1022 85 10000 0.51 0 22:46 27.09.2021
1995 Clouds 16 1021 83 10000 0.51 0 21:44 27.09.2021
1996 Clouds 16 1021 81 10000 0.51 0 20:39 27.09.2021
1997 Clouds 17 1020 82 10000 1.03 260 19:50 27.09.2021
1998 Clouds 18 1019 77 10000 1.03 0 19:23 27.09.2021
1999 Clouds 19 1019 67 10000 1.03 0 18:31 27.09.2021
2000 Clouds 20 1018 65 10000 1.54 200 17:28 27.09.2021
2001 Clouds 21 1018 63 10000 1.54 170 16:41 27.09.2021
2002 Clouds 21 1018 59 10000 1.03 0 15:43 27.09.2021
2003 Clouds 20 1018 66 10000 1.54 310 14:43 27.09.2021
2004 Clouds 19 1019 73 10000 3.09 260 13:31 27.09.2021
2005 Clouds 17 1020 82 10000 0.51 0 11:23 27.09.2021
2006 Clouds 15 1020 94 10000 2.06 250 09:54 27.09.2021
2007 Clouds 14 1020 94 10000 1.03 250 08:40 27.09.2021
2008 Clouds 14 1020 93 10000 1.54 270 05:21 27.09.2021
2009 Rain 14 1020 92 10000 1.03 0 02:59 27.09.2021
2010 Clouds 17 1018 82 10000 5.14 270 22:32 26.09.2021
2011 Clouds 17 1018 77 10000 1.03 0 21:50 26.09.2021
2012 Clouds 17 1017 82 10000 2.06 280 20:58 26.09.2021
2013 Clouds 18 1017 82 10000 0.51 0 20:21 26.09.2021
2014 Clouds 18 1017 77 10000 1.54 0 19:42 26.09.2021
2015 Clouds 19 1017 71 10000 1.54 180 18:45 26.09.2021
2016 Clouds 20 1017 64 10000 1.03 0 17:56 26.09.2021
2017 Clouds 21 1017 59 10000 2.06 260 17:22 26.09.2021
2018 Clouds 21 1018 51 10000 0.89 90 16:37 26.09.2021
2019 Clouds 22 1017 54 10000 3.09 270 15:59 26.09.2021
2020 Clouds 23 1017 51 10000 1.03 0 14:54 26.09.2021
2021 Clouds 22 1018 51 10000 2.06 270 13:55 26.09.2021
2022 Clouds 23 1018 60 10000 3.6 260 12:59 26.09.2021
2023 Clouds 20 1019 60 10000 3.09 260 12:24 26.09.2021
2024 Clouds 21 1019 66 10000 0.51 0 11:42 26.09.2021
2025 Clouds 18 1019 71 10000 2.57 270 10:25 26.09.2021
2026 Clouds 16 1019 79 10000 0.51 0 09:20 26.09.2021
2027 Clouds 11 1021 93 10000 1.03 0 07:39 26.09.2021
2028 Clouds 14 1020 80 10000 1.54 0 00:23 26.09.2021
2029 Clouds 14 1020 79 10000 1.03 0 23:30 25.09.2021
2030 Clouds 14 1020 79 10000 1.54 280 22:38 25.09.2021
2031 Clouds 14 1019 77 10000 1.03 200 21:55 25.09.2021
2032 Clouds 15 1019 82 10000 1.54 0 21:32 25.09.2021
2033 Clouds 15 1019 77 10000 1.03 0 20:50 25.09.2021
2034 Clear 18 1019 60 10000 1.03 0 19:31 25.09.2021
2035 Clear 22 1017 50 10000 2.57 110 18:25 25.09.2021
2036 Clear 24 1018 43 10000 1.54 180 16:28 25.09.2021
2037 Clear 22 1020 43 10000 0.51 0 13:58 25.09.2021
2038 Clear 20 1020 45 10000 1.03 0 13:33 25.09.2021
2039 Clear 18 1021 55 10000 2.06 270 12:28 25.09.2021
2040 Clear 13 1022 76 10000 1.54 280 10:36 25.09.2021
2041 Clear 11 1022 87 10000 2.06 290 09:45 25.09.2021
2042 Clear 9 1022 88 10000 1.03 0 08:29 25.09.2021
2043 Clear 9 1021 89 10000 0.51 0 07:20 25.09.2021
2044 Clear 10 1022 87 10000 1.03 0 00:49 25.09.2021
2045 Clear 12 1021 81 10000 1.03 0 21:54 24.09.2021
2046 Clear 14 1020 82 10000 0.51 0 20:49 24.09.2021
2047 Clear 16 1019 77 10000 0 0 19:58 24.09.2021
2048 Clear 21 1018 53 10000 1.54 170 18:35 24.09.2021
2049 Clear 21 1018 48 10000 1.03 0 17:56 24.09.2021
2050 Clear 22 1018 48 10000 1.03 0 17:37 24.09.2021
2051 Clear 21 1018 46 10000 2.06 80 17:18 24.09.2021
2052 Clear 20 1019 43 10000 1.54 0 14:34 24.09.2021
2053 Clear 19 1020 49 10000 0.51 0 13:19 24.09.2021
2054 Clear 18 1020 48 10000 0.51 0 12:41 24.09.2021
2055 Clear 17 1021 52 10000 0.51 0 12:23 24.09.2021
2056 Clear 14 1021 72 10000 0.51 0 10:27 24.09.2021
2057 Clear 11 1021 80 10000 1.54 250 08:57 24.09.2021
2058 Clear 9 1021 88 10000 1.03 0 07:39 24.09.2021
2059 Clear 6 1022 100 10000 1.03 0 06:50 24.09.2021
2060 Clouds 7 1021 93 10000 0.51 0 05:21 24.09.2021
2061 Clear 11 1021 84 10000 1.03 0 00:44 24.09.2021
2062 Clouds 11 1021 87 10000 1.03 0 22:35 23.09.2021
2063 Clouds 12 1022 77 10000 1.7 221 21:56 23.09.2021
2064 Clouds 13 1020 82 10000 1.03 0 20:36 23.09.2021
2065 Clear 14 1019 77 10000 1.03 0 20:18 23.09.2021
2066 Clear 21 1018 56 10000 1.03 190 18:25 23.09.2021
2067 Clear 22 1019 52 10000 1.03 0 15:37 23.09.2021
2068 Clear 22 1020 52 10000 1.03 0 15:18 23.09.2021
2069 Clear 19 1021 52 10000 1.54 60 13:49 23.09.2021
2070 Clear 18 1022 55 10000 1.54 300 13:22 23.09.2021
2071 Clear 16 1022 59 10000 2.06 260 12:53 23.09.2021
2072 Clear 16 1022 63 10000 2.06 250 12:22 23.09.2021
2073 Clear 15 1023 67 10000 3.6 270 11:47 23.09.2021
2074 Clear 13 1023 79 10000 1.54 0 10:27 23.09.2021
2075 Clear 11 1024 87 10000 1.03 0 09:53 23.09.2021
2076 Clouds 8 1025 95 10000 2.57 260 08:31 23.09.2021
2077 Clouds 8 1025 95 10000 1.03 0 04:41 23.09.2021
2078 Clouds 10 1027 88 10000 0.51 0 23:36 22.09.2021
2079 Clouds 10 1027 87 10000 1.03 0 22:42 22.09.2021
2080 Clouds 11 1027 82 10000 1.54 260 21:56 22.09.2021
2081 Clouds 11 1027 82 10000 0.51 0 21:34 22.09.2021
2082 Clouds 11 1027 82 10000 0.51 0 21:34 22.09.2021
2083 Clouds 12 1027 76 10000 0.51 0 20:57 22.09.2021
2084 Clouds 13 1026 71 10000 1.54 50 19:33 22.09.2021
2085 Clouds 15 1026 63 10000 3.6 70 18:40 22.09.2021
2086 Clouds 17 1024 71 10000 0.45 329 17:48 22.09.2021
2087 Clouds 19 1024 60 10000 1.79 343 16:40 22.09.2021
2088 Clouds 19 1025 53 10000 2.57 80 15:38 22.09.2021
2089 Clouds 18 1026 59 10000 1.03 0 14:25 22.09.2021
2090 Clouds 16 1028 69 10000 1.03 0 12:19 22.09.2021
2091 Clouds 14 1028 75 10000 1.03 0 10:57 22.09.2021
2092 Clouds 12 1028 87 10000 0.51 0 09:28 22.09.2021
2093 Clouds 11 1028 88 10000 0.51 0 08:31 22.09.2021
2094 Clouds 10 1029 82 10000 1.54 90 07:25 22.09.2021
2095 Clouds 10 1028 87 10000 2.06 70 06:18 22.09.2021
2096 Clouds 10 1028 87 10000 1.54 70 05:36 22.09.2021
2097 Clouds 10 1028 87 10000 2.06 60 03:52 22.09.2021
2098 Clouds 11 1029 82 10000 1.03 0 00:37 22.09.2021
2099 Clouds 12 1029 82 10000 0.51 0 23:24 21.09.2021
2100 Clouds 12 1029 82 10000 1.03 0 21:38 21.09.2021
2101 Clouds 12 1028 90 10000 0.8 34 20:27 21.09.2021
2102 Clouds 12 1026 83 10000 1.3 35 19:23 21.09.2021
2103 Clouds 16 1025 65 10000 1.42 41 17:49 21.09.2021
2104 Clouds 19 1025 54 10000 3.6 70 16:38 21.09.2021
2105 Clouds 19 1025 59 10000 3.09 70 15:52 21.09.2021
2106 Clouds 18 1025 59 10000 1.54 0 14:58 21.09.2021
2107 Clouds 17 1026 62 10000 1.03 0 13:57 21.09.2021
2108 Clouds 17 1026 63 10000 1.03 0 13:39 21.09.2021
2109 Clouds 16 1026 69 10000 1.54 0 12:40 21.09.2021
2110 Clouds 12 1027 82 10000 2.57 70 10:33 21.09.2021
2111 Clouds 11 1026 87 10000 1.03 50 08:40 21.09.2021
2112 Clouds 11 1025 87 10000 1.03 100 07:20 21.09.2021
2113 Clouds 12 1023 82 10000 0 0 00:48 21.09.2021
2114 Clouds 13 1022 76 10000 1.03 0 22:42 20.09.2021
2115 Clouds 13 1021 76 10000 1.54 130 21:41 20.09.2021
2116 Clouds 14 1020 77 10000 1.03 0 20:58 20.09.2021
2117 Clouds 15 1019 82 10000 2.57 100 19:40 20.09.2021
2118 Clouds 14 1018 84 10000 1.35 24 17:52 20.09.2021
2119 Clouds 17 1017 55 10000 2.57 70 16:50 20.09.2021
2120 Clouds 15 1017 75 10000 1.66 7 15:57 20.09.2021
2121 Clouds 17 1017 55 10000 2.06 60 15:33 20.09.2021
2122 Clouds 18 1017 70 10000 2.06 0 14:25 20.09.2021
2123 Clouds 16 1018 75 10000 1.54 0 12:44 20.09.2021
2124 Clouds 16 1018 77 10000 1.03 0 12:21 20.09.2021
2125 Clouds 13 1018 89 10000 1.03 0 10:36 20.09.2021
2126 Clouds 12 1017 93 10000 0.51 0 09:44 20.09.2021
2127 Drizzle 12 1017 93 10000 1.03 0 09:25 20.09.2021
2128 Clouds 12 1017 93 10000 0.51 0 08:31 20.09.2021
2129 Rain 11 1016 87 10000 4.12 250 02:29 20.09.2021
2130 Rain 13 1014 90 10000 4.63 260 22:47 19.09.2021
2131 Rain 13 1013 91 10000 7.2 250 21:47 19.09.2021
2132 Rain 14 1012 92 10000 4.12 270 20:58 19.09.2021
2133 Clouds 15 1011 91 10000 3.09 260 19:41 19.09.2021
2134 Clouds 15 1011 91 10000 2.06 60 18:42 19.09.2021
2135 Rain 17 1010 84 10000 1.54 0 17:23 19.09.2021
2136 Rain 17 1009 83 10000 3.6 100 16:32 19.09.2021
2137 Rain 18 1009 71 10000 4.12 100 15:31 19.09.2021
2138 Clouds 19 1009 67 10000 3.09 100 14:48 19.09.2021
2139 Clouds 19 1009 69 10000 1.54 110 13:46 19.09.2021
2140 Clouds 19 1011 59 10000 1.54 170 12:52 19.09.2021
2141 Clouds 16 1012 67 10000 1.03 0 11:42 19.09.2021
2142 Clouds 16 1013 72 10000 0.51 0 11:21 19.09.2021
2143 Clouds 12 1013 82 10000 0.51 0 09:50 19.09.2021
2144 Clouds 12 1013 82 10000 0.51 0 09:50 19.09.2021
2145 Clouds 10 1014 93 10000 0.51 0 08:49 19.09.2021
2146 Clouds 10 1013 92 10000 0.51 0 06:43 19.09.2021
2147 Clear 12 1016 87 10000 1.03 0 00:20 19.09.2021
2148 Clouds 12 1016 82 10000 0.51 0 22:54 18.09.2021
2149 Clouds 14 1016 77 10000 1.03 0 21:40 18.09.2021
2150 Clouds 15 1015 72 10000 1.03 0 20:46 18.09.2021
2151 Clouds 17 1015 59 10000 2.06 90 19:41 18.09.2021
2152 Clouds 18 1014 65 10000 3.6 100 19:21 18.09.2021
2153 Clouds 18 1014 55 10000 3.6 100 18:38 18.09.2021
2154 Clouds 21 1013 58 10000 4.12 90 17:59 18.09.2021
2155 Clouds 21 1013 52 10000 4.63 90 16:34 18.09.2021
2156 Clouds 21 1014 59 10000 1.54 0 13:51 18.09.2021
2157 Clouds 21 1015 61 10000 1.03 0 13:31 18.09.2021
2158 Clouds 20 1015 67 10000 1.03 0 12:51 18.09.2021
2159 Clouds 18 1016 72 10000 1.03 0 11:42 18.09.2021
2160 Clouds 16 1016 85 10000 2.06 90 10:35 18.09.2021
2161 Clouds 15 1016 88 10000 1.54 90 09:52 18.09.2021
2162 Clouds 14 1016 90 10000 2.06 80 09:20 18.09.2021
2163 Clouds 11 1016 94 10000 1.03 160 06:54 18.09.2021
2164 Clouds 12 1017 94 10000 0.86 195 00:42 18.09.2021
2165 Clouds 12 1017 93 10000 0.75 168 23:52 17.09.2021
2166 Clouds 15 1014 87 10000 0.9 114 22:42 17.09.2021
2167 Clouds 15 1016 81 10000 0.51 0 22:21 17.09.2021
2168 Clouds 16 1015 78 10000 2.57 120 21:24 17.09.2021
2169 Clouds 17 1014 75 10000 3.09 80 19:26 17.09.2021
2170 Clouds 19 1014 68 10000 5.14 70 17:55 17.09.2021
2171 Clouds 19 1014 68 10000 3.6 70 16:27 17.09.2021
2172 Clouds 16 1016 94 8249 0.84 31 14:24 17.09.2021
2173 Clouds 16 1016 89 10000 0.51 0 11:30 17.09.2021
2174 Clouds 14 1016 92 10000 1.03 0 08:55 17.09.2021
2175 Clouds 14 1015 92 10000 1.03 80 07:35 17.09.2021
2176 Clouds 15 1015 95 4300 2.06 0 03:58 17.09.2021
2177 Rain 17 1016 98 3400 0.51 0 23:36 16.09.2021
2178 Rain 17 1016 98 5000 1.03 0 22:33 16.09.2021
2179 Rain 17 1016 94 6000 1.03 0 21:52 16.09.2021
2180 Rain 17 1015 94 6000 0.51 0 21:27 16.09.2021
2181 Clouds 17 1016 94 10000 0.51 0 20:24 16.09.2021
2182 Clouds 18 1016 88 10000 3.09 60 18:24 16.09.2021
2183 Clouds 18 1016 88 10000 2.06 60 17:58 16.09.2021
2184 Rain 18 1017 88 10000 1.54 100 15:24 16.09.2021
2185 Rain 19 1015 91 10000 2.06 110 14:33 16.09.2021
2186 Clouds 19 1015 89 10000 0.51 0 12:52 16.09.2021
2187 Clouds 19 1015 89 10000 0.51 0 12:33 16.09.2021
2188 Clouds 18 1015 92 10000 0.51 0 11:43 16.09.2021
2189 Clouds 18 1015 92 10000 0.51 0 11:43 16.09.2021
2190 Clouds 18 1015 95 10000 0.51 0 10:34 16.09.2021
2191 Clouds 18 1015 92 10000 0.51 0 09:59 16.09.2021
2192 Rain 17 1015 95 8000 1.03 0 08:43 16.09.2021
2193 Rain 17 1015 95 9000 0.51 0 07:43 16.09.2021
2194 Clouds 17 1015 95 10000 1.03 0 06:54 16.09.2021
2195 Clouds 17 1015 91 10000 0.51 0 05:57 16.09.2021
2196 Clouds 18 1016 91 10000 2.06 90 01:57 16.09.2021
2197 Clouds 18 1015 93 7000 1.03 0 00:45 16.09.2021
2198 Clouds 18 1015 92 10000 1.03 0 22:47 15.09.2021
2199 Clouds 18 1015 92 10000 1.03 0 22:47 15.09.2021
2200 Clouds 18 1016 88 10000 3.09 310 21:56 15.09.2021
2201 Clouds 20 1016 77 10000 7.72 250 21:30 15.09.2021
2202 Clouds 20 1016 77 10000 7.72 250 21:30 15.09.2021
2203 Clouds 20 1015 77 10000 0.51 0 20:23 15.09.2021
2204 Clouds 21 1014 73 10000 2.57 0 19:28 15.09.2021
2205 Clouds 23 1014 64 10000 2.06 80 18:25 15.09.2021
2206 Rain 23 1015 68 10000 1.03 0 17:26 15.09.2021
2207 Rain 22 1015 68 10000 2.57 280 16:20 15.09.2021
2208 Rain 22 1015 64 10000 4.63 270 14:45 15.09.2021
2209 Rain 22 1016 68 10000 4.12 270 14:24 15.09.2021
2210 Clouds 22 1016 64 10000 4.12 270 13:39 15.09.2021
2211 Clouds 22 1016 64 10000 4.63 270 13:21 15.09.2021
2212 Clouds 22 1017 60 10000 4.12 270 12:21 15.09.2021
2213 Clouds 23 1015 61 10000 5.66 270 11:41 15.09.2021
2214 Clouds 21 1015 69 10000 4.63 270 10:56 15.09.2021
2215 Clouds 19 1015 75 10000 1.03 0 09:30 15.09.2021
2216 Clouds 15 1018 88 10000 1.03 0 08:26 15.09.2021
2217 Clouds 14 1018 88 10000 1.03 0 05:54 15.09.2021
2218 Clouds 17 1018 82 10000 1.03 0 23:55 14.09.2021
2219 Clouds 18 1018 82 10000 1.03 0 21:55 14.09.2021
2220 Clouds 19 1017 77 10000 0.51 0 20:55 14.09.2021
2221 Clouds 22 1016 64 10000 1.54 260 19:42 14.09.2021
2222 Clouds 25 1016 44 10000 4.63 70 17:45 14.09.2021
2223 Clouds 27 1015 48 10000 4.12 80 17:27 14.09.2021
2224 Clouds 28 1015 48 10000 0.51 0 15:39 14.09.2021
2225 Clouds 26 1016 54 10000 1.03 0 14:31 14.09.2021
2226 Clouds 25 1015 64 10000 1.34 295 12:46 14.09.2021
2227 Clouds 21 1018 70 10000 2.57 260 10:55 14.09.2021
2228 Clouds 18 1018 80 10000 1.54 260 09:51 14.09.2021
2229 Clouds 16 1018 88 10000 1.54 260 08:48 14.09.2021
2230 Clouds 14 1018 89 10000 1.54 260 06:38 14.09.2021
2231 Clouds 15 1020 82 10000 0.51 0 00:41 14.09.2021
2232 Clouds 17 1019 77 10000 1.54 130 22:53 13.09.2021
2233 Clouds 17 1019 77 10000 0.51 0 22:24 13.09.2021
2234 Clouds 18 1018 77 10000 0.51 0 21:53 13.09.2021
2235 Clouds 19 1018 73 10000 1.03 0 20:51 13.09.2021
2236 Clouds 20 1018 88 10000 0.68 35 19:26 13.09.2021
2237 Clouds 23 1016 53 10000 5.14 90 18:43 13.09.2021
2238 Clouds 25 1016 44 10000 4.12 90 16:51 13.09.2021
2239 Clouds 25 1016 54 10000 2.57 120 15:32 13.09.2021
2240 Clouds 23 1017 67 10000 1.03 0 12:54 13.09.2021
2241 Clouds 21 1018 72 10000 1.03 0 10:58 13.09.2021
2242 Clouds 21 1018 72 10000 1.03 0 10:58 13.09.2021
2243 Clouds 19 1018 79 10000 0.51 0 09:41 13.09.2021
2244 Clouds 13 1019 94 10000 0.51 0 07:27 13.09.2021
2245 Clouds 17 1019 77 10000 1.03 0 23:41 12.09.2021
2246 Clouds 17 1018 77 10000 1.03 270 22:26 12.09.2021
2247 Clouds 17 1018 77 10000 1.03 270 22:26 12.09.2021
2248 Clouds 17 1018 77 10000 1.03 270 22:25 12.09.2021
2249 Clouds 18 1018 72 10000 1.54 260 21:37 12.09.2021
2250 Clouds 20 1017 64 10000 1.03 0 20:29 12.09.2021
2251 Clouds 21 1016 60 10000 2.57 60 19:51 12.09.2021
2252 Clouds 21 1016 60 10000 4.63 60 19:20 12.09.2021
2253 Clouds 23 1016 53 10000 4.12 80 18:29 12.09.2021
2254 Clouds 24 1016 44 10000 2.57 100 16:33 12.09.2021
2255 Clouds 23 1016 60 10000 1.54 280 14:56 12.09.2021
2256 Clouds 23 1016 60 10000 1.54 280 14:56 12.09.2021
2257 Clouds 23 1017 59 10000 1.03 0 13:45 12.09.2021
2258 Clouds 20 1019 73 10000 1.03 0 11:31 12.09.2021
2259 Clouds 17 1020 85 10000 1.03 0 09:35 12.09.2021
2260 Clouds 16 1020 86 10000 1.03 280 08:38 12.09.2021
2261 Clouds 13 1021 94 10000 1.54 270 02:22 12.09.2021
2262 Clouds 15 1020 87 10000 1.54 260 23:28 11.09.2021
2263 Clouds 16 1019 86 10000 1.54 260 21:56 11.09.2021
2264 Clouds 17 1020 82 10000 1.54 330 20:59 11.09.2021
2265 Clouds 20 1018 75 10000 1.03 0 19:21 11.09.2021
2266 Clouds 20 1019 68 10000 1.54 190 17:38 11.09.2021
2267 Clouds 21 1018 69 10000 0.51 0 15:51 11.09.2021
2268 Clouds 20 1019 78 10000 0.51 0 13:49 11.09.2021
2269 Clouds 19 1019 78 10000 1.03 0 12:50 11.09.2021
2270 Clouds 17 1020 89 10000 0.51 0 11:19 11.09.2021
2271 Clouds 16 1019 92 10000 1.54 230 09:38 11.09.2021
2272 Clouds 16 1019 93 10000 2.57 260 07:45 11.09.2021
2273 Clouds 15 1021 94 10000 2.06 270 06:50 11.09.2021
2274 Rain 18 1018 77 10000 0.51 0 23:37 10.09.2021
2275 Clouds 19 1018 72 10000 1.03 0 22:25 10.09.2021
2276 Clouds 19 1018 68 10000 0.51 0 21:54 10.09.2021
2277 Clouds 21 1016 56 10000 3.09 260 20:24 10.09.2021
2278 Clouds 24 1015 47 10000 5.14 60 18:27 10.09.2021
2279 Clouds 26 1015 34 10000 3.09 90 16:51 10.09.2021
2280 Clouds 26 1015 46 10000 0.51 0 14:41 10.09.2021
2281 Clouds 21 1016 61 10000 3.09 280 11:56 10.09.2021
2282 Clouds 14 1017 85 10000 1.03 260 08:36 10.09.2021
2283 Clouds 14 1017 84 10000 0.51 0 07:49 10.09.2021
2284 Clouds 15 1018 82 10000 1.03 0 00:42 10.09.2021
2285 Clouds 17 1017 77 10000 0.51 0 22:31 09.09.2021
2286 Clouds 19 1016 63 10000 1.03 0 21:45 09.09.2021
2287 Clouds 19 1016 68 10000 2.57 250 20:46 09.09.2021
2288 Clouds 21 1015 60 10000 3.09 0 19:54 09.09.2021
2289 Clouds 26 1014 38 10000 3.6 90 18:31 09.09.2021
2290 Clouds 27 1014 36 10000 3.6 90 16:40 09.09.2021
2291 Clouds 26 1015 36 10000 4.12 40 15:36 09.09.2021
2292 Clouds 25 1015 46 10000 3.09 260 12:48 09.09.2021
2293 Clouds 24 1015 51 10000 4.63 270 11:41 09.09.2021
2294 Clouds 19 1016 68 10000 4.12 270 09:50 09.09.2021
2295 Clouds 17 1016 72 10000 3.6 280 08:47 09.09.2021
2296 Clouds 17 1016 72 10000 3.6 280 08:47 09.09.2021
2297 Clouds 13 1018 82 10000 2.57 280 06:26 09.09.2021
2298 Clouds 15 1018 72 10000 2.57 250 02:19 09.09.2021
2299 Clouds 16 1019 85 10000 2.58 185 22:40 08.09.2021
2300 Clouds 17 1019 83 10000 2.58 186 21:31 08.09.2021
2301 Clouds 20 1018 73 10000 2.56 185 19:56 08.09.2021
2302 Clouds 24 1015 36 10000 4.12 140 18:58 08.09.2021
2303 Clouds 25 1014 40 10000 4.63 150 18:29 08.09.2021
2304 Clouds 25 1015 36 10000 4.12 0 17:55 08.09.2021
2305 Clouds 26 1016 34 10000 5.14 150 16:32 08.09.2021
2306 Clouds 27 1017 38 10000 5.14 130 14:25 08.09.2021
2307 Clouds 25 1018 48 10000 3.09 270 12:46 08.09.2021
2308 Clouds 24 1018 51 10000 3.6 270 12:26 08.09.2021
2309 Clouds 22 1019 61 10000 4.63 270 11:29 08.09.2021
2310 Clouds 19 1019 75 10000 3.6 270 10:33 08.09.2021
2311 Clouds 18 1020 79 10000 2.57 270 09:59 08.09.2021
2312 Clouds 14 1020 85 10000 0.51 0 08:31 08.09.2021
2313 Clouds 14 1020 89 10000 1.03 0 07:32 08.09.2021
2314 Clear 12 1022 94 10000 1.03 270 04:19 08.09.2021
2315 Clear 15 1023 77 10000 0.51 0 22:43 07.09.2021
2316 Clouds 15 1023 77 10000 1.03 0 21:52 07.09.2021
2317 Clouds 20 1022 68 10000 0.51 0 19:52 07.09.2021
2318 Clouds 21 1021 61 10000 1.54 90 18:45 07.09.2021
2319 Clouds 23 1020 57 10000 4.12 100 17:49 07.09.2021
2320 Clouds 25 1020 51 10000 3.6 80 16:33 07.09.2021
2321 Clouds 25 1021 46 10000 2.06 80 15:35 07.09.2021
2322 Clouds 24 1022 51 10000 2.06 70 14:42 07.09.2021
2323 Clouds 22 1021 71 10000 1.34 319 12:41 07.09.2021
2324 Clouds 20 1024 69 10000 1.54 260 11:37 07.09.2021
2325 Clouds 18 1025 72 10000 1.03 0 10:40 07.09.2021
2326 Clear 14 1024 86 10000 1.03 260 08:25 07.09.2021
2327 Clear 13 1024 88 10000 0.51 0 06:45 07.09.2021
2328 Clouds 13 1024 90 10000 1.54 250 05:24 07.09.2021
2329 Clouds 12 1026 94 10000 0.51 0 02:32 07.09.2021
2330 Clear 14 1026 82 10000 1.03 0 00:40 07.09.2021
2331 Clouds 14 1025 82 10000 1.03 150 23:31 06.09.2021
2332 Clouds 14 1025 82 10000 0.51 0 22:53 06.09.2021
2333 Clouds 16 1025 72 10000 0.51 0 22:32 06.09.2021
2334 Clouds 18 1024 63 10000 0.51 0 20:55 06.09.2021
2335 Clouds 21 1023 53 10000 5.66 60 19:22 06.09.2021
2336 Clouds 21 1023 53 10000 5.66 60 19:22 06.09.2021
2337 Clouds 23 1022 46 10000 4.63 70 18:46 06.09.2021
2338 Clouds 23 1022 50 10000 5.66 60 18:23 06.09.2021
2339 Clouds 24 1022 44 10000 4.12 90 17:36 06.09.2021
2340 Clouds 26 1021 42 10000 3.09 0 15:43 06.09.2021
2341 Clouds 24 1022 55 10000 2.06 160 13:47 06.09.2021
2342 Clouds 23 1023 58 10000 0.51 0 12:46 06.09.2021
2343 Clouds 20 1023 70 10000 1.03 0 10:44 06.09.2021
2344 Clouds 14 1023 85 10000 1.03 0 07:59 06.09.2021
2345 Clouds 12 1024 94 10000 1.03 170 04:44 06.09.2021
2346 Clouds 15 1023 82 10000 0.51 0 23:27 05.09.2021
2347 Clouds 14 1023 82 10000 1.03 0 22:46 05.09.2021
2348 Clouds 16 1022 77 10000 0.51 0 21:57 05.09.2021
2349 Clouds 17 1022 72 10000 0.51 0 21:29 05.09.2021
2350 Clouds 22 1020 56 10000 3.09 90 19:50 05.09.2021
2351 Clouds 22 1019 53 10000 5.14 70 18:38 05.09.2021
2352 Clouds 25 1018 51 10000 4.63 80 17:29 05.09.2021
2353 Clouds 25 1019 45 10000 3.09 70 15:27 05.09.2021
2354 Clouds 24 1019 52 10000 1.54 220 13:54 05.09.2021
2355 Clouds 21 1020 63 10000 1.03 0 11:57 05.09.2021
2356 Clouds 19 1020 73 10000 1.03 0 10:47 05.09.2021
2357 Clouds 18 1020 78 10000 2.06 270 10:23 05.09.2021
2358 Clouds 16 1020 82 10000 1.54 280 09:21 05.09.2021
2359 Clouds 13 1020 91 10000 1.54 250 07:31 05.09.2021
2360 Clouds 14 1020 88 10000 2.57 270 00:46 05.09.2021
2361 Clouds 14 1019 82 10000 2.57 250 00:21 05.09.2021
2362 Clouds 15 1019 82 10000 2.57 280 23:29 04.09.2021
2363 Clouds 15 1019 82 10000 2.06 300 22:35 04.09.2021
2364 Clouds 16 1018 77 10000 3.09 290 21:55 04.09.2021
2365 Clouds 21 1016 56 10000 3.09 270 19:41 04.09.2021
2366 Clouds 23 1015 50 10000 5.14 60 18:19 04.09.2021
2367 Clouds 25 1014 50 10000 2.57 70 15:53 04.09.2021
2368 Clouds 22 1016 67 10000 1.54 0 12:22 04.09.2021
2369 Clouds 20 1017 75 10000 0.51 0 11:18 04.09.2021
2370 Clouds 15 1017 91 10000 0.51 0 08:58 04.09.2021
2371 Clouds 13 1019 88 10000 1.03 0 02:32 04.09.2021
2372 Clouds 14 1019 88 10000 0.51 0 00:23 04.09.2021
2373 Clear 15 1019 82 10000 0.51 0 23:23 03.09.2021
2374 Clouds 16 1018 77 10000 0.51 0 21:53 03.09.2021
2375 Clouds 16 1018 77 10000 0.51 0 21:31 03.09.2021
2376 Clouds 18 1018 72 10000 0.51 0 20:35 03.09.2021
2377 Clouds 21 1017 60 10000 3.09 50 19:46 03.09.2021
2378 Clouds 23 1017 50 10000 4.63 70 18:52 03.09.2021
2379 Clouds 24 1017 44 10000 4.12 70 17:40 03.09.2021
2380 Clouds 25 1018 41 10000 3.6 90 16:23 03.09.2021
2381 Clouds 25 1018 47 10000 2.57 100 14:47 03.09.2021
2382 Clouds 21 1020 66 10000 1.03 0 11:56 03.09.2021
2383 Clear 18 1021 77 10000 1.03 0 10:22 03.09.2021
2384 Clear 12 1022 87 10000 1.54 260 08:38 03.09.2021
2385 Clouds 12 1022 90 10000 0.51 0 07:34 03.09.2021
2386 Clear 15 1023 82 10000 1.03 60 00:24 03.09.2021
2387 Clear 15 1023 82 10000 1.03 60 00:24 03.09.2021
2388 Clear 14 1024 77 10000 1.54 150 22:43 02.09.2021
2389 Clear 16 1023 77 10000 1.03 0 21:19 02.09.2021
2390 Clear 19 1022 67 10000 1.66 59 19:24 02.09.2021
2391 Clouds 23 1022 49 10000 3.09 80 17:22 02.09.2021
2392 Clouds 23 1023 49 10000 2.57 70 15:43 02.09.2021
2393 Clouds 21 1023 61 10000 3.09 100 13:43 02.09.2021
2394 Clear 19 1025 59 10000 1.03 0 12:21 02.09.2021
2395 Clear 18 1026 63 10000 0.51 0 11:33 02.09.2021
2396 Clouds 13 1027 87 10000 1.03 0 09:30 02.09.2021
2397 Clouds 10 1026 90 10000 0.51 0 07:45 02.09.2021
2398 Clear 10 1026 94 10000 0.51 0 06:47 02.09.2021
2399 Clear 11 1026 87 10000 1.03 0 02:38 02.09.2021
2400 Clouds 11 1026 84 10000 1.03 0 01:53 02.09.2021
2401 Clouds 11 1027 76 10000 2.06 100 01:18 02.09.2021
2402 Clear 12 1027 87 10000 0.51 0 23:34 01.09.2021
2403 Clear 13 1026 82 10000 1.03 0 22:31 01.09.2021
2404 Clear 14 1026 77 10000 0.51 0 21:33 01.09.2021
2405 Clear 18 1024 63 10000 2.57 50 19:55 01.09.2021
2406 Clouds 21 1023 48 10000 4.12 70 17:58 01.09.2021
2407 Clouds 22 1023 44 10000 5.14 50 17:18 01.09.2021
2408 Clouds 22 1023 43 10000 4.12 90 16:46 01.09.2021
2409 Clouds 21 1024 45 10000 3.6 90 15:23 01.09.2021
2410 Clouds 17 1025 70 10000 1.54 0 11:48 01.09.2021
2411 Clouds 15 1026 81 10000 1.54 240 10:42 01.09.2021
2412 Clouds 12 1026 92 10000 3.6 280 08:46 01.09.2021
2413 Clouds 11 1026 92 10000 2.06 260 07:50 01.09.2021
2414 Clouds 12 1025 88 10000 0.51 0 23:41 31.08.2021
2415 Drizzle 14 1024 89 10000 0.51 0 22:29 31.08.2021
2416 Clouds 15 1023 89 10000 0.51 0 20:56 31.08.2021
2417 Clouds 15 1022 86 10000 0.51 0 19:44 31.08.2021
2418 Clouds 17 1021 78 10000 0.51 0 17:53 31.08.2021
2419 Clouds 17 1021 78 10000 0.51 0 17:33 31.08.2021
2420 Clouds 17 1020 80 10000 4.12 80 16:41 31.08.2021
2421 Clouds 19 1020 67 10000 3.09 40 15:56 31.08.2021
2422 Clouds 16 1021 77 10000 2.06 70 12:55 31.08.2021
2423 Clouds 15 1020 90 10000 0.51 0 11:25 31.08.2021
2424 Rain 15 1020 91 10000 1.03 0 10:45 31.08.2021
2425 Clouds 13 1021 88 10000 1.03 0 09:43 31.08.2021
2426 Clouds 12 1020 100 10000 0.51 0 08:23 31.08.2021
2427 Clouds 12 1019 94 10000 1.03 0 05:57 31.08.2021
2428 Clouds 13 1019 94 10000 1.03 220 23:37 30.08.2021
2429 Clouds 13 1019 94 10000 1.03 0 23:37 30.08.2021
2430 Clouds 13 1019 94 10000 1.03 0 22:55 30.08.2021
2431 Rain 13 1018 100 10000 0.51 0 21:41 30.08.2021
2432 Rain 14 1018 88 10000 0.51 0 20:42 30.08.2021
2433 Clouds 14 1017 82 10000 1.03 0 19:55 30.08.2021
2434 Clouds 15 1017 82 10000 1.54 290 19:28 30.08.2021
2435 Clouds 15 1017 82 10000 1.03 0 18:18 30.08.2021
2436 Rain 15 1016 90 10000 1.03 0 16:32 30.08.2021
2437 Rain 15 1016 91 10000 2.06 60 15:50 30.08.2021
2438 Clouds 15 1015 86 10000 1.54 130 14:24 30.08.2021
2439 Rain 14 1015 88 10000 1.03 0 13:22 30.08.2021
2440 Rain 14 1015 84 10000 0.51 0 11:48 30.08.2021
2441 Clouds 12 1014 90 10000 1.54 200 08:22 30.08.2021
2442 Rain 12 1017 94 10000 1.03 0 21:58 29.08.2021
2443 Rain 13 1017 94 10000 1.03 0 21:19 29.08.2021
2444 Rain 14 1016 89 10000 1.54 10 19:31 29.08.2021
2445 Rain 15 1015 67 10000 2.06 60 18:28 29.08.2021
2446 Clouds 16 1015 67 10000 3.6 70 15:58 29.08.2021
2447 Clouds 16 1016 66 10000 4.12 90 14:29 29.08.2021
2448 Clouds 16 1016 68 10000 5.14 60 13:55 29.08.2021
2449 Clouds 15 1016 73 10000 2.06 70 12:58 29.08.2021
2450 Clouds 14 1017 76 10000 1.54 70 12:18 29.08.2021
2451 Clouds 14 1017 76 10000 1.54 70 12:18 29.08.2021
2452 Clouds 14 1017 78 10000 0.51 0 11:40 29.08.2021
2453 Clouds 13 1017 81 10000 0.51 0 10:47 29.08.2021
2454 Clouds 13 1017 83 10000 1.03 0 10:28 29.08.2021
2455 Clouds 12 1017 90 10000 1.03 0 09:32 29.08.2021
2456 Clouds 11 1018 94 10000 0.51 0 04:19 29.08.2021
2457 Clouds 11 1019 87 10000 0.51 0 22:57 28.08.2021
2458 Clouds 11 1018 94 10000 0.51 0 20:31 28.08.2021
2459 Rain 13 1017 78 10000 2.06 340 19:20 28.08.2021
2460 Rain 13 1016 82 10000 3.09 250 18:22 28.08.2021
2461 Rain 14 1016 81 10000 2.57 290 17:45 28.08.2021
2462 Rain 15 1016 67 10000 2.57 270 16:28 28.08.2021
2463 Rain 15 1016 75 10000 3.6 60 14:52 28.08.2021
2464 Clouds 15 1015 75 10000 2.57 70 13:58 28.08.2021
2465 Clouds 15 1015 74 10000 2.57 70 13:39 28.08.2021
2466 Clouds 14 1016 88 10000 2.06 60 12:30 28.08.2021
2467 Rain 13 1016 83 10000 0.51 0 10:46 28.08.2021
2468 Clouds 13 1015 89 10000 1.03 0 09:34 28.08.2021
2469 Clouds 11 1016 93 10000 1.03 0 07:26 28.08.2021
2470 Clouds 13 1017 85 10000 1.03 160 22:57 27.08.2021
2471 Clouds 14 1017 79 10000 1.03 0 21:26 27.08.2021
2472 Clouds 14 1016 76 10000 3.09 110 20:35 27.08.2021
2473 Clouds 15 1015 72 10000 4.63 70 19:30 27.08.2021
2474 Clouds 16 1015 71 10000 3.6 80 18:38 27.08.2021
2475 Clouds 16 1015 68 10000 2.57 90 17:38 27.08.2021
2476 Clouds 17 1014 69 10000 4.12 80 16:28 27.08.2021
2477 Clouds 16 1014 71 10000 4.12 90 14:44 27.08.2021
2478 Clouds 17 1014 69 10000 2.57 70 12:56 27.08.2021
2479 Clouds 15 1014 76 10000 1.54 0 11:42 27.08.2021
2480 Clouds 15 1014 80 10000 1.54 310 10:48 27.08.2021
2481 Clouds 14 1014 87 10000 0.51 0 09:52 27.08.2021
2482 Clouds 13 1014 94 10000 2.06 270 08:55 27.08.2021
2483 Clouds 12 1014 94 10000 0.51 0 07:39 27.08.2021
2484 Drizzle 12 1013 94 10000 1.54 80 05:33 27.08.2021
2485 Clouds 13 1013 95 10000 1.54 160 00:39 27.08.2021
2486 Clouds 13 1013 91 10000 1.03 0 23:28 26.08.2021
2487 Rain 14 1013 91 10000 1.54 100 22:23 26.08.2021
2488 Clouds 14 1012 91 10000 1.03 0 21:28 26.08.2021
2489 Clouds 16 1011 87 10000 3.6 100 19:30 26.08.2021
2490 Clouds 15 1012 98 5284 1.02 357 17:47 26.08.2021
2491 Rain 15 1011 91 10000 1.74 355 17:24 26.08.2021
2492 Clouds 20 1010 66 10000 4.63 80 16:26 26.08.2021
2493 Clouds 22 1010 59 10000 2.57 0 13:59 26.08.2021
2494 Clouds 20 1011 66 10000 2.57 60 12:58 26.08.2021
2495 Clouds 20 1011 67 10000 2.57 80 12:31 26.08.2021
2496 Clouds 16 1014 72 10000 0.51 0 10:33 26.08.2021
2497 Clouds 14 1014 87 10000 1.03 0 08:35 26.08.2021
2498 Clouds 13 1014 88 10000 1.03 0 07:47 26.08.2021
2499 Clouds 13 1018 82 10000 0.51 0 22:55 25.08.2021
2500 Clouds 13 1018 82 10000 0.51 0 22:36 25.08.2021
2501 Clouds 14 1017 77 10000 1.03 0 21:54 25.08.2021
2502 Clouds 16 1017 72 10000 1.54 30 20:49 25.08.2021
2503 Clouds 17 1016 63 10000 3.09 70 20:28 25.08.2021
2504 Clouds 19 1016 60 10000 5.14 70 18:45 25.08.2021
2505 Clouds 22 1015 46 10000 4.12 100 17:43 25.08.2021
2506 Clouds 22 1016 51 10000 4.12 70 15:45 25.08.2021
2507 Clouds 22 1016 50 10000 3.09 80 14:48 25.08.2021
2508 Clouds 22 1017 52 10000 2.06 70 14:30 25.08.2021
2509 Clouds 22 1017 52 10000 2.06 70 14:30 25.08.2021
2510 Clouds 21 1017 57 10000 1.54 0 13:30 25.08.2021
2511 Clouds 18 1019 70 10000 2.57 120 11:28 25.08.2021
2512 Clouds 17 1019 77 10000 2.06 150 10:43 25.08.2021
2513 Clouds 16 1020 86 10000 1.54 70 09:58 25.08.2021
2514 Clouds 16 1020 86 10000 2.57 90 09:18 25.08.2021
2515 Clouds 14 1020 88 10000 2.06 50 08:30 25.08.2021
2516 Clouds 14 1021 82 10000 2.06 70 04:51 25.08.2021
2517 Clouds 14 1021 90 10000 1.03 0 00:53 25.08.2021
2518 Clouds 15 1021 86 10000 1.03 0 22:50 24.08.2021
2519 Clouds 16 1021 82 10000 1.03 0 20:48 24.08.2021
2520 Clouds 17 1021 79 10000 0.51 0 19:52 24.08.2021
2521 Clouds 17 1021 71 10000 2.06 70 18:47 24.08.2021
2522 Clouds 18 1021 74 10000 1.54 20 17:46 24.08.2021
2523 Clouds 19 1021 72 10000 3.09 50 17:19 24.08.2021
2524 Clouds 19 1021 68 10000 2.06 60 14:30 24.08.2021
2525 Clouds 18 1022 72 10000 1.03 0 13:29 24.08.2021
2526 Clouds 18 1021 80 10000 1.03 0 12:33 24.08.2021
2527 Clouds 16 1021 93 10000 4.63 90 10:48 24.08.2021
2528 Clouds 16 1021 93 10000 4.12 80 10:27 24.08.2021
2529 Clouds 15 1021 94 10000 3.09 90 08:59 24.08.2021
2530 Clouds 14 1022 94 10000 2.06 70 06:55 24.08.2021
2531 Clouds 15 1021 88 10000 1.03 0 04:54 24.08.2021
2532 Clouds 15 1022 94 10000 0.51 0 00:48 24.08.2021
2533 Clouds 16 1021 82 10000 1.03 0 23:19 23.08.2021
2534 Clouds 16 1021 82 10000 0.51 0 22:39 23.08.2021
2535 Clouds 17 1021 72 10000 1.03 0 20:39 23.08.2021
2536 Clouds 20 1019 65 10000 2.06 50 19:24 23.08.2021
2537 Clouds 20 1020 56 10000 3.09 60 16:41 23.08.2021
2538 Clouds 21 1019 60 10000 1.54 340 14:49 23.08.2021
2539 Clouds 20 1019 60 10000 1.54 270 13:23 23.08.2021
2540 Clouds 20 1020 67 10000 1.03 0 12:19 23.08.2021
2541 Clouds 18 1021 79 10000 0.51 0 10:39 23.08.2021
2542 Clouds 16 1021 88 10000 1.54 270 09:48 23.08.2021
2543 Clouds 15 1021 94 10000 1.03 0 08:33 23.08.2021
2544 Clouds 15 1021 94 10000 1.03 0 06:50 23.08.2021
2545 Clouds 14 1020 93 10000 1.03 250 06:30 23.08.2021
2546 Rain 16 1020 97 9000 1.03 0 00:54 23.08.2021
2547 Rain 17 1019 93 10000 2.06 80 22:46 22.08.2021
2548 Rain 18 1019 93 10000 1.03 0 22:26 22.08.2021
2549 Rain 18 1018 93 10000 1.54 210 20:23 22.08.2021
2550 Rain 19 1017 93 8000 1.54 260 19:40 22.08.2021
2551 Clouds 22 1018 64 10000 1.54 90 16:48 22.08.2021
2552 Clouds 21 1017 82 10000 1.54 90 15:22 22.08.2021
2553 Clouds 21 1018 81 10000 1.03 0 14:37 22.08.2021
2554 Clouds 20 1018 83 10000 1.03 0 13:21 22.08.2021
2555 Clouds 20 1019 82 10000 1.03 0 12:51 22.08.2021
2556 Clouds 19 1019 86 10000 0.51 0 12:25 22.08.2021
2557 Rain 18 1021 88 10000 2.57 310 11:42 22.08.2021
2558 Clouds 19 1019 83 10000 3.6 260 10:31 22.08.2021
2559 Clouds 18 1019 88 10000 1.03 0 08:19 22.08.2021
2560 Clouds 15 1020 88 10000 1.03 0 04:56 22.08.2021
2561 Clouds 18 1020 77 10000 1.03 0 23:58 21.08.2021
2562 Clouds 18 1020 77 10000 1.03 0 22:34 21.08.2021
2563 Clouds 22 1019 68 10000 0.51 0 20:35 21.08.2021
2564 Clouds 26 1018 44 10000 4.63 70 18:39 21.08.2021
2565 Clouds 27 1018 44 10000 3.09 80 17:59 21.08.2021
2566 Clouds 28 1017 43 10000 3.6 80 16:54 21.08.2021
2567 Clouds 28 1017 43 10000 3.09 70 16:25 21.08.2021
2568 Clouds 28 1017 44 10000 2.57 90 15:36 21.08.2021
2569 Clouds 27 1018 53 10000 3.09 50 14:38 21.08.2021
2570 Clouds 25 1019 60 10000 1.54 0 13:31 21.08.2021
2571 Clouds 25 1019 61 10000 0.51 0 12:34 21.08.2021
2572 Clouds 19 1020 81 10000 1.54 260 09:29 21.08.2021
2573 Clear 13 1021 94 10000 1.54 230 05:41 21.08.2021
2574 Clouds 17 1020 77 10000 0.51 0 22:56 20.08.2021
2575 Clouds 18 1019 77 10000 0.51 0 21:41 20.08.2021
2576 Clouds 24 1016 50 10000 5.66 70 17:47 20.08.2021
2577 Clouds 25 1016 47 10000 4.12 80 15:57 20.08.2021
2578 Clouds 25 1016 58 10000 2.06 0 13:36 20.08.2021
2579 Clouds 22 1017 67 10000 1.03 0 11:38 20.08.2021
2580 Clouds 21 1017 74 10000 0.51 0 10:43 20.08.2021
2581 Clouds 19 1017 80 10000 0 0 09:40 20.08.2021
2582 Clouds 17 1017 84 10000 0.51 0 08:41 20.08.2021
2583 Clouds 15 1017 92 10000 0.51 0 06:59 20.08.2021
2584 Clouds 16 1016 88 10000 0.51 0 04:22 20.08.2021
2585 Clouds 18 1017 80 10000 1.54 160 00:19 20.08.2021
2586 Clouds 18 1016 80 10000 0.51 0 23:18 19.08.2021
2587 Clouds 18 1017 72 10000 1.54 90 22:31 19.08.2021
2588 Clouds 20 1016 60 10000 4.12 70 20:32 19.08.2021
2589 Clouds 23 1014 62 10000 4.63 90 19:35 19.08.2021
2590 Clouds 24 1014 54 10000 4.63 90 17:19 19.08.2021
2591 Clouds 24 1014 54 10000 3.09 90 15:53 19.08.2021
2592 Clouds 22 1016 59 10000 1.03 0 13:29 19.08.2021
2593 Clouds 21 1016 61 10000 1.54 0 12:33 19.08.2021
2594 Clouds 19 1017 71 10000 2.06 270 11:24 19.08.2021
2595 Clouds 17 1018 79 10000 3.09 270 10:20 19.08.2021
2596 Clouds 17 1018 80 10000 1.54 260 09:44 19.08.2021
2597 Clouds 16 1018 83 10000 1.54 260 09:18 19.08.2021
2598 Clouds 13 1018 88 10000 0.51 0 06:53 19.08.2021
2599 Clear 13 1019 88 10000 0.51 0 02:22 19.08.2021
2600 Clouds 14 1019 82 10000 1.54 250 01:48 19.08.2021
2601 Clouds 16 1019 72 10000 1.03 0 22:55 18.08.2021
2602 Clouds 17 1018 68 10000 1.54 340 21:40 18.08.2021
2603 Clouds 18 1017 63 10000 3.09 60 20:31 18.08.2021
2604 Clouds 19 1017 56 10000 3.6 100 19:32 18.08.2021
2605 Clouds 21 1016 58 10000 4.63 70 18:47 18.08.2021
2606 Clouds 20 1017 56 10000 3.6 50 17:57 18.08.2021
2607 Clouds 22 1017 60 10000 3.09 60 15:46 18.08.2021
2608 Clouds 22 1017 59 10000 3.09 70 15:23 18.08.2021
2609 Clouds 21 1017 62 10000 3.6 90 14:49 18.08.2021
2610 Clouds 19 1019 66 10000 3.09 70 12:42 18.08.2021
2611 Clouds 19 1019 69 10000 2.06 0 12:24 18.08.2021
2612 Clouds 15 1020 89 10000 1.03 0 09:53 18.08.2021
2613 Clouds 13 1020 91 10000 1.03 0 07:42 18.08.2021
2614 Clouds 15 1018 82 10000 0.51 0 00:43 18.08.2021
2615 Clouds 15 1019 72 10000 2.06 250 22:29 17.08.2021
2616 Clouds 16 1018 73 10000 1.03 0 21:27 17.08.2021
2617 Clouds 17 1018 63 10000 2.57 80 20:44 17.08.2021
2618 Clouds 19 1017 60 10000 4.12 100 18:57 17.08.2021
2619 Clouds 20 1017 58 10000 3.6 70 17:31 17.08.2021
2620 Clouds 20 1017 54 10000 4.12 80 16:34 17.08.2021
2621 Clouds 21 1017 57 10000 2.57 40 15:36 17.08.2021
2622 Clouds 20 1018 55 10000 1.03 0 14:28 17.08.2021
2623 Clouds 17 1020 73 10000 1.03 0 11:49 17.08.2021
2624 Drizzle 14 1020 89 10000 1.54 40 09:21 17.08.2021
2625 Clouds 14 1019 91 10000 1.54 270 07:45 17.08.2021
2626 Clouds 14 1017 94 10000 1.54 170 01:20 17.08.2021
2627 Clouds 14 1017 93 10000 2.06 270 22:55 16.08.2021
2628 Clouds 14 1017 93 10000 2.06 270 22:36 16.08.2021
2629 Rain 14 1017 93 10000 0.51 0 21:53 16.08.2021
2630 Rain 15 1017 92 10000 1.03 0 20:54 16.08.2021
2631 Rain 16 1018 88 10000 1.03 0 19:45 16.08.2021
2632 Rain 16 1017 86 10000 7.2 250 19:22 16.08.2021
2633 Rain 17 1015 89 10000 2.57 0 18:23 16.08.2021
2634 Rain 18 1014 89 10000 5.66 240 17:51 16.08.2021
2635 Rain 19 1010 84 10000 4.12 130 15:40 16.08.2021
2636 Rain 22 1011 68 10000 3.6 270 14:47 16.08.2021
2637 Clouds 25 1010 68 10000 1.54 160 13:37 16.08.2021
2638 Clouds 22 1013 77 10000 3.09 260 12:32 16.08.2021
2639 Clouds 19 1016 82 10000 3.6 280 10:37 16.08.2021
2640 Rain 19 1015 89 10000 3.09 290 08:46 16.08.2021
2641 Rain 18 1014 93 10000 1.54 280 07:33 16.08.2021
2642 Rain 18 1015 92 10000 2.57 240 06:35 16.08.2021
2643 Rain 19 1015 89 10000 4.12 270 02:18 16.08.2021
2644 Rain 20 1015 87 10000 2.57 260 22:47 15.08.2021
2645 Thunderstorm 21 1017 73 10000 2.57 220 20:38 15.08.2021
2646 Clouds 25 1012 56 10000 6.17 150 18:47 15.08.2021
2647 Thunderstorm 28 1011 52 10000 5.14 210 17:55 15.08.2021
2648 Rain 31 1013 45 10000 1.03 0 17:32 15.08.2021
2649 Clouds 32 1011 41 10000 0.51 0 16:24 15.08.2021
2650 Clouds 31 1013 50 10000 1.54 140 14:42 15.08.2021
2651 Clouds 30 1014 55 10000 1.03 0 13:55 15.08.2021
2652 Clouds 27 1016 66 10000 2.06 260 11:18 15.08.2021
2653 Clouds 23 1018 81 10000 1.54 290 08:50 15.08.2021
2654 Clouds 22 1021 73 10000 2.57 100 01:24 15.08.2021
2655 Clouds 21 1021 83 10000 2.06 50 00:36 15.08.2021
2656 Clouds 25 1020 69 10000 0.51 0 21:59 14.08.2021
2657 Clouds 26 1020 65 10000 0.51 0 20:58 14.08.2021
2658 Clouds 29 1019 58 10000 0.51 0 19:43 14.08.2021
2659 Clouds 29 1019 48 10000 3.09 70 18:39 14.08.2021
2660 Clouds 31 1020 42 10000 3.6 70 16:59 14.08.2021
2661 Clouds 31 1018 45 10000 3.6 70 15:47 14.08.2021
2662 Clouds 31 1019 51 10000 1.54 0 14:24 14.08.2021
2663 Clouds 27 1024 57 10000 1.54 270 11:59 14.08.2021
2664 Clouds 24 1024 60 10000 2.57 260 10:45 14.08.2021
2665 Clouds 20 1023 83 10000 1.54 250 07:39 14.08.2021
2666 Clouds 20 1025 78 10000 0.51 0 23:53 13.08.2021
2667 Clouds 22 1024 73 10000 1.54 260 22:18 13.08.2021
2668 Clouds 27 1023 65 10000 1.03 0 20:27 13.08.2021
2669 Clouds 29 1022 45 10000 2.57 80 18:47 13.08.2021
2670 Clouds 29 1022 45 10000 3.6 50 17:42 13.08.2021
2671 Clouds 31 1020 40 10000 2.57 110 16:19 13.08.2021
2672 Clouds 28 1023 54 10000 0.51 0 12:18 13.08.2021
2673 Clouds 26 1023 63 10000 0.51 0 11:19 13.08.2021
2674 Clouds 20 1025 77 10000 1.03 0 08:59 13.08.2021
2675 Clouds 21 1023 77 10000 1.03 0 08:35 13.08.2021
2676 Clouds 19 1023 84 10000 1.54 200 06:43 13.08.2021
2677 Clouds 17 1024 88 10000 1.03 0 04:43 13.08.2021
2678 Clouds 22 1022 73 10000 0.51 0 22:34 12.08.2021
2679 Clouds 23 1021 60 10000 0.51 0 21:20 12.08.2021
2680 Clouds 28 1020 47 10000 4.12 80 19:55 12.08.2021
2681 Clouds 28 1020 45 10000 4.12 70 19:25 12.08.2021
2682 Clouds 30 1019 33 10000 2.57 60 17:26 12.08.2021
2683 Clouds 30 1020 35 10000 3.09 70 16:28 12.08.2021
2684 Clouds 30 1020 42 10000 1.03 0 13:54 12.08.2021
2685 Clouds 27 1020 60 10000 0.51 0 12:23 12.08.2021
2686 Clouds 21 1024 72 10000 2.57 260 09:59 12.08.2021
2687 Clouds 17 1022 86 10000 2.06 260 07:53 12.08.2021
2688 Clear 17 1023 88 10000 1.03 0 00:48 12.08.2021
2689 Clouds 20 1021 73 10000 1.03 0 21:56 11.08.2021
2690 Clouds 26 1020 50 10000 4.63 80 19:36 11.08.2021
2691 Clouds 27 1019 44 10000 4.12 80 18:27 11.08.2021
2692 Clouds 29 1018 41 10000 1.54 0 15:38 11.08.2021
2693 Clouds 29 1018 43 10000 0.51 0 15:20 11.08.2021
2694 Clouds 27 1019 56 10000 1.03 0 14:20 11.08.2021
2695 Clouds 24 1020 68 10000 2.57 140 12:30 11.08.2021
2696 Rain 23 1020 69 10000 2.06 40 11:46 11.08.2021
2697 Clouds 21 1023 77 10000 4.12 280 11:22 11.08.2021
2698 Clouds 20 1022 77 10000 4.12 260 09:45 11.08.2021
2699 Clouds 17 1020 87 10000 0.51 0 07:30 11.08.2021
2700 Clouds 18 1020 77 10000 1.03 190 23:31 10.08.2021
2701 Clouds 19 1020 77 10000 0.51 0 22:29 10.08.2021
2702 Clouds 22 1018 64 10000 1.54 0 20:57 10.08.2021
2703 Clouds 25 1018 53 10000 3.09 50 19:42 10.08.2021
2704 Clouds 27 1017 44 10000 3.09 80 18:31 10.08.2021
2705 Clouds 27 1017 58 10000 2.57 50 15:58 10.08.2021
2706 Clouds 26 1017 63 10000 1.54 0 14:52 10.08.2021
2707 Clouds 23 1021 73 10000 1.54 320 12:22 10.08.2021
2708 Clouds 20 1021 84 10000 1.03 0 09:51 10.08.2021
2709 Clouds 14 1023 94 10000 0.51 0 06:48 10.08.2021
2710 Clouds 14 1023 94 10000 1.54 270 04:58 10.08.2021
2711 Clouds 16 1023 94 10000 1.03 0 23:41 09.08.2021
2712 Rain 17 1022 94 10000 1.03 0 21:55 09.08.2021
2713 Rain 18 1021 94 10000 1.03 0 21:34 09.08.2021
2714 Rain 20 1020 90 10000 1.03 0 19:35 09.08.2021
2715 Rain 24 1018 58 10000 2.06 60 17:19 09.08.2021
2716 Clouds 25 1018 57 10000 2.57 80 15:33 09.08.2021
2717 Clouds 23 1019 60 10000 1.03 0 13:37 09.08.2021
2718 Clouds 20 1020 60 10000 1.54 0 12:51 09.08.2021
2719 Clouds 18 1021 72 10000 2.57 280 10:43 09.08.2021
2720 Clouds 15 1021 92 10000 1.54 90 08:26 09.08.2021
2721 Clouds 15 1021 91 10000 0.51 0 23:26 08.08.2021
2722 Rain 16 1019 91 10000 1.54 280 21:25 08.08.2021
2723 Rain 17 1018 72 10000 2.57 300 19:29 08.08.2021
2724 Clouds 19 1015 56 10000 0.51 0 16:54 08.08.2021
2725 Clouds 19 1015 56 10000 1.54 310 15:31 08.08.2021
2726 Clouds 19 1015 59 10000 2.57 110 12:58 08.08.2021
2727 Clouds 17 1014 87 10000 2.57 80 11:25 08.08.2021
2728 Clouds 15 1014 95 10000 1.54 100 06:45 08.08.2021
2729 Rain 15 1013 95 10000 0.51 0 05:37 08.08.2021
2730 Rain 15 1012 91 10000 0.51 0 00:30 08.08.2021
2731 Rain 15 1012 91 10000 0.51 0 00:30 08.08.2021
2732 Rain 15 1012 91 10000 0.51 0 00:30 08.08.2021
2733 Rain 15 1012 91 10000 0.51 0 00:30 08.08.2021
2734 Rain 16 1010 89 10000 6.69 250 22:19 07.08.2021
2735 Rain 16 1009 84 10000 2.57 0 21:40 07.08.2021
2736 Clouds 21 1006 53 10000 3.09 210 19:46 07.08.2021
2737 Clouds 27 1002 41 10000 7.2 150 17:30 07.08.2021
2738 Clouds 28 1003 41 10000 6.69 130 16:34 07.08.2021
2739 Clouds 27 1004 43 10000 7.2 150 14:25 07.08.2021
2740 Clouds 26 1005 46 10000 4.63 0 12:53 07.08.2021
2741 Clouds 22 1007 69 10000 3.6 290 10:22 07.08.2021
2742 Clouds 15 1009 89 10000 1.54 260 05:40 07.08.2021
2743 Clouds 15 1012 78 10000 0.51 0 23:55 06.08.2021
2744 Clouds 18 1010 72 10000 1.54 350 21:23 06.08.2021
2745 Clouds 19 1009 65 10000 1.54 50 20:27 06.08.2021
2746 Clouds 21 1009 60 10000 3.6 80 19:55 06.08.2021
2747 Clouds 22 1009 52 10000 5.14 80 18:28 06.08.2021
2748 Clouds 21 1009 56 10000 2.06 70 13:56 06.08.2021
2749 Clouds 16 1011 81 10000 2.06 250 10:31 06.08.2021
2750 Clouds 14 1011 86 10000 1.54 250 09:26 06.08.2021
2751 Clouds 12 1012 94 10000 1.54 290 01:46 06.08.2021
2752 Clouds 15 1012 94 10000 0.51 0 23:27 05.08.2021
2753 Clouds 15 1012 87 10000 1.03 0 21:31 05.08.2021
2754 Clouds 18 1010 77 10000 2.06 20 19:53 05.08.2021
2755 Clouds 20 1010 65 10000 2.06 30 18:29 05.08.2021
2756 Clouds 19 1011 65 10000 2.57 70 15:47 05.08.2021
2757 Clouds 18 1012 73 10000 3.09 70 13:52 05.08.2021
2758 Rain 13 1013 97 10000 0.51 0 09:56 05.08.2021
2759 Clouds 14 1011 95 6000 1.54 70 08:19 05.08.2021
2760 Rain 14 1012 98 7000 2.06 220 03:30 05.08.2021
2761 Rain 13 1014 97 10000 1.03 200 22:41 04.08.2021
2762 Rain 15 1013 95 10000 1.54 260 21:26 04.08.2021
2763 Rain 15 1013 95 10000 1.03 0 19:37 04.08.2021
2764 Rain 14 1014 90 10000 1.54 120 17:23 04.08.2021
2765 Clouds 16 1014 85 10000 2.06 60 14:47 04.08.2021
2766 Clouds 15 1015 92 10000 2.06 110 12:23 04.08.2021
2767 Rain 13 1016 90 10000 1.03 0 07:49 04.08.2021
2768 Clouds 15 1016 89 10000 1.03 0 21:18 03.08.2021
2769 Rain 16 1015 84 10000 4.63 270 20:29 03.08.2021
2770 Clouds 18 1014 77 10000 1.54 360 18:42 03.08.2021
2771 Rain 17 1015 77 10000 4.63 230 16:59 03.08.2021
2772 Rain 20 1014 66 10000 2.06 80 13:57 03.08.2021
2773 Clouds 17 1016 78 10000 2.57 280 10:57 03.08.2021
2774 Clouds 15 1017 86 10000 2.06 270 09:47 03.08.2021
2775 Clouds 12 1019 92 10000 0.51 0 22:58 02.08.2021
2776 Clouds 21 1015 62 10000 1.54 200 16:40 02.08.2021
2777 Clouds 21 1015 56 10000 2.06 130 15:33 02.08.2021
2778 Clouds 18 1017 69 10000 2.06 230 12:40 02.08.2021
2779 Clouds 17 1017 75 10000 1.03 0 11:57 02.08.2021
2780 Clouds 17 1017 75 10000 1.03 0 11:57 02.08.2021
2781 Clouds 15 1017 86 10000 0.51 0 10:26 02.08.2021
2782 Clouds 12 1017 94 10000 0.51 0 06:22 02.08.2021
2783 Rain 14 1013 94 10000 3.09 280 19:22 01.08.2021
2784 Clouds 15 1011 88 10000 2.57 60 15:52 01.08.2021
2785 Rain 15 1010 89 10000 3.09 270 11:39 01.08.2021
2786 Rain 15 1008 82 10000 4.12 270 09:51 01.08.2021
2787 Clouds 16 1008 96 10000 2.06 240 03:49 01.08.2021
2788 Rain 17 1011 94 10000 1.54 160 23:43 31.07.2021
2789 Clouds 17 1011 93 10000 1.03 0 22:33 31.07.2021
2790 Clouds 19 1011 81 10000 1.54 0 18:20 31.07.2021
2791 Rain 20 1010 80 10000 2.06 270 16:37 31.07.2021
2792 Clouds 22 1012 64 10000 1.54 150 13:31 31.07.2021
2793 Clouds 19 1012 81 10000 1.03 0 10:28 31.07.2021
2794 Clouds 16 1013 93 10000 1.03 190 02:48 31.07.2021
2795 Rain 16 1013 89 10000 5.14 210 20:54 30.07.2021
2796 Rain 18 1012 76 10000 4.02 327 20:22 30.07.2021
2797 Clouds 27 1011 51 10000 2.57 70 14:18 30.07.2021
2798 Clouds 27 1013 50 10000 3.6 100 18:52 29.07.2021
2799 Clouds 14 1018 90 10000 2.57 260 07:25 29.07.2021
2800 Clouds 15 1017 94 10000 1.54 270 04:49 29.07.2021
2801 Clouds 15 1019 92 10000 1.03 0 22:21 28.07.2021
2802 Rain 16 1017 90 10000 3.09 280 17:47 28.07.2021
2803 Rain 17 1016 85 10000 3.09 320 16:54 28.07.2021
2804 Clouds 21 1013 75 10000 0.51 0 09:29 28.07.2021
2805 Clouds 18 1017 94 10000 1.24 229 23:44 27.07.2021
2806 Clouds 20 1015 94 10000 1.79 190 21:29 27.07.2021
2807 Clouds 22 1016 55 10000 6.17 260 14:53 27.07.2021
2808 Clouds 22 1015 63 10000 3.09 270 11:52 27.07.2021
2809 Clouds 21 1017 56 10000 1.54 270 10:20 27.07.2021
2810 Clouds 25 1013 44 10000 3.6 160 20:43 26.07.2021
2811 Clouds 27 1012 36 10000 7.72 130 15:32 26.07.2021
2812 Rain 15 1015 88 10000 2.57 100 07:49 26.07.2021
2813 Clouds 19 1013 79 10000 0.51 0 20:57 25.07.2021
2814 Clouds 21 1011 71 10000 2.57 280 18:45 25.07.2021
2815 Clouds 20 1012 83 10000 2.06 260 16:20 25.07.2021
2816 Clouds 20 1012 68 10000 1.54 50 10:57 25.07.2021
2817 Clouds 17 1012 86 10000 0.51 0 08:20 25.07.2021
2818 Clouds 15 1013 86 10000 1.54 100 01:43 25.07.2021
2819 Clouds 21 1010 83 10000 2.06 270 20:19 24.07.2021
2820 Clouds 28 1009 40 10000 5.66 70 15:49 24.07.2021
2821 Clouds 15 1014 78 10000 1.03 0 04:20 24.07.2021
2822 Clouds 27 1015 31 10000 2.06 70 14:46 23.07.2021
2823 Clouds 26 1016 51 10000 1.54 0 12:42 23.07.2021
2824 Clouds 15 1019 85 10000 1.03 270 07:25 23.07.2021
2825 Clouds 19 1019 75 10000 3.09 0 22:43 22.07.2021
2826 Clouds 26 1019 49 10000 2.06 0 13:24 22.07.2021
2827 Clouds 20 1021 71 10000 1.54 280 09:53 22.07.2021
2828 Clouds 16 1021 83 10000 0.51 0 07:38 22.07.2021
2829 Clouds 21 1021 68 10000 1.03 0 21:47 21.07.2021
2830 Clouds 23 1021 60 10000 1.54 120 21:29 21.07.2021
2831 Clouds 27 1019 41 10000 3.09 110 14:54 21.07.2021
2832 Clouds 20 1021 77 10000 1.54 260 09:49 21.07.2021
2833 Clouds 17 1022 76 10000 1.03 0 08:47 21.07.2021
2834 Clear 17 1021 82 10000 0.51 0 23:47 20.07.2021
2835 Clouds 24 1017 44 10000 5.66 80 17:43 20.07.2021
2836 Clouds 26 1016 43 10000 4.12 70 16:25 20.07.2021
2837 Clouds 26 1016 45 10000 3.09 90 15:26 20.07.2021
2838 Clouds 20 1018 67 10000 1.03 0 10:22 20.07.2021
2839 Clouds 12 1019 91 10000 1.03 0 04:48 20.07.2021
2840 Clouds 19 1018 72 10000 0.51 0 22:25 19.07.2021
2841 Clouds 24 1018 57 10000 2.06 60 13:36 19.07.2021
2842 Clouds 23 1018 64 10000 1.03 0 12:37 19.07.2021
2843 Clouds 17 1020 92 10000 1.03 0 19:44 18.07.2021
2844 Clouds 19 1019 85 10000 1.54 50 15:20 18.07.2021
2845 Rain 17 1018 94 6000 1.54 70 10:18 18.07.2021
2846 Rain 18 1019 98 10000 3.09 250 22:25 17.07.2021
2847 Rain 18 1019 94 10000 1.03 0 21:54 17.07.2021
2848 Rain 18 1018 94 10000 1.54 80 21:35 17.07.2021
2849 Clouds 18 1019 87 10000 1.03 0 12:34 17.07.2021
2850 Rain 16 1020 93 10000 1.03 0 10:20 17.07.2021
2851 Drizzle 14 1021 96 10000 1.54 250 04:46 17.07.2021
2852 Clouds 20 1018 63 10000 2.57 120 14:23 16.07.2021
2853 Clouds 14 1018 92 10000 1.54 270 08:47 16.07.2021
2854 Clouds 13 1018 92 10000 0.51 0 02:18 16.07.2021
2855 Clouds 17 1015 72 10000 1.54 0 13:53 15.07.2021
2856 Clouds 16 1015 80 10000 1.54 310 12:53 15.07.2021
2857 Rain 13 1014 94 10000 0.51 0 07:30 15.07.2021
2858 Clouds 13 1015 91 10000 1.03 100 21:33 14.07.2021
2859 Clouds 16 1013 77 10000 6.17 240 15:56 14.07.2021
2860 Clouds 15 1011 87 10000 2.06 240 09:52 14.07.2021
2861 Rain 14 1011 92 10000 2.06 0 23:20 13.07.2021
2862 Rain 15 1011 92 10000 4.63 80 19:57 13.07.2021
2863 Rain 15 1011 92 10000 4.63 80 19:37 13.07.2021
2864 Rain 14 1013 92 10000 3.09 100 19:18 13.07.2021
2865 Rain 15 1011 90 10000 2.06 90 18:42 13.07.2021
2866 Rain 14 1012 91 10000 3.09 110 18:23 13.07.2021
2867 Clouds 26 1004 49 10000 4.63 80 13:21 13.07.2021
2868 Clouds 20 1007 64 10000 1.34 68 09:23 13.07.2021
2869 Clouds 28 1008 34 10000 6.69 100 20:24 12.07.2021
2870 Clouds 30 1009 33 10000 7.2 130 16:46 12.07.2021
2871 Clear 24 1012 51 10000 1.03 0 12:22 12.07.2021
2872 Clouds 14 1018 76 10000 0.51 0 23:22 11.07.2021
2873 Clouds 19 1016 55 10000 3.09 50 19:57 11.07.2021
2874 Clouds 19 1018 68 10000 4.12 90 12:41 11.07.2021
2875 Clouds 17 1015 82 10000 3.09 290 23:48 10.07.2021
2876 Clouds 25 1015 50 10000 2.57 70 14:28 10.07.2021
2877 Clouds 14 1020 80 10000 1.03 0 07:49 10.07.2021
2878 Clouds 14 1023 88 10000 0.51 0 01:27 10.07.2021
2879 Clouds 21 1021 46 10000 3.09 360 18:20 09.07.2021
2880 Clouds 21 1022 56 10000 2.57 0 14:49 09.07.2021
2881 Clouds 16 1022 77 10000 2.06 320 10:26 09.07.2021
2882 Rain 14 1020 90 10000 4.12 290 23:51 08.07.2021
2883 Rain 15 1022 91 10000 5.66 270 22:48 08.07.2021
2884 Rain 15 1020 90 10000 2.06 310 18:57 08.07.2021
2885 Thunderstorm 16 1019 87 10000 3.6 240 17:42 08.07.2021
2886 Clouds 20 1019 71 10000 1.54 200 13:31 08.07.2021
2887 Rain 19 1019 82 10000 2.06 90 12:43 08.07.2021
2888 Rain 19 1019 73 10000 2.57 70 11:32 08.07.2021
2889 Clouds 20 1019 73 10000 2.57 70 09:52 08.07.2021
2890 Mist 15 1019 92 4100 0.51 0 04:42 08.07.2021
2891 Rain 17 1020 94 10000 2.06 40 00:47 08.07.2021
2892 Rain 18 1021 77 10000 1.54 70 22:56 07.07.2021
2893 Rain 20 1019 79 10000 3.6 70 22:18 07.07.2021
2894 Clouds 19 1019 73 10000 3.6 60 21:41 07.07.2021
2895 Clouds 19 1018 76 10000 4.12 70 21:22 07.07.2021
2896 Clouds 18 1019 65 10000 2.68 90 19:56 07.07.2021
2897 Clouds 18 1019 64 10000 1.34 68 19:28 07.07.2021
2898 Clouds 19 1018 58 10000 3.58 113 17:36 07.07.2021
2899 Clouds 19 1018 58 10000 3.58 113 17:36 07.07.2021
2900 Clouds 23 1015 63 10000 1.54 240 15:30 07.07.2021
2901 Clouds 21 1017 60 10000 2.06 40 12:25 07.07.2021
2902 Clouds 18 1015 75 10000 1.03 0 07:56 07.07.2021
2903 Clouds 18 1015 76 10000 0.51 0 06:43 07.07.2021
2904 Clouds 18 1014 76 10000 0.51 0 05:42 07.07.2021
2905 Clouds 24 1010 61 10000 2.06 320 21:29 06.07.2021
2906 Clouds 28 1010 42 10000 2.57 240 19:29 06.07.2021
2907 Clouds 30 1009 32 10000 5.14 150 18:47 06.07.2021
2908 Clouds 31 1009 29 10000 5.14 140 18:27 06.07.2021
2909 Clouds 30 1010 34 10000 5.14 100 13:45 06.07.2021
2910 Clear 28 1011 40 10000 3.6 270 12:34 06.07.2021
2911 Clear 20 1015 68 10000 2.06 0 09:41 06.07.2021
2912 Clear 17 1015 77 10000 2.06 280 08:33 06.07.2021
2913 Clouds 14 1015 88 10000 0.51 0 06:45 06.07.2021
2914 Clouds 15 1015 85 10000 0.51 0 01:41 06.07.2021
2915 Clouds 19 1015 77 10000 0.51 0 22:39 05.07.2021
2916 Clouds 23 1013 62 10000 0.51 0 18:52 05.07.2021
2917 Clouds 23 1012 57 10000 1.54 260 15:45 05.07.2021
2918 Clouds 14 1015 93 10000 1.03 0 07:21 05.07.2021
2919 Clouds 14 1015 93 10000 1.54 180 05:45 05.07.2021
2920 Clouds 14 1015 94 10000 1.03 0 04:40 05.07.2021
2921 Clouds 17 1014 90 10000 2.57 250 23:18 04.07.2021
2922 Rain 17 1011 88 10000 2.06 200 19:24 04.07.2021
2923 Rain 18 1010 90 8000 4.63 260 16:51 04.07.2021
2924 Clouds 21 1012 63 10000 2.57 110 12:58 04.07.2021
2925 Clouds 17 1014 89 10000 1.54 90 09:24 04.07.2021
2926 Rain 17 1015 87 10000 1.03 0 23:33 03.07.2021
2927 Rain 17 1016 80 10000 1.54 0 22:40 03.07.2021
2928 Clouds 26 1014 32 10000 3.09 80 14:58 03.07.2021
2929 Clouds 23 1016 47 10000 1.03 0 12:38 03.07.2021
2930 Clouds 17 1018 65 10000 2.06 260 09:30 03.07.2021
2931 Clouds 17 1018 65 10000 2.06 260 09:30 03.07.2021
2932 Clouds 16 1019 69 10000 2.57 250 08:46 03.07.2021
2933 Clear 13 1019 78 10000 1.54 280 07:29 03.07.2021
2934 Clouds 22 1017 46 10000 6.69 70 17:21 02.07.2021
2935 Clouds 14 1019 85 10000 0.51 0 07:41 02.07.2021
2936 Clouds 13 1019 88 10000 1.03 200 06:24 02.07.2021
2937 Clouds 14 1019 76 10000 1.03 0 22:57 01.07.2021
2938 Clouds 15 1019 76 10000 0.51 0 21:56 01.07.2021
2939 Clouds 16 1018 76 10000 0.51 0 21:20 01.07.2021
2940 Clouds 15 1018 66 10000 1.17 28 19:36 01.07.2021
2941 Clouds 17 1017 64 10000 2.57 60 19:18 01.07.2021
2942 Clouds 18 1017 59 10000 1.03 0 18:35 01.07.2021
2943 Clouds 20 1017 60 10000 0.51 0 17:19 01.07.2021
2944 Clouds 18 1018 68 10000 2.57 70 15:31 01.07.2021
2945 Clouds 17 1018 75 10000 1.03 0 14:24 01.07.2021
2946 Rain 14 1018 87 10000 0.51 0 10:56 01.07.2021
2947 Drizzle 12 1018 93 10000 1.03 0 07:39 01.07.2021
2948 Clouds 11 1017 92 10000 0.51 0 23:23 30.06.2021
2949 Clouds 12 1017 88 10000 1.03 0 22:20 30.06.2021
2950 Clouds 14 1016 86 10000 0.51 0 21:23 30.06.2021
2951 Clouds 14 1016 84 10000 2.57 140 20:28 30.06.2021
2952 Clouds 14 1016 79 10000 3.09 50 19:19 30.06.2021
2953 Rain 13 1015 91 6000 2.06 200 14:31 30.06.2021
2954 Rain 15 1013 87 10000 0.51 0 13:24 30.06.2021
2955 Clouds 14 1014 82 10000 1.03 0 08:24 30.06.2021
2956 Clouds 15 1015 97 10000 1.17 5 21:50 29.06.2021
2957 Clouds 21 1009 49 10000 9.77 230 19:28 29.06.2021
2958 Clouds 26 1006 32 10000 4.63 0 17:44 29.06.2021
2959 Clouds 28 1006 31 10000 6.69 160 17:22 29.06.2021
2960 Clouds 26 1008 46 10000 6.17 70 15:50 29.06.2021
2961 Clouds 23 1010 57 10000 7.2 120 14:54 29.06.2021
2962 Clouds 24 1010 60 10000 5.14 70 13:20 29.06.2021
2963 Clouds 23 1013 49 10000 3.09 240 01:24 29.06.2021
2964 Clouds 23 1013 49 10000 3.09 240 01:24 29.06.2021
2965 Clouds 28 1012 36 10000 3.6 0 21:59 28.06.2021
2966 Clouds 28 1011 39 10000 8.75 30 20:25 28.06.2021
2967 Clouds 29 1013 30 10000 2.24 68 17:32 28.06.2021
2968 Clouds 30 1013 36 10000 3.09 70 15:23 28.06.2021
2969 Clouds 29 1013 43 10000 1.03 0 14:30 28.06.2021
2970 Clouds 23 1017 56 10000 1.54 280 10:50 28.06.2021
2971 Clouds 14 1019 82 10000 1.87 196 23:47 27.06.2021
2972 Clouds 15 1018 78 10000 1.73 175 22:31 27.06.2021
2973 Clouds 20 1017 64 10000 1.54 340 19:43 27.06.2021
2974 Clouds 28 1014 34 10000 4.63 60 16:55 27.06.2021
2975 Clouds 26 1014 47 10000 2.06 0 14:30 27.06.2021
2976 Clouds 16 1019 82 10000 1.03 0 09:33 27.06.2021
2977 Clouds 14 1020 91 10000 1.54 270 00:27 27.06.2021
2978 Rain 17 1020 90 10000 3.09 120 21:26 26.06.2021
2979 Rain 16 1020 89 10000 4.63 70 20:47 26.06.2021
2980 Rain 23 1015 50 10000 6.17 80 19:26 26.06.2021
2981 Clouds 25 1015 36 10000 3.6 80 15:39 26.06.2021
2982 Clouds 24 1017 46 10000 2.06 0 13:52 26.06.2021
2983 Clouds 18 1019 73 10000 1.03 0 09:58 26.06.2021
2984 Clouds 13 1020 89 10000 0.51 0 06:23 26.06.2021
2985 Clouds 17 1019 90 10000 1.03 0 21:23 25.06.2021
2986 Clouds 17 1019 90 10000 1.03 0 20:34 25.06.2021
2987 Rain 20 1016 72 10000 4.63 70 17:58 25.06.2021
2988 Rain 21 1017 53 10000 3.09 30 16:57 25.06.2021
2989 Clouds 22 1017 46 10000 1.54 320 15:51 25.06.2021
2990 Clouds 21 1017 56 10000 1.54 290 13:27 25.06.2021
2991 Clouds 18 1019 72 10000 0.51 0 09:36 25.06.2021
2992 Clouds 14 1019 90 10000 1.54 250 07:22 25.06.2021
2993 Rain 14 1020 82 10000 4.63 300 03:56 25.06.2021
2994 Clouds 17 1019 63 10000 11.32 260 22:52 24.06.2021
2995 Rain 18 1018 52 10000 7.72 240 21:48 24.06.2021
2996 Clouds 20 1016 53 10000 4.63 240 20:41 24.06.2021
2997 Clouds 20 1015 52 10000 3.6 250 19:35 24.06.2021
2998 Clouds 21 1014 47 10000 4.02 90 16:53 24.06.2021
2999 Clouds 27 1012 31 10000 2.57 0 15:22 24.06.2021
3000 Clouds 27 1012 31 10000 6.69 110 14:50 24.06.2021
3001 Clouds 24 1014 55 10000 1.03 0 12:29 24.06.2021
3002 Clouds 20 1015 71 10000 1.54 270 09:45 24.06.2021
3003 Clouds 18 1016 78 10000 3.6 270 08:26 24.06.2021
3004 Clouds 14 1019 88 10000 2.57 270 05:50 24.06.2021
3005 Clouds 18 1016 88 10000 4.12 270 23:31 23.06.2021
3006 Clouds 17 1016 80 10000 2.32 200 21:47 23.06.2021
3007 Rain 20 1014 73 10000 3.09 100 20:58 23.06.2021
3008 Rain 24 1013 58 10000 6.17 80 19:22 23.06.2021
3009 Clouds 23 1012 47 10000 2.68 90 18:27 23.06.2021
3010 Clouds 24 1013 43 10000 4.02 68 16:51 23.06.2021
3011 Clouds 25 1014 44 10000 6.17 80 14:30 23.06.2021
3012 Clouds 25 1014 44 10000 6.17 80 14:30 23.06.2021
3013 Clouds 24 1014 54 10000 3.09 0 12:29 23.06.2021
3014 Clouds 22 1016 59 10000 1.03 0 10:40 23.06.2021
3015 Clouds 20 1018 64 10000 2.06 40 08:54 23.06.2021
3016 Clouds 19 1016 74 10000 2.06 80 08:27 23.06.2021
3017 Clouds 20 1016 76 10000 1.03 0 07:48 23.06.2021
3018 Clouds 16 1017 82 10000 0.51 0 04:34 23.06.2021
3019 Clouds 19 1016 68 10000 1.03 0 00:47 23.06.2021
3020 Clouds 20 1015 64 10000 1.03 0 23:58 22.06.2021
3021 Clouds 21 1015 60 10000 1.54 120 22:47 22.06.2021
3022 Clouds 22 1014 56 10000 2.06 70 22:29 22.06.2021
3023 Clouds 22 1014 56 10000 1.54 0 21:39 22.06.2021
3024 Clouds 24 1011 50 10000 5.66 230 19:57 22.06.2021
3025 Clouds 24 1010 44 10000 4.63 230 18:58 22.06.2021
3026 Clouds 25 1009 42 10000 5.66 240 18:27 22.06.2021
3027 Clouds 25 1009 36 10000 3.13 90 17:22 22.06.2021
3028 Clouds 28 1008 21 10000 4.12 150 16:38 22.06.2021
3029 Clouds 28 1008 22 10000 6.17 110 14:44 22.06.2021
3030 Clouds 30 1007 25 10000 5.14 100 14:21 22.06.2021
3031 Clouds 27 1009 38 10000 3.6 100 12:59 22.06.2021
3032 Clouds 26 1008 47 10000 2.06 0 11:51 22.06.2021
3033 Clouds 23 1009 56 10000 2.06 60 10:31 22.06.2021
3034 Clouds 18 1010 69 10000 2.57 80 07:56 22.06.2021
3035 Clouds 19 1009 73 10000 0.51 0 00:50 22.06.2021
3036 Clouds 23 1008 60 10000 3.6 270 23:29 21.06.2021
3037 Clouds 25 1007 53 10000 5.14 60 22:27 21.06.2021
3038 Clouds 26 1007 53 10000 5.14 50 21:23 21.06.2021
3039 Clouds 26 1007 53 10000 5.66 60 20:46 21.06.2021
3040 Clouds 27 1006 50 10000 6.69 60 19:55 21.06.2021
3041 Clouds 28 1006 45 10000 8.23 60 18:57 21.06.2021
3042 Clouds 27 1006 37 10000 3.13 68 17:26 21.06.2021
3043 Clouds 28 1006 40 10000 6.69 60 16:44 21.06.2021
3044 Clouds 28 1006 39 10000 6.69 60 16:23 21.06.2021
3045 Clouds 27 1006 36 10000 2.68 90 15:45 21.06.2021
3046 Clouds 27 1007 36 10000 3.13 90 14:18 21.06.2021
3047 Clouds 26 1008 38 10000 2.68 90 13:34 21.06.2021
3048 Clouds 28 1006 46 10000 2.06 300 12:36 21.06.2021
3049 Clouds 26 1007 49 10000 1.54 0 11:49 21.06.2021
3050 Clouds 23 1009 56 10000 1.54 0 10:30 21.06.2021
3051 Clouds 23 1008 64 10000 2.06 270 09:29 21.06.2021
3052 Clouds 21 1008 68 10000 0.51 0 08:22 21.06.2021
3053 Clouds 18 1010 71 10000 2.06 260 07:20 21.06.2021
3054 Clouds 19 1009 57 10000 1.34 248 00:42 21.06.2021
3055 Clouds 24 1008 41 10000 4.12 30 23:35 20.06.2021
3056 Clouds 19 1008 68 10000 0.45 90 22:58 20.06.2021
3057 Clouds 21 1009 64 10000 3.13 180 21:58 20.06.2021
3058 Clouds 23 1008 61 10000 5.14 110 21:26 20.06.2021
3059 Clouds 26 1007 56 10000 5.66 70 19:42 20.06.2021
3060 Clouds 25 1008 54 10000 6.17 90 19:23 20.06.2021
3061 Clouds 28 1007 46 10000 7.2 60 17:50 20.06.2021
3062 Clouds 29 1007 50 10000 6.17 80 16:51 20.06.2021
3063 Clouds 28 1008 49 10000 5.66 80 15:52 20.06.2021
3064 Clouds 28 1009 52 10000 4.63 90 15:32 20.06.2021
3065 Clouds 27 1011 51 10000 4.63 70 14:46 20.06.2021
3066 Clouds 28 1009 51 10000 5.14 70 13:40 20.06.2021
3067 Clouds 28 1010 53 10000 4.12 70 12:56 20.06.2021
3068 Clouds 27 1011 54 10000 2.57 80 11:46 20.06.2021
3069 Clouds 25 1012 57 10000 1.54 60 10:35 20.06.2021
3070 Clouds 24 1013 65 10000 1.54 270 09:45 20.06.2021
3071 Clouds 21 1012 77 10000 2.06 290 07:34 20.06.2021
3072 Clouds 19 1015 89 10000 1.03 0 23:43 19.06.2021
3073 Clouds 21 1014 83 10000 2.06 0 22:59 19.06.2021
3074 Rain 26 1014 61 10000 1.03 0 21:53 19.06.2021
3075 Clouds 27 1013 51 10000 2.57 80 21:27 19.06.2021
3076 Clouds 30 1012 35 10000 5.66 70 18:55 19.06.2021
3077 Clouds 30 1012 35 10000 5.66 70 18:55 19.06.2021
3078 Clouds 30 1012 33 10000 6.17 80 18:22 19.06.2021
3079 Clouds 31 1013 30 10000 5.14 70 17:27 19.06.2021
3080 Clouds 31 1013 30 10000 4.63 90 16:49 19.06.2021
3081 Clouds 32 1014 35 10000 4.12 90 15:40 19.06.2021
3082 Clouds 29 1015 45 10000 3.09 60 12:55 19.06.2021
3083 Clouds 27 1017 49 10000 2.57 0 11:59 19.06.2021
3084 Clouds 25 1017 56 10000 1.03 0 10:49 19.06.2021
3085 Clouds 25 1017 56 10000 1.03 0 10:49 19.06.2021
3086 Clouds 24 1017 60 10000 1.54 300 10:26 19.06.2021
3087 Clouds 23 1017 64 10000 0.51 0 09:58 19.06.2021
3088 Clouds 23 1017 64 10000 0.51 0 09:58 19.06.2021
3089 Clouds 20 1017 74 10000 2.06 260 08:23 19.06.2021
3090 Clouds 18 1017 82 10000 0.51 0 06:36 19.06.2021
3091 Clouds 17 1018 77 10000 0.51 0 03:31 19.06.2021
3092 Clouds 19 1018 73 10000 1.54 240 00:23 19.06.2021
3093 Clouds 19 1018 73 10000 2.06 230 23:40 18.06.2021
3094 Clouds 22 1018 64 10000 2.06 60 22:55 18.06.2021
3095 Clouds 22 1018 64 10000 3.09 80 22:31 18.06.2021
3096 Clouds 22 1017 64 10000 3.09 40 21:49 18.06.2021
3097 Clouds 23 1017 60 10000 2.57 80 21:23 18.06.2021
3098 Clouds 23 1016 60 10000 4.63 80 20:23 18.06.2021
3099 Rain 22 1016 60 10000 3.09 0 18:46 18.06.2021
3100 Rain 24 1014 65 10000 3.09 0 17:50 18.06.2021
3101 Rain 33 1013 29 10000 2.06 0 16:39 18.06.2021
3102 Clouds 32 1013 31 10000 1.03 0 15:46 18.06.2021
3103 Clouds 32 1014 29 10000 1.03 0 14:36 18.06.2021
3104 Clouds 30 1014 44 10000 0.37 314 13:43 18.06.2021
3105 Clouds 30 1015 37 10000 2.06 280 12:52 18.06.2021
3106 Clouds 30 1015 37 10000 2.06 280 12:33 18.06.2021
3107 Clouds 28 1015 44 10000 2.57 270 11:44 18.06.2021
3108 Clouds 28 1014 44 10000 4.63 260 10:57 18.06.2021
3109 Clouds 25 1016 48 10000 4.63 260 10:23 18.06.2021
3110 Clouds 24 1016 51 10000 4.12 260 09:52 18.06.2021
3111 Clouds 23 1017 60 10000 4.12 280 09:19 18.06.2021
3112 Clouds 20 1017 60 10000 2.57 260 08:31 18.06.2021
3113 Clouds 21 1015 65 10000 3.09 280 07:33 18.06.2021
3114 Clouds 17 1016 68 10000 1.03 0 04:45 18.06.2021
3115 Clear 22 1016 53 10000 1.54 0 00:34 18.06.2021
3116 Clouds 23 1016 47 10000 1.03 0 23:27 17.06.2021
3117 Clouds 25 1015 41 10000 3.09 120 22:26 17.06.2021
3118 Clouds 28 1015 34 10000 3.09 70 21:51 17.06.2021
3119 Clouds 28 1014 36 10000 2.06 20 20:59 17.06.2021
3120 Clouds 30 1014 32 10000 3.09 80 20:31 17.06.2021
3121 Clouds 30 1014 35 10000 3.09 290 19:53 17.06.2021
3122 Clouds 29 1014 50 10000 2.18 12 19:22 17.06.2021
3123 Clouds 30 1013 33 10000 5.66 40 17:50 17.06.2021
3124 Clouds 30 1013 26 10000 2.24 68 17:22 17.06.2021
3125 Clouds 32 1012 28 10000 4.12 100 16:30 17.06.2021
3126 Clouds 31 1014 27 10000 4.63 70 15:53 17.06.2021
3127 Clouds 31 1014 27 10000 2.06 260 14:29 17.06.2021
3128 Clouds 31 1015 33 10000 1.03 0 13:32 17.06.2021
3129 Clouds 29 1016 29 10000 1.03 0 12:31 17.06.2021
3130 Clouds 29 1014 38 10000 2.06 270 11:35 17.06.2021
3131 Clouds 27 1015 45 10000 4.12 270 10:43 17.06.2021
3132 Clouds 26 1015 47 10000 5.14 270 10:23 17.06.2021
3133 Clouds 25 1015 52 10000 4.63 280 09:40 17.06.2021
3134 Clouds 21 1017 64 10000 4.63 280 08:48 17.06.2021
3135 Clouds 20 1016 64 10000 4.12 260 07:51 17.06.2021
3136 Clouds 15 1017 74 10000 2.57 260 06:23 17.06.2021
3137 Clouds 17 1017 66 10000 1.54 270 01:54 17.06.2021
3138 Clouds 19 1016 64 10000 0.51 0 23:40 16.06.2021
3139 Clouds 21 1016 56 10000 1.03 0 23:21 16.06.2021
3140 Clouds 22 1015 49 10000 0.51 0 22:24 16.06.2021
3141 Clouds 24 1015 46 10000 1.03 0 21:43 16.06.2021
3142 Clouds 25 1014 44 10000 2.06 20 21:19 16.06.2021
3143 Clouds 26 1014 41 10000 2.57 60 20:39 16.06.2021
3144 Clouds 29 1013 30 10000 5.66 90 19:51 16.06.2021
3145 Clouds 29 1013 30 10000 5.66 90 19:32 16.06.2021
3146 Clouds 29 1013 26 10000 6.17 70 18:52 16.06.2021
3147 Clouds 29 1013 22 10000 5.14 60 18:24 16.06.2021
3148 Clouds 30 1013 28 10000 3.6 60 17:40 16.06.2021
3149 Clouds 30 1013 23 10000 2.57 50 17:20 16.06.2021
3150 Clouds 31 1012 26 10000 1.03 0 16:42 16.06.2021
3151 Clouds 29 1014 25 10000 1.03 0 15:50 16.06.2021
3152 Clouds 29 1014 25 10000 1.03 0 15:28 16.06.2021
3153 Clouds 29 1014 28 10000 1.54 160 14:46 16.06.2021
3154 Clouds 28 1015 27 10000 1.03 0 14:28 16.06.2021
3155 Clouds 28 1014 32 10000 1.03 0 13:50 16.06.2021
3156 Clouds 28 1015 37 10000 1.03 0 13:22 16.06.2021
3157 Clouds 27 1015 39 10000 1.03 0 12:50 16.06.2021
3158 Clouds 26 1015 42 10000 0.51 0 12:28 16.06.2021
3159 Clouds 26 1015 49 10000 0.51 0 11:37 16.06.2021
3160 Clouds 23 1016 49 10000 1.03 0 10:45 16.06.2021
3161 Clouds 21 1017 55 10000 3.09 280 09:53 16.06.2021
3162 Clear 20 1017 60 10000 2.57 280 09:28 16.06.2021
3163 Clear 19 1017 63 10000 2.57 270 08:30 16.06.2021
3164 Clear 17 1018 71 10000 2.06 260 07:43 16.06.2021
3165 Haze 14 1019 73 4900 0.51 0 03:19 16.06.2021
3166 Clouds 16 1019 64 10000 0.51 0 01:48 16.06.2021
3167 Clouds 18 1019 63 10000 1.54 270 23:45 15.06.2021
3168 Clouds 19 1019 60 10000 1.03 0 23:21 15.06.2021
3169 Clouds 17 1021 85 10000 1.06 201 22:42 15.06.2021
3170 Clouds 18 1020 83 10000 0.17 274 22:22 15.06.2021
3171 Clouds 26 1018 36 10000 3.6 90 21:22 15.06.2021
3172 Clouds 27 1017 39 10000 4.63 50 19:59 15.06.2021
3173 Clouds 26 1017 33 10000 6.17 70 19:28 15.06.2021
3174 Clouds 27 1016 32 10000 5.14 80 17:54 15.06.2021
3175 Clouds 28 1017 32 10000 6.69 70 16:49 15.06.2021
3176 Clouds 29 1016 27 10000 3.6 90 15:42 15.06.2021
3177 Clouds 29 1016 26 10000 3.6 100 14:59 15.06.2021
3178 Clouds 29 1016 27 10000 3.6 100 14:40 15.06.2021
3179 Clouds 28 1017 32 10000 2.06 90 13:38 15.06.2021
3180 Clouds 27 1017 34 10000 1.03 0 12:52 15.06.2021
3181 Clouds 26 1018 39 10000 0.51 0 12:19 15.06.2021
3182 Clouds 25 1018 42 10000 0.51 0 11:35 15.06.2021
3183 Clear 23 1019 50 10000 1.03 0 10:57 15.06.2021
3184 Clear 22 1020 46 10000 1.03 0 10:37 15.06.2021
3185 Clear 20 1019 57 10000 2.06 0 09:59 15.06.2021
3186 Clear 19 1019 67 10000 1.54 260 08:49 15.06.2021
3187 Clear 17 1020 69 10000 2.57 280 08:20 15.06.2021
3188 Clear 14 1020 76 10000 1.03 0 06:58 15.06.2021
3189 Clouds 13 1020 78 10000 1.03 0 05:59 15.06.2021
3190 Clear 12 1021 79 10000 1.54 270 04:29 15.06.2021
3191 Clear 14 1021 64 10000 1.54 150 00:39 15.06.2021
3192 Clear 17 1020 63 10000 0.51 0 23:34 14.06.2021
3193 Clear 19 1020 59 10000 1.03 0 22:49 14.06.2021
3194 Clear 20 1020 56 10000 1.54 10 22:22 14.06.2021
3195 Clear 21 1019 56 10000 1.03 0 21:58 14.06.2021
3196 Clear 21 1019 56 10000 1.03 0 21:37 14.06.2021
3197 Clear 22 1018 49 10000 1.54 90 21:18 14.06.2021
3198 Clear 22 1018 49 10000 3.09 60 20:42 14.06.2021
3199 Clear 26 1017 36 10000 4.63 80 19:49 14.06.2021
3200 Clear 25 1017 34 10000 4.63 100 19:29 14.06.2021
3201 Clear 25 1017 34 10000 4.63 80 18:47 14.06.2021
3202 Clear 27 1016 30 10000 5.14 100 18:22 14.06.2021
3203 Clear 28 1017 31 10000 3.6 80 17:37 14.06.2021
3204 Clear 27 1017 32 10000 4.12 60 16:53 14.06.2021
3205 Clear 27 1017 29 10000 3.6 60 15:55 14.06.2021
3206 Clear 27 1018 30 10000 3.6 60 15:36 14.06.2021
3207 Clear 26 1018 31 10000 2.57 90 14:53 14.06.2021
3208 Clear 25 1019 38 10000 3.09 90 13:57 14.06.2021
3209 Clear 24 1020 41 10000 2.06 0 13:28 14.06.2021
3210 Clear 24 1020 43 10000 2.06 80 12:51 14.06.2021
3211 Clear 22 1022 40 10000 1.54 0 11:57 14.06.2021
3212 Clear 22 1022 40 10000 1.54 0 11:37 14.06.2021
3213 Clear 20 1023 42 10000 1.54 60 10:46 14.06.2021
3214 Clear 18 1023 58 10000 0.51 0 09:27 14.06.2021
3215 Clear 17 1024 67 10000 0.51 0 08:49 14.06.2021
3216 Clear 16 1024 59 10000 0.51 0 08:49 14.06.2021
3217 Clear 15 1023 70 10000 1.54 280 07:56 14.06.2021
3218 Clear 14 1023 71 10000 1.54 280 07:37 14.06.2021
3219 Clear 11 1023 80 10000 1.54 270 05:45 14.06.2021
3220 Clear 12 1024 75 10000 0.51 0 04:21 14.06.2021
3221 Clear 15 1025 55 10000 0.51 0 00:26 14.06.2021
3222 Clear 16 1025 59 10000 0.51 0 23:24 13.06.2021
3223 Clear 19 1024 52 10000 1.03 0 22:41 13.06.2021
3224 Clear 19 1024 52 10000 1.54 0 22:21 13.06.2021
3225 Clear 21 1024 43 10000 1.54 0 21:53 13.06.2021
3226 Clear 21 1024 43 10000 1.54 0 21:33 13.06.2021
3227 Clouds 21 1023 43 10000 2.06 140 20:49 13.06.2021
3228 Clouds 22 1023 33 10000 3.09 360 20:29 13.06.2021
3229 Clouds 23 1023 35 10000 4.12 20 19:49 13.06.2021
3230 Clouds 24 1022 33 10000 6.17 10 19:30 13.06.2021
3231 Clouds 24 1022 31 10000 6.69 20 18:55 13.06.2021
3232 Clouds 24 1022 33 10000 5.66 20 18:27 13.06.2021
3233 Clouds 24 1023 33 10000 7.2 10 17:43 13.06.2021
3234 Clouds 24 1023 29 10000 5.66 40 16:39 13.06.2021
3235 Clouds 25 1022 34 10000 6.69 30 15:41 13.06.2021
3236 Clouds 24 1022 37 10000 7.72 30 14:49 13.06.2021
3237 Clouds 23 1023 38 10000 5.14 40 14:21 13.06.2021
3238 Clouds 23 1023 43 10000 1.03 0 13:25 13.06.2021
3239 Clouds 23 1024 46 10000 2.06 130 12:54 13.06.2021
3240 Clouds 23 1024 46 10000 2.06 130 12:35 13.06.2021
3241 Clouds 22 1022 61 10000 2.57 140 11:48 13.06.2021
3242 Clouds 20 1023 70 10000 1.03 0 10:59 13.06.2021
3243 Clouds 20 1023 70 10000 1.03 0 10:38 13.06.2021
3244 Clouds 19 1023 76 10000 1.54 0 09:50 13.06.2021
3245 Clouds 18 1023 74 10000 1.54 90 09:30 13.06.2021
3246 Clouds 17 1023 80 10000 1.03 0 08:59 13.06.2021
3247 Clouds 16 1024 77 10000 1.03 0 08:36 13.06.2021
3248 Clouds 16 1022 85 10000 1.03 0 07:40 13.06.2021
3249 Clouds 16 1022 78 10000 1.03 0 04:21 13.06.2021
3250 Rain 21 1021 49 10000 2.57 150 23:50 12.06.2021
3251 Clouds 21 1021 49 10000 3.09 360 23:19 12.06.2021
3252 Clouds 22 1020 46 10000 1.03 0 22:30 12.06.2021
3253 Clouds 23 1019 43 10000 2.06 290 21:44 12.06.2021
3254 Clouds 23 1019 43 10000 2.06 290 21:44 12.06.2021
3255 Clouds 23 1019 43 10000 2.06 290 21:44 12.06.2021
3256 Clouds 25 1019 33 10000 5.66 270 20:58 12.06.2021
3257 Clouds 25 1019 36 10000 2.57 290 20:24 12.06.2021
3258 Clouds 26 1019 29 10000 4.12 270 19:57 12.06.2021
3259 Clouds 26 1018 36 10000 1.03 0 18:57 12.06.2021
3260 Clouds 26 1018 41 10000 2.06 0 18:30 12.06.2021
3261 Clouds 25 1018 44 10000 3.6 70 17:39 12.06.2021
3262 Clouds 26 1019 41 10000 2.57 0 16:59 12.06.2021
3263 Clouds 26 1019 32 10000 1.03 0 15:45 12.06.2021
3264 Clouds 27 1018 36 10000 2.06 150 14:54 12.06.2021
3265 Clouds 26 1020 41 10000 2.06 40 14:32 12.06.2021
3266 Clouds 26 1020 35 10000 1.03 0 13:58 12.06.2021
3267 Clouds 24 1020 42 10000 1.03 0 12:41 12.06.2021
3268 Clouds 24 1020 44 10000 1.03 0 12:23 12.06.2021
3269 Clouds 24 1020 44 10000 1.03 0 12:23 12.06.2021
3270 Clouds 23 1021 51 10000 1.03 0 11:35 12.06.2021
3271 Clouds 21 1021 56 10000 1.03 0 10:46 12.06.2021
3272 Clouds 20 1021 60 10000 2.06 270 10:27 12.06.2021
3273 Clouds 19 1022 63 10000 2.57 270 09:45 12.06.2021
3274 Clouds 16 1023 82 10000 2.06 250 08:35 12.06.2021
3275 Clouds 12 1023 87 10000 2.57 260 07:35 12.06.2021
3276 Clouds 12 1022 86 10000 1.54 270 05:36 12.06.2021
3277 Clouds 15 1022 82 10000 0.51 0 00:23 12.06.2021
3278 Clouds 16 1022 92 10000 0.37 163 22:26 11.06.2021
3279 Clouds 18 1021 72 10000 1.03 0 21:58 11.06.2021
3280 Clouds 19 1020 68 10000 1.03 0 21:34 11.06.2021
3281 Clouds 20 1020 64 10000 1.03 0 20:51 11.06.2021
3282 Clouds 20 1020 58 10000 3.09 60 20:21 11.06.2021
3283 Clouds 22 1019 53 10000 1.54 80 19:20 11.06.2021
3284 Clouds 22 1019 56 10000 3.09 40 18:37 11.06.2021
3285 Clouds 23 1019 54 10000 2.57 300 17:48 11.06.2021
3286 Clouds 22 1020 57 10000 3.09 70 16:33 11.06.2021
3287 Clouds 21 1019 65 10000 2.57 80 15:25 11.06.2021
3288 Clouds 20 1021 60 10000 1.03 0 14:36 11.06.2021
3289 Clouds 20 1020 67 10000 2.06 0 13:38 11.06.2021
3290 Clouds 18 1022 72 10000 2.57 110 12:28 11.06.2021
3291 Clouds 17 1022 77 10000 2.06 110 11:40 11.06.2021
3292 Clouds 16 1021 79 10000 2.06 70 11:21 11.06.2021
3293 Clouds 15 1021 82 10000 2.06 270 09:34 11.06.2021
3294 Clouds 14 1022 88 10000 2.06 280 08:48 11.06.2021
3295 Clouds 14 1021 88 10000 1.03 0 07:48 11.06.2021
3296 Clouds 14 1021 94 10000 1.03 0 04:46 11.06.2021
3297 Clouds 15 1022 88 10000 1.03 0 23:45 10.06.2021
3298 Clouds 15 1022 94 10000 1.03 0 22:42 10.06.2021
3299 Clouds 15 1021 94 10000 1.03 0 22:20 10.06.2021
3300 Clouds 17 1021 88 10000 1.03 0 21:28 10.06.2021
3301 Clouds 17 1021 82 10000 1.03 0 20:50 10.06.2021
3302 Clouds 19 1020 69 10000 2.57 120 19:43 10.06.2021
3303 Clouds 19 1020 66 10000 1.54 90 19:20 10.06.2021
3304 Clouds 19 1020 74 10000 1.03 0 18:29 10.06.2021
3305 Clouds 18 1020 73 10000 1.03 0 17:47 10.06.2021
3306 Rain 18 1020 73 10000 1.54 0 17:21 10.06.2021
3307 Clouds 20 1020 63 10000 4.63 70 16:43 10.06.2021
3308 Clouds 22 1020 58 10000 6.69 90 15:20 10.06.2021
3309 Clouds 22 1021 61 10000 1.03 0 13:37 10.06.2021
3310 Clouds 20 1022 67 10000 1.03 0 12:28 10.06.2021
3311 Clouds 18 1022 73 10000 3.09 250 11:26 10.06.2021
3312 Clouds 16 1023 82 10000 1.03 0 10:28 10.06.2021
3313 Rain 13 1023 92 10000 2.57 270 07:34 10.06.2021
3314 Clouds 14 1024 90 10000 0.51 0 00:26 10.06.2021
3315 Clouds 14 1024 89 10000 1.03 0 23:59 09.06.2021
3316 Clouds 14 1023 89 10000 1.03 0 22:28 09.06.2021
3317 Clouds 15 1023 88 10000 1.03 0 21:43 09.06.2021
3318 Clouds 15 1023 82 10000 3.6 90 21:24 09.06.2021
3319 Rain 17 1022 77 10000 1.54 0 20:36 09.06.2021
3320 Rain 19 1021 73 10000 2.57 260 19:49 09.06.2021
3321 Rain 19 1020 73 10000 1.54 170 19:18 09.06.2021
3322 Rain 20 1019 72 10000 3.09 110 15:58 09.06.2021
3323 Rain 23 1018 51 10000 3.09 350 15:32 09.06.2021
3324 Rain 25 1019 41 10000 3.09 0 14:34 09.06.2021
3325 Clouds 24 1020 46 10000 2.06 320 13:33 09.06.2021
3326 Clouds 22 1020 63 10000 2.57 260 12:54 09.06.2021
3327 Clouds 21 1021 59 10000 2.57 260 12:34 09.06.2021
3328 Clouds 19 1021 66 10000 4.12 280 10:56 09.06.2021
3329 Clouds 15 1022 82 10000 1.54 250 08:58 09.06.2021
3330 Clouds 16 1021 85 10000 1.54 290 08:33 09.06.2021
3331 Clouds 13 1022 92 10000 0.51 0 06:45 09.06.2021
3332 Clouds 15 1021 89 10000 0.51 0 00:35 09.06.2021
3333 Clouds 15 1022 88 10000 1.03 0 22:55 08.06.2021
3334 Clouds 15 1022 88 10000 1.03 0 22:55 08.06.2021
3335 Clouds 16 1021 85 10000 1.54 330 22:33 08.06.2021
3336 Clouds 16 1021 84 10000 2.06 70 21:18 08.06.2021
3337 Rain 17 1020 81 10000 2.06 130 19:28 08.06.2021
3338 Rain 19 1019 72 10000 4.63 270 17:52 08.06.2021
3339 Clouds 23 1019 53 10000 2.06 0 16:53 08.06.2021
3340 Clouds 22 1019 68 10000 2.57 100 15:27 08.06.2021
3341 Rain 19 1020 74 10000 1.54 70 13:32 08.06.2021
3342 Clouds 19 1020 78 10000 0.51 0 11:40 08.06.2021
3343 Clouds 14 1021 92 10000 0.51 0 07:36 08.06.2021
3344 Clouds 14 1020 92 10000 0.51 0 04:26 08.06.2021
3345 Clouds 15 1021 92 10000 1.54 270 23:52 07.06.2021
3346 Clouds 15 1020 83 10000 1.54 130 20:40 07.06.2021
3347 Clouds 17 1019 83 10000 1.54 210 18:50 07.06.2021
3348 Rain 20 1018 69 10000 1.03 0 15:58 07.06.2021
3349 Clouds 20 1019 72 10000 1.54 0 13:48 07.06.2021
3350 Clouds 18 1020 79 10000 0.51 0 11:38 07.06.2021
3351 Clouds 16 1020 85 10000 1.03 0 10:23 07.06.2021
3352 Clouds 16 1020 89 10000 1.54 160 09:55 07.06.2021
3353 Clouds 16 1020 92 10000 2.06 100 09:22 07.06.2021
3354 Rain 15 1019 95 10000 0.51 0 07:40 07.06.2021
3355 Rain 15 1020 93 10000 1.54 170 21:50 06.06.2021
3356 Rain 16 1019 90 10000 1.54 170 20:40 06.06.2021
3357 Clouds 18 1019 69 10000 4.12 80 18:22 06.06.2021
3358 Clouds 20 1019 52 10000 1.54 0 17:22 06.06.2021
3359 Clouds 17 1020 59 10000 6.17 260 14:31 06.06.2021
3360 Clouds 16 1021 77 10000 3.09 280 12:28 06.06.2021
3361 Clouds 15 1021 82 10000 4.12 270 11:50 06.06.2021
3362 Clouds 14 1022 88 10000 4.63 260 10:24 06.06.2021
3363 Clouds 13 1022 93 10000 4.12 270 09:30 06.06.2021
3364 Rain 14 1021 90 10000 3.6 270 08:57 06.06.2021
3365 Rain 13 1022 94 10000 1.54 260 07:53 06.06.2021
3366 Clouds 12 1022 93 10000 0.51 0 05:23 06.06.2021
3367 Clouds 13 1023 93 10000 1.03 0 23:19 05.06.2021
3368 Clouds 14 1023 92 10000 1.03 0 22:21 05.06.2021
3369 Clouds 14 1022 94 10000 0.51 0 20:41 05.06.2021
3370 Rain 15 1021 88 10000 1.03 0 19:38 05.06.2021
3371 Rain 20 1017 68 10000 4.63 0 17:19 05.06.2021
3372 Clouds 25 1017 47 10000 6.69 80 15:57 05.06.2021
3373 Clouds 23 1019 50 10000 1.03 0 13:48 05.06.2021
3374 Clouds 22 1019 66 10000 3.6 270 11:45 05.06.2021
3375 Clouds 21 1020 64 10000 1.03 0 10:35 05.06.2021
3376 Clouds 18 1021 75 10000 1.03 0 09:22 05.06.2021
3377 Clouds 14 1023 89 10000 1.03 0 07:20 05.06.2021
3378 Rain 15 1024 90 10000 1.54 220 23:30 04.06.2021
3379 Clouds 15 1024 86 10000 1.03 0 22:21 04.06.2021
3380 Rain 16 1023 94 10000 1.03 0 21:25 04.06.2021
3381 Rain 18 1022 77 10000 4.12 280 19:47 04.06.2021
3382 Rain 25 1020 36 10000 7.2 60 18:26 04.06.2021
3383 Clouds 27 1020 36 10000 4.12 90 16:50 04.06.2021
3384 Clouds 27 1020 34 10000 4.12 70 15:34 04.06.2021
3385 Clouds 22 1023 50 10000 2.06 280 11:50 04.06.2021
3386 Clouds 21 1023 58 10000 1.54 280 10:39 04.06.2021
3387 Clouds 14 1024 73 10000 1.54 270 07:28 04.06.2021
3388 Clouds 12 1024 69 10000 1.61 212 05:53 04.06.2021
3389 Clouds 12 1024 68 10000 1.62 212 05:53 04.06.2021
3390 Clouds 17 1023 63 10000 0.51 0 23:36 03.06.2021
3391 Clouds 23 1021 40 10000 2.57 100 20:57 03.06.2021
3392 Clouds 22 1021 40 10000 3.6 60 20:23 03.06.2021
3393 Clouds 23 1021 38 10000 4.63 60 19:48 03.06.2021
3394 Clouds 22 1021 31 10000 2.24 113 17:41 03.06.2021
3395 Clouds 25 1021 22 10000 1.03 0 15:37 03.06.2021
3396 Clouds 26 1021 29 10000 1.03 0 14:43 03.06.2021
3397 Clouds 24 1021 38 10000 2.57 60 12:44 03.06.2021
3398 Clouds 18 1023 59 10000 2.06 260 09:53 03.06.2021
3399 Clouds 17 1023 62 10000 2.57 270 09:21 03.06.2021
3400 Clouds 12 1023 83 10000 1.54 270 06:48 03.06.2021
3401 Clouds 18 1021 59 10000 1.03 0 23:22 02.06.2021
3402 Clouds 18 1020 59 10000 8.23 270 21:52 02.06.2021
3403 Clouds 17 1019 67 10000 8.75 270 21:26 02.06.2021
3404 Clouds 19 1018 59 10000 10.29 250 20:40 02.06.2021
3405 Clouds 21 1017 73 10000 1.03 0 19:31 02.06.2021
3406 Clouds 22 1015 56 10000 4.63 10 16:40 02.06.2021
3407 Clouds 27 1015 22 10000 2.57 80 15:34 02.06.2021
3408 Clouds 24 1016 23 10000 3.09 260 13:26 02.06.2021
3409 Clouds 23 1015 37 10000 1.03 0 11:50 02.06.2021
3410 Clouds 21 1016 43 10000 2.57 250 10:41 02.06.2021
3411 Clouds 19 1016 49 10000 3.6 270 09:58 02.06.2021
3412 Clouds 19 1016 51 10000 3.6 270 09:38 02.06.2021
3413 Clouds 14 1017 62 10000 3.09 290 08:43 02.06.2021
3414 Clouds 10 1016 77 10000 1.03 0 06:56 02.06.2021
3415 Clouds 9 1016 73 10000 1.03 0 03:49 02.06.2021
3416 Clouds 14 1016 55 10000 0.51 0 23:33 01.06.2021
3417 Clouds 18 1015 39 10000 2.57 60 21:41 01.06.2021
3418 Clouds 20 1014 34 10000 4.63 70 20:33 01.06.2021
3419 Clouds 22 1013 26 10000 5.14 90 18:00 01.06.2021
3420 Clear 22 1015 26 10000 2.24 90 17:18 01.06.2021
3421 Clouds 23 1015 27 10000 3.6 90 14:57 01.06.2021
3422 Clouds 21 1016 27 10000 2.57 60 13:18 01.06.2021
3423 Clear 20 1017 36 10000 2.06 90 12:25 01.06.2021
3424 Clear 18 1017 43 10000 1.03 0 11:26 01.06.2021
3425 Clear 17 1018 45 10000 1.03 0 10:55 01.06.2021
3426 Clear 14 1018 54 10000 2.06 280 09:53 01.06.2021
3427 Clear 12 1019 62 10000 1.54 270 08:40 01.06.2021
3428 Clear 8 1020 72 10000 2.06 260 07:37 01.06.2021
3429 Clear 10 1020 62 10000 0.51 0 23:48 31.05.2021
3430 Clear 11 1020 58 10000 1.03 0 23:25 31.05.2021
3431 Clear 11 1020 54 10000 1.03 0 22:57 31.05.2021
3432 Clear 16 1019 41 10000 2.57 120 21:55 31.05.2021
3433 Clear 17 1018 39 10000 6.17 70 20:41 31.05.2021
3434 Clouds 19 1017 34 10000 6.69 80 19:42 31.05.2021
3435 Clouds 19 1017 30 10000 6.17 90 18:37 31.05.2021
3436 Clouds 20 1017 24 10000 4.63 80 17:38 31.05.2021
3437 Clouds 21 1017 25 10000 3.09 70 16:38 31.05.2021
3438 Clouds 21 1018 23 10000 4.12 60 14:48 31.05.2021
3439 Clouds 19 1019 30 10000 2.57 100 13:25 31.05.2021
3440 Clouds 18 1019 34 10000 3.6 60 12:50 31.05.2021
3441 Clouds 17 1020 41 10000 1.54 0 11:56 31.05.2021
3442 Clouds 16 1020 44 10000 1.03 0 11:34 31.05.2021
3443 Clear 14 1021 51 10000 0.51 0 10:23 31.05.2021
3444 Clear 12 1021 57 10000 0.51 0 09:19 31.05.2021
3445 Clear 9 1022 65 10000 1.03 0 08:21 31.05.2021
3446 Clear 8 1022 76 10000 0.51 0 07:39 31.05.2021
3447 Clear 5 1022 79 10000 1.03 250 06:20 31.05.2021
3448 Clear 11 1023 50 10000 2.06 160 23:28 30.05.2021
3449 Clouds 12 1023 47 10000 1.03 0 22:54 30.05.2021
3450 Clouds 13 1023 44 10000 3.09 60 22:32 30.05.2021
3451 Clouds 14 1022 41 10000 4.12 60 21:44 30.05.2021
3452 Clouds 14 1022 38 10000 6.17 60 21:21 30.05.2021
3453 Clouds 15 1021 38 10000 5.66 60 20:47 30.05.2021
3454 Clouds 14 1021 39 10000 4.63 50 20:28 30.05.2021
3455 Clouds 18 1021 32 10000 5.14 60 19:33 30.05.2021
3456 Clouds 18 1020 35 10000 3.6 80 18:37 30.05.2021
3457 Clouds 18 1021 32 10000 4.12 30 17:31 30.05.2021
3458 Clouds 18 1021 33 10000 4.12 80 16:48 30.05.2021
3459 Clouds 18 1021 33 10000 3.09 0 16:29 30.05.2021
3460 Clouds 18 1021 34 10000 4.12 50 15:46 30.05.2021
3461 Clouds 17 1022 37 10000 2.57 130 13:53 30.05.2021
3462 Clouds 17 1022 38 10000 2.06 0 12:56 30.05.2021
3463 Clouds 14 1023 46 10000 3.09 60 11:40 30.05.2021
3464 Clouds 15 1023 56 10000 2.06 60 10:53 30.05.2021
3465 Clouds 13 1024 58 10000 1.54 0 10:32 30.05.2021
3466 Clouds 12 1024 71 10000 1.03 0 09:52 30.05.2021
3467 Clouds 12 1024 72 10000 1.03 0 09:34 30.05.2021
3468 Clouds 11 1024 80 10000 1.54 80 08:46 30.05.2021
3469 Clouds 8 1025 86 10000 0.51 0 06:40 30.05.2021
3470 Clouds 7 1024 83 10000 1.03 0 03:54 30.05.2021
3471 Clouds 10 1025 73 10000 1.03 0 23:54 29.05.2021
3472 Rain 11 1024 71 10000 1.03 0 22:50 29.05.2021
3473 Clouds 12 1023 58 10000 4.63 60 22:23 29.05.2021
3474 Clouds 13 1023 54 10000 4.63 70 21:46 29.05.2021
3475 Clouds 13 1022 51 10000 3.6 80 21:18 29.05.2021
3476 Clouds 13 1022 49 10000 5.14 40 20:39 29.05.2021
3477 Clouds 13 1022 48 10000 5.14 40 20:20 29.05.2021
3478 Clouds 15 1022 44 10000 1.54 0 19:18 29.05.2021
3479 Clouds 17 1021 45 10000 3.09 250 17:37 29.05.2021
3480 Clouds 17 1021 48 10000 1.54 0 16:48 29.05.2021
3481 Clouds 16 1021 55 10000 3.6 70 15:40 29.05.2021
3482 Clouds 16 1020 60 10000 1.54 210 14:40 29.05.2021
3483 Clouds 14 1021 62 10000 3.09 120 13:41 29.05.2021
3484 Clouds 14 1021 65 10000 4.12 100 12:46 29.05.2021
3485 Clouds 14 1021 65 10000 4.12 90 12:26 29.05.2021
3486 Clouds 13 1021 67 10000 4.12 60 11:42 29.05.2021
3487 Clouds 13 1021 66 10000 3.6 70 11:22 29.05.2021
3488 Clouds 13 1021 70 10000 1.54 0 10:42 29.05.2021
3489 Clouds 12 1021 76 10000 3.09 90 09:44 29.05.2021
3490 Clouds 11 1021 79 10000 2.06 60 09:21 29.05.2021
3491 Clouds 11 1021 81 10000 1.54 80 08:29 29.05.2021
3492 Clouds 11 1020 81 10000 1.03 0 06:55 29.05.2021
3493 Clouds 11 1020 79 10000 1.54 90 04:48 29.05.2021
3494 Clouds 12 1021 75 10000 1.03 0 23:54 28.05.2021
3495 Clouds 13 1020 78 10000 0.51 0 22:54 28.05.2021
3496 Clouds 14 1019 63 10000 2.57 90 21:43 28.05.2021
3497 Clouds 14 1019 63 10000 2.57 90 21:43 28.05.2021
3498 Clouds 14 1019 63 10000 3.09 80 21:21 28.05.2021
3499 Clouds 15 1018 54 10000 5.14 70 20:23 28.05.2021
3500 Clouds 18 1017 45 10000 6.17 80 19:42 28.05.2021
3501 Clouds 15 1018 47 10000 3.58 68 19:20 28.05.2021
3502 Clouds 19 1017 42 10000 5.66 70 18:34 28.05.2021
3503 Clouds 17 1019 40 10000 3.13 90 17:58 28.05.2021
3504 Clouds 20 1018 36 10000 4.63 90 16:53 28.05.2021
3505 Clouds 20 1018 36 10000 4.63 60 16:24 28.05.2021
3506 Clouds 20 1019 34 10000 4.12 70 15:39 28.05.2021
3507 Clouds 20 1019 34 10000 3.09 110 14:42 28.05.2021
3508 Clouds 19 1020 34 10000 3.09 70 13:55 28.05.2021
3509 Clouds 17 1020 33 10000 2.06 0 13:23 28.05.2021
3510 Clouds 18 1021 40 10000 2.06 130 12:52 28.05.2021
3511 Clouds 16 1021 50 10000 1.54 0 11:58 28.05.2021
3512 Clouds 15 1022 53 10000 1.03 0 11:28 28.05.2021
3513 Clouds 13 1022 63 10000 1.03 0 10:36 28.05.2021
3514 Clouds 11 1023 74 10000 1.54 270 09:50 28.05.2021
3515 Clouds 10 1023 73 10000 1.54 270 09:28 28.05.2021
3516 Clouds 9 1023 77 10000 1.54 260 08:45 28.05.2021
3517 Clouds 7 1023 85 10000 1.54 250 07:55 28.05.2021
3518 Clouds 7 1023 85 10000 1.54 250 07:35 28.05.2021
3519 Clouds 5 1023 92 10000 0.51 0 06:47 28.05.2021
3520 Clear 4 1023 91 10000 1.03 280 05:38 28.05.2021
3521 Clouds 6 1023 86 10000 0.51 0 00:31 28.05.2021
3522 Clouds 7 1022 88 10000 1.03 0 23:39 27.05.2021
3523 Clouds 8 1022 83 10000 0.51 0 22:26 27.05.2021
3524 Clouds 10 1021 81 10000 1.03 0 21:54 27.05.2021
3525 Clouds 10 1021 81 10000 1.03 0 21:33 27.05.2021
3526 Clouds 10 1020 76 10000 2.57 90 20:56 27.05.2021
3527 Clouds 11 1020 70 10000 2.57 60 20:31 27.05.2021
3528 Clouds 13 1019 67 10000 2.57 70 19:35 27.05.2021
3529 Clouds 14 1019 62 10000 3.09 90 18:56 27.05.2021
3530 Clouds 14 1019 62 10000 3.09 90 18:35 27.05.2021
3531 Clouds 13 1019 62 10000 1.54 0 17:38 27.05.2021
3532 Clouds 13 1019 71 10000 1.03 0 16:59 27.05.2021
3533 Rain 13 1019 71 10000 1.03 0 16:36 27.05.2021
3534 Clouds 12 1019 86 10000 1.54 280 15:58 27.05.2021
3535 Clouds 12 1018 82 10000 2.06 310 15:21 27.05.2021
3536 Clouds 12 1018 82 10000 1.54 0 14:50 27.05.2021
3537 Clouds 12 1018 83 10000 2.06 90 14:25 27.05.2021
3538 Rain 11 1019 83 10000 2.57 70 13:51 27.05.2021
3539 Rain 11 1019 86 10000 2.06 40 13:20 27.05.2021
3540 Clouds 11 1019 82 10000 0.51 0 12:56 27.05.2021
3541 Clouds 10 1019 82 10000 0.51 0 12:38 27.05.2021
3542 Clouds 11 1018 79 10000 2.06 100 12:19 27.05.2021
3543 Clouds 9 1019 80 10000 0.51 0 11:26 27.05.2021
3544 Clouds 10 1018 88 10000 1.54 300 10:52 27.05.2021
3545 Clouds 9 1018 85 10000 2.57 270 10:20 27.05.2021
3546 Clouds 9 1018 86 10000 1.54 10 09:50 27.05.2021
3547 Clouds 9 1018 86 10000 2.06 90 08:42 27.05.2021
3548 Clouds 8 1019 86 10000 2.06 70 07:54 27.05.2021
3549 Rain 9 1018 91 10000 1.03 190 04:54 27.05.2021
3550 Clouds 11 1017 72 10000 1.03 0 01:27 27.05.2021
3551 Clouds 11 1017 72 10000 1.03 0 01:27 27.05.2021
3552 Clouds 12 1016 71 10000 1.03 320 23:47 26.05.2021
3553 Clouds 12 1016 67 10000 1.03 0 23:26 26.05.2021
3554 Clouds 12 1016 62 7000 1.54 50 22:46 26.05.2021
3555 Clouds 13 1016 54 10000 3.09 100 22:22 26.05.2021
3556 Clouds 14 1015 51 10000 3.09 70 21:41 26.05.2021
3557 Clouds 14 1015 51 10000 3.09 70 21:22 26.05.2021
3558 Clouds 15 1015 48 10000 3.6 70 20:45 26.05.2021
3559 Clouds 16 1014 48 10000 4.63 70 20:26 26.05.2021
3560 Clouds 17 1014 45 10000 3.6 70 19:57 26.05.2021
3561 Clouds 17 1014 45 10000 3.6 70 19:38 26.05.2021
3562 Clouds 17 1013 42 10000 2.06 0 18:53 26.05.2021
3563 Clouds 18 1013 37 10000 4.63 240 18:21 26.05.2021
3564 Clouds 19 1012 32 10000 5.66 250 17:30 26.05.2021
3565 Clouds 19 1012 37 10000 3.09 280 16:46 26.05.2021
3566 Clouds 19 1012 28 10000 1.54 0 16:20 26.05.2021
3567 Clouds 19 1013 42 10000 2.06 0 15:50 26.05.2021
3568 Clouds 21 1013 35 10000 2.57 100 15:26 26.05.2021
3569 Clouds 16 1012 41 10000 1.48 212 14:48 26.05.2021
3570 Clouds 20 1014 35 10000 1.03 0 14:22 26.05.2021
3571 Clouds 20 1015 38 10000 1.03 0 13:51 26.05.2021
3572 Clouds 18 1015 45 10000 1.03 0 13:23 26.05.2021
3573 Clouds 17 1016 50 10000 1.54 190 12:32 26.05.2021
3574 Clouds 15 1017 52 10000 1.54 0 11:53 26.05.2021
3575 Clear 14 1017 52 10000 1.03 0 11:27 26.05.2021
3576 Clouds 13 1018 55 10000 1.54 0 10:46 26.05.2021
3577 Clouds 12 1018 59 10000 1.54 300 10:28 26.05.2021
3578 Clouds 10 1019 64 10000 1.54 270 09:51 26.05.2021
3579 Clouds 8 1020 63 10000 1.54 290 09:31 26.05.2021
3580 Clouds 8 1020 68 10000 1.03 0 08:54 26.05.2021
3581 Clear 5 1021 81 10000 1.54 250 07:39 26.05.2021
3582 Clouds 4 1021 87 10000 1.54 250 06:52 26.05.2021
3583 Clouds 3 1021 87 10000 1.03 0 05:28 26.05.2021
3584 Clouds 6 1022 81 10000 1.03 0 00:52 26.05.2021
3585 Clouds 7 1022 71 10000 1.03 0 23:35 25.05.2021
3586 Clear 8 1022 76 10000 1.54 140 22:51 25.05.2021
3587 Clear 10 1020 66 10000 2.06 20 21:59 25.05.2021
3588 Clear 10 1020 66 10000 2.06 20 21:37 25.05.2021
3589 Clear 11 1020 62 10000 3.6 70 21:18 25.05.2021
3590 Clouds 14 1019 35 10000 1.54 70 20:33 25.05.2021
3591 Clouds 11 1022 95 10000 1.38 161 19:43 25.05.2021
3592 Clouds 14 1021 90 10000 0.92 168 19:22 25.05.2021
3593 Clouds 16 1018 25 10000 6.69 280 18:47 25.05.2021
3594 Clouds 16 1018 25 10000 6.17 280 18:25 25.05.2021
3595 Clouds 17 1018 27 10000 7.72 280 17:36 25.05.2021
3596 Clouds 17 1018 29 10000 6.69 290 16:41 25.05.2021
3597 Clouds 16 1018 29 10000 5.66 290 16:22 25.05.2021
3598 Clouds 15 1019 44 10000 2.06 0 15:48 25.05.2021
3599 Clouds 14 1019 54 10000 2.57 60 15:20 25.05.2021
3600 Clouds 13 1019 62 10000 2.06 0 14:49 25.05.2021
3601 Clouds 13 1019 62 10000 2.06 140 14:27 25.05.2021
3602 Clouds 12 1020 71 10000 3.09 120 13:52 25.05.2021
3603 Rain 11 1020 71 10000 3.6 70 13:25 25.05.2021
3604 Clouds 10 1020 76 10000 3.09 80 12:45 25.05.2021
3605 Clouds 9 1020 81 10000 3.09 100 12:24 25.05.2021
3606 Clouds 9 1020 81 10000 2.06 60 11:42 25.05.2021
3607 Clouds 9 1020 81 10000 3.09 80 11:18 25.05.2021
3608 Clouds 7 1020 83 10000 3.09 60 10:34 25.05.2021
3609 Clouds 8 1019 89 10000 2.06 110 09:48 25.05.2021
3610 Rain 8 1017 90 10000 0.51 0 08:40 25.05.2021
3611 Clouds 8 1018 93 10000 1.03 0 07:50 25.05.2021
3612 Rain 7 1020 100 38 2.03 5 06:47 25.05.2021
3613 Clouds 8 1017 90 10000 0.51 0 03:31 25.05.2021
3614 Clouds 10 1016 93 10000 2.06 90 00:36 25.05.2021
3615 Rain 9 1016 89 10000 2.57 310 23:30 24.05.2021
3616 Rain 10 1016 89 10000 2.57 300 22:48 24.05.2021
3617 Rain 10 1015 88 10000 5.66 250 22:30 24.05.2021
3618 Rain 10 1015 87 10000 6.69 250 21:47 24.05.2021
3619 Rain 10 1014 86 10000 5.14 240 21:20 24.05.2021
3620 Rain 10 1014 86 10000 5.14 240 21:20 24.05.2021
3621 Rain 11 1013 87 10000 6.69 250 20:46 24.05.2021
3622 Clouds 13 1012 72 10000 5.66 250 20:20 24.05.2021
3623 Clouds 14 1012 67 10000 6.17 260 19:47 24.05.2021
3624 Clouds 15 1011 55 10000 2.06 160 19:28 24.05.2021
3625 Clouds 15 1010 55 10000 4.12 150 18:54 24.05.2021
3626 Clouds 15 1010 55 10000 5.14 130 18:25 24.05.2021
3627 Clouds 16 1010 51 10000 5.14 150 17:46 24.05.2021
3628 Clouds 17 1010 45 10000 5.66 120 17:21 24.05.2021
3629 Clouds 18 1010 48 10000 7.2 140 16:43 24.05.2021
3630 Clouds 18 1011 45 10000 6.69 110 15:46 24.05.2021
3631 Clouds 16 1012 50 10000 4.63 100 14:58 24.05.2021
3632 Clouds 15 1013 52 10000 4.63 100 14:36 24.05.2021
3633 Clouds 15 1013 52 10000 4.63 100 14:36 24.05.2021
3634 Clouds 15 1014 56 10000 3.09 80 13:55 24.05.2021
3635 Rain 14 1014 62 10000 1.54 0 13:26 24.05.2021
3636 Rain 14 1015 64 10000 2.57 260 12:49 24.05.2021
3637 Rain 13 1016 64 10000 3.6 260 12:28 24.05.2021
3638 Rain 13 1016 64 10000 3.6 260 12:28 24.05.2021
3639 Rain 14 1016 67 10000 3.09 290 11:43 24.05.2021
3640 Rain 13 1016 67 10000 4.12 270 11:23 24.05.2021
3641 Rain 13 1016 67 10000 3.09 270 10:41 24.05.2021
3642 Rain 9 1017 76 10000 2.57 270 10:19 24.05.2021
3643 Rain 9 1017 76 10000 2.57 270 10:19 24.05.2021
3644 Rain 9 1017 76 10000 3.6 280 09:26 24.05.2021
3645 Clouds 8 1017 81 10000 2.06 250 08:52 24.05.2021
3646 Clouds 7 1017 87 10000 2.57 280 08:31 24.05.2021
3647 Clouds 7 1017 84 10000 1.03 0 06:56 24.05.2021
3648 Clouds 5 1019 87 10000 1.03 0 04:18 24.05.2021
3649 Clouds 6 1020 81 10000 1.03 0 01:54 24.05.2021
3650 Clouds 8 1020 76 10000 0.51 0 00:32 24.05.2021
3651 Clouds 8 1020 81 10000 1.03 0 23:36 23.05.2021
3652 Clear 10 1019 66 10000 1.54 170 22:52 23.05.2021
3653 Clear 10 1019 66 10000 1.54 80 22:24 23.05.2021
3654 Clear 12 1019 58 10000 4.12 80 21:42 23.05.2021
3655 Clear 12 1019 58 10000 4.12 80 21:20 23.05.2021
3656 Clouds 13 1018 54 10000 4.12 70 20:48 23.05.2021
3657 Clouds 14 1018 54 10000 3.6 40 20:29 23.05.2021
3658 Clouds 15 1018 51 10000 3.6 40 19:43 23.05.2021
3659 Clouds 15 1018 48 10000 4.12 30 19:22 23.05.2021
3660 Clouds 16 1017 39 10000 2.57 70 18:29 23.05.2021
3661 Clouds 16 1017 39 10000 3.09 30 17:45 23.05.2021
3662 Clouds 16 1018 45 10000 3.6 50 17:27 23.05.2021
3663 Clouds 16 1017 48 10000 3.6 20 16:51 23.05.2021
3664 Clouds 17 1018 48 10000 3.09 60 16:25 23.05.2021
3665 Clouds 16 1018 49 10000 2.57 0 15:58 23.05.2021
3666 Clouds 15 1018 49 10000 3.09 0 15:33 23.05.2021
3667 Clouds 16 1018 52 10000 2.57 80 14:52 23.05.2021
3668 Clouds 15 1018 51 10000 2.57 80 14:33 23.05.2021
3669 Clouds 13 1019 58 10000 4.12 40 13:44 23.05.2021
3670 Clouds 12 1020 71 10000 3.09 100 12:56 23.05.2021
3671 Clouds 11 1020 71 10000 2.06 90 12:26 23.05.2021
3672 Clouds 10 1019 76 10000 2.57 60 11:49 23.05.2021
3673 Rain 9 1020 83 10000 3.09 60 11:24 23.05.2021
3674 Rain 9 1019 84 10000 0.51 0 10:34 23.05.2021
3675 Rain 8 1018 88 10000 1.03 0 09:57 23.05.2021
3676 Rain 8 1018 88 10000 1.03 0 09:30 23.05.2021
3677 Rain 8 1017 93 10000 0.51 0 08:24 23.05.2021
3678 Rain 8 1016 93 10000 2.06 310 07:43 23.05.2021
3679 Rain 8 1016 94 10000 2.06 210 07:24 23.05.2021
3680 Rain 8 1014 93 10000 1.54 60 05:23 23.05.2021
3681 Clouds 9 1014 80 10000 2.57 80 00:49 23.05.2021
3682 Clouds 10 1014 74 10000 1.54 80 23:41 22.05.2021
3683 Clouds 9 1015 72 10000 0.45 45 23:20 22.05.2021
3684 Clouds 10 1014 69 10000 3.09 90 22:42 22.05.2021
3685 Clouds 12 1013 62 10000 2.57 110 22:24 22.05.2021
3686 Clouds 10 1015 97 10000 0.9 61 21:44 22.05.2021
3687 Clouds 11 1012 67 10000 1.03 0 21:20 22.05.2021
3688 Clouds 12 1012 67 10000 3.6 90 20:44 22.05.2021
3689 Clouds 14 1011 58 10000 4.12 90 19:48 22.05.2021
3690 Clouds 15 1010 58 10000 6.17 70 19:28 22.05.2021
3691 Clouds 15 1010 58 10000 5.66 90 18:52 22.05.2021
3692 Rain 16 1010 55 10000 6.69 60 18:26 22.05.2021
3693 Clouds 17 1010 51 10000 6.69 70 17:54 22.05.2021
3694 Clouds 19 1009 34 10000 1.54 0 17:28 22.05.2021
3695 Clouds 19 1009 39 10000 2.06 80 16:45 22.05.2021
3696 Clouds 18 1010 48 10000 1.03 0 15:47 22.05.2021
3697 Clouds 18 1010 45 10000 1.54 0 15:26 22.05.2021
3698 Clouds 17 1010 48 10000 2.57 120 14:32 22.05.2021
3699 Clouds 16 1011 51 10000 1.03 0 13:52 22.05.2021
3700 Clouds 15 1011 51 10000 3.09 160 13:31 22.05.2021
3701 Clouds 14 1011 54 10000 1.54 0 12:50 22.05.2021
3702 Clouds 14 1011 62 10000 2.57 150 12:22 22.05.2021
3703 Clouds 13 1011 70 10000 1.54 0 11:42 22.05.2021
3704 Clouds 12 1011 72 10000 1.54 200 10:43 22.05.2021
3705 Clouds 11 1012 71 10000 1.03 0 10:24 22.05.2021
3706 Clouds 8 1013 84 10000 1.54 10 08:57 22.05.2021
3707 Rain 9 1012 86 10000 1.54 10 08:33 22.05.2021
3708 Rain 8 1012 91 10000 0.51 0 07:43 22.05.2021
3709 Rain 7 1013 88 10000 1.03 0 05:40 22.05.2021
3710 Clouds 9 1009 81 10000 1.03 0 02:33 22.05.2021
3711 Clouds 10 1010 71 10000 6.17 70 23:44 21.05.2021
3712 Clouds 10 1010 71 10000 6.17 70 23:44 21.05.2021
3713 Clouds 11 1010 70 10000 7.72 60 22:50 21.05.2021
3714 Clouds 11 1010 67 10000 6.69 80 22:28 21.05.2021
3715 Clouds 11 1010 67 10000 7.72 60 21:49 21.05.2021
3716 Clouds 11 1010 93 10000 1.53 141 21:25 21.05.2021
3717 Clouds 13 1009 62 10000 6.69 60 20:50 21.05.2021
3718 Clouds 11 1011 63 10000 0.89 113 20:29 21.05.2021
3719 Clouds 11 1011 62 10000 2.68 90 19:54 21.05.2021
3720 Clouds 12 1011 61 10000 2.68 68 19:28 21.05.2021
3721 Clouds 14 1010 53 10000 6.69 50 18:47 21.05.2021
3722 Clouds 13 1011 55 10000 3.58 90 18:25 21.05.2021
3723 Clouds 14 1012 48 10000 2.24 68 17:40 21.05.2021
3724 Clouds 14 1012 49 10000 3.13 90 17:40 21.05.2021
3725 Clouds 14 1012 49 10000 3.13 90 17:40 21.05.2021
3726 Clouds 14 1012 43 10000 3.13 68 17:21 21.05.2021
3727 Rain 19 1011 36 10000 6.69 150 16:40 21.05.2021
3728 Rain 19 1011 36 10000 6.69 150 16:20 21.05.2021
3729 Clouds 18 1011 36 10000 6.17 150 15:44 21.05.2021
3730 Clouds 19 1011 35 10000 7.2 130 15:25 21.05.2021
3731 Clouds 18 1011 32 10000 5.66 120 14:37 21.05.2021
3732 Clouds 19 1012 38 10000 5.14 100 13:59 21.05.2021
3733 Rain 19 1012 36 10000 3.6 220 13:24 21.05.2021
3734 Clouds 18 1013 40 10000 3.09 0 12:23 21.05.2021
3735 Clouds 15 1014 51 10000 5.66 250 11:43 21.05.2021
3736 Clouds 14 1014 52 10000 4.63 290 11:24 21.05.2021
3737 Clouds 12 1014 57 10000 2.57 260 10:45 21.05.2021
3738 Clouds 10 1016 66 10000 4.63 270 10:18 21.05.2021
3739 Rain 10 1016 71 10000 3.6 270 09:32 21.05.2021
3740 Clouds 8 1017 81 10000 2.57 270 08:46 21.05.2021
3741 Clouds 8 1016 82 10000 2.57 280 08:18 21.05.2021
3742 Clouds 5 1018 84 10000 1.03 0 07:26 21.05.2021
3743 Clouds 5 1018 93 10000 0.51 0 05:20 21.05.2021
3744 Clouds 6 1020 79 10000 1.03 0 00:43 21.05.2021
3745 Clouds 7 1020 81 10000 1.54 0 23:57 20.05.2021
3746 Clear 8 1021 81 10000 0.51 0 23:25 20.05.2021
3747 Clouds 7 1023 89 10000 1.82 189 22:57 20.05.2021
3748 Clear 9 1020 76 10000 1.03 0 22:36 20.05.2021
3749 Clouds 8 1024 93 10000 1.85 182 21:56 20.05.2021
3750 Clouds 8 1023 94 10000 1.56 170 21:26 20.05.2021
3751 Clouds 9 1023 94 10000 1.57 169 20:59 20.05.2021
3752 Clouds 11 1020 58 10000 2.06 50 20:33 20.05.2021
3753 Clouds 14 1020 51 10000 4.12 40 19:52 20.05.2021
3754 Clouds 15 1020 47 10000 3.6 30 19:30 20.05.2021
3755 Clouds 15 1020 41 10000 3.6 40 18:52 20.05.2021
3756 Clouds 14 1020 47 10000 3.6 50 18:30 20.05.2021
3757 Clouds 15 1020 44 10000 4.12 40 17:47 20.05.2021
3758 Clouds 15 1020 44 10000 3.6 60 17:28 20.05.2021
3759 Clouds 15 1020 41 10000 2.06 20 16:40 20.05.2021
3760 Clouds 15 1020 44 10000 3.09 40 16:20 20.05.2021
3761 Clouds 15 1020 44 10000 2.06 20 15:40 20.05.2021
3762 Clouds 14 1021 44 10000 3.09 70 15:21 20.05.2021
3763 Clouds 14 1022 53 10000 2.57 160 14:28 20.05.2021
3764 Clouds 12 1022 60 10000 2.06 60 13:59 20.05.2021
3765 Clouds 12 1022 61 10000 2.06 60 13:36 20.05.2021
3766 Clouds 11 1022 61 10000 2.06 50 12:50 20.05.2021
3767 Clouds 11 1022 61 10000 2.06 50 12:50 20.05.2021
3768 Clouds 11 1022 66 10000 2.57 0 12:21 20.05.2021
3769 Clouds 11 1022 69 10000 1.54 0 11:58 20.05.2021
3770 Clouds 11 1022 66 10000 3.6 70 11:21 20.05.2021
3771 Clouds 11 1022 71 10000 3.6 70 10:51 20.05.2021
3772 Clouds 10 1022 71 10000 2.06 60 10:28 20.05.2021
3773 Clouds 8 1023 81 10000 1.54 80 09:54 20.05.2021
3774 Clouds 8 1023 82 10000 1.54 80 09:36 20.05.2021
3775 Clouds 7 1023 84 10000 0.51 0 09:18 20.05.2021
3776 Clouds 7 1023 87 10000 1.03 0 08:41 20.05.2021
3777 Clouds 7 1023 90 10000 1.03 0 08:20 20.05.2021
3778 Clouds 7 1022 93 10000 0.51 0 07:46 20.05.2021
3779 Clouds 7 1022 93 10000 0.51 0 06:55 20.05.2021
3780 Clouds 6 1022 93 10000 0.51 0 06:36 20.05.2021
3781 Clouds 6 1021 93 10000 0.51 0 05:22 20.05.2021
3782 Clouds 6 1021 91 10000 1.03 0 03:24 20.05.2021
3783 Clouds 6 1021 89 10000 1.03 0 00:43 20.05.2021
3784 Clouds 6 1020 90 10000 1.03 0 23:56 19.05.2021
3785 Clouds 6 1020 90 10000 1.03 0 23:25 19.05.2021
3786 Clouds 6 1020 89 10000 1.03 0 22:49 19.05.2021
3787 Clouds 6 1020 90 10000 1.03 0 22:30 19.05.2021
3788 Clouds 6 1020 86 10000 0.51 0 21:59 19.05.2021
3789 Clouds 6 1020 84 10000 0.51 0 21:41 19.05.2021
3790 Clouds 7 1019 84 10000 0.51 0 21:21 19.05.2021
3791 Clouds 7 1019 84 10000 0.51 0 21:21 19.05.2021
3792 Clouds 8 1019 87 10000 0.51 0 20:53 19.05.2021
3793 Clouds 9 1019 81 10000 1.54 320 20:24 19.05.2021
3794 Clouds 10 1018 71 10000 0.51 0 19:48 19.05.2021
3795 Clouds 10 1018 73 10000 0.51 0 19:25 19.05.2021
3796 Clouds 10 1018 79 10000 1.03 0 18:49 19.05.2021
3797 Clouds 10 1019 77 10000 0.51 0 18:26 19.05.2021
3798 Rain 9 1018 82 10000 2.06 90 17:48 19.05.2021
3799 Rain 9 1018 81 10000 4.63 80 17:20 19.05.2021
3800 Rain 8 1018 75 10000 5.14 80 16:38 19.05.2021
3801 Rain 9 1018 71 10000 6.69 60 16:20 19.05.2021
3802 Clouds 12 1017 71 10000 4.12 50 15:44 19.05.2021
3803 Clouds 11 1017 71 10000 5.14 70 14:57 19.05.2021
3804 Clouds 10 1017 71 10000 5.14 70 14:36 19.05.2021
3805 Clouds 9 1018 77 10000 5.14 60 13:54 19.05.2021
3806 Clouds 9 1018 77 10000 5.14 60 13:34 19.05.2021
3807 Clouds 8 1019 77 686 1.34 113 12:46 19.05.2021
3808 Clouds 9 1017 76 10000 2.06 110 12:23 19.05.2021
3809 Rain 8 1018 82 10000 3.09 50 11:59 19.05.2021
3810 Rain 8 1017 84 10000 3.09 50 11:41 19.05.2021
3811 Rain 7 1018 91 10000 3.09 70 11:21 19.05.2021
3812 Clouds 7 1018 87 10000 3.6 70 10:49 19.05.2021
3813 Rain 7 1018 87 10000 4.12 80 10:30 19.05.2021
3814 Clouds 7 1018 87 10000 3.6 70 09:45 19.05.2021
3815 Clouds 7 1017 87 10000 2.57 60 09:19 19.05.2021
3816 Rain 6 1017 89 10000 1.54 270 08:38 19.05.2021
3817 Clouds 6 1017 92 10000 2.06 270 07:59 19.05.2021
3818 Rain 6 1017 88 10000 4.12 230 07:26 19.05.2021
3819 Rain 7 1016 91 10000 2.06 280 06:39 19.05.2021
3820 Clouds 7 1016 92 9000 1.03 0 05:40 19.05.2021
3821 Rain 7 1016 92 10000 2.06 270 02:59 19.05.2021
3822 Clouds 7 1016 91 10000 0.51 0 00:35 19.05.2021
3823 Clouds 7 1016 91 10000 0.51 0 23:51 18.05.2021
3824 Clouds 7 1016 91 10000 1.54 290 23:28 18.05.2021
3825 Rain 9 1015 89 10000 0.51 0 22:42 18.05.2021
3826 Rain 8 1015 90 10000 2.06 290 22:22 18.05.2021
3827 Rain 8 1015 90 10000 2.06 290 22:22 18.05.2021
3828 Rain 9 1015 90 10000 3.09 280 21:43 18.05.2021
3829 Clouds 9 1015 88 10000 2.06 280 21:25 18.05.2021
3830 Rain 10 1015 93 10000 2.06 260 20:48 18.05.2021
3831 Rain 10 1014 93 10000 1.03 270 20:19 18.05.2021
3832 Rain 9 1014 83 10000 2.06 280 19:50 18.05.2021
3833 Rain 11 1014 82 10000 2.06 0 19:30 18.05.2021
3834 Rain 12 1013 58 10000 4.63 70 18:55 18.05.2021
3835 Rain 13 1013 58 10000 4.63 70 18:36 18.05.2021
3836 Rain 13 1013 51 10000 5.14 70 18:18 18.05.2021
3837 Clouds 14 1013 51 10000 7.72 60 17:32 18.05.2021
3838 Clouds 14 1013 44 10000 6.69 80 16:44 18.05.2021
3839 Clouds 15 1012 44 10000 3.09 70 16:21 18.05.2021
3840 Clouds 13 1013 41 10000 2.06 260 15:42 18.05.2021
3841 Clouds 14 1013 47 10000 5.14 230 15:22 18.05.2021
3842 Clouds 15 1013 54 10000 6.69 260 14:32 18.05.2021
3843 Clouds 16 1013 42 10000 1.54 0 13:46 18.05.2021
3844 Clouds 15 1014 50 10000 1.03 0 12:51 18.05.2021
3845 Clouds 15 1015 53 10000 2.06 110 12:22 18.05.2021
3846 Clouds 14 1015 54 10000 1.03 0 11:41 18.05.2021
3847 Clouds 13 1015 55 10000 1.54 120 11:18 18.05.2021
3848 Clouds 12 1015 59 10000 1.54 100 10:45 18.05.2021
3849 Clouds 11 1016 61 10000 1.03 0 10:26 18.05.2021
3850 Clouds 11 1016 66 10000 1.03 0 09:36 18.05.2021
3851 Clouds 9 1016 68 10000 1.03 0 09:36 18.05.2021
3852 Clouds 9 1016 76 10000 0.51 0 08:51 18.05.2021
3853 Clouds 8 1016 81 10000 1.03 360 08:19 18.05.2021
3854 Clouds 8 1015 87 10000 1.03 0 07:42 18.05.2021
3855 Clouds 7 1015 87 10000 2.57 250 06:49 18.05.2021
3856 Clouds 7 1014 76 10000 1.03 210 02:31 18.05.2021
3857 Clouds 7 1014 76 10000 1.03 210 02:31 18.05.2021
3858 Clouds 7 1014 76 10000 1.03 0 01:54 18.05.2021
3859 Clouds 6 1014 81 10000 2.06 10 00:49 18.05.2021
3860 Clouds 8 1014 71 10000 1.03 0 00:27 18.05.2021
3861 Clouds 8 1014 76 10000 1.54 300 23:43 17.05.2021
3862 Clouds 8 1014 71 10000 0.51 0 23:21 17.05.2021
3863 Clouds 8 1013 76 10000 3.09 10 22:46 17.05.2021
3864 Rain 9 1013 62 10000 2.06 190 22:25 17.05.2021
3865 Clouds 8 1013 71 10000 1.54 180 21:59 17.05.2021
3866 Clouds 9 1012 66 10000 2.06 360 21:21 17.05.2021
3867 Clouds 9 1012 62 10000 3.09 260 20:45 17.05.2021
3868 Rain 10 1011 58 10000 5.14 220 20:22 17.05.2021
3869 Clouds 11 1011 54 10000 5.66 250 19:47 17.05.2021
3870 Clouds 11 1011 54 10000 4.63 240 19:27 17.05.2021
3871 Rain 12 1011 51 10000 7.72 260 18:51 17.05.2021
3872 Rain 13 1011 51 10000 7.72 260 18:32 17.05.2021
3873 Rain 12 1009 44 10000 6.17 260 17:54 17.05.2021
3874 Clouds 14 1009 39 10000 6.69 280 17:35 17.05.2021
3875 Clouds 14 1009 39 10000 6.69 280 16:57 17.05.2021
3876 Clouds 14 1009 38 10000 9.26 280 16:25 17.05.2021
3877 Clouds 15 1008 39 10000 6.69 290 15:43 17.05.2021
3878 Clouds 16 1009 39 10000 6.17 270 15:23 17.05.2021
3879 Clouds 15 1009 44 10000 8.23 270 14:46 17.05.2021
3880 Clouds 14 1009 47 10000 7.72 260 14:28 17.05.2021
3881 Clouds 13 1009 62 10000 8.75 260 13:54 17.05.2021
3882 Clouds 13 1009 54 10000 7.2 240 12:43 17.05.2021
3883 Clouds 12 1009 62 10000 6.17 230 12:25 17.05.2021
3884 Clouds 12 1009 62 10000 6.69 260 11:48 17.05.2021
3885 Rain 11 1009 71 10000 3.09 0 11:25 17.05.2021
3886 Clouds 12 1008 58 10000 5.66 250 10:56 17.05.2021
3887 Clouds 10 1008 66 10000 2.57 290 10:31 17.05.2021
3888 Clouds 9 1009 76 10000 2.06 270 09:54 17.05.2021
3889 Clouds 9 1009 82 10000 0.51 0 08:50 17.05.2021
3890 Clouds 9 1008 87 10000 1.03 0 08:20 17.05.2021
3891 Clouds 8 1008 93 10000 1.54 80 07:32 17.05.2021
3892 Clouds 8 1008 93 10000 1.54 140 06:38 17.05.2021
3893 Clouds 8 1008 93 10000 1.03 0 06:19 17.05.2021
3894 Rain 8 1007 93 10000 1.03 0 02:59 17.05.2021
3895 Rain 8 1007 93 10000 1.03 0 01:29 17.05.2021
3896 Rain 8 1007 93 10000 1.03 0 00:35 17.05.2021
3897 Rain 9 1006 87 10000 2.06 100 23:31 16.05.2021
3898 Rain 8 1006 93 10000 1.54 90 22:54 16.05.2021
3899 Rain 9 1006 93 10000 1.54 330 22:30 16.05.2021
3900 Rain 9 1006 87 10000 3.6 260 21:51 16.05.2021
3901 Rain 10 1006 87 10000 3.6 260 21:33 16.05.2021
3902 Rain 11 1006 82 10000 4.63 250 20:53 16.05.2021
3903 Rain 12 1005 71 10000 1.54 0 20:31 16.05.2021
3904 Clouds 12 1004 71 10000 2.57 80 19:59 16.05.2021
3905 Clouds 12 1004 71 10000 2.57 80 19:38 16.05.2021
3906 Rain 12 1005 71 10000 3.6 70 19:18 16.05.2021
3907 Rain 13 1005 67 10000 4.12 90 18:41 16.05.2021
3908 Rain 13 1005 72 10000 3.6 60 18:22 16.05.2021
3909 Rain 14 1005 67 10000 5.14 50 17:48 16.05.2021
3910 Rain 14 1005 55 10000 2.57 240 17:29 16.05.2021
3911 Rain 14 1005 67 10000 6.69 250 16:58 16.05.2021
3912 Rain 15 1005 67 10000 6.69 250 16:39 16.05.2021
3913 Rain 15 1005 63 10000 2.06 270 16:19 16.05.2021
3914 Rain 16 1005 51 10000 0.51 0 15:43 16.05.2021
3915 Rain 17 1005 55 10000 1.03 0 15:21 16.05.2021
3916 Clouds 17 1005 55 10000 1.54 0 14:44 16.05.2021
3917 Clouds 16 1006 59 10000 2.06 130 14:19 16.05.2021
3918 Clouds 16 1006 55 10000 1.54 0 13:51 16.05.2021
3919 Clouds 15 1007 58 10000 2.57 110 13:21 16.05.2021
3920 Clouds 14 1007 67 10000 1.54 0 12:53 16.05.2021
3921 Clouds 13 1008 67 10000 1.54 0 12:33 16.05.2021
3922 Clouds 12 1008 76 10000 1.54 350 11:58 16.05.2021
3923 Clouds 12 1008 76 10000 1.54 350 11:33 16.05.2021
3924 Clouds 11 1008 76 10000 1.03 0 10:53 16.05.2021
3925 Clouds 11 1008 76 10000 1.03 0 10:32 16.05.2021
3926 Clouds 10 1008 76 10000 0.51 0 09:50 16.05.2021
3927 Clouds 10 1008 76 10000 0.51 0 09:27 16.05.2021
3928 Clouds 9 1008 81 10000 1.54 80 08:53 16.05.2021
3929 Clouds 7 1008 81 10000 2.57 110 08:25 16.05.2021
3930 Clouds 8 1009 87 10000 1.54 80 07:32 16.05.2021
3931 Clouds 7 1009 93 10000 2.06 70 06:50 16.05.2021
3932 Clouds 9 1008 87 10000 0.51 0 02:36 16.05.2021
3933 Drizzle 10 1007 87 10000 2.06 60 00:42 16.05.2021
3934 Rain 10 1007 87 10000 0.51 0 23:44 15.05.2021
3935 Clouds 10 1007 87 10000 2.57 270 23:21 15.05.2021
3936 Clouds 10 1006 82 10000 3.09 320 22:39 15.05.2021
3937 Rain 10 1006 76 10000 2.57 320 22:21 15.05.2021
3938 Rain 11 1006 71 10000 2.57 270 21:31 15.05.2021
3939 Clouds 12 1005 62 10000 1.03 0 20:59 15.05.2021
3940 Clouds 12 1005 62 10000 1.03 0 20:36 15.05.2021
3941 Clouds 12 1005 62 10000 1.54 320 20:18 15.05.2021
3942 Rain 13 1005 58 10000 3.09 250 19:31 15.05.2021
3943 Rain 15 1005 55 10000 5.14 260 18:23 15.05.2021
3944 Clouds 15 1005 45 10000 2.57 120 17:55 15.05.2021
3945 Clouds 16 1005 48 10000 2.06 0 17:23 15.05.2021
3946 Clouds 16 1005 51 10000 1.03 0 16:44 15.05.2021
3947 Clouds 16 1006 48 10000 2.06 80 16:24 15.05.2021
3948 Clouds 16 1006 51 10000 2.06 70 15:57 15.05.2021
3949 Clouds 14 1007 54 10000 3.09 120 14:53 15.05.2021
3950 Clouds 14 1008 54 10000 2.57 110 14:29 15.05.2021
3951 Clouds 13 1009 58 10000 3.09 90 13:52 15.05.2021
3952 Clouds 13 1009 58 10000 2.57 110 13:27 15.05.2021
3953 Clouds 12 1010 58 10000 3.09 80 12:22 15.05.2021
3954 Clouds 11 1011 62 10000 2.57 120 11:41 15.05.2021
3955 Clouds 10 1012 71 10000 3.6 80 10:54 15.05.2021
3956 Clouds 8 1012 81 10000 1.54 120 09:59 15.05.2021
3957 Rain 8 1013 81 10000 1.03 0 09:21 15.05.2021
3958 Rain 7 1013 87 10000 0.51 0 08:19 15.05.2021
3959 Rain 7 1013 93 10000 0.51 0 07:26 15.05.2021
3960 Rain 7 1012 93 10000 1.54 160 06:53 15.05.2021
3961 Rain 7 1012 93 10000 1.54 160 06:34 15.05.2021
3962 Rain 8 1012 93 10000 1.54 80 04:20 15.05.2021
3963 Clouds 9 1011 76 10000 1.54 130 00:51 15.05.2021
3964 Rain 9 1011 76 10000 1.03 0 23:48 14.05.2021
3965 Rain 9 1011 76 10000 2.57 190 22:48 14.05.2021
3966 Rain 9 1010 62 10000 2.57 90 22:25 14.05.2021
3967 Clouds 10 1009 58 10000 2.06 0 21:32 14.05.2021
3968 Clouds 11 1009 54 10000 3.6 130 20:59 14.05.2021
3969 Clouds 11 1009 54 10000 3.6 130 20:59 14.05.2021
3970 Clouds 14 1009 54 10000 3.6 130 20:34 14.05.2021
3971 Clouds 15 1008 51 10000 4.63 90 19:50 14.05.2021
3972 Clouds 13 1008 47 10000 4.63 60 19:31 14.05.2021
3973 Clouds 15 1007 48 10000 3.6 60 18:56 14.05.2021
3974 Clouds 15 1007 48 10000 3.6 50 18:32 14.05.2021
3975 Clouds 15 1007 44 10000 3.09 50 17:48 14.05.2021
3976 Clouds 15 1007 48 10000 3.09 40 17:25 14.05.2021
3977 Clouds 15 1007 42 10000 1.54 0 16:48 14.05.2021
3978 Clouds 16 1007 39 10000 3.6 70 16:29 14.05.2021
3979 Clouds 16 1008 45 10000 3.6 120 15:54 14.05.2021
3980 Clouds 14 1008 44 10000 2.57 70 14:59 14.05.2021
3981 Clouds 14 1008 44 10000 2.57 70 14:40 14.05.2021
3982 Clouds 15 1008 44 10000 1.03 0 13:43 14.05.2021
3983 Clouds 15 1009 47 10000 1.54 0 13:25 14.05.2021
3984 Clouds 14 1009 50 10000 1.54 340 12:34 14.05.2021
3985 Clouds 14 1009 58 10000 1.54 30 11:52 14.05.2021
3986 Clouds 12 1009 50 10000 3.09 90 11:24 14.05.2021
3987 Clouds 12 1009 58 10000 1.54 0 10:38 14.05.2021
3988 Clouds 10 1010 66 10000 1.54 250 10:18 14.05.2021
3989 Clouds 10 1010 71 10000 1.03 0 09:41 14.05.2021
3990 Clouds 10 1010 76 10000 1.03 0 09:23 14.05.2021
3991 Clouds 9 1010 81 10000 1.03 0 08:32 14.05.2021
3992 Clouds 8 1009 87 10000 1.54 80 07:24 14.05.2021
3993 Clouds 8 1009 93 10000 1.03 0 06:38 14.05.2021
3994 Clouds 8 1009 93 10000 0.51 0 02:42 14.05.2021
3995 Clouds 8 1009 93 10000 0.51 0 00:45 14.05.2021
3996 Clouds 9 1009 93 10000 1.03 0 23:53 13.05.2021
3997 Clouds 9 1009 93 10000 0.51 0 23:26 13.05.2021
3998 Clouds 9 1009 93 10000 0.51 0 22:58 13.05.2021
3999 Clouds 9 1009 93 10000 0.51 0 22:38 13.05.2021
4000 Clouds 9 1009 93 10000 1.03 0 22:20 13.05.2021
4001 Clouds 9 1008 88 10000 1.04 8 21:40 13.05.2021
4002 Clouds 10 1008 88 9899 1.09 14 21:21 13.05.2021
4003 Clouds 10 1008 85 10000 1.04 19 20:45 13.05.2021
4004 Clouds 10 1007 85 10000 0.45 45 19:55 13.05.2021
4005 Clouds 9 1009 76 10000 0.89 90 19:36 13.05.2021
4006 Rain 10 1007 82 10000 0.45 358 19:18 13.05.2021
4007 Clouds 12 1006 85 10000 1.58 5 18:40 13.05.2021
4008 Clouds 11 1007 73 5721 1.34 351 18:20 13.05.2021
4009 Clouds 10 1006 88 5721 1.65 7 17:41 13.05.2021
4010 Clouds 11 1006 86 10000 1.58 25 17:22 13.05.2021
4011 Clouds 14 1006 79 10000 1.34 319 16:42 13.05.2021
4012 Clouds 13 1006 80 3191 1.69 24 16:19 13.05.2021
4013 Clouds 13 1006 78 3191 1.69 24 15:52 13.05.2021
4014 Clouds 13 1006 78 4602 1.32 42 15:25 13.05.2021
4015 Clouds 11 1008 76 4510 0.89 20 14:57 13.05.2021
4016 Clouds 11 1008 76 10000 0.89 329 14:38 13.05.2021
4017 Clouds 11 1008 76 10000 0.89 329 14:20 13.05.2021
4018 Clouds 10 1009 70 10000 2.24 90 13:41 13.05.2021
4019 Clouds 11 1008 95 1305 0.55 264 13:22 13.05.2021
4020 Clouds 9 1009 75 1305 2.24 90 12:40 13.05.2021
4021 Clouds 10 1009 97 75 0.92 311 12:18 13.05.2021
4022 Clouds 9 1009 78 75 0.89 90 11:39 13.05.2021
4023 Clouds 9 1009 98 60 1.1 321 10:55 13.05.2021
4024 Clouds 6 1009 86 10000 2.06 60 10:36 13.05.2021
4025 Clouds 5 1008 90 10000 2.57 60 09:51 13.05.2021
4026 Clouds 5 1009 92 10000 1.03 0 09:29 13.05.2021
4027 Clouds 4 1008 92 10000 0.51 0 08:37 13.05.2021
4028 Clouds 4 1008 93 10000 1.03 280 07:59 13.05.2021
4029 Clouds 4 1008 93 10000 1.03 0 07:20 13.05.2021
4030 Clouds 4 1009 93 10000 0.51 0 05:51 13.05.2021
4031 Clouds 8 1010 87 10000 0.51 0 02:39 13.05.2021
4032 Clouds 4 1010 91 10000 1.03 0 00:51 13.05.2021
4033 Clouds 5 1011 90 10000 0.51 0 23:42 12.05.2021
4034 Clouds 5 1011 87 10000 1.03 170 22:56 12.05.2021
4035 Clouds 5 1011 87 10000 1.03 170 22:56 12.05.2021
4036 Clouds 5 1011 87 10000 0.51 0 22:21 12.05.2021
4037 Clouds 5 1011 86 10000 1.03 210 21:52 12.05.2021
4038 Drizzle 9 1011 87 10000 1.03 0 21:18 12.05.2021
4039 Clouds 9 1011 87 10000 1.03 180 20:48 12.05.2021
4040 Clouds 6 1010 87 10000 2.06 270 19:52 12.05.2021
4041 Clouds 7 1010 71 10000 3.09 80 18:52 12.05.2021
4042 Clouds 7 1010 66 10000 4.12 70 18:27 12.05.2021
4043 Rain 7 1010 66 10000 4.12 70 17:55 12.05.2021
4044 Rain 7 1010 66 10000 4.12 70 17:34 12.05.2021
4045 Clouds 8 1010 67 10000 3.6 60 16:50 12.05.2021
4046 Clouds 8 1011 71 10000 3.09 60 16:26 12.05.2021
4047 Clouds 11 1010 71 10000 4.12 50 15:42 12.05.2021
4048 Clouds 8 1010 67 10000 2.57 50 15:19 12.05.2021
4049 Clouds 11 1011 71 10000 3.6 50 14:36 12.05.2021
4050 Clouds 11 1011 71 10000 3.6 60 13:53 12.05.2021
4051 Clouds 11 1011 71 10000 3.6 60 13:33 12.05.2021
4052 Clouds 11 1011 71 10000 1.54 20 12:37 12.05.2021
4053 Clouds 10 1012 76 10000 1.03 0 11:52 12.05.2021
4054 Clouds 10 1012 76 10000 1.03 0 11:32 12.05.2021
4055 Clouds 9 1012 81 10000 1.03 0 10:59 12.05.2021
4056 Drizzle 9 1012 81 10000 1.03 0 10:29 12.05.2021
4057 Clouds 9 1013 81 10000 1.03 0 09:46 12.05.2021
4058 Rain 9 1013 87 10000 1.54 240 09:27 12.05.2021
4059 Clouds 8 1013 87 10000 2.06 290 08:52 12.05.2021
4060 Rain 8 1012 93 10000 2.57 250 08:29 12.05.2021
4061 Rain 8 1012 93 10000 0.51 0 07:33 12.05.2021
4062 Rain 8 1012 93 10000 1.54 260 06:22 12.05.2021
4063 Rain 10 1010 87 10000 1.03 0 00:55 12.05.2021
4064 Rain 10 1010 87 10000 1.03 0 00:55 12.05.2021
4065 Rain 11 1009 72 10000 2.06 160 00:35 12.05.2021
4066 Clouds 12 1009 67 10000 3.6 100 23:47 11.05.2021
4067 Clouds 12 1009 58 10000 3.09 60 23:28 11.05.2021
4068 Clouds 13 1009 58 10000 4.63 60 22:49 11.05.2021
4069 Clouds 13 1009 58 10000 2.57 80 22:21 11.05.2021
4070 Clouds 15 1008 58 10000 2.06 0 21:55 11.05.2021
4071 Clouds 15 1008 58 10000 2.06 0 21:36 11.05.2021
4072 Clouds 16 1008 55 10000 4.12 130 21:18 11.05.2021
4073 Clouds 16 1008 55 10000 4.12 140 20:43 11.05.2021
4074 Clouds 14 1008 55 10000 4.12 160 20:23 11.05.2021
4075 Rain 16 1009 51 10000 5.66 140 19:43 11.05.2021
4076 Rain 14 1009 55 10000 5.66 120 19:21 11.05.2021
4077 Clouds 16 1009 48 10000 4.63 80 18:44 11.05.2021
4078 Clouds 17 1008 45 10000 6.69 110 18:25 11.05.2021
4079 Clouds 17 1008 39 10000 5.14 110 17:38 11.05.2021
4080 Clouds 17 1008 39 10000 5.14 110 17:38 11.05.2021
4081 Clouds 18 1007 42 10000 6.17 100 17:20 11.05.2021
4082 Clouds 18 1007 37 10000 6.17 100 16:42 11.05.2021
4083 Clouds 18 1007 37 10000 8.23 130 16:21 11.05.2021
4084 Clouds 18 1007 37 10000 8.23 130 15:43 11.05.2021
4085 Clouds 19 1006 37 10000 6.69 120 15:19 11.05.2021
4086 Clouds 19 1007 40 10000 7.2 90 14:43 11.05.2021
4087 Clouds 19 1008 42 10000 7.72 90 14:23 11.05.2021
4088 Clouds 18 1008 42 10000 8.23 50 13:47 11.05.2021
4089 Clouds 19 1007 37 10000 7.72 40 13:23 11.05.2021
4090 Clouds 19 1008 37 10000 8.75 110 12:54 11.05.2021
4091 Clouds 19 1008 37 10000 8.75 110 12:33 11.05.2021
4092 Clouds 19 1008 37 10000 8.75 110 11:49 11.05.2021
4093 Clouds 20 1008 37 10000 7.2 110 11:30 11.05.2021
4094 Clouds 20 1008 40 10000 6.69 110 10:54 11.05.2021
4095 Clouds 19 1008 40 10000 6.69 110 10:32 11.05.2021
4096 Clouds 20 1008 42 10000 7.72 130 09:59 11.05.2021
4097 Clouds 19 1008 42 10000 7.72 130 09:39 11.05.2021
4098 Clouds 19 1008 40 10000 5.66 120 09:21 11.05.2021
4099 Clouds 20 1008 42 10000 6.69 140 08:47 11.05.2021
4100 Clouds 20 1008 42 10000 8.75 130 08:29 11.05.2021
4101 Clouds 20 1008 42 10000 9.77 130 07:53 11.05.2021
4102 Clouds 16 1007 40 10000 8.75 140 07:24 11.05.2021
4103 Clouds 16 1008 40 10000 8.75 130 05:42 11.05.2021
4104 Clouds 17 1010 37 10000 10.29 130 00:55 11.05.2021
4105 Clouds 17 1010 37 10000 10.29 130 00:36 11.05.2021
4106 Clouds 17 1010 37 10000 8.75 130 23:46 10.05.2021
4107 Clouds 18 1010 37 10000 7.72 130 23:21 10.05.2021
4108 Clouds 19 1010 35 10000 7.72 120 22:43 10.05.2021
4109 Clouds 19 1010 35 10000 7.72 120 22:19 10.05.2021
4110 Clouds 19 1010 35 10000 7.2 130 21:47 10.05.2021
4111 Clouds 20 1009 33 10000 8.23 130 21:26 10.05.2021
4112 Clouds 23 1010 33 10000 8.23 120 20:43 10.05.2021
4113 Clouds 23 1010 33 10000 8.75 130 20:20 10.05.2021
4114 Clouds 23 1010 33 10000 7.72 130 19:45 10.05.2021
4115 Clouds 23 1010 33 10000 6.69 120 19:24 10.05.2021
4116 Clouds 24 1010 33 10000 7.2 130 18:55 10.05.2021
4117 Clouds 23 1011 33 10000 6.69 130 18:26 10.05.2021
4118 Clouds 23 1011 33 10000 7.72 130 17:46 10.05.2021
4119 Clouds 23 1011 33 10000 6.69 120 17:28 10.05.2021
4120 Clouds 24 1011 31 10000 7.2 140 16:52 10.05.2021
4121 Clouds 24 1011 31 10000 7.2 130 16:26 10.05.2021
4122 Clouds 24 1011 29 10000 7.2 140 15:41 10.05.2021
4123 Clouds 24 1011 31 10000 8.75 130 15:22 10.05.2021
4124 Clouds 22 1011 31 10000 5.14 0 14:53 10.05.2021
4125 Clouds 22 1011 29 10000 7.72 140 14:25 10.05.2021
4126 Clouds 22 1012 29 10000 5.14 0 13:47 10.05.2021
4127 Clouds 22 1012 33 10000 6.69 0 12:52 10.05.2021
4128 Clouds 22 1012 33 10000 6.69 0 12:30 10.05.2021
4129 Clouds 21 1012 33 10000 9.26 130 11:48 10.05.2021
4130 Clouds 22 1013 37 10000 9.77 120 11:27 10.05.2021
4131 Clouds 20 1013 37 10000 8.23 130 10:50 10.05.2021
4132 Clouds 20 1014 40 10000 8.23 130 10:31 10.05.2021
4133 Clouds 21 1014 40 10000 4.12 0 09:53 10.05.2021
4134 Clouds 19 1014 42 10000 3.6 0 09:29 10.05.2021
4135 Clouds 17 1014 51 10000 3.09 0 08:41 10.05.2021
4136 Clouds 14 1014 67 10000 3.09 260 08:18 10.05.2021
4137 Clouds 15 1014 62 10000 3.09 240 07:41 10.05.2021
4138 Clouds 15 1013 55 10000 3.6 270 07:23 10.05.2021
4139 Clouds 19 1013 42 10000 4.12 0 06:43 10.05.2021
4140 Clouds 19 1013 42 10000 4.12 0 01:35 10.05.2021
4141 Clouds 20 1012 40 10000 5.14 0 00:18 10.05.2021
4142 Clear 21 1012 37 10000 6.17 120 22:46 09.05.2021
4143 Clear 21 1012 37 10000 5.66 0 22:22 09.05.2021
4144 Clear 21 1011 35 10000 6.69 0 21:50 09.05.2021
4145 Clear 21 1011 35 10000 6.69 0 21:32 09.05.2021
4146 Clear 22 1011 33 10000 6.69 150 20:44 09.05.2021
4147 Clear 23 1010 31 10000 7.72 160 20:25 09.05.2021
4148 Clear 24 1010 27 10000 8.23 120 19:45 09.05.2021
4149 Clear 23 1010 25 10000 5.14 160 19:24 09.05.2021
4150 Clear 24 1010 25 10000 7.72 110 18:49 09.05.2021
4151 Clear 23 1010 22 10000 7.72 110 18:25 09.05.2021
4152 Clear 25 1010 22 10000 7.72 120 17:37 09.05.2021
4153 Clear 26 1011 21 10000 8.75 120 16:43 09.05.2021
4154 Clear 26 1011 22 10000 10.29 120 16:23 09.05.2021
4155 Clear 25 1011 22 10000 8.75 140 15:24 09.05.2021
4156 Clear 24 1011 22 10000 7.2 130 14:57 09.05.2021
4157 Clear 24 1012 22 10000 7.72 130 14:26 09.05.2021
4158 Clear 24 1012 25 10000 6.17 110 13:41 09.05.2021
4159 Clear 24 1014 35 10000 4.12 270 12:52 09.05.2021
4160 Clear 22 1014 35 10000 4.12 260 12:27 09.05.2021
4161 Clear 19 1015 39 10000 6.17 260 11:24 09.05.2021
4162 Clear 18 1016 42 10000 5.14 260 10:59 09.05.2021
4163 Clear 17 1016 42 10000 5.14 260 10:37 09.05.2021
4164 Clear 13 1017 54 10000 5.66 260 09:43 09.05.2021
4165 Clear 14 1017 58 10000 3.6 280 09:22 09.05.2021
4166 Clear 12 1018 62 10000 3.6 270 08:54 09.05.2021
4167 Clear 11 1018 66 10000 3.09 270 08:28 09.05.2021
4168 Clear 10 1018 76 10000 3.09 290 07:49 09.05.2021
4169 Clear 8 1018 81 10000 2.57 310 06:45 09.05.2021
4170 Clouds 8 1018 71 10000 2.06 0 04:43 09.05.2021
4171 Clouds 10 1017 58 10000 1.54 0 00:43 09.05.2021
4172 Clouds 11 1017 50 10000 2.57 0 23:34 08.05.2021
4173 Clouds 13 1016 44 10000 2.57 80 22:57 08.05.2021
4174 Clouds 13 1016 44 10000 2.57 80 22:37 08.05.2021
4175 Clouds 15 1016 36 10000 3.09 90 22:18 08.05.2021
4176 Clouds 17 1016 36 10000 3.09 80 21:43 08.05.2021
4177 Clouds 18 1016 32 10000 4.12 80 21:18 08.05.2021
4178 Clouds 18 1015 34 10000 3.6 60 20:37 08.05.2021
4179 Clouds 20 1015 24 10000 4.63 130 19:57 08.05.2021
4180 Clouds 18 1014 22 10000 3.6 150 19:22 08.05.2021
4181 Clouds 19 1014 23 10000 2.57 150 18:51 08.05.2021
4182 Clear 20 1014 20 10000 1.03 0 18:31 08.05.2021
4183 Clear 20 1014 23 10000 2.06 0 17:49 08.05.2021
4184 Clear 20 1015 23 10000 2.06 0 16:52 08.05.2021
4185 Clear 19 1015 21 10000 1.54 0 16:28 08.05.2021
4186 Clear 19 1016 22 10000 1.03 0 15:46 08.05.2021
4187 Clear 19 1016 22 10000 0.51 0 15:23 08.05.2021
4188 Clear 18 1017 26 10000 1.03 0 14:40 08.05.2021
4189 Clear 17 1017 27 10000 1.54 0 14:19 08.05.2021
4190 Clear 15 1018 36 10000 1.54 0 13:28 08.05.2021
4191 Clear 14 1019 38 10000 1.54 0 12:59 08.05.2021
4192 Clear 14 1019 44 10000 1.54 0 12:29 08.05.2021
4193 Clear 12 1020 40 10000 1.03 0 11:40 08.05.2021
4194 Clear 10 1020 49 10000 1.03 0 10:58 08.05.2021
4195 Clear 10 1020 49 10000 1.03 0 10:38 08.05.2021
4196 Clear 9 1021 53 10000 1.54 240 10:19 08.05.2021
4197 Clear 7 1021 61 10000 2.06 250 09:46 08.05.2021
4198 Clear 7 1021 65 10000 2.57 250 09:26 08.05.2021
4199 Clear 4 1022 81 10000 2.06 280 08:24 08.05.2021
4200 Clear 2 1022 87 10000 1.54 260 07:40 08.05.2021
4201 Clear 1 1022 80 10000 1.54 260 06:42 08.05.2021
4202 Clouds 1 1022 80 10000 0.51 0 04:40 08.05.2021
4203 Clouds 3 1021 70 10000 1.03 0 01:38 08.05.2021
4204 Clouds 4 1021 65 10000 1.03 0 00:40 08.05.2021
4205 Clouds 4 1020 60 10000 1.54 100 23:56 07.05.2021
4206 Clouds 5 1020 49 10000 1.03 0 23:24 07.05.2021
4207 Clouds 5 1019 49 10000 1.03 0 22:46 07.05.2021
4208 Clouds 7 1018 32 10000 4.12 280 21:55 07.05.2021
4209 Clouds 8 1017 34 10000 5.14 280 21:32 07.05.2021
4210 Clouds 10 1017 34 10000 2.06 0 20:55 07.05.2021
4211 Clouds 10 1017 34 10000 2.06 0 20:36 07.05.2021
4212 Clouds 10 1016 28 10000 6.69 260 19:59 07.05.2021
4213 Clouds 10 1016 28 10000 6.69 260 19:34 07.05.2021
4214 Clouds 10 1015 38 10000 5.66 270 18:55 07.05.2021
4215 Clouds 11 1015 38 10000 5.66 270 18:37 07.05.2021
4216 Clouds 11 1015 35 10000 7.72 260 18:18 07.05.2021
4217 Clouds 10 1014 38 10000 7.2 260 17:22 07.05.2021
4218 Clouds 11 1013 41 10000 4.12 220 16:44 07.05.2021
4219 Clouds 12 1013 41 10000 9.26 270 16:24 07.05.2021
4220 Clouds 12 1013 47 10000 5.66 240 15:50 07.05.2021
4221 Clouds 10 1012 41 10000 7.2 260 15:31 07.05.2021
4222 Clouds 11 1011 41 10000 7.2 260 14:50 07.05.2021
4223 Rain 11 1011 41 10000 9.77 260 14:27 07.05.2021
4224 Rain 10 1010 44 10000 9.26 250 13:44 07.05.2021
4225 Clouds 10 1010 50 10000 7.2 280 13:18 07.05.2021
4226 Rain 11 1008 51 10000 2.06 180 12:38 07.05.2021
4227 Clouds 12 1008 55 10000 1.03 0 12:19 07.05.2021
4228 Clouds 12 1008 58 10000 2.57 30 11:45 07.05.2021
4229 Clouds 12 1008 58 10000 2.57 30 11:45 07.05.2021
4230 Clouds 12 1009 58 10000 1.03 0 11:18 07.05.2021
4231 Clouds 12 1009 67 10000 1.03 0 10:40 07.05.2021
4232 Clouds 10 1009 71 10000 1.03 0 10:19 07.05.2021
4233 Rain 9 1009 76 10000 1.03 0 09:32 07.05.2021
4234 Clouds 9 1010 87 10000 2.06 270 08:50 07.05.2021
4235 Clouds 8 1009 87 10000 1.03 0 08:27 07.05.2021
4236 Clouds 7 1009 93 10000 0.51 0 06:50 07.05.2021
4237 Rain 7 1008 93 10000 1.54 50 05:44 07.05.2021
4238 Clouds 8 1008 87 10000 0.51 0 02:59 07.05.2021
4239 Rain 9 1008 81 10000 8.75 260 23:44 06.05.2021
4240 Rain 10 1007 76 10000 6.17 270 22:40 06.05.2021
4241 Rain 10 1007 54 10000 4.63 250 21:52 06.05.2021
4242 Clouds 11 1006 50 10000 1.03 0 20:52 06.05.2021
4243 Clouds 11 1006 50 10000 1.54 90 20:29 06.05.2021
4244 Rain 11 1006 54 10000 1.03 0 19:58 06.05.2021
4245 Rain 11 1006 54 10000 1.03 0 19:39 06.05.2021
4246 Rain 11 1006 47 10000 0.51 0 19:18 06.05.2021
4247 Rain 12 1006 47 10000 1.03 80 18:47 06.05.2021
4248 Rain 12 1006 47 10000 2.06 60 18:23 06.05.2021
4249 Clouds 12 1006 44 10000 0.51 0 17:39 06.05.2021
4250 Clouds 13 1006 51 10000 1.03 0 17:20 06.05.2021
4251 Clouds 13 1006 51 10000 1.54 30 16:48 06.05.2021
4252 Clouds 13 1007 44 10000 1.03 0 16:26 06.05.2021
4253 Clouds 13 1007 47 10000 2.06 50 15:45 06.05.2021
4254 Clouds 13 1008 47 10000 2.06 0 15:27 06.05.2021
4255 Clouds 13 1008 50 10000 2.57 80 14:37 06.05.2021
4256 Clouds 13 1009 50 10000 4.12 60 14:19 06.05.2021
4257 Clouds 12 1010 50 10000 3.09 60 13:37 06.05.2021
4258 Clouds 12 1010 54 10000 1.03 0 13:18 06.05.2021
4259 Clouds 12 1010 54 10000 1.03 0 13:18 06.05.2021
4260 Clouds 12 1010 54 10000 1.03 0 13:18 06.05.2021
4261 Clouds 11 1010 54 10000 1.54 0 12:35 06.05.2021
4262 Clouds 10 1011 54 10000 2.06 110 11:49 06.05.2021
4263 Clouds 10 1011 57 10000 2.06 50 11:28 06.05.2021
4264 Clouds 9 1012 66 10000 2.06 0 10:53 06.05.2021
4265 Clouds 8 1012 66 10000 2.57 80 10:31 06.05.2021
4266 Clouds 7 1013 76 10000 2.06 80 09:58 06.05.2021
4267 Clouds 7 1013 76 10000 1.54 90 09:33 06.05.2021
4268 Clouds 6 1013 81 10000 1.03 0 08:57 06.05.2021
4269 Clouds 5 1013 81 10000 1.03 0 08:25 06.05.2021
4270 Clouds 5 1013 81 10000 2.06 90 07:57 06.05.2021
4271 Clouds 4 1014 87 10000 1.03 0 07:35 06.05.2021
4272 Clouds 3 1014 93 10000 0.51 0 06:29 06.05.2021
4273 Clouds 4 1014 87 10000 1.03 130 05:51 06.05.2021
4274 Clouds 4 1014 87 10000 1.03 90 04:46 06.05.2021
4275 Clouds 5 1015 81 10000 1.03 0 02:52 06.05.2021
4276 Clouds 6 1014 81 10000 0.51 0 00:56 06.05.2021
4277 Clouds 5 1014 81 10000 1.03 0 22:54 05.05.2021
4278 Clouds 5 1013 75 10000 0.51 0 22:25 05.05.2021
4279 Clouds 6 1013 76 10000 0.51 0 21:47 05.05.2021
4280 Clouds 6 1012 70 10000 2.06 20 21:26 05.05.2021
4281 Clouds 7 1012 66 10000 2.57 70 20:37 05.05.2021
4282 Clouds 8 1011 71 10000 2.57 0 19:59 05.05.2021
4283 Clouds 8 1011 71 10000 2.57 0 19:37 05.05.2021
4284 Clouds 8 1010 71 10000 3.6 80 19:37 05.05.2021
4285 Clouds 8 1011 71 10000 2.57 0 19:37 05.05.2021
4286 Clouds 8 1010 71 10000 3.6 80 19:19 05.05.2021
4287 Clouds 9 1010 66 10000 3.09 70 18:23 05.05.2021
4288 Clouds 8 1010 71 10000 3.09 90 17:55 05.05.2021
4289 Clouds 8 1010 71 10000 4.12 90 17:30 05.05.2021
4290 Rain 8 1010 71 10000 4.12 80 16:59 05.05.2021
4291 Rain 8 1010 71 10000 4.12 80 16:38 05.05.2021
4292 Rain 8 1009 76 10000 4.63 70 16:20 05.05.2021
4293 Clouds 8 1008 76 10000 6.69 70 15:24 05.05.2021
4294 Clouds 7 1008 87 10000 4.63 70 14:45 05.05.2021
4295 Rain 7 1008 76 10000 2.57 290 14:26 05.05.2021
4296 Rain 6 1007 81 10000 3.6 250 13:53 05.05.2021
4297 Rain 7 1006 81 10000 5.66 240 13:26 05.05.2021
4298 Rain 8 1006 76 10000 6.17 240 12:38 05.05.2021
4299 Rain 10 1005 71 10000 4.63 80 12:18 05.05.2021
4300 Clouds 11 1004 54 10000 2.06 0 11:42 05.05.2021
4301 Rain 11 1003 54 10000 2.57 110 11:23 05.05.2021
4302 Clouds 12 1003 54 10000 3.09 70 10:44 05.05.2021
4303 Clouds 10 1003 54 10000 3.09 70 10:44 05.05.2021
4304 Clouds 11 1004 62 10000 2.57 260 09:54 05.05.2021
4305 Clouds 11 1004 62 10000 2.57 260 09:35 05.05.2021
4306 Clouds 10 1004 71 10000 3.09 230 08:45 05.05.2021
4307 Clouds 10 1004 66 10000 6.69 250 08:26 05.05.2021
4308 Clouds 9 1004 66 10000 5.14 230 07:49 05.05.2021
4309 Clouds 8 1004 66 10000 4.12 240 07:23 05.05.2021
4310 Clouds 7 1004 76 10000 1.54 0 06:39 05.05.2021
4311 Clouds 10 1006 47 10000 2.57 0 02:21 05.05.2021
4312 Clouds 12 1007 44 10000 3.6 150 00:50 05.05.2021
4313 Clouds 15 1007 44 10000 2.57 0 23:39 04.05.2021
4314 Clouds 16 1007 41 10000 3.09 0 22:57 04.05.2021
4315 Clouds 16 1007 41 10000 3.09 0 22:39 04.05.2021
4316 Clouds 16 1007 41 10000 3.6 90 22:18 04.05.2021
4317 Rain 16 1007 41 10000 5.66 80 21:42 04.05.2021
4318 Rain 16 1007 41 10000 5.66 140 21:19 04.05.2021
4319 Rain 17 1006 36 10000 3.6 0 20:44 04.05.2021
4320 Rain 15 1006 36 10000 4.63 130 20:23 04.05.2021
4321 Clouds 17 1006 36 10000 5.14 130 19:44 04.05.2021
4322 Clouds 16 1006 34 10000 4.12 100 19:25 04.05.2021
4323 Clouds 16 1007 34 10000 4.63 110 18:53 04.05.2021
4324 Clouds 16 1007 34 10000 4.63 110 18:32 04.05.2021
4325 Clouds 17 1007 32 10000 6.17 130 17:50 04.05.2021
4326 Clouds 17 1008 34 10000 7.72 120 17:25 04.05.2021
4327 Clear 17 1008 34 10000 7.72 130 16:48 04.05.2021
4328 Clear 18 1009 32 10000 6.69 120 16:22 04.05.2021
4329 Clear 17 1009 34 10000 6.17 130 15:46 04.05.2021
4330 Clear 16 1010 34 10000 7.2 130 15:20 04.05.2021
4331 Clear 16 1010 34 10000 5.66 120 14:29 04.05.2021
4332 Clear 16 1010 33 10000 6.69 140 13:41 04.05.2021
4333 Clear 16 1011 36 10000 5.66 130 13:21 04.05.2021
4334 Clouds 16 1011 33 10000 5.66 0 12:53 04.05.2021
4335 Clouds 15 1012 33 10000 7.2 140 12:27 04.05.2021
4336 Clouds 15 1012 33 10000 1.54 0 11:45 04.05.2021
4337 Clouds 14 1013 44 10000 5.66 240 11:24 04.05.2021
4338 Clouds 13 1013 44 10000 6.69 260 10:43 04.05.2021
4339 Clouds 13 1013 50 10000 5.14 270 10:22 04.05.2021
4340 Clouds 11 1014 53 10000 5.66 260 09:41 04.05.2021
4341 Clouds 9 1014 61 10000 5.66 260 09:19 04.05.2021
4342 Clouds 7 1015 70 10000 4.12 260 08:43 04.05.2021
4343 Clouds 6 1015 75 10000 3.6 270 08:19 04.05.2021
4344 Clouds 4 1016 75 10000 4.63 240 07:44 04.05.2021
4345 Clouds 3 1016 81 10000 3.6 230 06:41 04.05.2021
4346 Clouds 3 1016 80 10000 1.54 200 06:18 04.05.2021
4347 Clouds 4 1017 81 10000 2.06 240 03:57 04.05.2021
4348 Clouds 4 1018 75 10000 1.03 0 01:33 04.05.2021
4349 Clouds 5 1018 75 10000 1.54 200 23:52 03.05.2021
4350 Clouds 5 1018 70 10000 2.06 190 23:30 03.05.2021
4351 Clouds 5 1018 70 10000 2.06 190 23:30 03.05.2021
4352 Clear 6 1018 66 10000 1.54 200 22:39 03.05.2021
4353 Clear 6 1018 66 10000 1.54 200 22:39 03.05.2021
4354 Clear 6 1018 61 10000 1.03 0 22:21 03.05.2021
4355 Clear 7 1018 61 10000 1.03 0 21:42 03.05.2021
4356 Clear 9 1018 54 10000 2.57 100 21:22 03.05.2021
4357 Clear 9 1018 54 10000 2.57 100 21:22 03.05.2021
4358 Clear 11 1017 54 10000 2.57 70 20:49 03.05.2021
4359 Clear 10 1017 54 10000 3.6 50 20:29 03.05.2021
4360 Clear 14 1017 38 10000 4.63 90 19:46 03.05.2021
4361 Clear 13 1017 35 10000 5.14 80 19:27 03.05.2021
4362 Clouds 13 1017 35 10000 6.17 60 18:37 03.05.2021
4363 Clouds 15 1017 23 10000 1.54 0 17:53 03.05.2021
4364 Clouds 15 1017 27 10000 1.54 0 17:33 03.05.2021
4365 Clouds 14 1018 27 10000 2.06 0 16:52 03.05.2021
4366 Clouds 13 1018 31 10000 2.06 0 16:24 03.05.2021
4367 Clouds 13 1019 25 10000 2.57 250 15:49 03.05.2021
4368 Clouds 12 1019 33 10000 1.54 0 15:23 03.05.2021
4369 Clouds 13 1020 35 10000 2.57 0 14:22 03.05.2021
4370 Clouds 13 1020 38 10000 2.06 240 13:57 03.05.2021
4371 Clouds 11 1021 38 10000 2.06 0 13:33 03.05.2021
4372 Clouds 12 1021 40 10000 2.06 0 12:56 03.05.2021
4373 Clouds 11 1022 47 10000 1.54 0 12:29 03.05.2021
4374 Clouds 10 1022 46 10000 1.03 0 11:50 03.05.2021
4375 Clouds 8 1022 50 10000 1.54 260 11:31 03.05.2021
4376 Clouds 8 1022 57 10000 1.54 0 10:50 03.05.2021
4377 Clouds 7 1023 66 10000 1.03 0 10:31 03.05.2021
4378 Clouds 6 1023 66 10000 1.54 0 09:55 03.05.2021
4379 Clouds 5 1023 81 10000 1.03 0 09:26 03.05.2021
4380 Clouds 4 1023 87 10000 0.51 0 08:43 03.05.2021
4381 Clouds 4 1023 87 10000 0.51 0 08:24 03.05.2021
4382 Clouds 4 1022 93 10000 1.03 0 07:36 03.05.2021
4383 Clouds 3 1022 93 10000 1.03 0 06:33 03.05.2021
4384 Drizzle 5 1021 93 10000 0.51 0 05:54 03.05.2021
4385 Clouds 4 1020 93 10000 0.51 0 01:54 03.05.2021
4386 Rain 5 1020 87 10000 1.54 290 00:20 03.05.2021
4387 Clouds 6 1019 66 10000 2.57 100 23:26 02.05.2021
4388 Clouds 6 1019 71 10000 1.03 0 22:49 02.05.2021
4389 Clouds 6 1018 66 10000 1.03 0 22:31 02.05.2021
4390 Clouds 6 1018 66 10000 1.03 0 22:31 02.05.2021
4391 Clouds 5 1018 70 10000 1.03 0 21:57 02.05.2021
4392 Clouds 6 1017 66 10000 1.03 170 21:33 02.05.2021
4393 Clouds 7 1017 61 10000 1.03 0 20:48 02.05.2021
4394 Clouds 7 1016 57 10000 3.09 120 20:23 02.05.2021
4395 Clouds 8 1016 53 10000 3.09 90 19:41 02.05.2021
4396 Clouds 9 1016 53 10000 4.12 100 19:22 02.05.2021
4397 Clouds 9 1016 57 10000 3.09 120 18:45 02.05.2021
4398 Clouds 10 1016 54 10000 3.6 70 18:26 02.05.2021
4399 Clouds 9 1016 50 10000 3.6 80 17:48 02.05.2021
4400 Clouds 9 1015 54 10000 3.6 70 17:29 02.05.2021
4401 Clouds 9 1015 54 10000 4.63 90 16:58 02.05.2021
4402 Clouds 9 1015 54 10000 4.63 90 16:39 02.05.2021
4403 Clouds 9 1015 54 10000 5.14 90 16:19 02.05.2021
4404 Clouds 9 1015 58 10000 5.14 90 15:42 02.05.2021
4405 Clouds 10 1015 54 10000 2.57 80 15:23 02.05.2021
4406 Clouds 10 1015 54 10000 2.57 80 15:23 02.05.2021
4407 Clouds 9 1015 54 10000 2.06 0 14:39 02.05.2021
4408 Clouds 9 1015 54 10000 2.06 0 14:20 02.05.2021
4409 Clouds 8 1015 62 10000 4.12 80 13:45 02.05.2021
4410 Clouds 8 1015 71 10000 4.12 80 13:21 02.05.2021
4411 Clouds 7 1014 71 10000 5.14 90 12:43 02.05.2021
4412 Clouds 9 1014 71 10000 5.66 70 12:22 02.05.2021
4413 Clouds 9 1014 50 10000 1.03 0 11:49 02.05.2021
4414 Clouds 9 1014 54 10000 1.54 230 11:30 02.05.2021
4415 Clouds 8 1013 66 10000 1.54 0 10:51 02.05.2021
4416 Clouds 8 1014 66 10000 1.54 270 10:21 02.05.2021
4417 Clouds 8 1013 66 10000 1.03 0 09:45 02.05.2021
4418 Clouds 7 1013 71 10000 2.06 240 09:26 02.05.2021
4419 Rain 7 1013 76 10000 3.09 270 08:52 02.05.2021
4420 Clouds 7 1012 76 10000 2.57 260 08:28 02.05.2021
4421 Rain 7 1012 81 10000 2.06 210 07:38 02.05.2021
4422 Rain 6 1011 87 10000 2.57 280 06:50 02.05.2021
4423 Rain 7 1009 81 10000 1.03 0 05:20 02.05.2021
4424 Rain 7 1005 76 10000 8.75 240 01:38 02.05.2021
4425 Rain 9 1004 87 7000 1.03 200 23:48 01.05.2021
4426 Rain 10 1004 82 10000 1.03 0 23:28 01.05.2021
4427 Rain 11 1004 82 10000 1.54 90 22:53 01.05.2021
4428 Clouds 11 1004 82 10000 2.06 100 22:30 01.05.2021
4429 Clouds 12 1004 71 10000 2.57 80 21:55 01.05.2021
4430 Clouds 11 1004 71 10000 2.57 80 21:37 01.05.2021
4431 Clouds 12 1004 71 10000 3.09 70 21:19 01.05.2021
4432 Clouds 12 1004 71 10000 3.6 80 20:40 01.05.2021
4433 Clouds 12 1004 67 10000 5.14 80 20:22 01.05.2021
4434 Clouds 12 1004 67 10000 6.69 70 19:48 01.05.2021
4435 Clouds 12 1004 72 10000 8.23 60 19:28 01.05.2021
4436 Clouds 12 1004 67 10000 7.2 70 18:44 01.05.2021
4437 Clouds 14 1004 63 10000 7.72 60 18:21 01.05.2021
4438 Clouds 15 1004 52 10000 7.2 0 17:37 01.05.2021
4439 Clouds 15 1004 55 10000 6.69 50 16:58 01.05.2021
4440 Clouds 15 1004 55 10000 6.69 50 16:39 01.05.2021
4441 Clouds 15 1004 55 10000 5.14 90 16:21 01.05.2021
4442 Clouds 17 1004 48 10000 6.69 90 15:19 01.05.2021
4443 Clouds 18 1006 55 10000 2.57 0 13:59 01.05.2021
4444 Clouds 14 1006 59 10000 2.06 260 13:26 01.05.2021
4445 Clouds 14 1007 63 10000 2.57 240 12:52 01.05.2021
4446 Clouds 14 1007 63 10000 2.57 240 12:52 01.05.2021
4447 Clouds 15 1007 63 10000 2.57 230 12:25 01.05.2021
4448 Clouds 15 1008 63 10000 2.57 230 11:53 01.05.2021
4449 Clouds 14 1008 62 10000 2.06 210 11:34 01.05.2021
4450 Clouds 11 1009 67 10000 1.54 250 10:58 01.05.2021
4451 Clouds 13 1009 67 10000 2.57 80 10:30 01.05.2021
4452 Clouds 10 1010 71 10000 3.09 100 09:43 01.05.2021
4453 Clouds 10 1010 71 10000 4.12 80 09:24 01.05.2021
4454 Clouds 10 1011 76 10000 3.6 100 08:31 01.05.2021
4455 Clouds 9 1011 76 10000 3.6 80 07:39 01.05.2021
4456 Clouds 9 1011 76 10000 2.57 90 06:18 01.05.2021
4457 Clouds 9 1011 76 10000 2.57 90 06:18 01.05.2021
4458 Clouds 9 1012 76 10000 2.06 70 03:42 01.05.2021
4459 Clouds 10 1011 71 10000 4.12 70 00:32 01.05.2021
4460 Clouds 10 1010 67 10000 1.54 0 23:57 30.04.2021
4461 Clouds 10 1009 67 10000 2.57 280 22:56 30.04.2021
4462 Clouds 11 1009 67 10000 2.57 280 22:37 30.04.2021
4463 Clouds 11 1008 67 10000 4.12 260 22:18 30.04.2021
4464 Clouds 12 1008 62 10000 1.54 220 21:43 30.04.2021
4465 Clouds 13 1007 45 10000 3.6 170 21:23 30.04.2021
4466 Clouds 14 1006 48 10000 7.72 140 20:41 30.04.2021
4467 Clouds 15 1006 42 10000 6.69 150 19:57 30.04.2021
4468 Clouds 15 1006 42 10000 6.69 150 19:57 30.04.2021
4469 Clouds 16 1006 42 10000 5.66 130 19:19 30.04.2021
4470 Clouds 17 1006 42 10000 5.66 0 18:43 30.04.2021
4471 Clouds 17 1006 48 10000 6.17 120 18:23 30.04.2021
4472 Clouds 19 1006 45 10000 7.2 140 17:47 30.04.2021
4473 Clouds 19 1006 42 10000 6.69 150 17:22 30.04.2021
4474 Clouds 19 1006 45 10000 7.2 110 16:51 30.04.2021
4475 Clouds 19 1006 42 10000 6.69 130 16:28 30.04.2021
4476 Clouds 20 1006 40 10000 6.69 0 15:41 30.04.2021
4477 Clouds 19 1006 42 10000 7.2 120 15:19 30.04.2021
4478 Clouds 20 1006 42 10000 6.69 130 14:45 30.04.2021
4479 Clouds 19 1007 52 10000 2.06 0 14:23 30.04.2021
4480 Clouds 19 1007 52 10000 2.06 0 14:23 30.04.2021
4481 Clouds 17 1008 63 10000 2.57 260 13:47 30.04.2021
4482 Clouds 16 1009 63 10000 2.57 260 13:27 30.04.2021
4483 Clouds 14 1009 58 10000 2.06 180 12:42 30.04.2021
4484 Clouds 14 1010 67 10000 2.57 0 12:24 30.04.2021
4485 Clouds 12 1011 76 10000 1.54 110 11:24 30.04.2021
4486 Clouds 10 1011 82 10000 1.54 80 10:52 30.04.2021
4487 Clouds 10 1011 82 10000 1.03 0 10:34 30.04.2021
4488 Clouds 8 1012 81 10000 0.51 0 09:57 30.04.2021
4489 Clouds 8 1012 87 10000 1.54 250 09:27 30.04.2021
4490 Clouds 9 1012 87 10000 2.06 250 08:41 30.04.2021
4491 Clouds 8 1012 93 10000 0.29 41 07:45 30.04.2021
4492 Clouds 8 1011 87 10000 0.51 0 07:23 30.04.2021
4493 Clouds 8 1011 87 10000 0.51 0 06:49 30.04.2021
4494 Clouds 8 1011 93 9000 0.51 0 06:24 30.04.2021
4495 Rain 8 1011 87 10000 2.06 90 05:27 30.04.2021
4496 Rain 8 1012 93 10000 1.03 0 02:47 30.04.2021
4497 Rain 8 1011 87 10000 1.03 0 01:40 30.04.2021
4498 Rain 9 1010 87 9000 1.54 190 23:45 29.04.2021
4499 Rain 9 1010 82 10000 2.57 240 23:24 29.04.2021
4500 Rain 9 1009 82 10000 4.12 270 22:42 29.04.2021
4501 Rain 11 1009 62 10000 3.09 0 22:22 29.04.2021
4502 Clouds 11 1008 58 10000 2.06 280 21:44 29.04.2021
4503 Clouds 11 1008 62 10000 3.09 250 21:24 29.04.2021
4504 Clouds 11 1008 62 10000 3.09 250 21:24 29.04.2021
4505 Clouds 11 1007 58 10000 3.09 270 20:48 29.04.2021
4506 Clouds 12 1007 58 10000 4.63 250 20:29 29.04.2021
4507 Clouds 12 1007 58 10000 4.63 250 20:29 29.04.2021
4508 Clouds 12 1006 54 10000 5.14 250 19:58 29.04.2021
4509 Clouds 12 1006 54 10000 5.14 250 19:39 29.04.2021
4510 Clouds 13 1006 51 10000 3.6 240 19:20 29.04.2021
4511 Clouds 15 1006 55 10000 5.66 250 18:42 29.04.2021
4512 Clouds 17 1005 48 10000 6.17 250 17:50 29.04.2021
4513 Clouds 17 1005 51 10000 5.66 260 17:31 29.04.2021
4514 Clouds 18 1005 42 10000 4.12 160 16:57 29.04.2021
4515 Clouds 18 1005 42 10000 4.12 160 16:38 29.04.2021
4516 Clouds 18 1004 39 10000 7.72 120 16:19 29.04.2021
4517 Clouds 18 1004 42 10000 8.23 120 15:42 29.04.2021
4518 Clouds 18 1005 42 10000 8.23 120 15:22 29.04.2021
4519 Clouds 18 1005 42 10000 8.23 100 14:43 29.04.2021
4520 Clouds 18 1005 42 10000 8.75 110 14:18 29.04.2021
4521 Clouds 19 1005 39 10000 7.72 110 13:39 29.04.2021
4522 Clouds 15 1005 39 10000 7.72 140 12:58 29.04.2021
4523 Clouds 15 1005 39 10000 7.72 140 12:32 29.04.2021
4524 Clouds 15 1006 45 10000 1.54 0 11:58 29.04.2021
4525 Clouds 15 1006 45 10000 1.54 0 11:39 29.04.2021
4526 Clouds 15 1006 48 10000 2.06 0 11:21 29.04.2021
4527 Clouds 15 1006 45 10000 2.57 0 10:43 29.04.2021
4528 Clouds 14 1006 48 10000 1.03 0 10:19 29.04.2021
4529 Clouds 12 1006 54 10000 3.6 270 09:39 29.04.2021
4530 Clouds 11 1006 62 10000 6.69 270 09:19 29.04.2021
4531 Clouds 13 1006 66 10000 5.66 250 08:42 29.04.2021
4532 Clouds 12 1006 71 10000 4.12 240 08:22 29.04.2021
4533 Clouds 10 1006 71 10000 4.12 240 07:30 29.04.2021
4534 Clouds 9 1005 76 10000 4.12 260 06:42 29.04.2021
4535 Clouds 9 1005 54 10000 3.09 0 05:24 29.04.2021
4536 Clouds 12 1004 41 10000 4.12 150 00:35 29.04.2021
4537 Clouds 13 1004 39 10000 3.6 0 23:23 28.04.2021
4538 Clouds 13 1003 39 10000 4.12 140 22:54 28.04.2021
4539 Clouds 14 1003 36 10000 4.63 0 22:27 28.04.2021
4540 Clouds 14 1003 39 10000 3.6 150 21:51 28.04.2021
4541 Clouds 15 1003 36 10000 6.17 150 21:24 28.04.2021
4542 Clouds 18 1002 36 10000 5.66 140 20:59 28.04.2021
4543 Clouds 18 1002 36 10000 5.66 140 20:38 28.04.2021
4544 Clouds 16 1002 32 10000 6.69 150 20:20 28.04.2021
4545 Clouds 19 1002 32 10000 6.17 130 19:37 28.04.2021
4546 Clouds 17 1002 30 10000 5.14 130 19:18 28.04.2021
4547 Clouds 20 1002 26 10000 5.66 130 18:40 28.04.2021
4548 Clouds 19 1002 28 10000 5.66 130 18:19 28.04.2021
4549 Clouds 19 1002 28 10000 5.14 140 17:44 28.04.2021
4550 Clouds 19 1002 28 10000 5.14 130 17:24 28.04.2021
4551 Clouds 20 1002 28 10000 5.14 130 16:22 28.04.2021
4552 Clouds 19 1003 26 10000 4.63 130 15:48 28.04.2021
4553 Clouds 19 1003 28 10000 3.6 160 15:26 28.04.2021
4554 Clouds 19 1003 24 10000 4.12 160 14:42 28.04.2021
4555 Clouds 19 1003 28 10000 4.12 150 14:21 28.04.2021
4556 Clouds 19 1003 26 10000 5.14 150 13:56 28.04.2021
4557 Clouds 19 1003 32 10000 4.63 150 13:24 28.04.2021
4558 Clouds 18 1004 34 10000 2.57 330 12:54 28.04.2021
4559 Clouds 18 1004 39 10000 2.06 0 12:28 28.04.2021
4560 Clouds 18 1004 39 10000 1.54 0 11:46 28.04.2021
4561 Clouds 17 1005 42 10000 3.09 250 11:24 28.04.2021
4562 Clouds 16 1005 51 10000 4.63 250 10:42 28.04.2021
4563 Clouds 14 1006 54 10000 5.66 260 10:20 28.04.2021
4564 Clouds 13 1006 62 10000 4.63 260 09:52 28.04.2021
4565 Clouds 12 1006 66 10000 4.12 270 09:31 28.04.2021
4566 Clouds 10 1006 76 10000 4.63 260 08:52 28.04.2021
4567 Clouds 8 1006 81 10000 2.57 240 07:37 28.04.2021
4568 Clouds 7 1006 81 10000 3.6 250 07:18 28.04.2021
4569 Clouds 5 1006 81 10000 2.06 240 05:35 28.04.2021
4570 Clouds 8 1006 71 10000 2.06 230 03:28 28.04.2021
4571 Clouds 10 1006 66 10000 1.54 210 02:30 28.04.2021
4572 Clouds 11 1006 62 10000 1.03 0 00:39 28.04.2021
4573 Clouds 10 1005 58 10000 0.51 0 23:45 27.04.2021
4574 Clouds 10 1005 58 10000 1.03 0 23:21 27.04.2021
4575 Clouds 11 1005 54 10000 3.09 110 22:43 27.04.2021
4576 Clouds 11 1005 54 10000 2.06 90 22:24 27.04.2021
4577 Clouds 12 1004 51 10000 2.06 60 21:44 27.04.2021
4578 Clouds 13 1004 54 10000 3.6 50 21:23 27.04.2021
4579 Clouds 14 1003 44 10000 5.14 90 20:49 27.04.2021
4580 Clouds 14 1003 44 10000 5.14 70 20:31 27.04.2021
4581 Clouds 17 1002 42 10000 6.69 70 19:48 27.04.2021
4582 Clouds 15 1002 42 10000 7.2 60 19:25 27.04.2021
4583 Clouds 16 1002 32 10000 7.2 60 18:56 27.04.2021
4584 Clouds 16 1002 32 10000 7.2 60 18:33 27.04.2021
4585 Clouds 16 1002 32 10000 7.2 60 18:33 27.04.2021
4586 Clouds 20 1001 24 10000 4.12 10 17:52 27.04.2021
4587 Clouds 18 1002 28 10000 3.09 10 17:27 27.04.2021
4588 Clouds 20 1002 24 10000 3.09 0 16:48 27.04.2021
4589 Clouds 20 1002 24 10000 3.09 0 16:48 27.04.2021
4590 Clouds 21 1002 23 10000 1.54 0 16:28 27.04.2021
4591 Clouds 20 1002 26 10000 3.09 0 15:50 27.04.2021
4592 Clouds 18 1003 28 10000 2.57 0 15:29 27.04.2021
4593 Clouds 18 1003 27 10000 2.57 0 14:56 27.04.2021
4594 Clouds 18 1003 27 10000 2.57 0 14:38 27.04.2021
4595 Clouds 18 1004 30 10000 2.57 210 14:18 27.04.2021
4596 Clouds 17 1004 34 10000 1.54 0 13:39 27.04.2021
4597 Clouds 16 1005 41 10000 1.54 0 12:51 27.04.2021
4598 Clouds 15 1006 47 10000 1.54 0 12:24 27.04.2021
4599 Clouds 14 1006 54 10000 1.54 0 11:55 27.04.2021
4600 Clouds 12 1007 50 10000 1.03 0 11:25 27.04.2021
4601 Clouds 11 1007 54 10000 1.54 180 10:43 27.04.2021
4602 Clouds 10 1007 62 10000 1.54 0 10:19 27.04.2021
4603 Clouds 9 1008 61 10000 2.06 220 09:44 27.04.2021
4604 Clouds 7 1008 70 10000 1.54 250 08:51 27.04.2021
4605 Clouds 5 1009 75 10000 1.03 240 07:57 27.04.2021
4606 Clouds 4 1009 75 10000 1.03 240 07:34 27.04.2021
4607 Clouds 3 1008 81 10000 0.51 0 06:41 27.04.2021
4608 Clouds 4 1009 75 10000 0.51 0 05:56 27.04.2021
4609 Clouds 4 1009 70 10000 1.03 0 03:38 27.04.2021
4610 Clouds 7 1010 61 10000 2.06 180 01:43 27.04.2021
4611 Clouds 6 1011 57 10000 1.03 0 23:59 26.04.2021
4612 Clouds 7 1011 53 10000 1.54 0 23:31 26.04.2021
4613 Clouds 8 1011 50 10000 2.06 360 22:57 26.04.2021
4614 Clouds 8 1011 50 10000 2.06 360 22:35 26.04.2021
4615 Clouds 9 1010 50 10000 2.06 90 21:44 26.04.2021
4616 Clouds 9 1010 54 10000 2.57 50 21:25 26.04.2021
4617 Clouds 13 1010 47 10000 4.63 60 20:58 26.04.2021
4618 Clouds 13 1010 47 10000 4.63 60 20:39 26.04.2021
4619 Clouds 15 1009 41 10000 5.14 70 19:57 26.04.2021
4620 Clouds 14 1009 39 10000 5.14 70 19:37 26.04.2021
4621 Clouds 14 1009 39 10000 5.66 70 18:55 26.04.2021
4622 Clouds 15 1009 39 10000 5.66 70 18:35 26.04.2021
4623 Clouds 16 1010 42 10000 3.6 50 17:58 26.04.2021
4624 Clouds 16 1010 42 10000 3.6 50 17:40 26.04.2021
4625 Clouds 16 1010 42 10000 2.57 0 17:18 26.04.2021
4626 Clouds 17 1010 42 10000 2.06 0 16:43 26.04.2021
4627 Clouds 15 1011 41 10000 2.57 90 16:22 26.04.2021
4628 Clouds 15 1011 39 10000 3.6 120 15:40 26.04.2021
4629 Clouds 15 1012 44 10000 3.6 90 15:20 26.04.2021
4630 Clouds 14 1012 47 10000 4.12 80 14:46 26.04.2021
4631 Clouds 14 1012 41 10000 4.12 90 14:26 26.04.2021
4632 Clouds 14 1013 47 10000 4.63 100 13:45 26.04.2021
4633 Clouds 13 1013 47 10000 4.12 80 13:24 26.04.2021
4634 Clouds 12 1014 47 10000 4.12 80 12:34 26.04.2021
4635 Clouds 11 1014 50 10000 3.09 90 11:45 26.04.2021
4636 Clouds 11 1015 54 10000 2.57 90 11:22 26.04.2021
4637 Clouds 10 1015 54 10000 2.06 60 10:42 26.04.2021
4638 Clouds 9 1015 57 10000 1.03 0 10:20 26.04.2021
4639 Clouds 8 1015 61 10000 1.03 0 09:46 26.04.2021
4640 Clouds 8 1015 61 10000 0.51 0 09:22 26.04.2021
4641 Clouds 7 1016 65 10000 1.03 0 08:45 26.04.2021
4642 Clouds 6 1016 75 10000 1.03 0 08:20 26.04.2021
4643 Clouds 6 1016 70 10000 1.54 210 07:51 26.04.2021
4644 Clouds 5 1016 81 10000 2.57 250 07:19 26.04.2021
4645 Clouds 5 1016 75 10000 1.03 0 06:32 26.04.2021
4646 Clouds 5 1017 70 10000 1.03 0 04:55 26.04.2021
4647 Clouds 5 1017 70 10000 1.03 0 04:34 26.04.2021
4648 Clouds 7 1018 65 10000 1.54 0 02:23 26.04.2021
4649 Clouds 6 1018 53 10000 2.57 30 00:49 26.04.2021
4650 Clouds 6 1019 57 10000 2.06 360 00:26 26.04.2021
4651 Clouds 7 1018 50 10000 3.09 60 23:43 25.04.2021
4652 Clouds 8 1018 50 10000 2.57 70 23:24 25.04.2021
4653 Clouds 9 1018 50 10000 2.57 70 22:42 25.04.2021
4654 Clouds 10 1019 47 10000 3.09 80 22:19 25.04.2021
4655 Clouds 11 1018 44 10000 4.63 70 21:46 25.04.2021
4656 Clouds 12 1018 44 10000 6.69 70 21:27 25.04.2021
4657 Clouds 13 1017 41 10000 6.17 70 20:58 25.04.2021
4658 Clouds 15 1017 41 10000 6.17 70 20:39 25.04.2021
4659 Clouds 13 1017 41 10000 6.17 40 20:19 25.04.2021
4660 Clouds 16 1017 39 10000 7.2 70 19:39 25.04.2021
4661 Clouds 14 1017 39 10000 6.69 70 19:20 25.04.2021
4662 Clouds 15 1016 36 10000 6.69 60 18:43 25.04.2021
4663 Clouds 16 1016 36 10000 5.66 30 18:24 25.04.2021
4664 Clouds 16 1016 34 10000 6.17 90 17:42 25.04.2021
4665 Clouds 15 1016 36 10000 7.72 70 17:21 25.04.2021
4666 Clouds 15 1016 36 10000 7.72 70 17:21 25.04.2021
4667 Clouds 15 1016 36 10000 7.72 70 17:21 25.04.2021
4668 Clouds 17 1016 30 10000 7.2 80 16:44 25.04.2021
4669 Clouds 17 1016 34 10000 6.69 70 16:26 25.04.2021
4670 Clouds 17 1016 32 10000 5.66 50 15:42 25.04.2021
4671 Clouds 17 1016 26 10000 4.63 40 15:20 25.04.2021
4672 Clouds 17 1016 27 10000 2.57 210 14:29 25.04.2021
4673 Clouds 17 1016 27 10000 1.54 0 13:59 25.04.2021
4674 Clouds 17 1017 34 10000 2.57 0 13:27 25.04.2021
4675 Clouds 17 1017 36 10000 1.54 0 12:56 25.04.2021
4676 Clouds 17 1017 36 10000 1.54 0 12:56 25.04.2021
4677 Clouds 17 1017 36 10000 1.54 0 12:38 25.04.2021
4678 Clouds 16 1018 39 10000 2.06 0 12:18 25.04.2021
4679 Clouds 15 1018 44 10000 3.09 100 11:35 25.04.2021
4680 Clouds 13 1019 50 10000 2.06 60 10:52 25.04.2021
4681 Clouds 13 1019 50 10000 0.51 0 10:23 25.04.2021
4682 Clouds 11 1019 57 10000 1.03 0 09:49 25.04.2021
4683 Clouds 10 1019 66 10000 1.03 0 09:27 25.04.2021
4684 Clouds 8 1019 61 10000 0.51 0 08:34 25.04.2021
4685 Clouds 7 1019 75 10000 1.54 260 07:48 25.04.2021
4686 Clouds 6 1019 81 10000 2.06 260 07:21 25.04.2021
4687 Clouds 6 1019 81 10000 1.54 240 06:59 25.04.2021
4688 Clouds 6 1019 70 10000 1.03 0 06:18 25.04.2021
4689 Clouds 6 1020 75 10000 0.51 0 04:43 25.04.2021
4690 Clouds 6 1020 65 10000 1.03 0 01:52 25.04.2021
4691 Clouds 6 1020 65 10000 1.03 0 01:34 25.04.2021
4692 Clouds 7 1020 66 10000 0.51 0 00:34 25.04.2021
4693 Clouds 8 1020 57 10000 1.03 0 23:50 24.04.2021
4694 Clear 8 1020 50 10000 1.54 260 23:26 24.04.2021
4695 Clear 9 1020 47 10000 1.54 330 22:48 24.04.2021
4696 Clear 10 1020 41 10000 0.51 0 22:19 24.04.2021
4697 Clear 12 1019 41 10000 1.03 0 21:42 24.04.2021
4698 Clouds 13 1019 33 10000 3.09 100 21:21 24.04.2021
4699 Clouds 17 1019 31 10000 5.66 70 20:39 24.04.2021
4700 Clouds 17 1019 31 10000 5.66 70 20:39 24.04.2021
4701 Clouds 17 1018 31 10000 3.6 40 20:19 24.04.2021
4702 Clouds 18 1018 29 10000 4.12 80 19:39 24.04.2021
4703 Clouds 17 1018 26 10000 3.6 10 19:20 24.04.2021
4704 Clear 17 1017 27 10000 7.2 60 18:41 24.04.2021
4705 Clear 19 1017 24 10000 5.66 50 18:20 24.04.2021
4706 Clear 19 1017 21 10000 5.14 50 17:31 24.04.2021
4707 Clear 19 1017 21 10000 4.63 30 16:57 24.04.2021
4708 Clear 20 1017 21 10000 4.63 30 16:37 24.04.2021
4709 Clear 19 1018 24 10000 3.09 30 15:56 24.04.2021
4710 Clear 18 1019 18 10000 1.54 0 15:30 24.04.2021
4711 Clear 18 1019 21 10000 2.06 0 14:37 24.04.2021
4712 Clear 18 1020 27 10000 1.03 0 13:56 24.04.2021
4713 Clear 18 1020 27 10000 1.03 0 13:37 24.04.2021
4714 Clear 16 1021 33 10000 1.54 0 12:47 24.04.2021
4715 Clear 15 1022 33 10000 1.03 0 12:18 24.04.2021
4716 Clear 13 1022 35 10000 1.54 0 11:48 24.04.2021
4717 Clear 13 1023 38 10000 1.03 0 11:20 24.04.2021
4718 Clear 11 1024 43 10000 3.6 260 10:44 24.04.2021
4719 Clear 8 1024 57 10000 2.57 270 09:58 24.04.2021
4720 Clear 8 1024 57 10000 2.57 270 09:39 24.04.2021
4721 Clear 2 1025 80 10000 2.06 280 07:58 24.04.2021
4722 Clear 2 1025 75 10000 1.54 240 07:28 24.04.2021
4723 Clouds 2 1025 80 10000 1.03 260 05:39 24.04.2021
4724 Clear 4 1026 61 10000 1.54 240 01:34 24.04.2021
4725 Clear 5 1025 65 10000 0.51 0 00:21 24.04.2021
4726 Clear 6 1025 57 10000 1.03 0 22:49 23.04.2021
4727 Clear 8 1025 50 10000 0.51 0 22:22 23.04.2021
4728 Clear 9 1024 43 10000 1.54 180 21:49 23.04.2021
4729 Clear 9 1024 40 10000 3.6 70 21:28 23.04.2021
4730 Clear 13 1023 38 10000 5.66 60 20:43 23.04.2021
4731 Clear 14 1023 35 10000 5.66 50 20:22 23.04.2021
4732 Clear 15 1022 33 10000 3.6 50 19:56 23.04.2021
4733 Clear 15 1022 33 10000 3.6 50 19:56 23.04.2021
4734 Clear 14 1022 33 10000 3.6 50 19:35 23.04.2021
4735 Clouds 17 1022 25 10000 4.12 70 18:59 23.04.2021
4736 Clouds 17 1022 25 10000 4.12 70 18:37 23.04.2021
4737 Clouds 16 1022 27 10000 3.09 60 17:59 23.04.2021
4738 Clouds 16 1022 27 10000 3.09 60 17:39 23.04.2021
4739 Clouds 16 1022 29 10000 3.6 70 17:20 23.04.2021
4740 Clouds 16 1022 25 10000 2.06 0 16:46 23.04.2021
4741 Clouds 17 1022 29 10000 2.57 0 16:25 23.04.2021
4742 Clouds 17 1023 29 10000 1.54 0 15:41 23.04.2021
4743 Clouds 15 1023 34 10000 2.57 0 14:51 23.04.2021
4744 Clouds 14 1023 39 10000 2.06 0 13:42 23.04.2021
4745 Clouds 15 1024 44 10000 1.54 0 13:23 23.04.2021
4746 Clouds 14 1024 44 10000 2.06 0 12:34 23.04.2021
4747 Clouds 12 1025 50 10000 1.54 200 11:53 23.04.2021
4748 Clouds 12 1025 50 10000 1.54 200 11:34 23.04.2021
4749 Clouds 10 1025 66 10000 1.54 0 10:52 23.04.2021
4750 Clouds 10 1025 66 10000 1.54 0 10:33 23.04.2021
4751 Clouds 8 1026 76 10000 1.03 0 09:55 23.04.2021
4752 Clouds 7 1026 81 9000 2.06 260 09:27 23.04.2021
4753 Clouds 6 1026 76 8000 2.06 260 08:43 23.04.2021
4754 Clouds 5 1025 81 8000 2.06 250 07:48 23.04.2021
4755 Clouds 4 1024 87 8000 2.06 260 06:59 23.04.2021
4756 Clouds 4 1024 93 10000 1.54 270 05:37 23.04.2021
4757 Clouds 5 1024 93 10000 2.06 260 03:37 23.04.2021
4758 Clouds 6 1024 87 10000 0.51 0 02:48 23.04.2021
4759 Clouds 6 1023 87 10000 1.54 260 00:20 23.04.2021
4760 Clouds 7 1023 87 10000 0.51 0 22:58 22.04.2021
4761 Clouds 7 1023 87 10000 0.51 0 22:38 22.04.2021
4762 Clouds 7 1023 87 10000 0.51 0 22:18 22.04.2021
4763 Clouds 7 1022 81 10000 0.51 0 21:41 22.04.2021
4764 Clouds 7 1022 81 10000 1.54 50 21:19 22.04.2021
4765 Rain 8 1022 71 10000 2.57 90 20:47 22.04.2021
4766 Rain 9 1021 71 10000 3.09 110 20:26 22.04.2021
4767 Clouds 9 1021 66 10000 3.09 80 19:51 22.04.2021
4768 Clouds 9 1021 66 10000 3.09 80 19:32 22.04.2021
4769 Clouds 11 1020 62 10000 3.09 260 18:44 22.04.2021
4770 Clouds 11 1020 62 10000 3.09 260 18:44 22.04.2021
4771 Clouds 11 1020 66 10000 3.6 250 18:21 22.04.2021
4772 Clouds 12 1020 50 10000 1.03 0 17:44 22.04.2021
4773 Clouds 12 1019 51 10000 1.03 0 17:20 22.04.2021
4774 Clouds 12 1020 54 10000 1.03 0 16:47 22.04.2021
4775 Rain 11 1020 58 10000 3.09 140 16:27 22.04.2021
4776 Rain 11 1019 71 10000 4.63 60 15:48 22.04.2021
4777 Clouds 12 1019 54 10000 7.2 20 15:27 22.04.2021
4778 Clouds 13 1019 44 10000 2.57 90 14:50 22.04.2021
4779 Clouds 13 1019 54 10000 4.12 70 14:29 22.04.2021
4780 Clouds 12 1019 62 10000 2.06 20 13:46 22.04.2021
4781 Clouds 13 1019 50 10000 3.6 70 13:25 22.04.2021
4782 Clouds 13 1019 50 10000 3.09 70 12:56 22.04.2021
4783 Clouds 13 1019 50 10000 3.09 70 12:56 22.04.2021
4784 Clouds 12 1019 50 10000 3.09 70 12:37 22.04.2021
4785 Clouds 11 1020 54 10000 3.09 70 12:18 22.04.2021
4786 Clouds 10 1020 58 10000 3.09 60 11:42 22.04.2021
4787 Clouds 10 1020 62 10000 3.09 70 11:21 22.04.2021
4788 Clouds 10 1020 58 10000 3.09 60 10:42 22.04.2021
4789 Clouds 10 1020 57 10000 3.09 80 10:20 22.04.2021
4790 Clouds 9 1020 61 10000 1.54 120 09:39 22.04.2021
4791 Clouds 7 1019 70 10000 1.03 0 08:57 22.04.2021
4792 Clouds 7 1019 70 10000 1.03 0 08:38 22.04.2021
4793 Clouds 4 1019 75 10000 1.54 260 08:18 22.04.2021
4794 Clouds 5 1019 81 10000 1.03 0 07:36 22.04.2021
4795 Clouds 5 1019 75 10000 2.06 260 07:18 22.04.2021
4796 Clouds 5 1018 75 10000 1.03 0 06:21 22.04.2021
4797 Clouds 4 1018 75 10000 2.06 270 05:24 22.04.2021
4798 Clouds 4 1018 70 10000 1.03 0 02:49 22.04.2021
4799 Clouds 6 1017 57 10000 2.06 170 00:41 22.04.2021
4800 Clouds 7 1017 57 10000 0.51 0 23:42 21.04.2021
4801 Clouds 7 1016 57 10000 1.54 160 23:22 21.04.2021
4802 Clouds 8 1016 50 10000 1.03 0 22:41 21.04.2021
4803 Clouds 9 1016 50 10000 1.54 0 22:23 21.04.2021
4804 Clouds 9 1015 50 10000 2.06 220 21:42 21.04.2021
4805 Clouds 9 1015 43 10000 1.54 240 21:23 21.04.2021
4806 Clouds 10 1014 47 10000 3.6 270 20:38 21.04.2021
4807 Clouds 12 1014 38 10000 4.12 230 20:18 21.04.2021
4808 Clouds 16 1013 31 10000 3.09 330 19:38 21.04.2021
4809 Clouds 17 1013 31 10000 3.6 250 19:20 21.04.2021
4810 Clouds 17 1013 27 10000 1.03 0 18:44 21.04.2021
4811 Clouds 14 1013 27 10000 2.57 220 18:22 21.04.2021
4812 Clouds 15 1013 31 10000 3.09 260 17:46 21.04.2021
4813 Clouds 16 1013 27 10000 3.6 260 17:24 21.04.2021
4814 Clouds 16 1013 31 10000 4.63 270 16:42 21.04.2021
4815 Clouds 16 1013 22 10000 3.09 320 15:56 21.04.2021
4816 Clouds 16 1013 22 10000 3.09 320 15:37 21.04.2021
4817 Clouds 15 1014 25 10000 2.06 0 14:46 21.04.2021
4818 Clouds 15 1014 27 10000 3.09 260 14:28 21.04.2021
4819 Clouds 16 1014 25 10000 1.03 0 13:51 21.04.2021
4820 Clouds 14 1015 29 10000 1.54 0 13:23 21.04.2021
4821 Clouds 15 1015 36 10000 1.03 0 12:52 21.04.2021
4822 Clouds 14 1015 44 10000 1.03 0 12:28 21.04.2021
4823 Clouds 13 1016 41 10000 1.03 0 11:47 21.04.2021
4824 Clouds 12 1016 50 10000 1.03 0 11:25 21.04.2021
4825 Clouds 10 1016 50 10000 3.09 260 10:42 21.04.2021
4826 Clear 8 1017 65 10000 3.09 260 09:58 21.04.2021
4827 Clear 6 1017 75 10000 2.57 240 09:35 21.04.2021
4828 Clear 5 1017 81 10000 2.57 250 08:54 21.04.2021
4829 Clear 3 1017 87 10000 3.09 260 08:27 21.04.2021
4830 Clear 2 1017 87 10000 2.57 230 07:59 21.04.2021
4831 Clear 2 1017 86 10000 2.06 260 07:29 21.04.2021
4832 Clear 1 1017 86 10000 0.51 0 06:23 21.04.2021
4833 Clear 1 1017 87 10000 1.54 260 04:18 21.04.2021
4834 Clouds 4 1017 75 10000 1.54 0 00:50 21.04.2021
4835 Clouds 4 1017 75 10000 0.51 0 23:48 20.04.2021
4836 Clouds 5 1016 76 10000 1.03 0 22:56 20.04.2021
4837 Clouds 5 1016 76 10000 1.03 0 22:36 20.04.2021
4838 Clouds 5 1016 70 10000 0.51 0 22:18 20.04.2021
4839 Clouds 6 1016 66 10000 1.03 0 21:44 20.04.2021
4840 Clouds 7 1015 61 10000 1.03 0 21:23 20.04.2021
4841 Clouds 8 1015 57 10000 1.03 0 20:41 20.04.2021
4842 Clouds 8 1015 62 10000 2.06 20 20:22 20.04.2021
4843 Clouds 11 1014 47 10000 2.57 10 19:52 20.04.2021
4844 Clouds 11 1014 47 10000 2.57 10 19:33 20.04.2021
4845 Clouds 12 1014 44 10000 1.03 0 18:54 20.04.2021
4846 Clouds 12 1014 44 10000 1.03 0 18:35 20.04.2021
4847 Clouds 12 1014 47 10000 2.57 30 17:43 20.04.2021
4848 Clouds 13 1014 44 10000 2.06 0 16:57 20.04.2021
4849 Clouds 13 1014 44 10000 2.06 0 16:36 20.04.2021
4850 Clouds 11 1015 44 10000 2.57 40 15:42 20.04.2021
4851 Clouds 11 1015 47 10000 3.09 50 15:23 20.04.2021
4852 Clouds 11 1016 50 10000 3.6 90 14:49 20.04.2021
4853 Clouds 10 1016 62 10000 3.6 70 14:24 20.04.2021
4854 Clouds 9 1017 66 10000 4.12 70 13:29 20.04.2021
4855 Clouds 9 1017 66 10000 4.12 70 12:55 20.04.2021
4856 Clouds 8 1017 71 10000 3.09 60 12:28 20.04.2021
4857 Clouds 8 1017 66 10000 2.06 80 11:47 20.04.2021
4858 Clouds 8 1017 71 10000 1.54 0 11:28 20.04.2021
4859 Clouds 7 1017 76 10000 2.06 0 10:55 20.04.2021
4860 Clouds 7 1017 76 10000 2.06 0 10:36 20.04.2021
4861 Clouds 7 1017 76 10000 0.51 0 10:18 20.04.2021
4862 Clouds 5 1017 87 10000 0.51 0 09:20 20.04.2021
4863 Drizzle 5 1017 87 10000 1.03 0 08:53 20.04.2021
4864 Drizzle 5 1017 93 10000 1.03 200 07:59 20.04.2021
4865 Drizzle 5 1017 93 10000 1.03 200 07:33 20.04.2021
4866 Rain 4 1017 93 10000 1.54 160 05:48 20.04.2021
4867 Rain 4 1017 87 10000 0.51 0 05:30 20.04.2021
4868 Clouds 5 1017 87 10000 1.03 0 04:24 20.04.2021
4869 Clouds 5 1018 87 10000 0.51 0 00:52 20.04.2021
4870 Clouds 5 1018 87 10000 0.51 0 00:20 20.04.2021
4871 Clouds 5 1018 81 10000 1.54 80 23:31 19.04.2021
4872 Clouds 5 1018 76 10000 2.06 80 22:45 19.04.2021
4873 Clouds 5 1018 76 10000 3.09 70 22:26 19.04.2021
4874 Clouds 6 1017 66 10000 3.6 90 21:43 19.04.2021
4875 Clouds 6 1017 66 10000 0.51 0 21:20 19.04.2021
4876 Clouds 7 1017 66 10000 1.03 0 20:41 19.04.2021
4877 Clouds 7 1016 57 10000 1.03 0 20:20 19.04.2021
4878 Clouds 7 1016 57 10000 3.6 80 19:50 19.04.2021
4879 Clouds 9 1016 57 10000 5.14 60 19:27 19.04.2021
4880 Clouds 8 1016 53 10000 3.6 50 18:59 19.04.2021
4881 Clouds 8 1016 53 10000 3.6 50 18:38 19.04.2021
4882 Clouds 8 1016 53 10000 5.14 60 18:19 19.04.2021
4883 Clouds 9 1015 50 10000 1.54 280 17:43 19.04.2021
4884 Clouds 10 1015 46 10000 1.03 0 17:23 19.04.2021
4885 Clouds 11 1016 43 10000 2.06 250 16:43 19.04.2021
4886 Clouds 11 1016 43 10000 1.54 0 16:24 19.04.2021
4887 Clouds 10 1016 46 10000 2.06 0 15:42 19.04.2021
4888 Clouds 9 1017 46 10000 3.09 70 15:23 19.04.2021
4889 Clouds 9 1017 50 10000 1.54 0 14:43 19.04.2021
4890 Clouds 8 1017 53 10000 2.57 60 14:23 19.04.2021
4891 Clouds 9 1018 61 10000 2.57 60 13:49 19.04.2021
4892 Clouds 8 1018 66 10000 3.09 60 13:26 19.04.2021
4893 Clouds 6 1018 70 10000 3.09 80 12:47 19.04.2021
4894 Clouds 6 1018 70 10000 3.09 80 12:26 19.04.2021
4895 Clouds 6 1018 70 10000 2.57 60 11:55 19.04.2021
4896 Clouds 6 1018 70 10000 2.06 80 11:27 19.04.2021
4897 Clouds 5 1018 81 10000 1.54 80 10:55 19.04.2021
4898 Clouds 5 1018 81 10000 1.54 80 10:36 19.04.2021
4899 Clouds 5 1018 81 10000 1.54 0 10:18 19.04.2021
4900 Clouds 5 1018 81 10000 1.03 0 09:38 19.04.2021
4901 Clouds 4 1018 87 10000 1.54 250 09:19 19.04.2021
4902 Clouds 4 1018 87 10000 1.03 250 08:30 19.04.2021
4903 Clouds 4 1018 87 10000 1.54 250 07:49 19.04.2021
4904 Clouds 3 1018 93 9000 1.54 250 07:20 19.04.2021
4905 Clouds 3 1018 87 10000 0.51 0 06:38 19.04.2021
4906 Clouds 3 1018 87 10000 1.03 0 02:38 19.04.2021
4907 Clouds 3 1019 81 10000 1.03 0 01:30 19.04.2021
4908 Clouds 4 1019 75 10000 1.54 70 00:30 19.04.2021
4909 Clouds 5 1019 81 10000 0.51 0 23:19 18.04.2021
4910 Clouds 5 1019 81 10000 0.51 0 22:52 18.04.2021
4911 Clouds 5 1019 81 10000 1.03 0 22:31 18.04.2021
4912 Clouds 5 1018 87 10000 1.03 0 21:45 18.04.2021
4913 Clouds 5 1018 81 10000 1.03 0 21:23 18.04.2021
4914 Clouds 5 1018 81 10000 1.03 0 21:23 18.04.2021
4915 Clouds 5 1018 76 10000 2.06 0 20:40 18.04.2021
4916 Clouds 6 1018 76 10000 2.06 0 20:21 18.04.2021
4917 Clouds 6 1017 61 10000 2.06 50 19:49 18.04.2021
4918 Clouds 6 1017 61 10000 5.14 40 19:30 18.04.2021
4919 Clouds 8 1016 50 10000 2.06 280 18:54 18.04.2021
4920 Clouds 7 1016 53 10000 3.6 260 18:31 18.04.2021
4921 Clouds 8 1016 53 10000 3.6 280 17:57 18.04.2021
4922 Clouds 8 1016 53 10000 3.6 280 17:38 18.04.2021
4923 Clouds 8 1016 57 10000 3.6 300 17:19 18.04.2021
4924 Clouds 7 1016 61 10000 5.14 330 16:41 18.04.2021
4925 Clouds 9 1016 50 10000 2.06 360 15:59 18.04.2021
4926 Clouds 9 1016 50 10000 2.06 360 15:39 18.04.2021
4927 Clouds 8 1016 50 10000 2.06 0 15:19 18.04.2021
4928 Clouds 8 1016 53 10000 1.03 0 14:42 18.04.2021
4929 Clouds 7 1017 61 10000 2.06 60 14:19 18.04.2021
4930 Clouds 6 1017 61 10000 3.6 70 13:53 18.04.2021
4931 Clouds 8 1017 61 10000 2.06 100 13:30 18.04.2021
4932 Clouds 7 1017 70 10000 2.57 80 12:43 18.04.2021
4933 Clouds 7 1017 65 10000 2.57 0 12:20 18.04.2021
4934 Clouds 6 1018 70 10000 2.57 100 11:41 18.04.2021
4935 Clouds 5 1018 70 10000 2.06 100 11:20 18.04.2021
4936 Clouds 5 1018 75 10000 2.57 110 10:45 18.04.2021
4937 Clouds 4 1018 75 10000 2.57 110 10:19 18.04.2021
4938 Clouds 4 1018 75 10000 2.57 110 09:41 18.04.2021
4939 Clouds 4 1018 75 10000 2.06 100 09:23 18.04.2021
4940 Clouds 4 1018 75 10000 1.03 0 08:47 18.04.2021
4941 Clouds 4 1018 75 10000 1.54 70 08:28 18.04.2021
4942 Clouds 3 1018 75 10000 1.03 0 07:41 18.04.2021
4943 Clouds 3 1017 75 10000 0.51 0 06:56 18.04.2021
4944 Clouds 3 1017 81 10000 1.03 260 05:27 18.04.2021
4945 Clouds 3 1017 75 10000 0.51 0 04:53 18.04.2021
4946 Clouds 3 1018 70 10000 0.51 0 02:23 18.04.2021
4947 Clouds 3 1018 70 10000 1.03 0 00:58 18.04.2021
4948 Clouds 4 1018 70 10000 2.06 70 23:58 17.04.2021
4949 Clouds 4 1018 65 10000 2.57 90 23:26 17.04.2021
4950 Clouds 4 1018 65 10000 1.54 50 22:44 17.04.2021
4951 Clouds 5 1018 65 10000 3.09 80 22:25 17.04.2021
4952 Clouds 4 1018 65 10000 2.06 80 21:44 17.04.2021
4953 Clouds 4 1018 65 10000 3.09 60 21:23 17.04.2021
4954 Clouds 5 1017 61 10000 3.6 60 20:40 17.04.2021
4955 Clouds 5 1017 61 10000 2.06 50 20:20 17.04.2021
4956 Clouds 6 1017 53 10000 2.57 90 19:39 17.04.2021
4957 Clouds 7 1016 53 10000 3.09 100 19:19 17.04.2021
4958 Clouds 6 1016 49 10000 4.12 90 18:49 17.04.2021
4959 Clouds 8 1016 46 10000 5.14 80 18:21 17.04.2021
4960 Clouds 8 1016 43 10000 4.12 90 17:42 17.04.2021
4961 Clouds 7 1015 40 10000 4.12 90 16:56 17.04.2021
4962 Clouds 10 1016 37 10000 3.6 90 16:37 17.04.2021
4963 Clouds 8 1016 37 10000 3.6 90 16:18 17.04.2021
4964 Clouds 8 1016 37 10000 2.06 110 15:19 17.04.2021
4965 Clouds 8 1016 40 10000 2.57 130 14:42 17.04.2021
4966 Clouds 8 1016 40 10000 3.09 60 14:19 17.04.2021
4967 Clouds 9 1017 37 10000 3.09 0 13:41 17.04.2021
4968 Clouds 8 1018 46 10000 3.09 100 12:47 17.04.2021
4969 Clouds 8 1018 46 10000 2.06 0 12:23 17.04.2021
4970 Clouds 7 1019 49 10000 2.06 90 11:51 17.04.2021
4971 Clouds 7 1019 49 10000 2.06 90 11:32 17.04.2021
4972 Clouds 5 1019 52 10000 1.03 0 10:48 17.04.2021
4973 Clouds 4 1020 56 10000 1.03 0 10:29 17.04.2021
4974 Clouds 3 1020 60 10000 1.03 0 09:45 17.04.2021
4975 Clouds 0 1021 80 10000 1.03 280 08:46 17.04.2021
4976 Clouds 0 1021 80 10000 1.03 0 08:26 17.04.2021
4977 Clouds -1 1021 80 10000 1.03 0 07:42 17.04.2021
4978 Clouds -2 1020 80 10000 0.51 0 04:51 17.04.2021
4979 Clouds -2 1021 80 10000 1.03 0 03:40 17.04.2021
4980 Clouds 0 1021 69 10000 0.51 0 00:55 17.04.2021
4981 Clouds 0 1021 69 10000 1.03 0 00:29 17.04.2021
4982 Clouds 1 1021 60 10000 0.51 0 23:55 16.04.2021
4983 Clouds 1 1021 60 10000 0.51 0 23:32 16.04.2021
4984 Clouds 4 1021 56 10000 2.06 80 22:51 16.04.2021
4985 Clouds 4 1021 56 10000 2.06 80 22:51 16.04.2021
4986 Clouds 4 1020 56 10000 1.03 0 22:22 16.04.2021
4987 Clouds 5 1020 56 10000 2.57 50 21:54 16.04.2021
4988 Clouds 5 1020 56 10000 2.57 50 21:35 16.04.2021
4989 Clouds 7 1019 49 10000 5.14 60 20:54 16.04.2021
4990 Clouds 7 1019 45 10000 5.66 90 20:29 16.04.2021
4991 Clouds 8 1018 42 10000 5.66 80 19:55 16.04.2021
4992 Clouds 8 1018 42 10000 5.66 80 19:31 16.04.2021
4993 Clouds 7 1018 37 10000 5.66 80 18:46 16.04.2021
4994 Clouds 9 1017 29 10000 5.66 90 18:21 16.04.2021
4995 Clouds 9 1017 28 10000 4.12 80 17:46 16.04.2021
4996 Clouds 8 1017 28 10000 2.57 90 17:19 16.04.2021
4997 Clouds 8 1017 29 10000 3.6 50 16:44 16.04.2021
4998 Clouds 8 1018 35 10000 2.57 0 16:25 16.04.2021
4999 Clouds 10 1018 29 10000 2.57 0 15:51 16.04.2021
5000 Clouds 9 1018 34 10000 3.09 0 15:23 16.04.2021
5001 Clouds 8 1019 37 10000 2.06 140 14:42 16.04.2021
5002 Clouds 8 1019 37 10000 3.09 140 14:20 16.04.2021
5003 Clouds 8 1019 37 10000 1.54 0 13:50 16.04.2021
5004 Clouds 7 1020 39 10000 2.06 0 13:21 16.04.2021
5005 Clouds 6 1020 39 10000 3.09 130 12:49 16.04.2021
5006 Clouds 6 1020 42 10000 2.06 100 12:29 16.04.2021
5007 Clouds 5 1021 45 10000 1.54 160 11:55 16.04.2021
5008 Clouds 3 1021 48 10000 1.54 0 11:27 16.04.2021
5009 Clouds 4 1021 52 10000 1.03 0 10:56 16.04.2021
5010 Clouds 4 1021 52 10000 1.03 0 10:37 16.04.2021
5011 Clouds 2 1022 56 10000 1.54 0 10:19 16.04.2021
5012 Clouds 2 1022 64 10000 1.03 0 09:42 16.04.2021
5013 Clouds 0 1022 64 10000 1.03 0 09:20 16.04.2021
5014 Clouds 0 1022 69 10000 1.03 0 08:41 16.04.2021
5015 Clouds -1 1022 74 10000 1.54 80 08:18 16.04.2021
5016 Clouds 0 1022 74 10000 2.57 60 07:36 16.04.2021
5017 Clouds -3 1022 74 10000 2.06 70 06:59 16.04.2021
5018 Clouds -3 1022 74 10000 0.51 0 06:18 16.04.2021
5019 Clouds -3 1022 80 10000 1.03 0 04:22 16.04.2021
5020 Clouds 2 1023 64 10000 0.51 0 00:59 16.04.2021
5021 Clouds 2 1023 64 10000 0.51 0 00:41 16.04.2021
5022 Clouds 2 1023 69 10000 1.54 70 00:20 16.04.2021
5023 Clouds 3 1023 65 10000 0.51 0 23:41 15.04.2021
5024 Clouds 1 1023 65 10000 1.03 0 23:23 15.04.2021
5025 Clouds 3 1023 65 10000 0.51 0 22:40 15.04.2021
5026 Clouds 1 1023 65 10000 1.03 0 22:22 15.04.2021
5027 Clouds 1 1023 65 10000 1.03 0 21:42 15.04.2021
5028 Clouds 1 1023 65 10000 1.54 260 21:22 15.04.2021
5029 Clouds 2 1022 56 10000 2.06 0 20:45 15.04.2021
5030 Clouds 2 1022 60 10000 4.12 30 20:24 15.04.2021
5031 Clouds 3 1022 56 10000 1.54 0 19:46 15.04.2021
5032 Clouds 4 1022 52 10000 2.06 270 19:27 15.04.2021
5033 Clouds 4 1022 56 10000 3.09 260 18:44 15.04.2021
5034 Clouds 4 1022 56 10000 4.63 260 18:21 15.04.2021
5035 Clouds 5 1022 49 10000 2.06 330 17:55 15.04.2021
5036 Clouds 5 1022 49 10000 2.06 330 17:37 15.04.2021
5037 Clouds 5 1022 49 10000 2.06 330 17:37 15.04.2021
5038 Clouds 5 1022 52 10000 3.09 280 16:59 15.04.2021
5039 Clouds 6 1022 52 10000 3.09 280 16:40 15.04.2021
5040 Clouds 6 1022 49 10000 5.66 260 16:22 15.04.2021
5041 Clouds 4 1022 42 10000 2.06 0 15:45 15.04.2021
5042 Clouds 4 1022 52 10000 4.63 30 15:26 15.04.2021
5043 Clouds 5 1022 49 10000 6.17 360 14:41 15.04.2021
5044 Clouds 6 1022 45 10000 3.09 350 14:23 15.04.2021
5045 Clouds 6 1022 45 10000 3.09 350 14:23 15.04.2021
5046 Clouds 4 1023 52 10000 5.66 360 13:42 15.04.2021
5047 Clouds 4 1023 56 10000 6.17 30 13:19 15.04.2021
5048 Clouds 3 1023 56 10000 5.66 20 12:42 15.04.2021
5049 Clouds 3 1023 65 10000 5.14 360 12:21 15.04.2021
5050 Clouds 3 1024 56 10000 2.06 0 11:47 15.04.2021
5051 Clouds 2 1024 60 10000 1.54 0 11:24 15.04.2021
5052 Clouds 3 1024 60 10000 3.09 140 10:55 15.04.2021
5053 Clouds 2 1024 65 10000 3.09 120 10:28 15.04.2021
5054 Clouds 1 1024 65 10000 2.06 90 09:50 15.04.2021
5055 Snow 1 1024 69 10000 1.54 60 09:28 15.04.2021
5056 Snow 0 1024 75 10000 2.06 70 08:49 15.04.2021
5057 Clouds 0 1024 75 10000 3.09 50 08:24 15.04.2021
5058 Clouds 1 1023 75 10000 2.06 120 07:26 15.04.2021
5059 Clouds 0 1023 80 10000 1.03 160 06:50 15.04.2021
5060 Clouds 0 1023 80 10000 1.03 160 06:32 15.04.2021
5061 Clouds 1 1023 75 10000 1.03 0 04:53 15.04.2021
5062 Clouds 0 1024 80 10000 1.03 0 02:51 15.04.2021
5063 Clouds 2 1024 75 10000 1.54 40 23:47 14.04.2021
5064 Clouds 1 1024 75 10000 2.06 70 23:28 14.04.2021
5065 Clouds 3 1024 65 10000 2.06 110 22:47 14.04.2021
5066 Snow 2 1024 65 10000 1.54 90 22:27 14.04.2021
5067 Snow 2 1024 65 10000 2.06 90 21:53 14.04.2021
5068 Snow 2 1024 65 10000 2.06 90 21:32 14.04.2021
5069 Clouds 2 1023 60 10000 3.6 70 20:58 14.04.2021
5070 Clouds 2 1023 60 10000 3.6 70 20:35 14.04.2021
5071 Clouds 3 1023 52 10000 3.09 60 19:55 14.04.2021
5072 Clouds 3 1023 52 10000 3.09 60 19:37 14.04.2021
5073 Clouds 3 1022 42 10000 3.09 60 19:18 14.04.2021
5074 Clouds 3 1022 45 10000 2.57 20 18:47 14.04.2021
5075 Clouds 5 1022 42 10000 4.63 40 18:18 14.04.2021
5076 Clouds 5 1022 39 10000 2.06 170 17:51 14.04.2021
5077 Clouds 4 1023 42 10000 3.6 80 17:23 14.04.2021
5078 Clouds 4 1023 39 10000 2.06 0 16:43 14.04.2021
5079 Clouds 4 1023 45 10000 5.66 20 16:22 14.04.2021
5080 Clouds 5 1023 49 10000 3.09 110 15:40 14.04.2021
5081 Clouds 5 1024 52 10000 3.6 120 15:18 14.04.2021
5082 Clouds 5 1024 45 10000 6.17 60 14:42 14.04.2021
5083 Clouds 5 1024 45 10000 2.57 0 14:21 14.04.2021
5084 Clouds 4 1025 45 10000 3.6 80 13:47 14.04.2021
5085 Clouds 3 1025 48 10000 3.09 80 12:47 14.04.2021
5086 Clouds 3 1026 60 10000 3.6 70 12:24 14.04.2021
5087 Clouds 3 1026 60 10000 1.03 0 11:42 14.04.2021
5088 Clouds 2 1026 60 10000 1.54 0 11:23 14.04.2021
5089 Clouds 2 1027 75 10000 1.03 0 10:35 14.04.2021
5090 Clouds 1 1027 86 10000 2.06 270 09:56 14.04.2021
5091 Clouds 0 1027 86 10000 2.06 270 09:38 14.04.2021
5092 Snow 0 1027 93 6000 2.57 260 09:18 14.04.2021
5093 Snow -1 1027 93 4000 3.09 260 08:33 14.04.2021
5094 Snow -2 1026 93 2500 1.03 270 07:51 14.04.2021
5095 Snow -1 1026 93 4000 1.54 260 06:39 14.04.2021
5096 Clouds -1 1026 100 7000 0.51 0 05:52 14.04.2021
5097 Mist 0 1027 100 5000 1.54 240 02:57 14.04.2021
5098 Snow 0 1028 100 3000 1.54 270 01:28 14.04.2021
5099 Snow 0 1028 100 3400 1.54 290 00:34 14.04.2021
5100 Snow 0 1028 86 10000 1.03 0 23:39 13.04.2021
5101 Snow 0 1028 93 10000 2.57 270 22:55 13.04.2021
5102 Snow 0 1028 93 10000 2.57 270 22:36 13.04.2021
5103 Snow 0 1028 93 10000 3.6 260 22:18 13.04.2021
5104 Snow 0 1028 86 10000 1.54 280 21:40 13.04.2021
5105 Snow 0 1027 86 4800 3.6 260 21:20 13.04.2021
5106 Snow 0 1027 86 7000 3.09 300 20:39 13.04.2021
5107 Snow 1 1026 75 10000 3.09 10 20:19 13.04.2021
5108 Clouds 2 1026 70 10000 2.57 80 19:27 13.04.2021
5109 Clouds 2 1026 70 10000 2.57 80 19:27 13.04.2021
5110 Clouds 2 1026 70 10000 3.09 30 18:58 13.04.2021
5111 Clouds 2 1026 65 10000 1.54 20 18:33 13.04.2021
5112 Clouds 3 1026 70 10000 2.06 40 17:45 13.04.2021
5113 Clouds 3 1026 75 10000 3.6 60 17:23 13.04.2021
5114 Clouds 3 1026 65 10000 2.57 40 16:57 13.04.2021
5115 Clouds 3 1026 65 10000 2.57 40 16:38 13.04.2021
5116 Clouds 3 1026 70 10000 3.6 70 16:19 13.04.2021
5117 Clouds 2 1026 75 10000 5.66 70 15:39 13.04.2021
5118 Clouds 3 1026 65 10000 1.03 0 14:59 13.04.2021
5119 Clouds 3 1026 65 10000 1.03 0 14:38 13.04.2021
5120 Clouds 3 1026 70 10000 1.03 0 14:18 13.04.2021
5121 Snow 2 1027 80 5000 1.03 260 13:40 13.04.2021
5122 Snow 1 1027 86 4000 2.06 260 13:22 13.04.2021
5123 Snow 1 1027 86 4000 2.57 270 12:52 13.04.2021
5124 Mist 2 1027 81 5000 1.54 260 12:23 13.04.2021
5125 Snow 2 1027 81 4000 0.51 0 11:40 13.04.2021
5126 Snow 1 1027 86 2000 1.03 0 11:18 13.04.2021
5127 Snow 1 1027 86 2500 1.03 0 10:41 13.04.2021
5128 Snow 0 1027 93 3000 1.03 0 10:20 13.04.2021
5129 Snow 0 1027 93 3500 0.51 0 09:52 13.04.2021
5130 Snow 0 1027 100 2000 0.51 0 09:26 13.04.2021
5131 Snow 0 1027 93 3000 0.51 0 08:47 13.04.2021
5132 Snow 0 1027 93 3500 0.51 0 08:24 13.04.2021
5133 Snow -1 1027 93 4000 0.51 0 07:48 13.04.2021
5134 Snow -1 1027 93 4000 1.03 100 07:26 13.04.2021
5135 Snow -1 1027 93 3000 1.54 110 06:27 13.04.2021
5136 Snow -1 1027 93 2300 2.06 240 03:44 13.04.2021
5137 Snow 0 1027 100 2600 1.03 0 01:34 13.04.2021
5138 Snow 0 1027 100 3000 1.54 270 23:55 12.04.2021
5139 Snow 0 1027 100 3000 1.54 270 23:33 12.04.2021
5140 Snow 0 1027 100 3600 2.06 270 22:55 12.04.2021
5141 Snow 0 1027 100 3600 2.06 270 22:36 12.04.2021
5142 Snow 0 1027 93 2900 2.06 290 21:49 12.04.2021
5143 Snow 1 1027 93 3200 3.6 250 21:25 12.04.2021
5144 Snow 1 1026 100 9000 3.09 280 20:59 12.04.2021
5145 Snow 1 1026 100 10000 3.6 280 20:36 12.04.2021
5146 Snow 1 1026 100 10000 3.6 280 20:18 12.04.2021
5147 Snow 1 1026 93 10000 4.12 250 19:40 12.04.2021
5148 Snow 2 1026 93 10000 3.09 280 19:21 12.04.2021
5149 Snow 2 1025 93 10000 2.57 270 18:51 12.04.2021
5150 Snow 2 1025 93 10000 2.57 270 18:33 12.04.2021
5151 Rain 3 1025 81 10000 1.03 0 17:59 12.04.2021
5152 Rain 3 1025 81 10000 1.03 0 17:40 12.04.2021
5153 Rain 3 1024 81 10000 1.54 200 17:19 12.04.2021
5154 Rain 3 1024 75 10000 0.51 0 16:38 12.04.2021
5155 Rain 4 1024 75 10000 2.06 40 16:19 12.04.2021
5156 Rain 3 1023 75 10000 3.09 80 15:39 12.04.2021
5157 Rain 3 1023 87 10000 3.09 150 14:57 12.04.2021
5158 Rain 3 1023 87 10000 3.09 150 14:39 12.04.2021
5159 Rain 3 1023 87 10000 1.54 130 14:19 12.04.2021
5160 Rain 4 1022 87 10000 3.09 50 13:40 12.04.2021
5161 Rain 4 1022 87 10000 5.66 60 13:19 12.04.2021
5162 Rain 4 1021 81 8000 5.66 70 12:43 12.04.2021
5163 Rain 4 1020 70 9000 6.17 250 12:22 12.04.2021
5164 Rain 5 1019 65 10000 7.72 230 11:41 12.04.2021
5165 Clouds 4 1017 76 10000 5.66 250 10:51 12.04.2021
5166 Clouds 7 1017 81 10000 2.57 260 10:28 12.04.2021
5167 Clouds 5 1016 71 10000 0.51 0 09:53 12.04.2021
5168 Clouds 5 1016 71 10000 1.03 0 09:25 12.04.2021
5169 Clouds 5 1016 70 10000 1.03 0 08:54 12.04.2021
5170 Clouds 7 1016 75 10000 1.54 240 07:58 12.04.2021
5171 Clouds 5 1015 75 10000 1.54 200 07:30 12.04.2021
5172 Clouds 5 1015 75 10000 1.54 310 06:40 12.04.2021
5173 Clouds 4 1014 75 10000 1.54 0 05:47 12.04.2021
5174 Clouds 4 1014 70 10000 3.6 280 03:19 12.04.2021
5175 Clouds 11 1015 50 10000 3.6 110 00:30 12.04.2021
5176 Clouds 11 1015 50 10000 2.06 0 23:56 11.04.2021
5177 Clouds 11 1015 50 10000 2.06 0 23:38 11.04.2021
5178 Clouds 11 1015 50 10000 2.06 0 23:19 11.04.2021
5179 Clouds 12 1015 47 10000 6.17 160 22:38 11.04.2021
5180 Clouds 13 1015 44 10000 6.69 140 22:19 11.04.2021
5181 Clouds 13 1014 44 10000 7.2 140 21:42 11.04.2021
5182 Clouds 13 1014 44 10000 8.23 140 21:24 11.04.2021
5183 Clouds 13 1013 44 10000 8.75 150 20:42 11.04.2021
5184 Clouds 13 1013 44 10000 8.23 140 20:23 11.04.2021
5185 Clouds 13 1013 44 10000 9.26 130 19:43 11.04.2021
5186 Clouds 14 1012 41 10000 6.69 130 19:21 11.04.2021
5187 Clouds 15 1012 38 10000 8.75 140 18:57 11.04.2021
5188 Clouds 15 1012 38 10000 8.75 140 18:39 11.04.2021
5189 Clouds 15 1012 38 10000 9.77 140 18:20 11.04.2021
5190 Clouds 15 1012 41 10000 9.77 120 17:40 11.04.2021
5191 Clouds 15 1012 41 10000 9.77 120 17:40 11.04.2021
5192 Clouds 16 1012 36 10000 9.26 120 17:19 11.04.2021
5193 Clouds 16 1012 39 10000 9.77 130 16:42 11.04.2021
5194 Clouds 16 1012 36 10000 9.77 140 16:20 11.04.2021
5195 Clouds 16 1012 39 10000 10.29 130 15:45 11.04.2021
5196 Clouds 16 1012 36 10000 9.26 130 15:24 11.04.2021
5197 Clouds 15 1012 36 10000 7.2 130 14:51 11.04.2021
5198 Clouds 15 1012 36 10000 7.2 130 14:51 11.04.2021
5199 Clouds 15 1012 39 10000 6.17 100 14:22 11.04.2021
5200 Clouds 15 1012 39 10000 7.2 130 13:44 11.04.2021
5201 Clouds 15 1012 39 10000 6.69 120 13:26 11.04.2021
5202 Clouds 13 1012 38 10000 5.66 140 12:40 11.04.2021
5203 Clouds 13 1012 41 10000 6.17 120 12:20 11.04.2021
5204 Rain 13 1012 41 10000 7.2 130 11:45 11.04.2021
5205 Clouds 14 1012 44 10000 7.72 140 11:20 11.04.2021
5206 Clouds 14 1012 41 10000 8.75 130 10:45 11.04.2021
5207 Clouds 14 1012 44 10000 3.09 0 10:23 11.04.2021
5208 Clouds 11 1013 54 10000 5.14 260 09:50 11.04.2021
5209 Clouds 9 1013 61 10000 4.63 270 09:29 11.04.2021
5210 Clouds 9 1013 66 10000 4.12 270 08:40 11.04.2021
5211 Clouds 7 1014 65 10000 3.09 240 07:54 11.04.2021
5212 Clouds 7 1014 65 10000 3.09 270 07:19 11.04.2021
5213 Clouds 7 1014 65 10000 3.6 260 05:48 11.04.2021
5214 Clouds 7 1014 65 10000 3.6 270 05:23 11.04.2021
5215 Rain 7 1014 61 10000 3.6 250 04:46 11.04.2021
5216 Clouds 7 1014 65 10000 4.63 270 04:19 11.04.2021
5217 Clouds 12 1015 40 10000 7.2 130 00:55 11.04.2021
5218 Clouds 12 1015 40 10000 7.2 130 00:32 11.04.2021
5219 Clouds 12 1015 40 10000 6.69 110 23:46 10.04.2021
5220 Clouds 12 1015 37 10000 5.14 0 22:55 10.04.2021
5221 Clouds 12 1015 37 10000 6.17 110 22:28 10.04.2021
5222 Clouds 12 1015 37 10000 6.69 100 21:54 10.04.2021
5223 Clouds 12 1015 37 10000 6.69 120 21:25 10.04.2021
5224 Clouds 12 1015 37 10000 7.72 120 20:57 10.04.2021
5225 Clouds 12 1015 37 10000 7.72 120 20:37 10.04.2021
5226 Clouds 12 1015 37 10000 8.23 130 20:18 10.04.2021
5227 Clouds 12 1015 37 10000 6.69 130 19:42 10.04.2021
5228 Clouds 11 1015 40 10000 8.23 130 19:24 10.04.2021
5229 Clouds 13 1015 38 10000 8.75 130 18:42 10.04.2021
5230 Clouds 11 1015 38 10000 7.72 130 18:23 10.04.2021
5231 Clouds 13 1015 38 10000 8.75 140 17:35 10.04.2021
5232 Clouds 14 1015 35 10000 9.77 140 16:43 10.04.2021
5233 Clouds 14 1015 35 10000 9.77 130 16:24 10.04.2021
5234 Clouds 14 1015 35 10000 9.77 150 15:49 10.04.2021
5235 Clouds 14 1016 35 10000 9.77 150 14:55 10.04.2021
5236 Clouds 14 1016 35 10000 9.77 150 14:34 10.04.2021
5237 Clouds 14 1016 35 10000 7.72 140 13:56 10.04.2021
5238 Clouds 14 1016 35 10000 7.72 140 13:36 10.04.2021
5239 Clouds 14 1017 38 10000 7.2 130 12:43 10.04.2021
5240 Clouds 13 1017 35 10000 7.2 130 12:20 10.04.2021
5241 Clouds 13 1017 38 10000 6.69 130 11:45 10.04.2021
5242 Clouds 13 1017 38 10000 1.54 0 11:23 10.04.2021
5243 Clouds 11 1017 50 10000 5.66 270 10:51 10.04.2021
5244 Clouds 9 1018 53 10000 6.17 250 10:31 10.04.2021
5245 Clouds 8 1018 57 10000 5.14 260 09:44 10.04.2021
5246 Clouds 6 1018 65 10000 5.14 260 09:19 10.04.2021
5247 Clouds 5 1018 70 10000 3.6 240 08:34 10.04.2021
5248 Clouds 4 1018 75 10000 4.12 280 07:56 10.04.2021
5249 Clouds 2 1018 75 10000 3.6 270 07:26 10.04.2021
5250 Clouds 1 1018 80 10000 3.6 270 06:29 10.04.2021
5251 Clouds 2 1018 75 10000 2.06 280 05:34 10.04.2021
5252 Clouds 4 1018 65 10000 4.12 250 03:42 10.04.2021
5253 Clouds 4 1018 65 10000 3.6 280 02:48 10.04.2021
5254 Clouds 3 1019 60 10000 1.54 0 01:28 10.04.2021
5255 Clouds 6 1018 43 10000 3.09 120 00:37 10.04.2021
5256 Clouds 7 1019 40 10000 4.63 0 23:55 09.04.2021
5257 Clouds 7 1019 40 10000 4.63 0 23:30 09.04.2021
5258 Clouds 8 1018 37 10000 5.66 150 22:54 09.04.2021
5259 Clouds 8 1018 37 10000 5.66 150 22:36 09.04.2021
5260 Clouds 12 1018 37 10000 6.69 140 21:41 09.04.2021
5261 Clear 12 1017 37 10000 6.69 160 21:22 09.04.2021
5262 Clear 12 1017 35 10000 5.66 150 20:57 09.04.2021
5263 Clear 12 1017 35 10000 5.66 150 20:39 09.04.2021
5264 Clear 13 1017 33 10000 7.72 130 20:20 09.04.2021
5265 Clear 14 1016 28 10000 6.69 140 19:43 09.04.2021
5266 Clear 14 1016 28 10000 7.72 130 19:22 09.04.2021
5267 Clear 14 1016 26 10000 6.17 130 18:43 09.04.2021
5268 Clear 15 1017 26 10000 7.72 140 18:25 09.04.2021
5269 Clear 15 1017 26 10000 6.69 130 17:48 09.04.2021
5270 Clear 15 1017 26 10000 4.63 150 17:29 09.04.2021
5271 Clear 15 1017 26 10000 7.2 0 16:47 09.04.2021
5272 Clear 14 1017 26 10000 7.72 130 16:28 09.04.2021
5273 Clear 14 1017 26 10000 6.69 130 15:44 09.04.2021
5274 Clear 14 1018 26 10000 7.2 150 15:24 09.04.2021
5275 Clear 14 1018 25 10000 6.17 130 14:46 09.04.2021
5276 Clear 14 1018 26 10000 5.66 130 14:22 09.04.2021
5277 Clear 14 1019 28 10000 4.63 140 13:45 09.04.2021
5278 Clear 14 1019 28 10000 5.14 150 13:22 09.04.2021
5279 Clear 13 1020 26 10000 4.12 0 12:47 09.04.2021
5280 Clear 12 1020 28 10000 3.09 0 12:23 09.04.2021
5281 Clear 11 1021 30 10000 5.14 270 11:42 09.04.2021
5282 Clear 9 1021 29 10000 6.17 260 11:20 09.04.2021
5283 Clear 7 1022 45 10000 6.17 270 10:37 09.04.2021
5284 Clear 4 1022 52 10000 5.14 280 09:56 09.04.2021
5285 Clear 2 1023 64 10000 4.63 280 09:27 09.04.2021
5286 Clear 2 1023 69 10000 4.63 280 08:55 09.04.2021
5287 Clear 1 1023 74 10000 3.09 280 08:31 09.04.2021
5288 Clear -2 1023 74 10000 2.57 260 07:22 09.04.2021
5289 Clear -3 1023 80 10000 0.51 0 06:28 09.04.2021
5290 Clouds -2 1023 80 10000 0.51 0 04:38 09.04.2021
5291 Clouds -2 1024 80 10000 0.51 0 03:42 09.04.2021
5292 Clear -1 1024 74 10000 1.54 270 00:39 09.04.2021
5293 Clear -1 1024 74 10000 0.51 0 00:21 09.04.2021
5294 Clear -1 1024 75 10000 0.51 0 23:37 08.04.2021
5295 Clear 1 1024 65 10000 1.03 0 22:52 08.04.2021
5296 Clear 1 1024 65 10000 1.54 60 22:27 08.04.2021
5297 Clear 1 1024 65 10000 2.57 50 21:58 08.04.2021
5298 Clear 1 1024 65 10000 2.57 50 21:40 08.04.2021
5299 Clear 2 1023 60 10000 2.57 70 21:22 08.04.2021
5300 Clear 3 1023 56 10000 4.12 80 20:58 08.04.2021
5301 Clear 3 1023 56 10000 4.12 80 20:39 08.04.2021
5302 Clear 7 1022 49 10000 5.14 70 19:59 08.04.2021
5303 Clear 7 1022 42 10000 5.14 70 19:29 08.04.2021
5304 Clear 7 1021 40 10000 5.14 60 18:58 08.04.2021
5305 Clear 9 1021 40 10000 5.14 60 18:39 08.04.2021
5306 Clouds 8 1021 34 10000 4.12 80 18:19 08.04.2021
5307 Clouds 10 1021 29 10000 4.12 80 17:41 08.04.2021
5308 Clouds 9 1021 29 10000 2.57 0 17:19 08.04.2021
5309 Clouds 8 1022 32 10000 2.57 40 16:44 08.04.2021
5310 Clouds 9 1022 29 10000 4.12 50 16:22 08.04.2021
5311 Clouds 9 1022 32 10000 2.06 100 15:45 08.04.2021
5312 Clouds 8 1022 31 10000 2.06 0 15:25 08.04.2021
5313 Clouds 7 1023 34 10000 2.06 0 14:42 08.04.2021
5314 Clouds 6 1023 39 10000 3.09 110 14:21 08.04.2021
5315 Clouds 6 1023 36 10000 3.09 0 13:48 08.04.2021
5316 Clouds 7 1023 39 10000 2.57 0 13:24 08.04.2021
5317 Clouds 6 1024 42 10000 4.12 80 12:57 08.04.2021
5318 Clouds 6 1024 42 10000 4.12 80 12:33 08.04.2021
5319 Clouds 5 1024 49 10000 3.09 0 11:57 08.04.2021
5320 Clouds 4 1024 52 10000 2.57 80 11:26 08.04.2021
5321 Clouds 4 1024 56 10000 1.54 0 10:55 08.04.2021
5322 Clouds 2 1024 65 10000 2.06 80 10:25 08.04.2021
5323 Clouds 2 1024 69 10000 1.54 90 09:46 08.04.2021
5324 Clouds 1 1024 75 10000 1.03 0 09:26 08.04.2021
5325 Clouds 0 1024 86 10000 1.54 90 08:44 08.04.2021
5326 Clouds 0 1024 86 10000 2.06 60 08:22 08.04.2021
5327 Snow 0 1024 86 9000 2.57 70 07:45 08.04.2021
5328 Clouds 0 1023 74 10000 2.57 40 05:45 08.04.2021
5329 Snow 0 1022 51 10000 3.6 230 01:25 08.04.2021
5330 Snow 0 1022 51 10000 4.63 240 00:32 08.04.2021
5331 Snow 0 1022 51 10000 4.63 240 23:48 07.04.2021
5332 Snow 0 1021 51 10000 7.2 300 23:25 07.04.2021
5333 Snow 0 1021 48 10000 5.14 290 22:57 07.04.2021
5334 Snow 0 1021 48 10000 5.14 290 22:38 07.04.2021
5335 Snow 0 1021 48 10000 7.2 290 22:20 07.04.2021
5336 Snow 0 1020 44 10000 6.69 300 21:34 07.04.2021
5337 Clouds 0 1019 44 10000 5.66 290 20:54 07.04.2021
5338 Snow 0 1019 44 10000 8.75 300 20:30 07.04.2021
5339 Clouds 0 1019 44 10000 8.23 300 19:52 07.04.2021
5340 Clouds 0 1019 44 10000 8.23 300 19:34 07.04.2021
5341 Clouds 0 1018 44 10000 8.75 270 18:59 07.04.2021
5342 Clouds 1 1018 44 10000 8.75 270 18:41 07.04.2021
5343 Snow 0 1018 38 10000 8.75 260 18:18 07.04.2021
5344 Snow 1 1018 41 10000 8.75 280 17:45 07.04.2021
5345 Clouds 2 1018 41 10000 7.72 280 17:26 07.04.2021
5346 Snow 0 1018 44 10000 8.23 270 16:45 07.04.2021
5347 Snow 0 1018 44 10000 9.77 270 16:21 07.04.2021
5348 Snow 2 1018 41 10000 6.69 280 15:53 07.04.2021
5349 Snow 1 1018 41 10000 6.69 280 15:34 07.04.2021
5350 Snow 0 1017 35 10000 4.63 220 14:47 07.04.2021
5351 Snow 1 1017 38 10000 8.23 250 14:24 07.04.2021
5352 Snow 0 1017 38 10000 8.75 260 13:45 07.04.2021
5353 Snow 0 1016 41 10000 7.72 250 13:20 07.04.2021
5354 Snow -1 1016 48 10000 5.66 250 12:46 07.04.2021
5355 Snow 0 1016 48 10000 5.14 240 12:19 07.04.2021
5356 Snow -1 1016 60 10000 6.17 260 11:45 07.04.2021
5357 Snow -1 1015 60 10000 8.75 270 11:22 07.04.2021
5358 Snow -2 1015 64 10000 8.23 270 10:50 07.04.2021
5359 Snow -2 1014 80 4000 4.12 250 09:50 07.04.2021
5360 Snow -2 1013 86 3000 4.12 250 09:28 07.04.2021
5361 Snow -2 1013 86 3000 4.12 250 09:28 07.04.2021
5362 Snow -2 1013 74 10000 5.14 260 08:53 07.04.2021
5363 Snow -3 1013 74 10000 5.14 260 08:32 07.04.2021
5364 Snow -2 1012 74 10000 4.63 270 07:54 07.04.2021
5365 Snow -2 1011 74 10000 1.03 0 07:29 07.04.2021
5366 Snow -2 1011 74 10000 2.06 250 06:44 07.04.2021
5367 Snow -3 1011 93 10000 1.54 50 05:43 07.04.2021
5368 Snow -3 1010 74 10000 6.69 260 03:18 07.04.2021
5369 Snow -1 1010 59 10000 4.12 280 23:50 06.04.2021
5370 Snow -1 1010 55 10000 9.26 260 23:23 06.04.2021
5371 Snow -1 1010 47 10000 6.17 280 22:57 06.04.2021
5372 Snow 0 1010 35 10000 4.12 260 22:21 06.04.2021
5373 Snow 0 1010 35 10000 4.63 240 21:57 06.04.2021
5374 Snow 0 1010 35 10000 4.63 240 21:38 06.04.2021
5375 Snow 0 1010 38 10000 4.12 240 21:19 06.04.2021
5376 Snow 1 1009 35 10000 5.14 250 20:45 06.04.2021
5377 Snow 1 1009 35 10000 6.69 250 20:21 06.04.2021
5378 Snow 1 1009 38 10000 5.66 250 19:47 06.04.2021
5379 Snow 1 1009 35 10000 8.75 260 19:29 06.04.2021
5380 Clouds 2 1009 35 10000 10.29 260 18:45 06.04.2021
5381 Snow 1 1009 35 10000 9.26 260 18:23 06.04.2021
5382 Clouds 3 1009 36 10000 8.75 270 17:45 06.04.2021
5383 Snow 1 1009 35 10000 1.03 0 17:27 06.04.2021
5384 Snow 1 1009 41 10000 4.63 10 16:55 06.04.2021
5385 Snow 1 1009 41 10000 4.63 10 16:37 06.04.2021
5386 Clouds 1 1010 35 10000 4.63 250 15:31 06.04.2021
5387 Clouds 1 1010 30 10000 4.12 230 14:58 06.04.2021
5388 Clouds 1 1010 30 10000 4.12 230 14:39 06.04.2021
5389 Snow 1 1010 35 10000 5.14 330 14:18 06.04.2021
5390 Clouds 1 1010 33 10000 5.66 230 13:41 06.04.2021
5391 Clouds 1 1010 30 10000 5.14 250 13:23 06.04.2021
5392 Clouds 1 1010 28 10000 6.17 250 12:41 06.04.2021
5393 Clouds 1 1010 35 10000 6.17 250 12:21 06.04.2021
5394 Clouds 0 1011 32 10000 6.17 240 11:49 06.04.2021
5395 Clouds 0 1011 35 10000 5.14 240 11:21 06.04.2021
5396 Clouds 0 1011 41 10000 1.54 0 10:47 06.04.2021
5397 Clouds -1 1012 55 10000 1.03 0 10:27 06.04.2021
5398 Clouds -2 1012 59 10000 2.06 160 09:49 06.04.2021
5399 Clouds -2 1012 69 10000 1.54 40 09:29 06.04.2021
5400 Clouds -4 1012 74 10000 1.03 0 08:43 06.04.2021
5401 Clouds -4 1012 74 10000 1.03 0 08:18 06.04.2021
5402 Clouds -2 1012 74 10000 1.03 0 06:55 06.04.2021
5403 Snow -3 1012 80 10000 2.57 60 05:40 06.04.2021
5404 Snow -3 1011 74 6000 4.12 210 02:57 06.04.2021
5405 Snow 0 1009 93 6000 4.63 90 00:44 06.04.2021
5406 Snow 1 1008 80 10000 3.09 270 00:21 06.04.2021
5407 Snow 1 1007 81 10000 7.2 230 23:43 05.04.2021
5408 Drizzle 2 1005 53 10000 8.75 330 23:19 05.04.2021
5409 Rain 5 1003 50 10000 6.69 260 22:48 05.04.2021
5410 Clouds 6 1003 50 10000 9.77 280 22:26 05.04.2021
5411 Clouds 12 1003 35 10000 9.26 290 21:43 05.04.2021
5412 Clouds 9 1002 30 10000 10.29 280 21:21 05.04.2021
5413 Clouds 14 1001 24 10000 8.23 280 20:43 05.04.2021
5414 Clouds 15 1001 21 10000 5.66 300 20:25 05.04.2021
5415 Clouds 16 1000 18 10000 9.26 300 19:43 05.04.2021
5416 Clear 16 1000 17 10000 10.29 290 19:22 05.04.2021
5417 Clear 17 1000 16 10000 9.26 290 18:49 05.04.2021
5418 Clear 18 1001 17 10000 9.26 290 18:31 05.04.2021
5419 Clear 17 1001 16 10000 9.77 280 17:59 05.04.2021
5420 Clear 17 1001 16 10000 9.77 280 17:41 05.04.2021
5421 Clear 17 1001 14 10000 10.29 280 17:19 05.04.2021
5422 Clear 18 1001 16 10000 11.32 280 16:42 05.04.2021
5423 Clear 16 1002 16 10000 10.8 280 16:20 05.04.2021
5424 Clear 17 1002 16 10000 10.8 280 15:52 05.04.2021
5425 Clear 17 1003 20 10000 5.14 250 15:27 05.04.2021
5426 Clear 16 1004 23 10000 2.57 250 14:47 05.04.2021
5427 Clear 16 1004 29 10000 2.57 290 14:27 05.04.2021
5428 Clear 15 1006 29 10000 3.09 290 13:31 05.04.2021
5429 Clear 15 1006 29 10000 3.09 290 13:31 05.04.2021
5430 Clear 15 1006 29 10000 3.09 290 13:31 05.04.2021
5431 Clear 14 1007 35 10000 2.06 280 12:48 05.04.2021
5432 Clear 13 1008 35 10000 3.09 280 12:26 05.04.2021
5433 Clear 12 1009 40 10000 3.09 250 11:54 05.04.2021
5434 Clear 10 1010 46 10000 3.6 270 11:33 05.04.2021
5435 Clear 8 1011 53 10000 3.09 270 10:59 05.04.2021
5436 Clear 8 1011 53 10000 3.09 270 10:40 05.04.2021
5437 Clear 7 1011 56 10000 3.6 260 10:19 05.04.2021
5438 Clear 4 1012 65 10000 2.57 270 09:45 05.04.2021
5439 Clear 4 1013 70 10000 2.57 250 09:22 05.04.2021
5440 Clear 2 1013 75 10000 2.57 260 08:40 05.04.2021
5441 Clear 1 1014 80 10000 3.09 270 08:20 05.04.2021
5442 Clear -1 1014 80 10000 1.54 250 07:35 05.04.2021
5443 Clear 0 1016 74 10000 2.06 320 04:23 05.04.2021
5444 Clear 1 1018 64 10000 1.03 290 01:35 05.04.2021
5445 Clear 1 1018 69 10000 0.51 0 00:29 05.04.2021
5446 Clear 2 1018 65 10000 0.51 0 23:43 04.04.2021
5447 Clear 3 1018 60 10000 0.51 0 23:20 04.04.2021
5448 Clear 2 1018 60 10000 0.51 0 22:50 04.04.2021
5449 Clear 3 1018 52 10000 0.51 0 22:28 04.04.2021
5450 Clear 5 1018 45 10000 1.03 0 21:25 04.04.2021
5451 Clear 6 1017 42 10000 3.09 60 20:54 04.04.2021
5452 Clear 7 1017 40 10000 4.12 80 20:29 04.04.2021
5453 Clear 10 1016 34 10000 4.63 80 19:44 04.04.2021
5454 Clear 10 1016 30 10000 5.14 90 19:23 04.04.2021
5455 Clear 10 1016 28 10000 4.12 50 18:57 04.04.2021
5456 Clear 11 1017 28 10000 4.12 60 18:38 04.04.2021
5457 Clear 11 1017 28 10000 4.12 60 18:20 04.04.2021
5458 Clouds 12 1017 28 10000 2.06 100 17:37 04.04.2021
5459 Clouds 11 1017 28 10000 2.06 100 17:19 04.04.2021
5460 Clouds 11 1017 30 10000 4.12 70 16:41 04.04.2021
5461 Clouds 11 1018 30 10000 2.57 130 15:58 04.04.2021
5462 Clouds 11 1018 30 10000 3.09 90 15:33 04.04.2021
5463 Clouds 11 1019 30 10000 2.57 0 14:45 04.04.2021
5464 Clouds 10 1019 32 10000 3.09 0 14:26 04.04.2021
5465 Clouds 9 1020 32 10000 3.6 100 13:30 04.04.2021
5466 Clouds 9 1020 34 10000 3.09 70 12:55 04.04.2021
5467 Clouds 8 1020 34 10000 3.09 70 12:33 04.04.2021
5468 Clouds 7 1021 39 10000 2.06 110 11:53 04.04.2021
5469 Clouds 6 1021 39 10000 2.06 110 11:31 04.04.2021
5470 Clouds 6 1022 49 10000 1.03 0 10:56 04.04.2021
5471 Clouds 4 1022 49 10000 1.03 0 10:33 04.04.2021
5472 Clouds 3 1022 60 10000 2.06 250 09:53 04.04.2021
5473 Clouds 2 1023 64 10000 2.57 260 09:25 04.04.2021
5474 Clouds 1 1023 69 10000 1.03 270 08:52 04.04.2021
5475 Clouds 0 1023 69 10000 1.03 270 08:33 04.04.2021
5476 Clouds -1 1022 74 10000 1.03 270 07:50 04.04.2021
5477 Clouds -2 1022 80 10000 1.03 260 06:36 04.04.2021
5478 Clouds -1 1022 74 10000 0.94 233 05:33 04.04.2021
5479 Clouds 2 1023 65 10000 0.51 0 01:28 04.04.2021
5480 Clouds 2 1023 60 10000 1.03 0 00:20 04.04.2021
5481 Clouds 2 1023 56 10000 1.03 0 23:47 03.04.2021
5482 Clouds 3 1022 52 10000 0.51 0 23:24 03.04.2021
5483 Clouds 3 1022 52 10000 3.6 60 22:51 03.04.2021
5484 Clouds 4 1022 49 10000 4.63 70 22:21 03.04.2021
5485 Clouds 4 1022 49 10000 5.14 60 21:49 03.04.2021
5486 Clouds 4 1022 45 10000 4.12 40 21:24 03.04.2021
5487 Clouds 6 1022 45 10000 4.12 40 20:51 03.04.2021
5488 Clouds 4 1021 49 10000 4.63 70 20:28 03.04.2021
5489 Clouds 4 1021 49 10000 5.66 70 19:51 03.04.2021
5490 Clouds 6 1021 49 10000 4.63 80 19:25 03.04.2021
5491 Clouds 5 1020 49 10000 4.63 80 18:52 03.04.2021
5492 Clouds 6 1020 49 10000 4.63 80 18:33 03.04.2021
5493 Clouds 6 1020 49 10000 5.14 60 17:55 03.04.2021
5494 Clouds 6 1020 49 10000 5.66 60 17:26 03.04.2021
5495 Clouds 7 1020 46 10000 5.14 60 16:54 03.04.2021
5496 Clouds 7 1020 46 10000 3.6 70 16:25 03.04.2021
5497 Clouds 7 1020 45 10000 5.66 80 15:51 03.04.2021
5498 Clouds 7 1020 49 10000 5.66 70 15:31 03.04.2021
5499 Clouds 6 1020 49 10000 7.2 70 14:49 03.04.2021
5500 Clouds 7 1020 53 10000 7.72 70 14:25 03.04.2021
5501 Clouds 7 1020 53 10000 8.75 60 13:54 03.04.2021
5502 Clouds 7 1020 53 10000 8.75 60 13:34 03.04.2021
5503 Clouds 7 1019 49 10000 8.75 60 12:59 03.04.2021
5504 Clouds 7 1019 49 10000 8.75 60 12:33 03.04.2021
5505 Clouds 6 1019 49 10000 5.14 100 11:44 03.04.2021
5506 Clouds 5 1018 53 10000 3.6 90 11:26 03.04.2021
5507 Clouds 7 1018 53 10000 4.63 90 10:45 03.04.2021
5508 Clouds 5 1018 57 10000 5.66 110 10:26 03.04.2021
5509 Clouds 4 1018 61 10000 2.57 110 09:39 03.04.2021
5510 Clouds 5 1018 61 10000 0.51 0 09:21 03.04.2021
5511 Clouds 5 1018 70 10000 0.51 0 08:35 03.04.2021
5512 Clouds 4 1017 75 10000 1.03 0 07:40 03.04.2021
5513 Clouds 3 1017 81 10000 1.03 0 07:22 03.04.2021
5514 Clouds 7 1016 61 10000 1.54 0 03:54 03.04.2021
5515 Clouds 7 1016 71 10000 2.06 240 02:56 03.04.2021
5516 Clouds 7 1016 71 10000 1.54 100 02:31 03.04.2021
5517 Clouds 8 1016 76 10000 1.03 0 00:45 03.04.2021
5518 Clouds 8 1016 76 10000 1.03 180 00:18 03.04.2021
5519 Clouds 9 1016 71 10000 0.51 0 23:44 02.04.2021
5520 Clouds 10 1016 71 10000 2.57 160 23:18 02.04.2021
5521 Clouds 10 1016 71 10000 3.6 80 22:44 02.04.2021
5522 Rain 10 1016 66 10000 5.14 70 22:25 02.04.2021
5523 Clouds 12 1015 62 10000 2.06 110 21:41 02.04.2021
5524 Clouds 11 1015 62 10000 2.06 90 21:19 02.04.2021
5525 Clouds 11 1015 62 10000 3.6 90 20:42 02.04.2021
5526 Clouds 11 1014 62 10000 5.14 70 20:21 02.04.2021
5527 Clouds 12 1014 55 10000 5.14 90 19:42 02.04.2021
5528 Clouds 12 1013 55 10000 6.69 80 19:23 02.04.2021
5529 Clouds 13 1013 51 10000 6.69 80 18:48 02.04.2021
5530 Clouds 13 1012 51 10000 7.2 90 18:30 02.04.2021
5531 Clouds 14 1012 48 10000 6.69 90 17:56 02.04.2021
5532 Clouds 15 1012 48 10000 7.72 70 17:30 02.04.2021
5533 Clouds 15 1012 48 10000 7.2 70 16:35 02.04.2021
5534 Clouds 20 1012 32 10000 2.57 60 15:46 02.04.2021
5535 Clouds 16 1013 45 10000 3.6 80 15:22 02.04.2021
5536 Clouds 18 1014 45 10000 2.57 80 14:33 02.04.2021
5537 Clouds 17 1015 48 10000 3.6 50 13:50 02.04.2021
5538 Clouds 17 1015 48 10000 3.09 60 13:28 02.04.2021
5539 Clouds 16 1016 48 10000 2.57 70 12:58 02.04.2021
5540 Clouds 16 1016 48 10000 2.57 70 12:36 02.04.2021
5541 Clouds 15 1016 55 10000 3.09 70 12:18 02.04.2021
5542 Clouds 14 1016 58 10000 3.09 60 11:44 02.04.2021
5543 Clouds 14 1017 58 10000 3.09 60 11:18 02.04.2021
5544 Clouds 13 1017 62 10000 0.51 0 10:42 02.04.2021
5545 Clouds 12 1017 66 10000 0.51 0 10:21 02.04.2021
5546 Clouds 10 1017 76 10000 0.51 0 09:39 02.04.2021
5547 Clouds 9 1018 81 10000 0.51 0 09:21 02.04.2021
5548 Clouds 9 1018 81 10000 0.51 0 09:21 02.04.2021
5549 Clouds 9 1018 81 10000 1.03 270 08:45 02.04.2021
5550 Clouds 8 1018 81 10000 1.03 240 08:25 02.04.2021
5551 Clouds 7 1018 87 10000 1.03 0 07:20 02.04.2021
5552 Clouds 7 1018 87 10000 0.51 0 06:34 02.04.2021
5553 Clouds 8 1019 87 10000 0.51 0 03:25 02.04.2021
5554 Clouds 10 1019 82 10000 1.03 0 01:37 02.04.2021
5555 Clouds 11 1020 71 10000 1.03 0 00:41 02.04.2021
5556 Clouds 12 1020 62 10000 3.09 100 23:44 01.04.2021
5557 Rain 12 1019 58 1200 4.63 50 23:26 01.04.2021
5558 Rain 14 1018 45 10000 3.6 0 22:22 01.04.2021
5559 Rain 13 1017 51 10000 2.57 110 21:59 01.04.2021
5560 Rain 13 1017 51 10000 2.57 110 21:40 01.04.2021
5561 Rain 14 1017 54 10000 1.03 0 21:20 01.04.2021
5562 Clouds 16 1017 44 10000 1.03 0 20:39 01.04.2021
5563 Clouds 15 1017 42 10000 2.06 230 20:21 01.04.2021
5564 Clouds 19 1016 37 10000 1.54 230 19:40 01.04.2021
5565 Clouds 21 1016 28 10000 3.09 240 18:59 01.04.2021
5566 Clouds 21 1016 28 10000 3.09 240 18:41 01.04.2021
5567 Clouds 22 1016 26 10000 3.09 240 18:18 01.04.2021
5568 Clouds 23 1016 23 10000 3.6 250 17:39 01.04.2021
5569 Clouds 24 1016 23 10000 1.54 0 17:20 01.04.2021
5570 Clouds 22 1017 25 10000 1.03 0 16:44 01.04.2021
5571 Clouds 22 1017 25 10000 1.54 10 15:59 01.04.2021
5572 Clouds 22 1018 27 10000 2.57 0 15:24 01.04.2021
5573 Clouds 21 1018 24 10000 1.03 0 14:57 01.04.2021
5574 Clouds 21 1018 24 10000 1.03 0 14:38 01.04.2021
5575 Clouds 21 1019 24 10000 1.03 0 14:19 01.04.2021
5576 Clouds 20 1020 28 10000 1.03 0 13:47 01.04.2021
5577 Clouds 20 1020 27 10000 1.03 0 13:27 01.04.2021
5578 Clear 18 1021 32 10000 1.03 0 12:46 01.04.2021
5579 Clear 16 1021 36 10000 1.54 0 12:28 01.04.2021
5580 Clear 14 1022 38 10000 2.06 270 11:44 01.04.2021
5581 Clear 14 1022 41 10000 2.57 270 11:19 01.04.2021
5582 Clear 12 1023 47 10000 2.57 270 10:47 01.04.2021
5583 Clear 11 1023 54 10000 3.09 270 10:28 01.04.2021
5584 Clear 10 1023 57 10000 1.54 260 09:41 01.04.2021
5585 Clear 9 1024 61 10000 1.03 0 09:22 01.04.2021
5586 Clear 7 1024 70 10000 0.51 0 08:33 01.04.2021
5587 Clear 5 1023 87 10000 0.51 0 07:23 01.04.2021
5588 Clear 6 1023 75 10000 1.03 0 06:58 01.04.2021
5589 Clear 5 1023 75 10000 1.03 0 06:27 01.04.2021
5590 Clouds 7 1024 75 10000 1.03 0 03:25 01.04.2021
5591 Clear 9 1023 61 10000 0.51 0 00:28 01.04.2021
5592 Clear 10 1023 57 10000 1.03 0 23:44 31.03.2021
5593 Clear 10 1023 54 10000 1.03 0 22:56 31.03.2021
5594 Clear 10 1023 54 10000 1.03 0 22:38 31.03.2021
5595 Clear 10 1023 58 10000 0.51 0 22:19 31.03.2021
5596 Clear 11 1023 47 10000 0.51 0 21:44 31.03.2021
5597 Clear 11 1022 44 10000 0.51 0 21:20 31.03.2021
5598 Clear 13 1022 41 10000 1.03 0 20:42 31.03.2021
5599 Clear 14 1021 31 10000 3.6 250 20:22 31.03.2021
5600 Clear 16 1021 27 10000 4.63 260 19:44 31.03.2021
5601 Clear 18 1021 26 10000 3.6 50 19:25 31.03.2021
5602 Clear 22 1021 24 10000 3.6 40 18:58 31.03.2021
5603 Clear 22 1021 24 10000 3.6 40 18:40 31.03.2021
5604 Clear 22 1021 17 10000 2.06 60 17:51 31.03.2021
5605 Clear 24 1021 17 10000 2.06 60 17:31 31.03.2021
5606 Clear 24 1022 15 10000 1.03 0 16:56 31.03.2021
5607 Clear 24 1022 15 10000 1.03 0 16:37 31.03.2021
5608 Clear 23 1022 14 10000 1.54 0 16:18 31.03.2021
5609 Clear 23 1023 23 10000 1.03 0 15:43 31.03.2021
5610 Clear 22 1023 25 10000 1.03 0 15:19 31.03.2021
5611 Clear 21 1023 23 10000 1.03 0 14:42 31.03.2021
5612 Clear 21 1024 23 10000 1.03 0 14:20 31.03.2021
5613 Clear 19 1024 26 10000 1.03 0 13:39 31.03.2021
5614 Clear 17 1026 29 10000 2.06 0 12:42 31.03.2021
5615 Clear 16 1026 33 10000 3.09 270 12:20 31.03.2021
5616 Clear 14 1027 36 10000 1.54 260 11:41 31.03.2021
5617 Clear 13 1027 44 10000 2.06 270 11:20 31.03.2021
5618 Clear 11 1028 47 10000 3.09 280 10:46 31.03.2021
5619 Clear 11 1028 53 10000 2.57 270 10:24 31.03.2021
5620 Clear 8 1029 66 10000 1.03 0 09:38 31.03.2021
5621 Clear 7 1029 75 10000 1.33 206 08:54 31.03.2021
5622 Clear 6 1029 75 10000 1.33 206 08:33 31.03.2021
5623 Clear 3 1029 80 10000 1.03 280 07:49 31.03.2021
5624 Clear 4 1029 80 10000 0.51 0 06:38 31.03.2021
5625 Clear 5 1030 81 10000 2.06 260 03:46 31.03.2021
5626 Clouds 6 1030 70 10000 1.54 230 01:35 31.03.2021
5627 Clouds 7 1030 65 10000 1.03 280 00:48 31.03.2021
5628 Clouds 7 1030 65 10000 0.51 0 00:19 31.03.2021
5629 Clouds 9 1030 61 10000 1.03 0 23:29 30.03.2021
5630 Clouds 8 1030 57 10000 1.03 0 22:56 30.03.2021
5631 Clouds 8 1030 57 10000 1.03 0 22:38 30.03.2021
5632 Clouds 9 1030 53 10000 0.51 0 22:20 30.03.2021
5633 Clouds 9 1030 54 10000 0.51 0 21:42 30.03.2021
5634 Clouds 10 1029 47 10000 0.51 0 21:19 30.03.2021
5635 Clouds 10 1029 47 10000 0.51 0 20:51 30.03.2021
5636 Clear 12 1029 44 10000 1.03 0 20:27 30.03.2021
5637 Clear 17 1028 34 10000 2.06 250 19:50 30.03.2021
5638 Clear 16 1028 30 10000 2.06 60 19:27 30.03.2021
5639 Clear 20 1028 28 10000 3.6 60 18:38 30.03.2021
5640 Clear 22 1028 23 10000 3.09 80 17:52 30.03.2021
5641 Clear 22 1028 23 10000 3.09 80 17:34 30.03.2021
5642 Clear 22 1029 23 10000 3.09 80 16:48 30.03.2021
5643 Clear 22 1029 23 10000 2.57 110 16:29 30.03.2021
5644 Clear 21 1030 24 10000 2.57 0 15:43 30.03.2021
5645 Clear 20 1030 23 10000 2.06 110 15:20 30.03.2021
5646 Clear 19 1031 32 10000 1.03 0 14:55 30.03.2021
5647 Clear 18 1031 29 10000 0.51 0 14:22 30.03.2021
5648 Clear 18 1032 27 10000 1.03 0 13:57 30.03.2021
5649 Clear 17 1032 27 10000 1.03 0 13:36 30.03.2021
5650 Clear 15 1033 38 10000 1.03 0 12:45 30.03.2021
5651 Clear 14 1033 41 10000 1.03 0 12:27 30.03.2021
5652 Clear 13 1034 47 10000 1.54 270 11:52 30.03.2021
5653 Clear 11 1034 46 10000 2.57 250 11:22 30.03.2021
5654 Clear 9 1035 57 10000 3.09 260 10:43 30.03.2021
5655 Clear 8 1035 65 10000 2.06 270 10:20 30.03.2021
5656 Clear 6 1035 65 10000 1.54 250 09:43 30.03.2021
5657 Clear 6 1035 70 10000 1.54 260 09:25 30.03.2021
5658 Clear 4 1035 75 10000 1.54 270 08:54 30.03.2021
5659 Clear 5 1035 75 10000 1.54 270 08:36 30.03.2021
5660 Clear 2 1035 86 10000 1.54 270 07:51 30.03.2021
5661 Clear 3 1035 80 10000 1.03 0 07:22 30.03.2021
5662 Clouds 4 1035 75 10000 1.03 0 05:25 30.03.2021
5663 Clouds 4 1035 75 10000 1.54 260 04:57 30.03.2021
5664 Clouds 7 1035 61 10000 0.51 0 00:28 30.03.2021
5665 Clouds 6 1035 61 10000 0.51 0 23:33 29.03.2021
5666 Clouds 7 1034 57 10000 0.51 0 22:45 29.03.2021
5667 Clouds 8 1034 53 10000 1.54 270 22:25 29.03.2021
5668 Clouds 7 1034 50 10000 0.51 0 21:43 29.03.2021
5669 Clouds 8 1033 46 10000 1.03 0 21:23 29.03.2021
5670 Clouds 10 1033 43 10000 1.03 0 20:47 29.03.2021
5671 Clear 11 1032 44 10000 1.03 0 20:26 29.03.2021
5672 Clear 15 1032 38 10000 3.09 260 19:48 29.03.2021
5673 Clear 15 1031 27 10000 1.54 70 19:22 29.03.2021
5674 Clear 19 1031 20 10000 3.09 120 18:42 29.03.2021
5675 Clear 18 1031 18 10000 3.09 100 18:23 29.03.2021
5676 Clear 18 1031 18 10000 3.09 90 17:45 29.03.2021
5677 Clear 18 1031 19 10000 2.57 100 17:18 29.03.2021
5678 Clear 18 1032 21 10000 1.54 70 16:37 29.03.2021
5679 Clear 19 1032 21 10000 1.54 140 16:18 29.03.2021
5680 Clouds 18 1032 20 10000 2.57 80 15:35 29.03.2021
5681 Clouds 17 1032 25 10000 1.54 0 14:57 29.03.2021
5682 Clouds 17 1032 25 10000 1.54 0 14:36 29.03.2021
5683 Clear 16 1033 31 10000 1.03 0 13:53 29.03.2021
5684 Clear 15 1034 29 10000 1.03 0 13:29 29.03.2021
5685 Clear 14 1034 30 10000 1.03 0 12:51 29.03.2021
5686 Clear 14 1034 30 10000 1.03 0 12:51 29.03.2021
5687 Clear 12 1034 35 10000 1.03 0 12:29 29.03.2021
5688 Clear 10 1035 37 10000 2.06 260 11:41 29.03.2021
5689 Clear 10 1035 43 10000 1.54 0 11:22 29.03.2021
5690 Clear 8 1035 46 10000 1.54 240 10:40 29.03.2021
5691 Clear 6 1035 60 10000 1.03 0 09:56 29.03.2021
5692 Clear 2 1035 75 10000 1.03 250 08:59 29.03.2021
5693 Clear 2 1035 80 10000 0.51 0 08:29 29.03.2021
5694 Clear 1 1035 80 10000 1.03 0 07:42 29.03.2021
5695 Clear 2 1035 80 10000 1.54 260 06:42 29.03.2021
5696 Clouds 2 1034 75 10000 1.03 0 05:18 29.03.2021
5697 Clouds 2 1034 70 10000 1.03 0 02:22 29.03.2021
5698 Clouds 3 1033 70 10000 1.03 0 00:26 29.03.2021
5699 Clouds 4 1032 60 10000 1.54 270 23:53 28.03.2021
5700 Clear 4 1032 61 10000 0.51 0 23:24 28.03.2021
5701 Clear 4 1032 61 10000 1.03 0 22:42 28.03.2021
5702 Clear 6 1031 53 10000 1.03 0 22:23 28.03.2021
5703 Clear 6 1031 49 10000 1.03 0 21:45 28.03.2021
5704 Clear 6 1030 53 10000 1.03 0 21:24 28.03.2021
5705 Clear 7 1030 49 10000 1.03 0 20:51 28.03.2021
5706 Clear 9 1029 43 10000 1.03 0 20:33 28.03.2021
5707 Clear 13 1029 38 10000 1.03 0 19:47 28.03.2021
5708 Clear 13 1028 25 10000 1.03 0 19:25 28.03.2021
5709 Clear 16 1028 27 10000 1.54 100 18:59 28.03.2021
5710 Clear 16 1028 27 10000 1.54 100 18:36 28.03.2021
5711 Clouds 15 1028 20 10000 0.51 0 17:56 28.03.2021
5712 Clouds 15 1028 20 10000 0.51 0 17:36 28.03.2021
5713 Clouds 15 1028 23 10000 1.03 0 16:55 28.03.2021
5714 Clear 16 1029 29 10000 1.54 0 16:27 28.03.2021
5715 Clear 14 1029 31 10000 2.06 260 15:49 28.03.2021
5716 Clear 14 1029 31 10000 1.54 0 15:24 28.03.2021
5717 Clear 12 1030 38 10000 1.03 0 14:40 28.03.2021
5718 Clear 13 1030 38 10000 1.03 0 14:18 28.03.2021
5719 Clear 12 1031 43 10000 1.03 0 13:35 28.03.2021
5720 Clouds 9 1032 50 10000 1.54 180 12:56 28.03.2021
5721 Clouds 10 1032 50 10000 1.54 180 12:34 28.03.2021
5722 Clouds 9 1032 53 10000 1.03 0 11:52 28.03.2021
5723 Clouds 9 1032 53 10000 1.03 0 11:32 28.03.2021
5724 Clouds 6 1033 65 10000 2.06 240 10:48 28.03.2021
5725 Clouds 5 1033 70 10000 1.03 0 10:29 28.03.2021
5726 Clouds 4 1032 75 10000 1.03 0 09:51 28.03.2021
5727 Clouds 3 1032 87 10000 1.54 260 09:27 28.03.2021
5728 Clouds 2 1032 86 10000 1.54 270 08:48 28.03.2021
5729 Clouds 2 1032 86 10000 1.03 0 08:30 28.03.2021
5730 Clouds 1 1031 93 10000 0.51 0 07:39 28.03.2021
5731 Clouds 1 1031 86 10000 2.06 280 05:39 28.03.2021
5732 Clouds 3 1031 81 10000 2.57 260 03:28 28.03.2021
5733 Clouds 4 1031 75 10000 1.54 260 00:35 28.03.2021
5734 Clouds 4 1030 75 10000 1.03 0 23:51 27.03.2021
5735 Clouds 4 1030 75 10000 1.03 0 23:33 27.03.2021
5736 Clouds 5 1030 70 10000 1.54 240 22:40 27.03.2021
5737 Clouds 4 1029 75 10000 1.54 270 22:21 27.03.2021
5738 Clouds 5 1029 70 10000 1.03 250 21:42 27.03.2021
5739 Clouds 5 1029 70 10000 1.03 0 21:21 27.03.2021
5740 Clouds 6 1028 61 10000 0.51 0 20:56 27.03.2021
5741 Clouds 5 1028 61 10000 0.51 0 20:37 27.03.2021
5742 Clouds 5 1028 57 10000 1.03 0 19:47 27.03.2021
5743 Clouds 6 1027 57 10000 2.57 90 19:27 27.03.2021
5744 Clouds 7 1027 57 10000 2.57 90 18:58 27.03.2021
5745 Clouds 7 1027 57 10000 2.57 90 18:39 27.03.2021
5746 Clouds 7 1026 53 10000 3.6 80 18:20 27.03.2021
5747 Clouds 7 1025 53 10000 4.63 90 17:29 27.03.2021
5748 Clouds 7 1024 57 10000 4.12 90 16:58 27.03.2021
5749 Clouds 8 1024 57 10000 4.12 90 16:38 27.03.2021
5750 Clouds 8 1024 57 10000 5.14 90 16:20 27.03.2021
5751 Clouds 8 1024 53 10000 5.14 80 15:39 27.03.2021
5752 Clouds 8 1024 57 10000 5.14 80 14:55 27.03.2021
5753 Clouds 8 1023 58 10000 6.69 70 14:24 27.03.2021
5754 Clouds 9 1023 50 10000 3.09 250 13:39 27.03.2021
5755 Clouds 9 1023 54 10000 4.63 280 13:19 27.03.2021
5756 Clouds 9 1022 54 10000 5.14 250 12:41 27.03.2021
5757 Clouds 8 1022 47 10000 2.57 60 11:49 27.03.2021
5758 Clouds 9 1022 50 10000 3.6 70 11:31 27.03.2021
5759 Rain 8 1022 50 10000 3.09 80 10:49 27.03.2021
5760 Clouds 8 1021 54 10000 3.6 270 10:30 27.03.2021
5761 Clouds 9 1021 57 10000 5.66 260 09:47 27.03.2021
5762 Clouds 8 1021 61 10000 5.66 270 09:18 27.03.2021
5763 Clouds 6 1021 65 10000 3.6 250 08:39 27.03.2021
5764 Clouds 5 1020 75 10000 3.09 260 07:49 27.03.2021
5765 Clouds 5 1020 75 10000 5.14 260 06:59 27.03.2021
5766 Clouds 5 1020 75 10000 5.14 260 06:59 27.03.2021
5767 Clouds 5 1020 75 10000 5.14 260 06:39 27.03.2021
5768 Clouds 4 1019 70 10000 3.6 250 04:42 27.03.2021
5769 Clouds 6 1020 70 10000 4.12 260 02:19 27.03.2021
5770 Clouds 7 1020 65 10000 4.12 260 00:33 27.03.2021
5771 Clouds 7 1020 61 10000 2.57 250 23:59 26.03.2021
5772 Clear 7 1020 61 10000 3.6 270 23:25 26.03.2021
5773 Clear 6 1020 57 10000 2.57 0 22:39 26.03.2021
5774 Clear 6 1019 53 10000 1.54 0 21:42 26.03.2021
5775 Clear 6 1020 46 10000 2.06 0 21:23 26.03.2021
5776 Clear 9 1019 38 10000 4.12 20 20:55 26.03.2021
5777 Clear 9 1019 35 10000 2.06 0 20:31 26.03.2021
5778 Clear 10 1018 33 10000 2.57 0 19:52 26.03.2021
5779 Clear 11 1018 33 10000 4.63 140 19:33 26.03.2021
5780 Clear 12 1017 31 10000 4.63 130 18:51 26.03.2021
5781 Clear 12 1017 31 10000 6.17 140 18:31 26.03.2021
5782 Clear 17 1017 27 10000 3.09 0 17:57 26.03.2021
5783 Clouds 15 1017 29 10000 3.09 130 17:28 26.03.2021
5784 Clouds 18 1017 24 10000 4.63 120 16:36 26.03.2021
5785 Clouds 19 1017 22 10000 4.12 130 15:59 26.03.2021
5786 Clouds 19 1017 22 10000 4.12 130 15:36 26.03.2021
5787 Clouds 18 1018 24 10000 1.54 220 14:45 26.03.2021
5788 Clouds 17 1019 29 10000 1.03 0 13:52 26.03.2021
5789 Clouds 16 1020 31 10000 2.06 270 13:26 26.03.2021
5790 Clear 14 1020 29 10000 2.06 280 12:40 26.03.2021
5791 Clear 12 1022 40 10000 3.09 270 11:49 26.03.2021
5792 Clear 11 1022 43 10000 3.09 270 11:30 26.03.2021
5793 Clear 9 1023 49 10000 3.09 270 10:44 26.03.2021
5794 Clear 8 1023 57 10000 2.06 270 10:23 26.03.2021
5795 Clear 7 1023 57 10000 2.57 260 09:41 26.03.2021
5796 Clear 4 1024 70 10000 1.03 0 08:49 26.03.2021
5797 Clear 4 1024 75 10000 2.06 260 08:31 26.03.2021
5798 Clear 1 1024 86 10000 2.06 260 07:57 26.03.2021
5799 Clouds 1 1024 86 10000 1.03 270 07:22 26.03.2021
5800 Clouds 1 1024 93 10000 1.03 0 06:56 26.03.2021
5801 Clouds 0 1024 93 10000 1.03 0 05:32 26.03.2021
5802 Clouds 1 1024 80 10000 1.03 240 04:23 26.03.2021
5803 Clouds 2 1024 80 10000 1.03 250 01:18 26.03.2021
5804 Clouds 2 1023 75 10000 0.51 0 00:18 26.03.2021
5805 Clouds 2 1023 75 10000 0.51 0 23:42 25.03.2021
5806 Clear 4 1023 70 10000 0.51 0 22:41 25.03.2021
5807 Clear 4 1023 65 10000 1.03 0 22:20 25.03.2021
5808 Clear 5 1022 65 10000 0.51 0 21:47 25.03.2021
5809 Clear 4 1022 61 10000 1.03 0 21:29 25.03.2021
5810 Clear 5 1021 61 10000 0.51 0 20:41 25.03.2021
5811 Clear 5 1021 57 10000 0.51 0 20:23 25.03.2021
5812 Clear 7 1021 46 10000 1.03 0 19:40 25.03.2021
5813 Clear 9 1020 40 10000 1.54 0 19:22 25.03.2021
5814 Clear 9 1019 40 10000 2.57 0 18:46 25.03.2021
5815 Clear 15 1019 31 10000 5.14 80 18:26 25.03.2021
5816 Clear 16 1019 29 10000 3.6 40 17:42 25.03.2021
5817 Clear 17 1018 25 10000 3.09 80 17:23 25.03.2021
5818 Clear 17 1018 23 10000 1.54 100 16:39 25.03.2021
5819 Clear 18 1018 25 10000 1.54 150 16:20 25.03.2021
5820 Clear 18 1019 25 10000 1.03 0 15:42 25.03.2021
5821 Clear 17 1019 23 10000 1.54 110 15:19 25.03.2021
5822 Clear 16 1019 27 10000 2.06 140 14:42 25.03.2021
5823 Clear 15 1020 29 10000 2.06 130 13:40 25.03.2021
5824 Clear 14 1021 28 10000 1.03 0 13:22 25.03.2021
5825 Clear 14 1021 33 10000 1.54 0 12:41 25.03.2021
5826 Clear 12 1022 37 10000 0.51 0 12:20 25.03.2021
5827 Clear 11 1022 40 10000 1.03 0 11:48 25.03.2021
5828 Clear 10 1023 43 10000 1.03 0 11:26 25.03.2021
5829 Clear 9 1023 49 10000 2.06 260 10:51 25.03.2021
5830 Clear 7 1024 53 10000 1.03 0 10:24 25.03.2021
5831 Clear 7 1024 56 10000 1.03 0 09:56 25.03.2021
5832 Clear 6 1024 56 10000 1.03 0 09:38 25.03.2021
5833 Clear 3 1024 75 10000 1.54 240 08:46 25.03.2021
5834 Clear 0 1024 86 10000 1.54 280 07:59 25.03.2021
5835 Clear 0 1024 93 10000 1.03 0 06:59 25.03.2021
5836 Clear 0 1024 86 10000 1.03 0 06:25 25.03.2021
5837 Clear -1 1024 93 10000 1.03 0 05:49 25.03.2021
5838 Clear -1 1024 86 10000 1.03 0 02:48 25.03.2021
5839 Clear 0 1024 86 10000 1.03 320 00:21 25.03.2021
5840 Clear 1 1024 80 10000 0.51 0 23:51 24.03.2021
5841 Clear 1 1024 75 10000 0.51 0 23:28 24.03.2021
5842 Clear 1 1024 80 10000 0.51 0 22:48 24.03.2021
5843 Clear 2 1024 75 10000 0.51 0 22:27 24.03.2021
5844 Clear 2 1024 75 10000 0.51 0 21:42 24.03.2021
5845 Clear 2 1024 75 10000 0.51 0 21:23 24.03.2021
5846 Clear 2 1024 75 10000 0.51 0 20:43 24.03.2021
5847 Clear 3 1023 70 10000 0.51 0 20:20 24.03.2021
5848 Clear 4 1023 65 10000 1.03 0 19:46 24.03.2021
5849 Clear 5 1022 61 10000 0.51 0 19:28 24.03.2021
5850 Clear 10 1022 50 10000 1.03 0 18:46 24.03.2021
5851 Clear 12 1022 47 10000 1.54 20 18:23 24.03.2021
5852 Clear 13 1022 38 10000 3.09 50 17:49 24.03.2021
5853 Clear 14 1022 30 10000 3.09 60 17:29 24.03.2021
5854 Clear 14 1022 35 10000 2.57 90 16:51 24.03.2021
5855 Clear 14 1022 33 10000 2.57 50 16:29 24.03.2021
5856 Clear 14 1022 30 10000 1.54 0 15:50 24.03.2021
5857 Clear 14 1022 28 10000 3.09 60 15:30 24.03.2021
5858 Clear 13 1022 35 10000 2.57 100 14:47 24.03.2021
5859 Clear 11 1023 37 10000 2.06 90 14:26 24.03.2021
5860 Clear 10 1023 40 10000 2.57 110 13:54 24.03.2021
5861 Clear 10 1024 43 10000 2.06 0 13:27 24.03.2021
5862 Clear 9 1024 43 10000 1.03 0 12:42 24.03.2021
5863 Clear 9 1024 49 10000 1.03 0 12:23 24.03.2021
5864 Clear 8 1025 53 10000 1.03 0 11:44 24.03.2021
5865 Clear 6 1026 61 10000 1.54 250 10:59 24.03.2021
5866 Clear 6 1026 61 10000 1.54 250 10:40 24.03.2021
5867 Clear 5 1026 65 10000 1.54 270 10:20 24.03.2021
5868 Clear 3 1027 70 10000 1.03 0 09:51 24.03.2021
5869 Clear 3 1027 80 10000 1.03 0 09:20 24.03.2021
5870 Clear 1 1027 80 10000 1.54 260 08:50 24.03.2021
5871 Clear 0 1027 86 10000 1.03 0 08:26 24.03.2021
5872 Clear -1 1027 86 10000 0.51 0 07:37 24.03.2021
5873 Clear -2 1026 93 10000 1.03 250 06:52 24.03.2021
5874 Clouds -2 1026 93 10000 1.03 0 03:57 24.03.2021
5875 Clouds -1 1026 93 10000 0.51 0 00:51 24.03.2021
5876 Clouds 0 1026 86 10000 0.51 0 23:59 23.03.2021
5877 Clouds 0 1026 80 10000 1.03 0 23:22 23.03.2021
5878 Clouds 1 1026 86 10000 1.03 160 22:54 23.03.2021
5879 Clouds 1 1026 86 10000 1.03 160 22:36 23.03.2021
5880 Clouds 1 1025 80 10000 1.03 0 21:54 23.03.2021
5881 Clouds 1 1025 80 10000 1.03 0 21:34 23.03.2021
5882 Clouds 2 1025 80 10000 0.51 0 20:48 23.03.2021
5883 Clear 2 1024 75 10000 1.03 0 20:29 23.03.2021
5884 Clear 2 1024 70 10000 0.51 0 19:57 23.03.2021
5885 Clear 2 1024 70 10000 0.51 0 19:37 23.03.2021
5886 Clouds 3 1024 65 10000 2.06 40 19:19 23.03.2021
5887 Clouds 4 1023 61 10000 2.57 70 18:38 23.03.2021
5888 Clouds 6 1023 53 10000 3.6 60 18:18 23.03.2021
5889 Clouds 6 1023 53 10000 3.6 60 17:43 23.03.2021
5890 Clouds 8 1023 46 10000 3.09 80 17:21 23.03.2021
5891 Clouds 8 1023 46 10000 1.54 0 16:26 23.03.2021
5892 Clouds 7 1023 46 10000 2.06 0 15:51 23.03.2021
5893 Clouds 6 1023 49 10000 2.57 70 15:24 23.03.2021
5894 Clouds 6 1023 49 10000 2.06 0 14:49 23.03.2021
5895 Clouds 7 1024 46 10000 2.06 0 14:20 23.03.2021
5896 Clouds 7 1024 49 10000 2.06 120 13:47 23.03.2021
5897 Clouds 7 1024 49 10000 1.54 0 13:25 23.03.2021
5898 Clouds 6 1024 42 10000 1.03 0 12:46 23.03.2021
5899 Clouds 5 1025 49 10000 0.51 0 12:26 23.03.2021
5900 Clouds 5 1025 49 10000 0.51 0 11:49 23.03.2021
5901 Clouds 5 1025 52 10000 0.51 0 11:26 23.03.2021
5902 Clouds 4 1025 65 10000 0.51 0 10:42 23.03.2021
5903 Clouds 3 1026 70 10000 1.03 0 10:21 23.03.2021
5904 Clouds 2 1025 75 10000 1.03 270 09:51 23.03.2021
5905 Clouds 1 1025 80 10000 1.03 0 09:23 23.03.2021
5906 Clouds 1 1025 86 10000 0.51 0 08:55 23.03.2021
5907 Clouds 1 1025 86 10000 0.51 0 08:37 23.03.2021
5908 Clouds -1 1025 93 10000 0.51 0 08:19 23.03.2021
5909 Clouds 0 1025 100 10000 1.03 0 07:28 23.03.2021
5910 Clouds 0 1025 93 10000 1.54 260 06:53 23.03.2021
5911 Clouds 0 1024 93 7000 0.51 0 03:57 23.03.2021
5912 Clouds 0 1024 100 8000 0.51 0 03:18 23.03.2021
5913 Clouds 0 1024 86 10000 0.51 0 23:56 22.03.2021
5914 Clouds 0 1024 86 10000 0.51 0 23:20 22.03.2021
5915 Clouds 0 1023 86 10000 1.03 0 22:44 22.03.2021
5916 Clouds 0 1023 86 10000 0.51 0 22:21 22.03.2021
5917 Clouds 0 1023 86 10000 1.03 0 21:49 22.03.2021
5918 Snow 0 1023 86 10000 1.54 70 21:27 22.03.2021
5919 Clouds 1 1023 86 10000 1.03 0 20:44 22.03.2021
5920 Snow 0 1023 86 10000 0.51 0 20:26 22.03.2021
5921 Snow 1 1022 80 10000 0.51 0 19:58 22.03.2021
5922 Snow 1 1022 80 10000 0.51 0 19:39 22.03.2021
5923 Snow 0 1022 80 10000 1.03 0 19:20 22.03.2021
5924 Clouds 1 1021 80 10000 1.54 340 18:41 22.03.2021
5925 Clouds 2 1021 70 10000 1.54 70 18:22 22.03.2021
5926 Clouds 2 1020 75 10000 1.54 0 17:49 22.03.2021
5927 Clouds 2 1020 75 10000 1.54 260 17:22 22.03.2021
5928 Clouds 2 1019 70 10000 1.03 0 16:55 22.03.2021
5929 Clouds 2 1019 70 10000 1.03 0 16:37 22.03.2021
5930 Clouds 3 1019 75 10000 2.06 50 15:43 22.03.2021
5931 Clouds 3 1019 70 10000 3.09 60 15:23 22.03.2021
5932 Clouds 3 1019 75 10000 3.09 60 14:58 22.03.2021
5933 Clouds 3 1019 75 10000 3.09 60 14:34 22.03.2021
5934 Clouds 2 1019 81 10000 1.03 0 13:52 22.03.2021
5935 Clouds 2 1019 81 10000 1.03 0 13:33 22.03.2021
5936 Clouds 2 1019 81 7000 0.51 0 12:59 22.03.2021
5937 Clouds 2 1019 81 7000 0.51 0 12:26 22.03.2021
5938 Snow 1 1019 87 3000 0.51 0 11:57 22.03.2021
5939 Snow 1 1019 87 3000 0.51 0 11:39 22.03.2021
5940 Snow 1 1019 87 3000 0.51 0 11:20 22.03.2021
5941 Snow 1 1019 93 3000 0.51 0 10:41 22.03.2021
5942 Snow 1 1019 93 3000 0.51 0 10:18 22.03.2021
5943 Snow 0 1019 93 3000 0.51 0 09:36 22.03.2021
5944 Snow 0 1018 100 2500 1.03 0 08:57 22.03.2021
5945 Snow 0 1018 100 2500 1.03 0 08:57 22.03.2021
5946 Snow 0 1018 100 2500 1.03 0 08:39 22.03.2021
5947 Snow 0 1018 100 2400 1.54 80 08:20 22.03.2021
5948 Snow 0 1017 100 2000 1.03 90 07:42 22.03.2021
5949 Snow 0 1017 93 1600 0.51 0 06:52 22.03.2021
5950 Snow 0 1017 93 3600 1.03 0 05:18 22.03.2021
5951 Snow -1 1017 100 2300 1.03 0 00:55 22.03.2021
5952 Snow -1 1017 100 2400 1.03 0 00:21 22.03.2021
5953 Snow -1 1017 100 1900 1.03 0 23:48 21.03.2021
5954 Snow -1 1017 100 1200 1.03 0 23:19 21.03.2021
5955 Snow -1 1017 100 1200 0.51 0 22:54 21.03.2021
5956 Snow -1 1018 100 4000 1.03 0 21:48 21.03.2021
5957 Mist -1 1018 100 4000 1.03 0 21:27 21.03.2021
5958 Snow -1 1017 93 2500 0.51 0 20:58 21.03.2021
5959 Snow -1 1017 93 2500 0.51 0 20:40 21.03.2021
5960 Snow -1 1017 93 4000 0.51 0 20:21 21.03.2021
5961 Mist -1 1017 93 4000 0.51 0 19:50 21.03.2021
5962 Mist -1 1017 93 4000 0.51 0 19:50 21.03.2021
5963 Snow -1 1017 93 5000 1.03 0 19:21 21.03.2021
5964 Snow -1 1017 93 6000 1.03 0 18:46 21.03.2021
5965 Snow -1 1017 93 8000 1.03 0 18:27 21.03.2021
5966 Snow -1 1017 80 10000 1.54 210 17:45 21.03.2021
5967 Snow 0 1017 86 9000 1.03 0 17:19 21.03.2021
5968 Snow 0 1017 80 9000 1.03 0 16:54 21.03.2021
5969 Snow 1 1018 74 10000 1.54 240 16:29 21.03.2021
5970 Snow 1 1018 69 10000 1.03 0 15:55 21.03.2021
5971 Snow 2 1018 64 10000 0.51 0 15:36 21.03.2021
5972 Snow 1 1018 64 10000 0.51 0 15:18 21.03.2021
5973 Snow 1 1018 69 10000 1.54 270 14:41 21.03.2021
5974 Snow 1 1019 64 10000 0.51 0 14:23 21.03.2021
5975 Snow 1 1019 59 10000 1.03 0 13:52 21.03.2021
5976 Snow 0 1020 59 10000 0.51 0 12:46 21.03.2021
5977 Snow -1 1020 64 10000 0.51 0 12:27 21.03.2021
5978 Snow -1 1020 59 10000 1.03 0 11:51 21.03.2021
5979 Snow -1 1020 59 10000 0.51 0 11:27 21.03.2021
5980 Clouds -2 1021 59 10000 0.51 0 10:55 21.03.2021
5981 Clouds -2 1021 59 10000 0.51 0 10:35 21.03.2021
5982 Snow -3 1021 64 10000 1.03 0 09:58 21.03.2021
5983 Snow -3 1021 64 10000 1.03 0 09:38 21.03.2021
5984 Snow -3 1022 68 10000 1.03 0 09:19 21.03.2021
5985 Snow -4 1022 68 10000 1.03 0 08:39 21.03.2021
5986 Snow -4 1022 63 10000 1.03 0 08:20 21.03.2021
5987 Snow -4 1022 68 10000 0.51 0 07:36 21.03.2021
5988 Snow -5 1022 68 10000 0.51 0 06:50 21.03.2021
5989 Clouds -6 1023 68 10000 0.51 0 04:59 21.03.2021
5990 Clouds -7 1024 80 10000 0.51 0 01:54 21.03.2021
5991 Clouds -7 1024 74 10000 1.03 0 00:40 21.03.2021
5992 Clouds -6 1024 74 10000 1.03 0 00:21 21.03.2021
5993 Clouds -6 1024 74 10000 1.03 0 23:47 20.03.2021
5994 Clouds -6 1024 68 10000 1.03 0 23:20 20.03.2021
5995 Clouds -6 1024 68 10000 1.03 340 22:54 20.03.2021
5996 Clouds -5 1024 68 10000 1.03 0 22:21 20.03.2021
5997 Clouds -2 1024 64 10000 1.03 0 21:45 20.03.2021
5998 Clouds -1 1024 51 10000 1.54 90 21:24 20.03.2021
5999 Clouds -1 1024 51 10000 2.06 70 20:45 20.03.2021
6000 Clouds -1 1023 51 10000 3.09 70 20:22 20.03.2021
6001 Clouds -1 1023 55 10000 2.57 80 19:49 20.03.2021
6002 Clouds -3 1023 55 10000 5.14 80 19:26 20.03.2021
6003 Clouds -3 1022 59 10000 4.12 60 18:49 20.03.2021
6004 Clouds -1 1022 55 10000 4.63 90 18:26 20.03.2021
6005 Clouds -1 1022 55 10000 4.63 60 17:54 20.03.2021
6006 Clouds -1 1022 55 10000 4.63 60 17:32 20.03.2021
6007 Snow 0 1022 55 10000 4.63 80 16:47 20.03.2021
6008 Snow 0 1021 55 10000 3.6 100 16:21 20.03.2021
6009 Snow 0 1021 60 10000 5.14 100 15:59 20.03.2021
6010 Snow 0 1021 60 10000 5.14 100 15:39 20.03.2021
6011 Snow 0 1021 60 10000 5.14 90 14:49 20.03.2021
6012 Snow 0 1021 64 10000 4.63 90 14:28 20.03.2021
6013 Snow 0 1021 64 10000 5.14 70 13:42 20.03.2021
6014 Snow 0 1021 64 10000 3.09 70 13:18 20.03.2021
6015 Snow 0 1022 55 10000 1.03 0 12:27 20.03.2021
6016 Snow 0 1022 55 10000 1.03 0 12:27 20.03.2021
6017 Clouds 0 1022 60 10000 2.06 60 11:50 20.03.2021
6018 Clouds 0 1022 69 10000 2.06 60 11:30 20.03.2021
6019 Snow -1 1022 74 10000 2.06 20 10:56 20.03.2021
6020 Snow -1 1022 80 10000 1.03 0 10:37 20.03.2021
6021 Snow -1 1022 80 10000 1.03 0 10:18 20.03.2021
6022 Snow -2 1022 74 10000 1.54 270 09:29 20.03.2021
6023 Clouds -2 1021 74 10000 1.03 0 08:59 20.03.2021
6024 Clouds -2 1021 74 10000 1.03 0 08:39 20.03.2021
6025 Clouds -2 1021 93 10000 3.09 280 07:54 20.03.2021
6026 Clouds -4 1021 93 10000 3.09 280 07:32 20.03.2021
6027 Snow -3 1020 93 2500 1.54 260 06:56 20.03.2021
6028 Snow -3 1020 93 8000 2.06 270 06:27 20.03.2021
6029 Snow -2 1019 86 10000 1.54 250 04:24 20.03.2021
6030 Snow -2 1019 93 3900 1.03 0 03:42 20.03.2021
6031 Snow -1 1019 100 1000 1.03 0 00:36 20.03.2021
6032 Snow -1 1019 100 900 1.03 0 23:36 19.03.2021
6033 Snow -1 1019 100 2500 2.57 60 22:59 19.03.2021
6034 Snow -1 1019 100 2500 2.57 60 22:40 19.03.2021
6035 Snow -1 1018 93 1500 2.57 70 22:22 19.03.2021
6036 Snow -1 1018 93 2000 2.57 100 21:36 19.03.2021
6037 Snow -1 1018 93 3000 1.54 100 21:18 19.03.2021
6038 Snow 0 1018 80 4000 2.57 60 20:41 19.03.2021
6039 Snow 0 1017 80 10000 2.57 80 20:22 19.03.2021
6040 Snow 0 1017 80 10000 3.09 60 19:46 19.03.2021
6041 Snow 0 1017 80 10000 1.03 0 19:21 19.03.2021
6042 Snow 1 1016 80 10000 4.63 60 18:42 19.03.2021
6043 Snow 1 1016 69 10000 5.66 70 18:20 19.03.2021
6044 Snow 2 1016 65 10000 6.69 60 17:55 19.03.2021
6045 Clouds 2 1016 65 10000 6.69 60 17:33 19.03.2021
6046 Clouds 2 1015 45 10000 2.06 280 16:56 19.03.2021
6047 Clouds 3 1015 45 10000 2.06 280 16:32 19.03.2021
6048 Clouds 3 1015 48 10000 3.6 260 15:58 19.03.2021
6049 Clouds 2 1014 38 10000 0.51 0 15:28 19.03.2021
6050 Clouds 3 1014 36 10000 2.06 0 14:48 19.03.2021
6051 Clouds 4 1015 45 10000 2.06 270 14:28 19.03.2021
6052 Clouds 4 1015 38 10000 1.54 0 13:42 19.03.2021
6053 Snow 2 1015 45 10000 1.54 0 13:18 19.03.2021
6054 Clouds 3 1016 48 10000 2.06 0 12:38 19.03.2021
6055 Clouds 2 1016 52 10000 1.03 0 11:49 19.03.2021
6056 Clouds 0 1016 60 10000 1.54 300 10:57 19.03.2021
6057 Clouds 0 1016 60 10000 1.54 300 10:39 19.03.2021
6058 Clouds 0 1016 64 10000 2.06 300 10:18 19.03.2021
6059 Clouds -1 1016 64 10000 1.03 0 09:41 19.03.2021
6060 Clouds -2 1017 69 10000 1.03 0 09:22 19.03.2021
6061 Clouds -3 1016 74 10000 2.06 250 08:41 19.03.2021
6062 Clouds -3 1016 69 10000 1.54 260 08:22 19.03.2021
6063 Clouds -4 1016 80 10000 0.51 0 07:42 19.03.2021
6064 Clouds -5 1016 86 10000 0.51 0 06:58 19.03.2021
6065 Clouds -3 1016 86 10000 1.03 0 05:19 19.03.2021
6066 Clouds -3 1016 69 10000 2.06 280 00:58 19.03.2021
6067 Clouds -2 1017 86 10000 1.54 270 23:50 18.03.2021
6068 Clouds -2 1017 80 10000 0.51 0 23:26 18.03.2021
6069 Clouds -2 1017 80 10000 0.51 0 22:44 18.03.2021
6070 Clouds -1 1017 80 10000 1.03 0 22:25 18.03.2021
6071 Clouds -1 1017 80 10000 1.54 60 21:40 18.03.2021
6072 Clouds -1 1017 80 10000 2.06 70 21:20 18.03.2021
6073 Clouds 0 1017 80 10000 2.06 60 20:36 18.03.2021
6074 Clouds 0 1017 80 10000 1.54 40 19:59 18.03.2021
6075 Clouds 0 1017 80 10000 1.54 40 19:59 18.03.2021
6076 Clouds 0 1017 80 10000 1.54 40 19:41 18.03.2021
6077 Snow 0 1017 75 10000 0.51 0 19:21 18.03.2021
6078 Clouds 0 1017 75 10000 1.03 0 18:38 18.03.2021
6079 Snow 0 1017 65 10000 1.03 0 17:51 18.03.2021
6080 Snow 2 1017 69 10000 3.6 40 17:26 18.03.2021
6081 Clouds 2 1017 69 10000 3.6 70 16:51 18.03.2021
6082 Clouds 2 1017 69 10000 3.6 70 16:32 18.03.2021
6083 Clouds 3 1018 65 10000 4.63 0 15:49 18.03.2021
6084 Clouds 3 1018 56 10000 2.06 290 15:30 18.03.2021
6085 Clouds 2 1018 56 10000 3.6 300 14:59 18.03.2021
6086 Clouds 3 1018 56 10000 3.6 300 14:40 18.03.2021
6087 Clouds 3 1019 56 10000 1.54 90 13:56 18.03.2021
6088 Snow 2 1019 69 10000 1.54 80 13:27 18.03.2021
6089 Snow 1 1020 69 10000 4.12 30 12:47 18.03.2021
6090 Clouds 2 1020 60 10000 4.63 340 12:28 18.03.2021
6091 Clouds 1 1020 52 10000 1.54 0 11:55 18.03.2021
6092 Clouds 1 1020 52 10000 1.54 0 11:34 18.03.2021
6093 Clouds 1 1021 80 10000 2.06 280 10:51 18.03.2021
6094 Snow 0 1021 80 10000 1.54 270 10:29 18.03.2021
6095 Snow 1 1021 80 10000 0.51 0 09:58 18.03.2021
6096 Snow 0 1021 86 3000 0.51 0 09:30 18.03.2021
6097 Snow -1 1021 93 1900 1.03 70 08:57 18.03.2021
6098 Snow -2 1021 93 1900 1.03 70 08:33 18.03.2021
6099 Snow -1 1021 93 3000 0.51 0 07:58 18.03.2021
6100 Snow -2 1021 93 3000 0.51 0 07:40 18.03.2021
6101 Snow -2 1020 93 2000 2.57 100 06:40 18.03.2021
6102 Snow -1 1020 93 3500 1.54 100 06:21 18.03.2021
6103 Snow -1 1020 86 6000 1.03 0 04:42 18.03.2021
6104 Snow -1 1021 93 5000 2.06 270 00:40 18.03.2021
6105 Snow -1 1020 93 10000 1.03 340 23:19 17.03.2021
6106 Snow 0 1020 93 10000 1.03 0 22:38 17.03.2021
6107 Snow 0 1020 93 7000 1.03 0 22:20 17.03.2021
6108 Snow 0 1021 86 10000 0.51 0 21:49 17.03.2021
6109 Snow 0 1020 86 10000 1.03 0 21:30 17.03.2021
6110 Snow 0 1020 86 10000 1.03 0 20:48 17.03.2021
6111 Snow 0 1020 80 10000 2.57 80 20:26 17.03.2021
6112 Snow 0 1020 86 10000 3.09 70 19:58 17.03.2021
6113 Snow 0 1020 86 10000 3.09 70 19:58 17.03.2021
6114 Snow 0 1020 86 10000 3.09 70 19:36 17.03.2021
6115 Snow 0 1020 86 10000 1.54 80 19:18 17.03.2021
6116 Snow 1 1020 86 10000 1.03 0 18:43 17.03.2021
6117 Snow 1 1020 80 10000 1.03 280 18:25 17.03.2021
6118 Snow 1 1019 80 8000 3.6 320 17:32 17.03.2021
6119 Snow 2 1019 80 10000 2.06 30 16:57 17.03.2021
6120 Snow 1 1019 80 10000 2.06 30 16:38 17.03.2021
6121 Snow 1 1019 80 10000 3.09 80 16:19 17.03.2021
6122 Rain 2 1018 80 10000 4.12 70 15:41 17.03.2021
6123 Snow 2 1018 75 10000 1.54 0 14:57 17.03.2021
6124 Clouds 2 1018 75 10000 1.54 0 14:36 17.03.2021
6125 Clouds 2 1018 75 10000 1.03 0 14:18 17.03.2021
6126 Clouds 2 1018 75 10000 1.03 0 14:18 17.03.2021
6127 Clouds 2 1019 80 10000 2.57 70 13:52 17.03.2021
6128 Mist 2 1019 87 4000 1.03 0 13:22 17.03.2021
6129 Snow 1 1020 93 8000 1.03 0 12:36 17.03.2021
6130 Snow 1 1020 93 8000 1.03 0 12:18 17.03.2021
6131 Snow 1 1020 93 4000 1.54 100 11:38 17.03.2021
6132 Snow 0 1020 100 2000 2.06 90 11:20 17.03.2021
6133 Mist 1 1019 93 3000 2.06 80 10:40 17.03.2021
6134 Snow 0 1019 100 800 2.06 60 10:19 17.03.2021
6135 Snow 0 1019 100 2000 3.09 60 09:42 17.03.2021
6136 Snow 0 1019 93 3500 1.54 80 09:20 17.03.2021
6137 Snow 0 1019 100 4000 1.54 70 08:45 17.03.2021
6138 Snow 0 1018 100 3000 1.03 90 08:25 17.03.2021
6139 Mist 0 1018 93 3000 0.51 0 07:38 17.03.2021
6140 Snow 0 1018 100 10000 0.51 0 06:48 17.03.2021
6141 Snow 0 1019 100 2300 2.06 260 05:28 17.03.2021
6142 Snow 0 1019 100 10000 1.03 0 03:31 17.03.2021
6143 Snow 0 1020 93 10000 1.03 0 01:19 17.03.2021
6144 Snow 0 1021 93 10000 2.06 70 00:33 17.03.2021
6145 Snow 0 1021 93 10000 1.03 0 23:26 16.03.2021
6146 Snow 0 1021 93 10000 1.03 100 22:45 16.03.2021
6147 Snow 0 1021 86 10000 1.54 0 22:26 16.03.2021
6148 Snow 0 1021 93 10000 2.06 30 21:44 16.03.2021
6149 Snow 0 1021 100 3200 1.03 0 21:26 16.03.2021
6150 Snow 0 1021 93 3600 1.03 0 20:57 16.03.2021
6151 Snow 0 1021 93 10000 4.12 60 20:20 16.03.2021
6152 Clouds 0 1021 93 10000 3.09 60 19:48 16.03.2021
6153 Snow 0 1021 93 10000 3.6 80 19:29 16.03.2021
6154 Rain 1 1021 87 10000 3.6 80 18:57 16.03.2021
6155 Rain 1 1021 87 10000 3.6 80 18:38 16.03.2021
6156 Snow 1 1020 87 10000 3.09 80 17:59 16.03.2021
6157 Snow 1 1020 87 10000 3.09 80 17:40 16.03.2021
6158 Snow 2 1021 81 10000 3.6 90 17:20 16.03.2021
6159 Clouds 2 1020 81 10000 4.12 70 16:46 16.03.2021
6160 Rain 3 1020 81 10000 4.63 70 16:25 16.03.2021
6161 Rain 2 1020 75 10000 2.57 0 15:45 16.03.2021
6162 Clouds 3 1020 81 10000 3.6 70 15:20 16.03.2021
6163 Clouds 3 1020 81 10000 3.6 50 14:56 16.03.2021
6164 Clouds 3 1020 81 10000 3.6 50 14:38 16.03.2021
6165 Clouds 2 1020 87 10000 4.63 70 14:18 16.03.2021
6166 Clouds 2 1020 87 10000 5.66 70 13:42 16.03.2021
6167 Snow 2 1020 87 8000 5.14 70 13:21 16.03.2021
6168 Snow 1 1020 87 4000 4.12 0 12:43 16.03.2021
6169 Snow 1 1020 87 4000 4.63 60 12:23 16.03.2021
6170 Snow 1 1020 87 7000 5.66 60 11:36 16.03.2021
6171 Snow 2 1019 75 9000 3.6 230 10:53 16.03.2021
6172 Snow 1 1019 75 7000 6.69 270 10:22 16.03.2021
6173 Clouds 1 1019 75 7000 3.09 280 09:47 16.03.2021
6174 Snow 1 1019 80 8000 4.12 0 09:24 16.03.2021
6175 Snow 0 1019 80 8000 4.12 270 08:57 16.03.2021
6176 Snow 0 1019 80 8000 4.12 270 08:39 16.03.2021
6177 Snow 0 1018 86 2500 6.17 240 07:57 16.03.2021
6178 Snow 1 1017 80 8000 8.23 250 07:30 16.03.2021
6179 Snow 0 1017 86 5000 6.17 250 06:39 16.03.2021
6180 Snow 0 1016 86 4100 3.6 260 05:37 16.03.2021
6181 Snow 0 1016 93 3500 7.2 240 05:18 16.03.2021
6182 Snow 0 1015 93 3600 5.14 240 02:44 16.03.2021
6183 Snow 1 1015 80 10000 4.63 250 02:23 16.03.2021
6184 Snow 1 1015 93 10000 0.51 0 23:56 15.03.2021
6185 Snow 1 1015 93 10000 2.06 70 23:28 15.03.2021
6186 Snow 2 1014 93 10000 0.51 0 22:50 15.03.2021
6187 Snow 2 1014 93 10000 1.03 0 22:31 15.03.2021
6188 Snow 2 1015 93 10000 1.03 0 21:54 15.03.2021
6189 Snow 2 1015 93 10000 1.03 0 21:34 15.03.2021
6190 Snow 2 1014 93 10000 3.09 60 20:57 15.03.2021
6191 Snow 2 1014 93 10000 3.09 60 20:57 15.03.2021
6192 Snow 2 1014 93 10000 3.09 60 20:39 15.03.2021
6193 Clouds 2 1014 93 10000 2.06 110 20:20 15.03.2021
6194 Clouds 2 1013 87 10000 1.03 0 19:49 15.03.2021
6195 Clouds 2 1012 87 10000 4.12 270 19:30 15.03.2021
6196 Rain 2 1012 87 10000 3.09 0 18:49 15.03.2021
6197 Rain 2 1011 87 10000 1.54 0 18:26 15.03.2021
6198 Rain 2 1011 87 10000 2.57 60 17:55 15.03.2021
6199 Rain 2 1011 93 10000 3.09 80 17:30 15.03.2021
6200 Rain 3 1010 87 10000 3.09 90 16:50 15.03.2021
6201 Rain 3 1010 81 10000 1.54 0 16:31 15.03.2021
6202 Rain 3 1010 87 10000 2.06 0 15:45 15.03.2021
6203 Rain 3 1010 87 10000 5.14 260 15:25 15.03.2021
6204 Rain 2 1010 93 10000 5.14 270 14:44 15.03.2021
6205 Rain 2 1010 87 10000 4.63 290 14:22 15.03.2021
6206 Rain 2 1010 87 10000 3.09 290 13:47 15.03.2021
6207 Rain 3 1011 81 10000 5.14 270 13:25 15.03.2021
6208 Rain 3 1011 75 10000 5.14 260 12:48 15.03.2021
6209 Rain 3 1011 75 10000 5.14 260 12:19 15.03.2021
6210 Clouds 3 1011 81 10000 5.66 270 11:52 15.03.2021
6211 Clouds 3 1011 87 10000 3.09 330 11:32 15.03.2021
6212 Clouds 3 1012 87 10000 2.57 280 10:54 15.03.2021
6213 Clouds 2 1012 87 10000 0.51 0 10:30 15.03.2021
6214 Clouds 2 1013 87 10000 0.51 0 09:52 15.03.2021
6215 Clouds 2 1013 87 10000 0.51 0 09:33 15.03.2021
6216 Snow 1 1013 93 10000 0.51 0 08:52 15.03.2021
6217 Snow 1 1013 93 10000 0.51 0 08:32 15.03.2021
6218 Snow 0 1013 93 10000 1.03 0 07:53 15.03.2021
6219 Snow 0 1013 93 10000 1.03 0 07:32 15.03.2021
6220 Snow 1 1013 93 10000 2.06 60 06:40 15.03.2021
6221 Snow 1 1013 93 10000 1.03 0 05:32 15.03.2021
6222 Snow 0 1014 93 10000 1.03 0 01:36 15.03.2021
6223 Snow 1 1014 93 10000 2.57 90 23:56 14.03.2021
6224 Snow 1 1014 93 10000 2.57 120 23:20 14.03.2021
6225 Snow 0 1014 93 10000 1.03 0 22:46 14.03.2021
6226 Snow 1 1014 93 10000 1.54 360 22:23 14.03.2021
6227 Snow 1 1014 93 3000 2.57 280 21:45 14.03.2021
6228 Snow 1 1014 93 5000 3.09 260 21:19 14.03.2021
6229 Snow 1 1013 93 10000 3.09 290 20:43 14.03.2021
6230 Snow 2 1013 75 8000 7.72 260 20:25 14.03.2021
6231 Rain 3 1013 52 10000 2.06 0 19:43 14.03.2021
6232 Clouds 3 1012 52 10000 2.06 0 19:23 14.03.2021
6233 Clouds 3 1012 48 10000 3.09 30 18:48 14.03.2021
6234 Clouds 3 1012 56 10000 3.6 70 18:22 14.03.2021
6235 Clouds 4 1011 42 10000 3.6 280 17:40 14.03.2021
6236 Clouds 5 1011 42 10000 8.75 260 17:22 14.03.2021
6237 Clouds 5 1011 39 10000 6.69 250 16:46 14.03.2021
6238 Clouds 5 1011 39 10000 7.2 250 16:26 14.03.2021
6239 Clouds 5 1011 39 10000 6.17 260 15:52 14.03.2021
6240 Clouds 6 1011 57 10000 2.06 0 15:33 14.03.2021
6241 Clouds 5 1012 56 10000 2.06 0 14:41 14.03.2021
6242 Clouds 5 1011 61 10000 5.66 70 14:21 14.03.2021
6243 Clouds 4 1011 60 10000 5.14 80 13:49 14.03.2021
6244 Clouds 5 1011 39 10000 5.66 250 13:28 14.03.2021
6245 Clouds 4 1011 45 10000 8.23 250 12:46 14.03.2021
6246 Clouds 4 1011 42 10000 8.23 250 12:28 14.03.2021
6247 Clouds 5 1011 45 10000 9.26 260 11:51 14.03.2021
6248 Clouds 5 1011 45 10000 9.26 260 11:33 14.03.2021
6249 Clouds 5 1010 45 10000 8.75 260 10:56 14.03.2021
6250 Clouds 5 1010 45 10000 8.75 260 10:36 14.03.2021
6251 Clouds 4 1010 52 10000 9.77 250 10:18 14.03.2021
6252 Clouds 4 1010 52 10000 9.77 250 10:18 14.03.2021
6253 Clouds 5 1009 42 10000 13.89 250 09:43 14.03.2021
6254 Clouds 4 1009 45 10000 8.23 260 09:22 14.03.2021
6255 Clouds 4 1009 45 10000 8.23 260 09:22 14.03.2021
6256 Clouds 4 1009 52 10000 9.77 250 08:41 14.03.2021
6257 Clouds 4 1008 52 10000 10.29 260 08:18 14.03.2021
6258 Clouds 4 1007 60 10000 5.66 250 07:35 14.03.2021
6259 Clouds 3 1007 87 10000 1.54 0 06:41 14.03.2021
6260 Clouds 3 1004 93 10000 1.03 0 03:54 14.03.2021
6261 Rain 5 1006 76 10000 4.63 240 00:51 14.03.2021
6262 Rain 5 1006 70 10000 3.6 300 00:19 14.03.2021
6263 Rain 6 1005 53 10000 2.06 150 23:42 13.03.2021
6264 Rain 6 1004 53 10000 2.06 0 23:24 13.03.2021
6265 Clouds 7 1005 46 10000 1.54 200 22:50 13.03.2021
6266 Clouds 8 1004 37 10000 3.6 90 22:25 13.03.2021
6267 Clouds 8 1003 37 10000 2.06 0 21:41 13.03.2021
6268 Clouds 8 1004 37 10000 5.14 70 21:20 13.03.2021
6269 Clouds 11 1004 37 10000 2.57 90 20:49 13.03.2021
6270 Clouds 12 1004 35 10000 4.63 120 20:30 13.03.2021
6271 Clouds 12 1004 35 10000 4.63 120 20:30 13.03.2021
6272 Clouds 12 1004 32 10000 2.57 0 19:47 13.03.2021
6273 Clouds 12 1004 32 10000 5.14 100 19:29 13.03.2021
6274 Clouds 13 1003 30 10000 4.12 0 18:43 13.03.2021
6275 Clouds 13 1003 28 10000 7.72 110 18:22 13.03.2021
6276 Clouds 14 1003 26 10000 7.2 120 17:58 13.03.2021
6277 Clouds 14 1003 26 10000 7.2 120 17:35 13.03.2021
6278 Clouds 14 1003 28 10000 6.69 120 16:59 13.03.2021
6279 Clouds 14 1003 28 10000 6.69 120 16:39 13.03.2021
6280 Clouds 13 1004 25 10000 7.2 150 15:58 13.03.2021
6281 Clouds 14 1004 23 10000 7.2 160 15:23 13.03.2021
6282 Clouds 15 1004 25 10000 6.69 0 14:46 13.03.2021
6283 Clouds 15 1005 25 10000 5.66 90 14:25 13.03.2021
6284 Clouds 15 1005 23 10000 6.69 130 13:46 13.03.2021
6285 Clouds 14 1006 25 10000 2.57 0 13:23 13.03.2021
6286 Clouds 13 1006 23 10000 3.09 340 12:43 13.03.2021
6287 Clouds 12 1007 28 10000 3.6 300 12:18 13.03.2021
6288 Clouds 11 1008 30 10000 4.63 260 11:42 13.03.2021
6289 Clouds 11 1008 40 10000 4.63 270 11:24 13.03.2021
6290 Clouds 9 1009 43 10000 4.63 260 10:49 13.03.2021
6291 Clouds 7 1010 53 10000 4.63 270 10:25 13.03.2021
6292 Clouds 5 1011 60 10000 3.6 270 09:42 13.03.2021
6293 Clouds 4 1012 75 10000 3.09 280 08:58 13.03.2021
6294 Clouds 3 1012 75 10000 3.09 280 08:39 13.03.2021
6295 Clouds 2 1012 80 10000 2.57 280 08:19 13.03.2021
6296 Clouds 1 1012 86 10000 1.03 0 07:39 13.03.2021
6297 Clouds -1 1012 86 10000 1.03 0 05:45 13.03.2021
6298 Clouds 0 1014 80 10000 2.06 240 02:43 13.03.2021
6299 Clear 0 1013 80 10000 1.03 0 00:50 13.03.2021
6300 Clouds 1 1014 75 10000 1.03 250 23:51 12.03.2021
6301 Clouds 1 1014 75 10000 1.03 250 23:32 12.03.2021
6302 Clear 2 1013 70 10000 1.54 290 22:42 12.03.2021
6303 Clear 2 1013 75 10000 1.54 250 22:23 12.03.2021
6304 Clear 3 1013 75 10000 1.03 0 21:42 12.03.2021
6305 Clear 3 1013 75 10000 0.51 0 21:21 12.03.2021
6306 Clouds 2 1013 70 10000 0.51 0 20:55 12.03.2021
6307 Clouds 3 1013 65 10000 1.03 0 20:32 12.03.2021
6308 Clouds 4 1013 65 10000 1.03 0 19:55 12.03.2021
6309 Clouds 4 1013 65 10000 1.03 0 19:36 12.03.2021
6310 Clouds 9 1012 49 10000 5.14 70 18:59 12.03.2021
6311 Clouds 10 1011 46 10000 4.63 80 18:35 12.03.2021
6312 Clouds 10 1011 46 10000 4.63 80 17:49 12.03.2021
6313 Clouds 9 1011 40 10000 4.12 100 17:30 12.03.2021
6314 Clouds 11 1011 43 10000 3.6 110 16:55 12.03.2021
6315 Clouds 9 1011 43 10000 3.6 110 16:34 12.03.2021
6316 Clouds 10 1011 43 10000 4.63 90 15:52 12.03.2021
6317 Clouds 12 1011 47 10000 4.63 100 15:27 12.03.2021
6318 Clouds 11 1011 46 10000 5.14 50 14:48 12.03.2021
6319 Clouds 12 1011 43 10000 3.6 90 14:20 12.03.2021
6320 Clouds 9 1012 46 10000 3.09 70 13:43 12.03.2021
6321 Clouds 12 1012 47 10000 2.06 0 13:21 12.03.2021
6322 Clouds 10 1012 50 10000 1.54 0 12:56 12.03.2021
6323 Clouds 10 1012 50 10000 1.54 0 12:37 12.03.2021
6324 Clouds 9 1013 50 10000 2.57 80 12:19 12.03.2021
6325 Clouds 9 1013 57 10000 3.09 110 11:47 12.03.2021
6326 Clouds 9 1013 66 10000 3.09 80 11:19 12.03.2021
6327 Clouds 8 1014 66 10000 3.09 90 10:45 12.03.2021
6328 Clouds 7 1014 76 10000 4.12 70 10:22 12.03.2021
6329 Clouds 7 1014 76 10000 4.12 90 09:48 12.03.2021
6330 Clouds 6 1014 81 10000 0.51 0 09:19 12.03.2021
6331 Clouds 5 1014 87 9000 1.03 0 08:40 12.03.2021
6332 Clouds 4 1013 93 9000 1.03 0 07:51 12.03.2021
6333 Clouds 3 1013 93 10000 0.51 0 07:29 12.03.2021
6334 Clouds 3 1013 93 7000 1.03 0 06:44 12.03.2021
6335 Clouds 4 1012 93 9000 1.54 110 05:56 12.03.2021
6336 Clouds 5 1012 93 5000 2.06 220 00:59 12.03.2021
6337 Rain 7 1011 71 5000 3.6 20 23:56 11.03.2021
6338 Rain 11 1009 46 10000 7.2 170 22:59 11.03.2021
6339 Rain 11 1009 46 10000 7.2 170 22:39 11.03.2021
6340 Rain 11 1009 40 10000 7.72 160 22:20 11.03.2021
6341 Rain 11 1007 40 10000 10.29 150 21:46 11.03.2021
6342 Clouds 11 1006 40 10000 10.29 160 21:25 11.03.2021
6343 Clouds 11 1006 37 10000 11.32 160 20:49 11.03.2021
6344 Clouds 11 1007 37 10000 9.77 160 20:23 11.03.2021
6345 Clouds 12 1007 35 10000 9.26 160 19:54 11.03.2021
6346 Clouds 12 1007 35 10000 8.23 160 19:36 11.03.2021
6347 Clouds 12 1007 35 10000 8.75 150 18:53 11.03.2021
6348 Clouds 12 1007 35 10000 8.75 150 18:35 11.03.2021
6349 Clouds 13 1007 35 10000 10.29 150 17:53 11.03.2021
6350 Clouds 13 1007 35 10000 10.29 150 17:35 11.03.2021
6351 Clouds 14 1007 30 10000 8.23 150 16:37 11.03.2021
6352 Clouds 14 1008 33 10000 8.75 160 16:19 11.03.2021
6353 Clouds 14 1007 33 10000 9.26 140 15:39 11.03.2021
6354 Clouds 15 1008 31 10000 6.17 150 15:20 11.03.2021
6355 Clouds 14 1009 30 10000 2.57 0 14:44 11.03.2021
6356 Clouds 14 1009 33 10000 2.57 0 14:18 11.03.2021
6357 Clouds 13 1010 33 10000 3.09 0 13:45 11.03.2021
6358 Clouds 13 1011 33 10000 2.06 0 13:22 11.03.2021
6359 Clouds 11 1012 35 10000 2.57 260 12:54 11.03.2021
6360 Clouds 10 1012 37 10000 3.6 270 12:29 11.03.2021
6361 Clouds 8 1013 42 10000 5.14 270 11:47 11.03.2021
6362 Clouds 8 1013 42 10000 5.66 260 11:29 11.03.2021
6363 Clouds 7 1014 45 10000 6.69 270 10:55 11.03.2021
6364 Clouds 7 1014 49 10000 3.09 280 10:25 11.03.2021
6365 Clouds 6 1015 60 10000 4.12 270 09:50 11.03.2021
6366 Clouds 5 1015 60 10000 4.12 270 09:32 11.03.2021
6367 Clouds 4 1015 69 10000 4.63 300 08:50 11.03.2021
6368 Clouds 3 1015 75 10000 4.12 280 08:31 11.03.2021
6369 Clouds 3 1014 80 10000 4.63 280 07:47 11.03.2021
6370 Clouds 1 1015 86 10000 3.6 270 07:20 11.03.2021
6371 Clouds 1 1015 80 10000 2.06 260 06:40 11.03.2021
6372 Clouds 0 1015 80 10000 1.54 250 06:21 11.03.2021
6373 Clouds 0 1018 80 10000 3.09 260 02:25 11.03.2021
6374 Clouds 0 1018 80 10000 1.54 250 00:26 11.03.2021
6375 Clouds 0 1019 80 10000 1.54 250 23:23 10.03.2021
6376 Clouds 0 1019 80 10000 0.51 0 22:42 10.03.2021
6377 -273 0 0 0 0 0 22:21 10.03.2021
6378 Clear 1 1019 80 10000 0.51 0 21:44 10.03.2021
6379 Clear 1 1019 75 10000 1.03 150 21:21 10.03.2021
6380 Clear 1 1019 75 10000 1.54 170 20:45 10.03.2021
6381 Clear 2 1019 70 10000 0.51 0 20:27 10.03.2021
6382 Clear 2 1018 75 10000 2.57 50 19:42 10.03.2021
6383 Clear 3 1018 60 10000 2.57 90 19:23 10.03.2021
6384 Clouds 3 1018 60 10000 3.6 60 18:44 10.03.2021
6385 Clouds 4 1018 52 10000 4.12 50 18:24 10.03.2021
6386 Clouds 8 1018 46 10000 3.09 90 17:55 10.03.2021
6387 Clouds 8 1018 46 10000 3.09 90 17:36 10.03.2021
6388 Clouds 7 1018 46 10000 4.63 80 17:18 10.03.2021
6389 Clouds 7 1018 49 10000 5.14 70 16:41 10.03.2021
6390 Clouds 7 1018 49 10000 5.66 70 16:21 10.03.2021
6391 Clouds 7 1018 49 10000 5.66 70 15:41 10.03.2021
6392 Clouds 7 1018 49 10000 6.17 70 15:22 10.03.2021
6393 Clouds 7 1018 49 10000 4.12 90 14:46 10.03.2021
6394 Clouds 7 1018 49 10000 4.12 80 14:19 10.03.2021
6395 Clouds 6 1019 56 10000 4.63 70 13:50 10.03.2021
6396 Clouds 6 1019 57 10000 4.12 80 13:27 10.03.2021
6397 Clouds 5 1019 56 10000 3.6 90 12:45 10.03.2021
6398 Clouds 5 1019 60 10000 3.6 80 12:19 10.03.2021
6399 Clouds 5 1019 65 10000 3.6 80 11:32 10.03.2021
6400 Clouds 4 1019 65 10000 3.6 70 10:59 10.03.2021
6401 Clouds 4 1019 65 10000 3.6 70 10:41 10.03.2021
6402 Clouds 4 1020 70 10000 2.06 50 10:23 10.03.2021
6403 Rain 3 1020 70 10000 1.03 0 09:45 10.03.2021
6404 Clouds 3 1019 70 10000 0.51 0 09:24 10.03.2021
6405 Clouds 2 1019 75 10000 1.03 0 08:57 10.03.2021
6406 Clouds 2 1019 80 10000 1.36 259 08:39 10.03.2021
6407 Clouds 2 1019 80 10000 1.35 264 08:20 10.03.2021
6408 Clouds 0 1019 80 10000 1.03 0 07:31 10.03.2021
6409 Clouds 0 1018 80 10000 0.51 0 06:56 10.03.2021
6410 Clouds 0 1018 80 10000 0.51 0 06:32 10.03.2021
6411 Clouds 1 1018 69 10000 0.51 0 02:42 10.03.2021
6412 Clouds 1 1017 80 10000 1.03 0 23:52 09.03.2021
6413 Clouds 2 1017 75 10000 0.51 0 23:24 09.03.2021
6414 Clouds 2 1017 70 10000 1.54 230 22:42 09.03.2021
6415 Clouds 3 1017 70 10000 1.03 0 22:23 09.03.2021
6416 Clouds 2 1017 65 10000 1.03 0 21:46 09.03.2021
6417 Clouds 2 1016 70 10000 1.03 0 21:25 09.03.2021
6418 Clouds 3 1016 65 10000 1.03 290 20:59 09.03.2021
6419 Clouds 3 1016 65 10000 1.03 290 20:41 09.03.2021
6420 Clouds 2 1016 70 10000 1.03 0 20:21 09.03.2021
6421 Clouds 3 1016 70 10000 1.03 0 19:51 09.03.2021
6422 Clouds 3 1015 65 10000 2.06 270 19:27 09.03.2021
6423 Clouds 4 1015 65 10000 2.57 310 18:50 09.03.2021
6424 Clouds 4 1014 61 10000 4.12 270 18:27 09.03.2021
6425 Clouds 4 1014 65 10000 4.63 240 17:53 09.03.2021
6426 Clouds 5 1013 53 10000 3.6 230 17:31 09.03.2021
6427 Clouds 6 1013 42 10000 1.03 0 16:55 09.03.2021
6428 Clouds 6 1013 42 10000 1.03 0 16:37 09.03.2021
6429 Clouds 7 1012 43 10000 3.09 30 16:18 09.03.2021
6430 Clouds 7 1012 40 10000 5.66 50 15:43 09.03.2021
6431 Clouds 7 1012 43 10000 5.14 50 15:20 09.03.2021
6432 Clouds 7 1012 40 10000 2.57 90 14:31 09.03.2021
6433 Clouds 8 1013 43 10000 2.57 0 13:57 09.03.2021
6434 Clouds 8 1013 43 10000 2.57 0 13:38 09.03.2021
6435 Clouds 8 1013 46 10000 2.06 0 13:19 09.03.2021
6436 Clouds 7 1014 53 10000 2.06 0 12:39 09.03.2021
6437 Clouds 7 1014 53 10000 1.54 0 12:18 09.03.2021
6438 Clouds 5 1014 56 10000 1.03 0 11:41 09.03.2021
6439 Clouds 5 1015 56 10000 1.03 0 11:21 09.03.2021
6440 Clouds 4 1015 65 10000 1.03 0 10:55 09.03.2021
6441 Clouds 4 1015 65 10000 1.03 0 10:36 09.03.2021
6442 Clouds 3 1016 65 10000 0.51 0 10:18 09.03.2021
6443 Clouds 2 1016 75 10000 1.03 0 09:41 09.03.2021
6444 Clouds 1 1016 80 10000 1.03 0 09:22 09.03.2021
6445 Clouds 0 1016 80 10000 0.51 0 08:37 09.03.2021
6446 Clouds -1 1016 86 10000 1.03 250 08:18 09.03.2021
6447 Clouds -2 1016 86 10000 1.03 250 07:37 09.03.2021
6448 Clouds -3 1016 93 10000 1.03 270 07:19 09.03.2021
6449 Clouds -2 1016 93 10000 0.51 0 05:55 09.03.2021
6450 Clouds -2 1016 93 10000 0.51 0 05:35 09.03.2021
6451 Clouds 1 1018 70 10000 1.54 40 00:21 09.03.2021
6452 Clouds 1 1018 65 10000 1.54 40 23:42 08.03.2021
6453 Clouds 1 1018 70 10000 1.54 60 23:23 08.03.2021
6454 Clouds 2 1018 70 10000 1.03 0 22:44 08.03.2021
6455 Clouds 2 1018 60 10000 2.57 80 22:26 08.03.2021
6456 Clouds 3 1018 65 10000 2.57 90 21:54 08.03.2021
6457 Clouds 3 1018 65 10000 2.57 90 21:35 08.03.2021
6458 Clouds 3 1018 60 10000 1.54 110 20:45 08.03.2021
6459 Clouds 3 1018 60 10000 2.57 100 20:25 08.03.2021
6460 Clouds 5 1017 60 10000 2.57 110 19:58 08.03.2021
6461 Clouds 3 1017 60 10000 3.6 90 19:28 08.03.2021
6462 Clouds 6 1017 56 10000 3.6 70 18:39 08.03.2021
6463 Clouds 5 1016 56 10000 4.63 70 18:20 08.03.2021
6464 Clouds 5 1016 57 10000 4.12 70 17:51 08.03.2021
6465 Clouds 6 1015 49 10000 5.14 80 17:25 08.03.2021
6466 Clouds 6 1015 49 10000 6.17 80 16:46 08.03.2021
6467 Clouds 7 1015 53 10000 5.66 90 16:28 08.03.2021
6468 Clouds 7 1016 49 10000 6.69 70 15:49 08.03.2021
6469 Clouds 7 1016 53 10000 6.69 70 15:28 08.03.2021
6470 Clouds 7 1016 53 10000 6.17 70 14:43 08.03.2021
6471 Clouds 8 1016 53 10000 5.66 70 14:20 08.03.2021
6472 Clouds 7 1016 57 10000 5.14 70 13:38 08.03.2021
6473 Clouds 7 1016 53 10000 3.09 70 13:19 08.03.2021
6474 Clouds 7 1017 57 10000 2.06 0 12:42 08.03.2021
6475 Clouds 6 1017 57 10000 2.06 0 12:42 08.03.2021
6476 Clouds 7 1017 57 10000 1.54 0 12:23 08.03.2021
6477 Clouds 7 1017 61 10000 2.06 0 11:40 08.03.2021
6478 Clouds 6 1018 70 10000 2.06 110 11:18 08.03.2021
6479 Clouds 5 1018 75 10000 2.57 80 10:43 08.03.2021
6480 Clouds 4 1018 75 10000 2.06 60 10:22 08.03.2021
6481 Clouds 4 1018 81 10000 0.51 0 09:41 08.03.2021
6482 Clouds 4 1018 81 10000 1.03 0 09:22 08.03.2021
6483 Clouds 3 1018 87 10000 1.54 120 08:28 08.03.2021
6484 Clouds 2 1017 87 10000 2.06 100 07:23 08.03.2021
6485 Clouds 2 1017 87 10000 1.54 80 06:43 08.03.2021
6486 Clouds 2 1017 93 10000 1.03 0 03:38 08.03.2021
6487 Clouds 3 1018 93 10000 0.51 0 00:44 08.03.2021
6488 Clouds 2 1018 87 10000 1.23 227 23:57 07.03.2021
6489 Rain 2 1018 87 10000 1.23 227 23:37 07.03.2021
6490 Clouds 3 1018 81 10000 1.03 0 23:18 07.03.2021
6491 Clouds 3 1018 81 10000 1.54 340 22:42 07.03.2021
6492 Clouds 3 1018 81 10000 2.06 160 22:23 07.03.2021
6493 Rain 4 1018 75 10000 1.03 130 21:44 07.03.2021
6494 Rain 5 1018 70 10000 1.03 0 21:25 07.03.2021
6495 Rain 5 1018 65 10000 1.03 0 20:48 07.03.2021
6496 Clouds 5 1018 65 10000 1.54 350 20:30 07.03.2021
6497 Clouds 5 1017 65 10000 1.54 0 19:57 07.03.2021
6498 Clouds 5 1017 61 10000 2.57 340 19:38 07.03.2021
6499 Clouds 5 1017 61 10000 2.57 340 19:20 07.03.2021
6500 Rain 6 1017 57 10000 3.09 260 18:42 07.03.2021
6501 Clouds 7 1016 50 10000 9.26 270 18:19 07.03.2021
6502 Clouds 7 1016 50 10000 1.54 160 17:40 07.03.2021
6503 Clouds 8 1016 37 10000 1.03 0 17:20 07.03.2021
6504 Clouds 9 1016 32 10000 1.54 160 16:56 07.03.2021
6505 Clouds 9 1016 32 10000 1.54 160 16:37 07.03.2021
6506 Clouds 9 1017 32 10000 1.54 0 16:18 07.03.2021
6507 Clouds 10 1017 30 10000 1.03 0 15:42 07.03.2021
6508 Clouds 11 1017 30 10000 1.03 0 15:21 07.03.2021
6509 Clouds 10 1019 32 10000 1.03 0 14:30 07.03.2021
6510 Clouds 10 1019 34 10000 1.54 140 13:59 07.03.2021
6511 Clouds 10 1019 34 10000 1.54 140 13:40 07.03.2021
6512 Clouds 9 1020 34 10000 1.54 0 13:20 07.03.2021
6513 Clouds 8 1021 37 10000 1.54 0 12:44 07.03.2021
6514 Clouds 7 1022 39 10000 1.54 0 12:24 07.03.2021
6515 Clouds 6 1022 45 10000 1.54 220 11:41 07.03.2021
6516 Clouds 5 1023 52 10000 1.54 210 11:21 07.03.2021
6517 Clouds 4 1023 56 10000 1.03 0 10:39 07.03.2021
6518 Clouds 3 1024 65 10000 2.06 230 10:21 07.03.2021
6519 Clouds 1 1024 75 10000 2.06 260 09:41 07.03.2021
6520 Clouds 1 1025 80 10000 2.06 270 09:21 07.03.2021
6521 Clouds -2 1025 86 10000 1.03 0 08:45 07.03.2021
6522 Clouds -2 1025 86 10000 1.54 270 08:23 07.03.2021
6523 Clouds -3 1025 93 10000 1.03 0 07:25 07.03.2021
6524 Clear -2 1026 80 10000 2.57 260 02:41 07.03.2021
6525 Clear -1 1027 80 10000 1.03 0 00:51 07.03.2021
6526 Clear -1 1027 80 10000 1.03 0 23:45 06.03.2021
6527 Clear -1 1027 80 10000 1.03 0 23:24 06.03.2021
6528 Clear -1 1027 80 10000 1.03 0 22:48 06.03.2021
6529 Clear 0 1027 80 10000 1.03 260 22:28 06.03.2021
6530 Clear 0 1027 74 10000 1.03 0 21:58 06.03.2021
6531 Clear 0 1027 74 10000 0.51 0 21:22 06.03.2021
6532 Clear 1 1027 75 10000 0.51 0 20:52 06.03.2021
6533 Clear 2 1027 69 10000 0.51 0 20:27 06.03.2021
6534 Clear 1 1027 69 10000 0.51 0 19:49 06.03.2021
6535 Clear 2 1026 65 10000 1.03 0 19:22 06.03.2021
6536 Clear 3 1026 52 10000 2.57 40 18:54 06.03.2021
6537 Clear 3 1026 52 10000 2.57 40 18:36 06.03.2021
6538 Clouds 4 1025 49 10000 3.6 50 18:18 06.03.2021
6539 Clouds 8 1025 39 10000 3.09 60 17:42 06.03.2021
6540 Clouds 6 1025 42 10000 3.09 60 17:21 06.03.2021
6541 Clouds 7 1025 40 10000 2.06 120 16:42 06.03.2021
6542 Clouds 7 1025 42 10000 2.57 120 16:24 06.03.2021
6543 Clouds 7 1025 46 10000 3.09 90 15:47 06.03.2021
6544 Clouds 7 1026 42 10000 3.09 100 15:29 06.03.2021
6545 Clouds 7 1026 42 10000 3.09 120 14:51 06.03.2021
6546 Clouds 7 1027 49 10000 3.6 140 14:28 06.03.2021
6547 Clouds 6 1027 45 10000 2.57 130 13:40 06.03.2021
6548 Clouds 6 1027 49 10000 2.57 130 13:20 06.03.2021
6549 Clouds 5 1028 52 10000 2.57 130 12:44 06.03.2021
6550 Clouds 5 1028 56 10000 2.57 140 12:20 06.03.2021
6551 Clouds 4 1028 56 10000 2.06 140 11:55 06.03.2021
6552 Clouds 3 1029 56 10000 2.57 120 11:22 06.03.2021
6553 Clouds 2 1029 65 10000 1.54 0 10:49 06.03.2021
6554 Clouds 2 1029 65 10000 2.06 160 10:24 06.03.2021
6555 Clouds 1 1029 69 10000 2.06 80 09:47 06.03.2021
6556 Clouds 0 1029 75 10000 1.54 120 09:20 06.03.2021
6557 Clouds -1 1029 80 10000 2.57 60 08:46 06.03.2021
6558 Clouds -1 1029 86 10000 2.57 60 07:59 06.03.2021
6559 Clouds -1 1029 86 10000 2.57 60 07:41 06.03.2021
6560 Clouds -1 1028 86 10000 1.54 110 07:20 06.03.2021
6561 Clouds 0 1028 74 10000 3.6 90 05:38 06.03.2021
6562 Clouds 0 1028 75 10000 2.06 70 02:39 06.03.2021
6563 Clouds 0 1027 80 10000 2.06 80 01:20 06.03.2021
6564 Clouds 1 1027 75 10000 3.09 80 00:36 06.03.2021
6565 Clouds 1 1026 80 10000 2.06 100 23:31 05.03.2021
6566 Clouds 1 1026 87 10000 1.54 80 22:49 05.03.2021
6567 Snow 1 1026 87 10000 0.51 0 22:25 05.03.2021
6568 Snow 1 1025 87 10000 2.06 240 21:57 05.03.2021
6569 Snow 1 1025 87 10000 2.06 240 21:39 05.03.2021
6570 Snow 1 1025 93 10000 3.6 280 20:59 05.03.2021
6571 Snow 1 1025 93 10000 3.6 280 20:41 05.03.2021
6572 Snow 2 1024 87 10000 2.06 260 20:23 05.03.2021
6573 Clouds 2 1024 87 10000 2.06 290 19:44 05.03.2021
6574 Clouds 2 1023 81 10000 1.54 200 19:22 05.03.2021
6575 Clouds 2 1023 81 10000 2.06 160 18:44 05.03.2021
6576 Clouds 3 1022 75 10000 2.06 140 18:25 05.03.2021
6577 Rain 3 1021 75 10000 3.6 100 17:43 05.03.2021
6578 Clouds 3 1021 70 10000 2.57 90 17:24 05.03.2021
6579 Clouds 4 1020 75 10000 3.09 90 16:41 05.03.2021
6580 Clouds 5 1020 70 10000 3.6 100 16:23 05.03.2021
6581 Clouds 5 1020 70 10000 3.6 90 15:53 05.03.2021
6582 Clouds 5 1019 75 10000 4.12 100 15:26 05.03.2021
6583 Clouds 5 1019 75 10000 5.14 70 14:43 05.03.2021
6584 Clouds 5 1019 81 10000 7.2 70 14:21 05.03.2021
6585 Rain 6 1018 81 10000 5.14 70 13:43 05.03.2021
6586 Clouds 6 1018 81 10000 3.6 70 13:21 05.03.2021
6587 Clouds 6 1018 81 10000 3.09 80 12:42 05.03.2021
6588 Rain 6 1018 81 10000 2.06 40 11:39 05.03.2021
6589 Rain 5 1018 87 10000 1.03 0 11:19 05.03.2021
6590 Rain 5 1018 87 10000 1.03 0 10:43 05.03.2021
6591 Rain 5 1018 87 10000 1.54 270 10:24 05.03.2021
6592 Rain 5 1017 81 10000 0.51 0 09:54 05.03.2021
6593 Rain 5 1017 87 10000 1.54 50 09:29 05.03.2021
6594 Clouds 5 1017 87 10000 0.51 0 08:57 05.03.2021
6595 Clouds 5 1017 87 10000 0.51 0 08:38 05.03.2021
6596 Clouds 5 1017 87 10000 0.51 0 08:38 05.03.2021
6597 Clouds 4 1017 93 10000 1.03 0 08:20 05.03.2021
6598 Rain 4 1017 93 10000 1.03 210 07:30 05.03.2021
6599 Clouds 4 1017 93 8000 0.51 0 06:34 05.03.2021
6600 Clouds 4 1017 93 10000 0.51 0 05:41 05.03.2021
6601 Clouds 5 1015 70 10000 0.51 0 00:59 05.03.2021
6602 Clouds 6 1015 70 10000 1.03 0 23:54 04.03.2021
6603 Clouds 5 1015 70 10000 1.03 0 23:24 04.03.2021
6604 Clouds 6 1016 70 10000 1.03 0 22:29 04.03.2021
6605 Rain 6 1016 65 10000 1.03 0 21:53 04.03.2021
6606 Clouds 5 1016 65 10000 1.03 0 21:32 04.03.2021
6607 Clouds 6 1016 65 10000 1.03 170 20:58 04.03.2021
6608 Clouds 6 1016 65 10000 1.03 170 20:39 04.03.2021
6609 Clouds 7 1016 57 10000 1.03 150 20:20 04.03.2021
6610 Clouds 7 1016 57 10000 1.03 150 20:20 04.03.2021
6611 Rain 7 1016 61 10000 1.03 0 19:49 04.03.2021
6612 Clouds 8 1016 57 10000 0.51 0 19:23 04.03.2021
6613 Clouds 9 1016 53 10000 0.51 0 18:50 04.03.2021
6614 Clouds 9 1016 53 10000 0.51 0 18:29 04.03.2021
6615 Clouds 10 1016 50 10000 1.03 0 17:47 04.03.2021
6616 Clouds 11 1016 40 10000 1.54 190 17:29 04.03.2021
6617 Clouds 12 1016 32 10000 1.54 100 16:50 04.03.2021
6618 Clouds 12 1016 32 10000 1.54 90 16:31 04.03.2021
6619 Clouds 12 1017 32 10000 1.54 100 15:56 04.03.2021
6620 Clouds 11 1017 32 10000 1.54 100 15:34 04.03.2021
6621 Clouds 11 1018 32 10000 1.03 0 14:53 04.03.2021
6622 Clouds 11 1018 37 10000 0.51 0 14:31 04.03.2021
6623 Clouds 10 1019 40 10000 0.51 0 13:51 04.03.2021
6624 Clouds 10 1019 40 10000 0.51 0 13:33 04.03.2021
6625 Clouds 8 1020 49 10000 1.03 0 12:58 04.03.2021
6626 Clouds 7 1020 49 10000 1.03 0 12:39 04.03.2021
6627 Clouds 6 1021 56 10000 1.03 0 11:48 04.03.2021
6628 Clouds 7 1022 61 10000 0.51 0 11:27 04.03.2021
6629 Clouds 6 1022 65 10000 1.03 0 10:55 04.03.2021
6630 Clear 4 1023 70 10000 0.51 0 10:31 04.03.2021
6631 Clear 4 1023 75 10000 2.06 250 09:47 04.03.2021
6632 Clear 4 1023 80 10000 0.51 0 09:23 04.03.2021
6633 Clear 3 1023 86 10000 1.03 250 08:36 04.03.2021
6634 Clouds 2 1024 86 10000 1.54 250 07:54 04.03.2021
6635 Clear 2 1024 86 10000 0.51 0 07:31 04.03.2021
6636 Clear 1 1024 86 10000 1.03 0 06:25 04.03.2021
6637 Clouds 2 1024 86 10000 1.03 310 05:39 04.03.2021
6638 Clouds 3 1026 75 10000 1.03 0 01:44 04.03.2021
6639 Clear 4 1027 75 10000 0.51 0 22:56 03.03.2021
6640 Clear 3 1027 70 10000 0.51 0 22:28 03.03.2021
6641 Clear 4 1027 70 10000 0.51 0 21:45 03.03.2021
6642 Clear 4 1028 70 10000 1.03 260 21:25 03.03.2021
6643 Clear 4 1028 70 10000 0.51 0 20:59 03.03.2021
6644 Clear 4 1028 70 10000 0.51 0 20:41 03.03.2021
6645 Clear 5 1028 56 10000 1.03 0 20:19 03.03.2021
6646 Clear 5 1028 56 10000 1.03 0 20:19 03.03.2021
6647 Clear 6 1028 61 10000 0.51 0 19:42 03.03.2021
6648 Clear 6 1028 61 10000 0.51 0 19:23 03.03.2021
6649 Clear 6 1028 61 10000 1.03 160 18:48 03.03.2021
6650 Clear 8 1027 53 10000 0.51 0 18:26 03.03.2021
6651 Clear 9 1027 57 10000 1.03 0 17:54 03.03.2021
6652 Clear 11 1027 43 10000 0.51 0 17:19 03.03.2021
6653 Clear 11 1028 32 10000 0.51 0 16:44 03.03.2021
6654 Clear 12 1028 32 10000 0.51 0 16:24 03.03.2021
6655 Clear 12 1028 30 10000 0.51 0 15:35 03.03.2021
6656 Clear 12 1029 32 10000 1.54 270 14:59 03.03.2021
6657 Clear 12 1029 30 10000 1.03 0 14:31 03.03.2021
6658 Clear 11 1030 37 10000 0.51 0 13:53 03.03.2021
6659 Clear 11 1030 37 10000 0.51 0 13:33 03.03.2021
6660 Clear 10 1031 34 10000 2.57 250 12:58 03.03.2021
6661 Clear 9 1031 34 10000 2.57 250 12:39 03.03.2021
6662 Clear 9 1031 43 10000 2.57 270 12:19 03.03.2021
6663 Clear 7 1031 42 10000 3.09 270 11:42 03.03.2021
6664 Clear 7 1032 49 10000 3.09 270 11:21 03.03.2021
6665 Clear 6 1032 52 10000 2.06 270 10:41 03.03.2021
6666 Clear 5 1032 60 10000 1.03 0 10:19 03.03.2021
6667 Clear 4 1033 70 10000 1.54 250 09:40 03.03.2021
6668 Clear 2 1033 75 10000 1.03 0 08:46 03.03.2021
6669 Clear 2 1033 80 10000 1.54 220 08:23 03.03.2021
6670 Clear 1 1033 80 10000 1.03 260 07:52 03.03.2021
6671 Clear 0 1033 86 10000 1.03 0 06:52 03.03.2021
6672 Clouds 0 1033 86 10000 1.54 250 05:49 03.03.2021
6673 Clouds 0 1033 86 10000 1.03 230 04:59 03.03.2021
6674 Clouds 1 1033 86 10000 1.03 230 04:35 03.03.2021
6675 Clouds 1 1033 80 10000 1.54 190 03:52 03.03.2021
6676 Clear 2 1033 75 10000 1.54 280 00:18 03.03.2021
6677 Clear 3 1033 69 10000 0.51 0 23:31 02.03.2021
6678 Clear 3 1033 75 10000 0.51 0 22:43 02.03.2021
6679 Clear 4 1033 65 10000 1.03 260 22:20 02.03.2021
6680 Clear 5 1032 60 10000 1.03 240<